Wetterdaten: Donnerstag, 16.03.2017
Datum Zeit Temp. A. Temp. A. max Feuchte A. Luftdruck Regen Wind Richtung Richtung Sonnenschein ET UV Solar Taupunkt Windchill Windböen
16.03.2017 00:00 1,7 °C 1,7 °C 93 % 1029,4 hPa 0,0 mm 0,0 km/h (0 Bft) SO 142 ° 0 min 0,000 mm 0,0 UV-I 0 W/m² 0,7 °C 1,7 °C 0,0 km/h (0 Bft)
16.03.2017 00:01 1,6 °C 1,7 °C 92 % 1029,3 hPa 0,0 mm 0,0 km/h (0 Bft) SO 142 ° 0 min 0,000 mm 0,0 UV-I 0 W/m² 0,4 °C 1,6 °C 0,0 km/h (0 Bft)
16.03.2017 00:02 1,6 °C 1,6 °C 91 % 1029,3 hPa 0,0 mm 0,0 km/h (0 Bft) SO 142 ° 0 min 0,000 mm 0,0 UV-I 0 W/m² 0,3 °C 1,6 °C 0,0 km/h (0 Bft)
16.03.2017 00:03 1,4 °C 1,6 °C 91 % 1029,4 hPa 0,0 mm 1,9 km/h (1 Bft) SO 142 ° 0 min 0,000 mm 0,0 UV-I 0 W/m² 0,1 °C 1,4 °C 3,2 km/h (1 Bft)
16.03.2017 00:04 1,3 °C 1,4 °C 91 % 1029,4 hPa 0,0 mm 1,8 km/h (1 Bft) SO 142 ° 0 min 0,000 mm 0,0 UV-I 0 W/m² -0,0 °C 1,3 °C 3,2 km/h (1 Bft)
16.03.2017 00:05 1,1 °C 1,3 °C 90 % 1029,4 hPa 0,0 mm 0,3 km/h (0 Bft) SO 142 ° 0 min 0,000 mm 0,0 UV-I 0 W/m² -0,4 °C 1,1 °C 1,6 km/h (1 Bft)
16.03.2017 00:06 1,1 °C 1,1 °C 90 % 1029,4 hPa 0,0 mm 0,0 km/h (0 Bft) SO 142 ° 0 min 0,000 mm 0,0 UV-I 0 W/m² -0,4 °C 1,1 °C 0,0 km/h (0 Bft)
16.03.2017 00:07 1,1 °C 1,1 °C 92 % 1029,4 hPa 0,0 mm 0,1 km/h (0 Bft) SO 142 ° 0 min 0,000 mm 0,0 UV-I 0 W/m² -0,1 °C 1,1 °C 1,6 km/h (1 Bft)
16.03.2017 00:08 1,2 °C 1,2 °C 92 % 1029,4 hPa 0,0 mm 1,1 km/h (1 Bft) SO 142 ° 0 min 0,000 mm 0,0 UV-I 0 W/m² 0,0 °C 1,2 °C 1,6 km/h (1 Bft)
16.03.2017 00:09 1,2 °C 1,2 °C 92 % 1029,3 hPa 0,0 mm 1,4 km/h (1 Bft) SO 142 ° 0 min 0,000 mm 0,0 UV-I 0 W/m² 0,0 °C 1,2 °C 3,2 km/h (1 Bft)
16.03.2017 00:10 1,3 °C 1,3 °C 92 % 1029,2 hPa 0,0 mm 0,0 km/h (0 Bft) SO 142 ° 0 min 0,000 mm 0,0 UV-I 0 W/m² 0,1 °C 1,3 °C 0,0 km/h (0 Bft)
16.03.2017 00:11 1,3 °C 1,3 °C 92 % 1029,3 hPa 0,0 mm 0,3 km/h (0 Bft) SO 142 ° 0 min 0,000 mm 0,0 UV-I 0 W/m² 0,1 °C 1,3 °C 1,6 km/h (1 Bft)
16.03.2017 00:12 1,4 °C 1,4 °C 93 % 1029,3 hPa 0,0 mm 0,0 km/h (0 Bft) SO 142 ° 0 min 0,000 mm 0,0 UV-I 0 W/m² 0,4 °C 1,4 °C 0,0 km/h (0 Bft)
16.03.2017 00:13 1,6 °C 1,6 °C 92 % 1029,3 hPa 0,0 mm 0,0 km/h (0 Bft) SO 142 ° 0 min 0,000 mm 0,0 UV-I 0 W/m² 0,4 °C 1,6 °C 0,0 km/h (0 Bft)
16.03.2017 00:14 1,7 °C 1,7 °C 93 % 1029,3 hPa 0,0 mm 1,3 km/h (1 Bft) SO 142 ° 0 min 0,000 mm 0,0 UV-I 0 W/m² 0,7 °C 1,7 °C 3,2 km/h (1 Bft)
16.03.2017 00:15 1,8 °C 1,8 °C 92 % 1029,2 hPa 0,0 mm 2,8 km/h (1 Bft) SO 142 ° 0 min 0,000 mm 0,0 UV-I 0 W/m² 0,6 °C 1,8 °C 3,2 km/h (1 Bft)
16.03.2017 00:16 1,8 °C 1,8 °C 92 % 1029,2 hPa 0,0 mm 4,3 km/h (1 Bft) SO 143 ° 0 min 0,000 mm 0,0 UV-I 0 W/m² 0,6 °C 1,8 °C 4,8 km/h (1 Bft)
16.03.2017 00:17 1,9 °C 1,9 °C 92 % 1029,2 hPa 0,0 mm 4,0 km/h (1 Bft) SO 143 ° 0 min 0,000 mm 0,0 UV-I 0 W/m² 0,7 °C 1,9 °C 4,8 km/h (1 Bft)
16.03.2017 00:18 1,9 °C 1,9 °C 91 % 1029,3 hPa 0,0 mm 3,7 km/h (1 Bft) SO 143 ° 0 min 0,000 mm 0,0 UV-I 0 W/m² 0,6 °C 1,9 °C 4,8 km/h (1 Bft)
16.03.2017 00:19 1,8 °C 1,9 °C 91 % 1029,2 hPa 0,0 mm 3,8 km/h (1 Bft) SO 143 ° 0 min 0,000 mm 0,0 UV-I 0 W/m² 0,5 °C 1,8 °C 4,8 km/h (1 Bft)
16.03.2017 00:20 1,8 °C 1,8 °C 91 % 1029,2 hPa 0,0 mm 5,0 km/h (1 Bft) S-SW 194 ° 0 min 0,000 mm 0,0 UV-I 0 W/m² 0,5 °C 0,5 °C 6,4 km/h (2 Bft)
16.03.2017 00:21 1,8 °C 1,8 °C 91 % 1029,2 hPa 0,0 mm 1,2 km/h (1 Bft) S-SW 193 ° 0 min 0,000 mm 0,0 UV-I 0 W/m² 0,5 °C 1,8 °C 6,4 km/h (2 Bft)
16.03.2017 00:22 1,8 °C 1,8 °C 91 % 1029,2 hPa 0,0 mm 0,0 km/h (0 Bft) S-SW 193 ° 0 min 0,000 mm 0,0 UV-I 0 W/m² 0,5 °C 1,8 °C 0,0 km/h (0 Bft)
16.03.2017 00:23 1,7 °C 1,8 °C 91 % 1029,2 hPa 0,0 mm 0,0 km/h (0 Bft) S-SW 193 ° 0 min 0,000 mm 0,0 UV-I 0 W/m² 0,4 °C 1,7 °C 0,0 km/h (0 Bft)
16.03.2017 00:24 1,4 °C 1,7 °C 89 % 1029,2 hPa 0,0 mm 0,0 km/h (0 Bft) S-SW 193 ° 0 min 0,000 mm 0,0 UV-I 0 W/m² -0,2 °C 1,4 °C 0,0 km/h (0 Bft)
16.03.2017 00:25 1,2 °C 1,4 °C 89 % 1029,1 hPa 0,0 mm 0,0 km/h (0 Bft) S-SW 193 ° 0 min 0,000 mm 0,0 UV-I 0 W/m² -0,4 °C 1,2 °C 0,0 km/h (0 Bft)
16.03.2017 00:26 1,2 °C 1,2 °C 90 % 1029,2 hPa 0,0 mm 0,0 km/h (0 Bft) S-SW 193 ° 0 min 0,000 mm 0,0 UV-I 0 W/m² -0,3 °C 1,2 °C 0,0 km/h (0 Bft)
16.03.2017 00:27 1,2 °C 1,2 °C 91 % 1029,2 hPa 0,0 mm 0,0 km/h (0 Bft) S-SW 193 ° 0 min 0,000 mm 0,0 UV-I 0 W/m² -0,1 °C 1,2 °C 0,0 km/h (0 Bft)
16.03.2017 00:28 1,1 °C 1,2 °C 91 % 1029,1 hPa 0,0 mm 0,0 km/h (0 Bft) S-SW 193 ° 0 min 0,000 mm 0,0 UV-I 0 W/m² -0,2 °C 1,1 °C 0,0 km/h (0 Bft)
16.03.2017 00:29 1,1 °C 1,1 °C 91 % 1029,1 hPa 0,0 mm 0,0 km/h (0 Bft) S-SW 193 ° 0 min 0,000 mm 0,0 UV-I 0 W/m² -0,2 °C 1,1 °C 0,0 km/h (0 Bft)
16.03.2017 00:30 0,9 °C 1,1 °C 90 % 1029,1 hPa 0,0 mm 0,0 km/h (0 Bft) S-SW 193 ° 0 min 0,000 mm 0,0 UV-I 0 W/m² -0,6 °C 0,9 °C 0,0 km/h (0 Bft)
16.03.2017 00:31 0,8 °C 0,9 °C 90 % 1029,1 hPa 0,0 mm 0,0 km/h (0 Bft) S-SW 193 ° 0 min 0,000 mm 0,0 UV-I 0 W/m² -0,6 °C 0,8 °C 0,0 km/h (0 Bft)
16.03.2017 00:32 0,8 °C 0,8 °C 91 % 1029,1 hPa 0,0 mm 0,0 km/h (0 Bft) S-SW 193 ° 0 min 0,000 mm 0,0 UV-I 0 W/m² -0,5 °C 0,8 °C 0,0 km/h (0 Bft)
16.03.2017 00:33 0,7 °C 0,8 °C 91 % 1029,1 hPa 0,0 mm 0,0 km/h (0 Bft) S-SW 193 ° 0 min 0,000 mm 0,0 UV-I 0 W/m² -0,6 °C 0,7 °C 0,0 km/h (0 Bft)
16.03.2017 00:34 0,7 °C 0,7 °C 91 % 1029,1 hPa 0,0 mm 0,0 km/h (0 Bft) S-SW 193 ° 0 min 0,000 mm 0,0 UV-I 0 W/m² -0,6 °C 0,7 °C 0,0 km/h (0 Bft)
16.03.2017 00:35 0,7 °C 0,7 °C 91 % 1029,1 hPa 0,0 mm 0,0 km/h (0 Bft) S-SW 193 ° 0 min 0,000 mm 0,0 UV-I 0 W/m² -0,6 °C 0,7 °C 0,0 km/h (0 Bft)
16.03.2017 00:36 0,6 °C 0,7 °C 91 % 1029,1 hPa 0,0 mm 0,0 km/h (0 Bft) S-SW 193 ° 0 min 0,000 mm 0,0 UV-I 0 W/m² -0,7 °C 0,6 °C 0,0 km/h (0 Bft)
16.03.2017 00:37 0,5 °C 0,6 °C 91 % 1029,0 hPa 0,0 mm 0,0 km/h (0 Bft) S-SW 193 ° 0 min 0,000 mm 0,0 UV-I 0 W/m² -0,8 °C 0,5 °C 0,0 km/h (0 Bft)
16.03.2017 00:38 0,4 °C 0,6 °C 91 % 1029,0 hPa 0,0 mm 0,0 km/h (0 Bft) S-SW 193 ° 0 min 0,000 mm 0,0 UV-I 0 W/m² -0,9 °C 0,4 °C 0,0 km/h (0 Bft)
16.03.2017 00:39 0,3 °C 0,4 °C 91 % 1029,0 hPa 0,0 mm 0,0 km/h (0 Bft) S-SW 193 ° 0 min 0,000 mm 0,0 UV-I 0 W/m² -1,0 °C 0,3 °C 0,0 km/h (0 Bft)
16.03.2017 00:40 0,2 °C 0,3 °C 91 % 1029,0 hPa 0,0 mm 0,0 km/h (0 Bft) S-SW 193 ° 0 min 0,000 mm 0,0 UV-I 0 W/m² -1,1 °C 0,2 °C 0,0 km/h (0 Bft)
16.03.2017 00:41 0,1 °C 0,2 °C 91 % 1029,0 hPa 0,0 mm 0,0 km/h (0 Bft) S-SW 193 ° 0 min 0,000 mm 0,0 UV-I 0 W/m² -1,2 °C 0,1 °C 0,0 km/h (0 Bft)
16.03.2017 00:42 0,1 °C 0,1 °C 92 % 1029,0 hPa 0,0 mm 0,0 km/h (0 Bft) S-SW 193 ° 0 min 0,000 mm 0,0 UV-I 0 W/m² -1,0 °C 0,1 °C 0,0 km/h (0 Bft)
16.03.2017 00:43 0,1 °C 0,1 °C 92 % 1028,9 hPa 0,0 mm 0,3 km/h (0 Bft) S-SW 193 ° 0 min 0,000 mm 0,0 UV-I 0 W/m² -1,0 °C 0,1 °C 1,6 km/h (1 Bft)
16.03.2017 00:44 0,2 °C 0,2 °C 92 % 1028,9 hPa 0,0 mm 0,6 km/h (0 Bft) S-SW 193 ° 0 min 0,000 mm 0,0 UV-I 0 W/m² -0,9 °C 0,2 °C 1,6 km/h (1 Bft)
16.03.2017 00:45 0,2 °C 0,2 °C 92 % 1028,9 hPa 0,0 mm 0,1 km/h (0 Bft) S-SW 193 ° 0 min 0,000 mm 0,0 UV-I 0 W/m² -0,9 °C 0,2 °C 1,6 km/h (1 Bft)
16.03.2017 00:46 0,2 °C 0,2 °C 92 % 1028,9 hPa 0,0 mm 0,3 km/h (0 Bft) S-SW 193 ° 0 min 0,000 mm 0,0 UV-I 0 W/m² -0,9 °C 0,2 °C 1,6 km/h (1 Bft)
16.03.2017 00:47 0,1 °C 0,2 °C 92 % 1028,9 hPa 0,0 mm 0,0 km/h (0 Bft) S-SW 193 ° 0 min 0,000 mm 0,0 UV-I 0 W/m² -1,0 °C 0,1 °C 0,0 km/h (0 Bft)
16.03.2017 00:48 0,1 °C 0,1 °C 92 % 1028,9 hPa 0,0 mm 0,0 km/h (0 Bft) S-SW 193 ° 0 min 0,000 mm 0,0 UV-I 0 W/m² -1,0 °C 0,1 °C 0,0 km/h (0 Bft)
16.03.2017 00:49 0,2 °C 0,2 °C 92 % 1028,9 hPa 0,0 mm 0,0 km/h (0 Bft) S-SW 193 ° 0 min 0,000 mm 0,0 UV-I 0 W/m² -0,9 °C 0,2 °C 0,0 km/h (0 Bft)
16.03.2017 00:50 0,2 °C 0,2 °C 93 % 1028,9 hPa 0,0 mm 0,0 km/h (0 Bft) S-SW 193 ° 0 min 0,000 mm 0,0 UV-I 0 W/m² -0,8 °C 0,2 °C 0,0 km/h (0 Bft)
16.03.2017 00:51 0,2 °C 0,2 °C 92 % 1028,9 hPa 0,0 mm 0,0 km/h (0 Bft) S-SW 193 ° 0 min 0,000 mm 0,0 UV-I 0 W/m² -0,9 °C 0,2 °C 0,0 km/h (0 Bft)
16.03.2017 00:52 0,1 °C 0,2 °C 92 % 1028,9 hPa 0,0 mm 0,0 km/h (0 Bft) S-SW 193 ° 0 min 0,000 mm 0,0 UV-I 0 W/m² -1,0 °C 0,1 °C 0,0 km/h (0 Bft)
16.03.2017 00:53 0,1 °C 0,2 °C 92 % 1028,9 hPa 0,0 mm 0,0 km/h (0 Bft) S-SW 193 ° 0 min 0,000 mm 0,0 UV-I 0 W/m² -1,0 °C 0,1 °C 0,0 km/h (0 Bft)
16.03.2017 00:54 0,1 °C 0,1 °C 92 % 1028,9 hPa 0,0 mm 0,0 km/h (0 Bft) S-SW 193 ° 0 min 0,000 mm 0,0 UV-I 0 W/m² -1,0 °C 0,1 °C 0,0 km/h (0 Bft)
16.03.2017 00:55 0,1 °C 0,1 °C 92 % 1028,9 hPa 0,0 mm 0,0 km/h (0 Bft) S-SW 193 ° 0 min 0,000 mm 0,0 UV-I 0 W/m² -1,0 °C 0,1 °C 0,0 km/h (0 Bft)
16.03.2017 00:56 0,2 °C 0,2 °C 93 % 1028,9 hPa 0,0 mm 0,0 km/h (0 Bft) S-SW 193 ° 0 min 0,000 mm 0,0 UV-I 0 W/m² -0,8 °C 0,2 °C 0,0 km/h (0 Bft)
16.03.2017 00:57 0,2 °C 0,2 °C 93 % 1028,9 hPa 0,0 mm 0,0 km/h (0 Bft) S-SW 193 ° 0 min 0,000 mm 0,0 UV-I 0 W/m² -0,8 °C 0,2 °C 0,0 km/h (0 Bft)
16.03.2017 00:58 0,2 °C 0,2 °C 93 % 1028,9 hPa 0,0 mm 0,0 km/h (0 Bft) S-SW 193 ° 0 min 0,000 mm 0,0 UV-I 0 W/m² -0,8 °C 0,2 °C 0,0 km/h (0 Bft)
16.03.2017 00:59 0,2 °C 0,2 °C 92 % 1028,9 hPa 0,0 mm 1,3 km/h (1 Bft) S-SW 193 ° 0 min 0,000 mm 0,0 UV-I 0 W/m² -0,9 °C 0,2 °C 3,2 km/h (1 Bft)
16.03.2017 01:00 0,2 °C 0,2 °C 93 % 1028,9 hPa 0,0 mm 2,3 km/h (1 Bft) S-SW 193 ° 0 min 0,000 mm 0,0 UV-I 0 W/m² -0,8 °C 0,2 °C 3,2 km/h (1 Bft)
16.03.2017 01:01 0,2 °C 0,2 °C 93 % 1028,9 hPa 0,0 mm 2,3 km/h (1 Bft) S-SW 193 ° 0 min 0,000 mm 0,0 UV-I 0 W/m² -0,8 °C 0,2 °C 3,2 km/h (1 Bft)
16.03.2017 01:02 0,1 °C 0,2 °C 92 % 1028,9 hPa 0,0 mm 2,0 km/h (1 Bft) S-SW 193 ° 0 min 0,000 mm 0,0 UV-I 0 W/m² -1,0 °C 0,1 °C 3,2 km/h (1 Bft)
16.03.2017 01:03 0,1 °C 0,1 °C 93 % 1028,9 hPa 0,0 mm 1,8 km/h (1 Bft) S-SW 193 ° 0 min 0,000 mm 0,0 UV-I 0 W/m² -0,9 °C 0,1 °C 3,2 km/h (1 Bft)
16.03.2017 01:04 0,2 °C 0,2 °C 93 % 1028,9 hPa 0,0 mm 0,3 km/h (0 Bft) S-SW 193 ° 0 min 0,000 mm 0,0 UV-I 0 W/m² -0,8 °C 0,2 °C 1,6 km/h (1 Bft)
16.03.2017 01:05 0,2 °C 0,2 °C 93 % 1028,9 hPa 0,0 mm 0,0 km/h (0 Bft) S-SW 193 ° 0 min 0,000 mm 0,0 UV-I 0 W/m² -0,8 °C 0,2 °C 0,0 km/h (0 Bft)
16.03.2017 01:06 0,3 °C 0,3 °C 93 % 1028,9 hPa 0,0 mm 0,0 km/h (0 Bft) S-SW 193 ° 0 min 0,000 mm 0,0 UV-I 0 W/m² -0,7 °C 0,3 °C 0,0 km/h (0 Bft)
16.03.2017 01:07 0,3 °C 0,3 °C 93 % 1028,9 hPa 0,0 mm 0,0 km/h (0 Bft) S-SW 193 ° 0 min 0,000 mm 0,0 UV-I 0 W/m² -0,7 °C 0,3 °C 0,0 km/h (0 Bft)
16.03.2017 01:08 0,4 °C 0,4 °C 93 % 1028,8 hPa 0,0 mm 0,0 km/h (0 Bft) S-SW 193 ° 0 min 0,000 mm 0,0 UV-I 0 W/m² -0,6 °C 0,4 °C 0,0 km/h (0 Bft)
16.03.2017 01:09 0,4 °C 0,4 °C 93 % 1028,8 hPa 0,0 mm 0,0 km/h (0 Bft) S-SW 193 ° 0 min 0,000 mm 0,0 UV-I 0 W/m² -0,6 °C 0,4 °C 0,0 km/h (0 Bft)
16.03.2017 01:10 0,6 °C 0,6 °C 93 % 1028,8 hPa 0,0 mm 0,1 km/h (0 Bft) S-SW 193 ° 0 min 0,000 mm 0,0 UV-I 0 W/m² -0,4 °C 0,6 °C 1,6 km/h (1 Bft)
16.03.2017 01:11 0,7 °C 0,7 °C 94 % 1028,8 hPa 0,0 mm 0,1 km/h (0 Bft) S-SW 193 ° 0 min 0,000 mm 0,0 UV-I 0 W/m² -0,2 °C 0,7 °C 1,6 km/h (1 Bft)
16.03.2017 01:12 0,5 °C 0,7 °C 93 % 1028,8 hPa 0,0 mm 1,1 km/h (1 Bft) S-SW 193 ° 0 min 0,000 mm 0,0 UV-I 0 W/m² -0,5 °C 0,5 °C 1,6 km/h (1 Bft)
16.03.2017 01:13 0,4 °C 0,5 °C 93 % 1028,8 hPa 0,0 mm 0,8 km/h (0 Bft) S-SW 193 ° 0 min 0,000 mm 0,0 UV-I 0 W/m² -0,6 °C 0,4 °C 1,6 km/h (1 Bft)
16.03.2017 01:14 0,4 °C 0,4 °C 93 % 1028,8 hPa 0,0 mm 0,1 km/h (0 Bft) S-SW 193 ° 0 min 0,000 mm 0,0 UV-I 0 W/m² -0,6 °C 0,4 °C 1,6 km/h (1 Bft)
16.03.2017 01:15 0,3 °C 0,4 °C 93 % 1028,8 hPa 0,0 mm 0,1 km/h (0 Bft) S-SW 193 ° 0 min 0,000 mm 0,0 UV-I 0 W/m² -0,7 °C 0,3 °C 1,6 km/h (1 Bft)
16.03.2017 01:16 0,3 °C 0,3 °C 93 % 1028,8 hPa 0,0 mm 0,0 km/h (0 Bft) S-SW 193 ° 0 min 0,000 mm 0,0 UV-I 0 W/m² -0,7 °C 0,3 °C 0,0 km/h (0 Bft)
16.03.2017 01:17 0,3 °C 0,3 °C 93 % 1028,8 hPa 0,0 mm 0,0 km/h (0 Bft) S-SW 193 ° 0 min 0,000 mm 0,0 UV-I 0 W/m² -0,7 °C 0,3 °C 0,0 km/h (0 Bft)
16.03.2017 01:18 0,2 °C 0,3 °C 92 % 1028,8 hPa 0,0 mm 0,0 km/h (0 Bft) S-SW 193 ° 0 min 0,000 mm 0,0 UV-I 0 W/m² -0,9 °C 0,2 °C 0,0 km/h (0 Bft)
16.03.2017 01:19 0,3 °C 0,3 °C 93 % 1028,8 hPa 0,0 mm 0,0 km/h (0 Bft) S-SW 193 ° 0 min 0,000 mm 0,0 UV-I 0 W/m² -0,7 °C 0,3 °C 0,0 km/h (0 Bft)
16.03.2017 01:20 0,2 °C 0,3 °C 93 % 1028,8 hPa 0,0 mm 0,0 km/h (0 Bft) S-SW 193 ° 0 min 0,000 mm 0,0 UV-I 0 W/m² -0,8 °C 0,2 °C 0,0 km/h (0 Bft)
16.03.2017 01:21 0,2 °C 0,3 °C 93 % 1028,7 hPa 0,0 mm 0,0 km/h (0 Bft) S-SW 193 ° 0 min 0,000 mm 0,0 UV-I 0 W/m² -0,8 °C 0,2 °C 0,0 km/h (0 Bft)
16.03.2017 01:22 0,2 °C 0,2 °C 93 % 1028,7 hPa 0,0 mm 0,0 km/h (0 Bft) S-SW 193 ° 0 min 0,000 mm 0,0 UV-I 0 W/m² -0,8 °C 0,2 °C 0,0 km/h (0 Bft)
16.03.2017 01:23 0,3 °C 0,3 °C 93 % 1028,7 hPa 0,0 mm 0,0 km/h (0 Bft) S-SW 193 ° 0 min 0,000 mm 0,0 UV-I 0 W/m² -0,7 °C 0,3 °C 0,0 km/h (0 Bft)
16.03.2017 01:24 0,3 °C 0,3 °C 93 % 1028,6 hPa 0,0 mm 0,0 km/h (0 Bft) S-SW 193 ° 0 min 0,000 mm 0,0 UV-I 0 W/m² -0,7 °C 0,3 °C 0,0 km/h (0 Bft)
16.03.2017 01:25 0,3 °C 0,3 °C 93 % 1028,6 hPa 0,0 mm 0,0 km/h (0 Bft) S-SW 193 ° 0 min 0,000 mm 0,0 UV-I 0 W/m² -0,7 °C 0,3 °C 0,0 km/h (0 Bft)
16.03.2017 01:26 0,3 °C 0,3 °C 93 % 1028,6 hPa 0,0 mm 0,0 km/h (0 Bft) S-SW 193 ° 0 min 0,000 mm 0,0 UV-I 0 W/m² -0,7 °C 0,3 °C 0,0 km/h (0 Bft)
16.03.2017 01:27 0,3 °C 0,3 °C 93 % 1028,7 hPa 0,0 mm 0,0 km/h (0 Bft) S-SW 193 ° 0 min 0,000 mm 0,0 UV-I 0 W/m² -0,7 °C 0,3 °C 0,0 km/h (0 Bft)
16.03.2017 01:28 0,2 °C 0,3 °C 93 % 1028,7 hPa 0,0 mm 0,0 km/h (0 Bft) S-SW 193 ° 0 min 0,000 mm 0,0 UV-I 0 W/m² -0,8 °C 0,2 °C 0,0 km/h (0 Bft)
16.03.2017 01:29 0,1 °C 0,3 °C 92 % 1028,7 hPa 0,0 mm 1,0 km/h (0 Bft) S-SW 193 ° 0 min 0,000 mm 0,0 UV-I 0 W/m² -1,0 °C 0,1 °C 1,6 km/h (1 Bft)
16.03.2017 01:30 0,0 °C 0,1 °C 92 % 1028,7 hPa 0,0 mm 0,8 km/h (0 Bft) S-SW 193 ° 0 min 0,000 mm 0,0 UV-I 0 W/m² -1,1 °C 0,0 °C 1,6 km/h (1 Bft)
16.03.2017 01:31 -0,2 °C 0,0 °C 92 % 1028,7 hPa 0,0 mm 0,1 km/h (0 Bft) S-SW 193 ° 0 min 0,000 mm 0,0 UV-I 0 W/m² -1,3 °C -0,2 °C 1,6 km/h (1 Bft)
16.03.2017 01:32 -0,2 °C -0,2 °C 92 % 1028,8 hPa 0,0 mm 0,0 km/h (0 Bft) S-SW 193 ° 0 min 0,000 mm 0,0 UV-I 0 W/m² -1,3 °C -0,2 °C 0,0 km/h (0 Bft)
16.03.2017 01:33 -0,3 °C -0,2 °C 92 % 1028,7 hPa 0,0 mm 0,0 km/h (0 Bft) S-SW 193 ° 0 min 0,000 mm 0,0 UV-I 0 W/m² -1,4 °C -0,3 °C 0,0 km/h (0 Bft)
16.03.2017 01:34 -0,3 °C -0,3 °C 92 % 1028,7 hPa 0,0 mm 0,0 km/h (0 Bft) S-SW 193 ° 0 min 0,000 mm 0,0 UV-I 0 W/m² -1,4 °C -0,3 °C 0,0 km/h (0 Bft)
16.03.2017 01:35 -0,2 °C -0,2 °C 93 % 1028,7 hPa 0,0 mm 0,0 km/h (0 Bft) S-SW 193 ° 0 min 0,000 mm 0,0 UV-I 0 W/m² -1,2 °C -0,2 °C 0,0 km/h (0 Bft)
16.03.2017 01:36 -0,2 °C -0,2 °C 93 % 1028,7 hPa 0,0 mm 0,0 km/h (0 Bft) S-SW 193 ° 0 min 0,000 mm 0,0 UV-I 0 W/m² -1,2 °C -0,2 °C 0,0 km/h (0 Bft)
16.03.2017 01:37 -0,2 °C -0,2 °C 93 % 1028,6 hPa 0,0 mm 0,0 km/h (0 Bft) S-SW 193 ° 0 min 0,000 mm 0,0 UV-I 0 W/m² -1,2 °C -0,2 °C 0,0 km/h (0 Bft)
16.03.2017 01:38 -0,2 °C -0,2 °C 93 % 1028,6 hPa 0,0 mm 0,0 km/h (0 Bft) S-SW 193 ° 0 min 0,000 mm 0,0 UV-I 0 W/m² -1,2 °C -0,2 °C 0,0 km/h (0 Bft)
16.03.2017 01:39 -0,1 °C -0,1 °C 93 % 1028,6 hPa 0,0 mm 0,0 km/h (0 Bft) S-SW 193 ° 0 min 0,000 mm 0,0 UV-I 0 W/m² -1,1 °C -0,1 °C 0,0 km/h (0 Bft)
16.03.2017 01:40 -0,1 °C -0,1 °C 93 % 1028,6 hPa 0,0 mm 0,0 km/h (0 Bft) S-SW 193 ° 0 min 0,000 mm 0,0 UV-I 0 W/m² -1,1 °C -0,1 °C 0,0 km/h (0 Bft)
16.03.2017 01:41 -0,1 °C -0,1 °C 93 % 1028,5 hPa 0,0 mm 0,0 km/h (0 Bft) S-SW 193 ° 0 min 0,000 mm 0,0 UV-I 0 W/m² -1,1 °C -0,1 °C 0,0 km/h (0 Bft)
16.03.2017 01:42 0,0 °C 0,0 °C 93 % 1028,6 hPa 0,0 mm 0,0 km/h (0 Bft) S-SW 193 ° 0 min 0,000 mm 0,0 UV-I 0 W/m² -1,0 °C 0,0 °C 0,0 km/h (0 Bft)
16.03.2017 01:43 0,1 °C 0,1 °C 94 % 1028,6 hPa 0,0 mm 0,0 km/h (0 Bft) S-SW 193 ° 0 min 0,000 mm 0,0 UV-I 0 W/m² -0,7 °C 0,1 °C 0,0 km/h (0 Bft)
16.03.2017 01:44 0,1 °C 0,1 °C 94 % 1028,6 hPa 0,0 mm 0,0 km/h (0 Bft) S-SW 193 ° 0 min 0,000 mm 0,0 UV-I 0 W/m² -0,7 °C 0,1 °C 0,0 km/h (0 Bft)
16.03.2017 01:45 0,1 °C 0,1 °C 94 % 1028,5 hPa 0,0 mm 0,0 km/h (0 Bft) S-SW 193 ° 0 min 0,000 mm 0,0 UV-I 0 W/m² -0,7 °C 0,1 °C 0,0 km/h (0 Bft)
16.03.2017 01:46 0,0 °C 0,1 °C 93 % 1028,5 hPa 0,0 mm 0,0 km/h (0 Bft) S-SW 193 ° 0 min 0,000 mm 0,0 UV-I 0 W/m² -1,0 °C 0,0 °C 0,0 km/h (0 Bft)
16.03.2017 01:47 0,1 °C 0,1 °C 93 % 1028,5 hPa 0,0 mm 0,0 km/h (0 Bft) S-SW 193 ° 0 min 0,000 mm 0,0 UV-I 0 W/m² -0,9 °C 0,1 °C 0,0 km/h (0 Bft)
16.03.2017 01:48 0,0 °C 0,1 °C 93 % 1028,5 hPa 0,0 mm 0,0 km/h (0 Bft) S-SW 193 ° 0 min 0,000 mm 0,0 UV-I 0 W/m² -1,0 °C 0,0 °C 0,0 km/h (0 Bft)
16.03.2017 01:49 0,1 °C 0,1 °C 93 % 1028,5 hPa 0,0 mm 0,0 km/h (0 Bft) S-SW 193 ° 0 min 0,000 mm 0,0 UV-I 0 W/m² -0,9 °C 0,1 °C 0,0 km/h (0 Bft)
16.03.2017 01:50 0,1 °C 0,1 °C 94 % 1028,5 hPa 0,0 mm 0,0 km/h (0 Bft) S-SW 193 ° 0 min 0,000 mm 0,0 UV-I 0 W/m² -0,7 °C 0,1 °C 0,0 km/h (0 Bft)
16.03.2017 01:51 0,0 °C 0,1 °C 93 % 1028,4 hPa 0,0 mm 0,0 km/h (0 Bft) S-SW 193 ° 0 min 0,000 mm 0,0 UV-I 0 W/m² -1,0 °C 0,0 °C 0,0 km/h (0 Bft)
16.03.2017 01:52 0,0 °C 0,0 °C 94 % 1028,4 hPa 0,0 mm 0,0 km/h (0 Bft) S-SW 193 ° 0 min 0,000 mm 0,0 UV-I 0 W/m² -0,8 °C 0,0 °C 0,0 km/h (0 Bft)
16.03.2017 01:53 0,0 °C 0,0 °C 94 % 1028,5 hPa 0,0 mm 0,0 km/h (0 Bft) S-SW 193 ° 0 min 0,000 mm 0,0 UV-I 0 W/m² -0,8 °C 0,0 °C 0,0 km/h (0 Bft)
16.03.2017 01:54 0,0 °C 0,0 °C 94 % 1028,3 hPa 0,0 mm 0,0 km/h (0 Bft) S-SW 193 ° 0 min 0,000 mm 0,0 UV-I 0 W/m² -0,8 °C 0,0 °C 0,0 km/h (0 Bft)
16.03.2017 01:55 -0,1 °C 0,0 °C 93 % 1028,4 hPa 0,0 mm 0,0 km/h (0 Bft) S-SW 193 ° 0 min 0,000 mm 0,0 UV-I 0 W/m² -1,1 °C -0,1 °C 0,0 km/h (0 Bft)
16.03.2017 01:56 -0,2 °C -0,1 °C 93 % 1028,4 hPa 0,0 mm 0,0 km/h (0 Bft) S-SW 193 ° 0 min 0,000 mm 0,0 UV-I 0 W/m² -1,2 °C -0,2 °C 0,0 km/h (0 Bft)
16.03.2017 01:57 -0,1 °C -0,1 °C 93 % 1028,4 hPa 0,0 mm 0,0 km/h (0 Bft) S-SW 193 ° 0 min 0,000 mm 0,0 UV-I 0 W/m² -1,1 °C -0,1 °C 0,0 km/h (0 Bft)
16.03.2017 01:58 -0,1 °C -0,1 °C 94 % 1028,3 hPa 0,0 mm 0,0 km/h (0 Bft) S-SW 193 ° 0 min 0,000 mm 0,0 UV-I 0 W/m² -0,9 °C -0,1 °C 0,0 km/h (0 Bft)
16.03.2017 01:59 -0,1 °C -0,1 °C 94 % 1028,3 hPa 0,0 mm 0,0 km/h (0 Bft) S-SW 193 ° 0 min 0,000 mm 0,0 UV-I 0 W/m² -0,9 °C -0,1 °C 0,0 km/h (0 Bft)
16.03.2017 02:00 -0,1 °C -0,1 °C 94 % 1028,4 hPa 0,0 mm 0,0 km/h (0 Bft) S-SW 193 ° 0 min 0,000 mm 0,0 UV-I 0 W/m² -0,9 °C -0,1 °C 0,0 km/h (0 Bft)
16.03.2017 02:01 -0,1 °C -0,1 °C 94 % 1028,4 hPa 0,0 mm 0,0 km/h (0 Bft) S-SW 193 ° 0 min 0,000 mm 0,0 UV-I 0 W/m² -0,9 °C -0,1 °C 0,0 km/h (0 Bft)
16.03.2017 02:02 -0,1 °C -0,1 °C 94 % 1028,4 hPa 0,0 mm 0,0 km/h (0 Bft) S-SW 193 ° 0 min 0,000 mm 0,0 UV-I 0 W/m² -0,9 °C -0,1 °C 0,0 km/h (0 Bft)
16.03.2017 02:03 -0,2 °C -0,1 °C 93 % 1028,4 hPa 0,0 mm 0,0 km/h (0 Bft) S-SW 193 ° 0 min 0,000 mm 0,0 UV-I 0 W/m² -1,2 °C -0,2 °C 0,0 km/h (0 Bft)
16.03.2017 02:04 -0,2 °C -0,2 °C 93 % 1028,4 hPa 0,0 mm 0,0 km/h (0 Bft) S-SW 193 ° 0 min 0,000 mm 0,0 UV-I 0 W/m² -1,2 °C -0,2 °C 0,0 km/h (0 Bft)
16.03.2017 02:05 -0,2 °C -0,2 °C 94 % 1028,3 hPa 0,0 mm 0,0 km/h (0 Bft) S-SW 193 ° 0 min 0,000 mm 0,0 UV-I 0 W/m² -1,0 °C -0,2 °C 0,0 km/h (0 Bft)
16.03.2017 02:06 -0,1 °C -0,1 °C 94 % 1028,3 hPa 0,0 mm 0,0 km/h (0 Bft) S-SW 193 ° 0 min 0,000 mm 0,0 UV-I 0 W/m² -0,9 °C -0,1 °C 0,0 km/h (0 Bft)
16.03.2017 02:07 0,0 °C 0,0 °C 94 % 1028,4 hPa 0,0 mm 0,0 km/h (0 Bft) S-SW 193 ° 0 min 0,000 mm 0,0 UV-I 0 W/m² -0,8 °C 0,0 °C 0,0 km/h (0 Bft)
16.03.2017 02:08 0,1 °C 0,1 °C 94 % 1028,4 hPa 0,0 mm 0,0 km/h (0 Bft) S-SW 193 ° 0 min 0,000 mm 0,0 UV-I 0 W/m² -0,7 °C 0,1 °C 0,0 km/h (0 Bft)
16.03.2017 02:09 0,1 °C 0,1 °C 94 % 1028,4 hPa 0,0 mm 0,0 km/h (0 Bft) S-SW 193 ° 0 min 0,000 mm 0,0 UV-I 0 W/m² -0,7 °C 0,1 °C 0,0 km/h (0 Bft)
16.03.2017 02:10 0,0 °C 0,1 °C 94 % 1028,3 hPa 0,0 mm 0,0 km/h (0 Bft) S-SW 193 ° 0 min 0,000 mm 0,0 UV-I 0 W/m² -0,8 °C 0,0 °C 0,0 km/h (0 Bft)
16.03.2017 02:11 0,0 °C 0,1 °C 94 % 1028,3 hPa 0,0 mm 0,0 km/h (0 Bft) S-SW 193 ° 0 min 0,000 mm 0,0 UV-I 0 W/m² -0,8 °C 0,0 °C 0,0 km/h (0 Bft)
16.03.2017 02:12 0,0 °C 0,0 °C 94 % 1028,3 hPa 0,0 mm 0,0 km/h (0 Bft) S-SW 193 ° 0 min 0,000 mm 0,0 UV-I 0 W/m² -0,8 °C 0,0 °C 0,0 km/h (0 Bft)
16.03.2017 02:13 0,0 °C 0,0 °C 94 % 1028,3 hPa 0,0 mm 0,0 km/h (0 Bft) S-SW 193 ° 0 min 0,000 mm 0,0 UV-I 0 W/m² -0,8 °C 0,0 °C 0,0 km/h (0 Bft)
16.03.2017 02:14 0,1 °C 0,1 °C 94 % 1028,3 hPa 0,0 mm 0,0 km/h (0 Bft) S-SW 193 ° 0 min 0,000 mm 0,0 UV-I 0 W/m² -0,7 °C 0,1 °C 0,0 km/h (0 Bft)
16.03.2017 02:15 0,1 °C 0,1 °C 94 % 1028,3 hPa 0,0 mm 0,0 km/h (0 Bft) S-SW 193 ° 0 min 0,000 mm 0,0 UV-I 0 W/m² -0,7 °C 0,1 °C 0,0 km/h (0 Bft)
16.03.2017 02:16 0,1 °C 0,1 °C 94 % 1028,3 hPa 0,0 mm 0,0 km/h (0 Bft) S-SW 193 ° 0 min 0,000 mm 0,0 UV-I 0 W/m² -0,7 °C 0,1 °C 0,0 km/h (0 Bft)
16.03.2017 02:17 0,1 °C 0,1 °C 94 % 1028,3 hPa 0,0 mm 0,0 km/h (0 Bft) S-SW 193 ° 0 min 0,000 mm 0,0 UV-I 0 W/m² -0,7 °C 0,1 °C 0,0 km/h (0 Bft)
16.03.2017 02:18 0,1 °C 0,1 °C 94 % 1028,2 hPa 0,0 mm 0,0 km/h (0 Bft) S-SW 193 ° 0 min 0,000 mm 0,0 UV-I 0 W/m² -0,7 °C 0,1 °C 0,0 km/h (0 Bft)
16.03.2017 02:19 0,1 °C 0,1 °C 94 % 1028,2 hPa 0,0 mm 0,0 km/h (0 Bft) S-SW 193 ° 0 min 0,000 mm 0,0 UV-I 0 W/m² -0,7 °C 0,1 °C 0,0 km/h (0 Bft)
16.03.2017 02:20 0,1 °C 0,1 °C 94 % 1028,2 hPa 0,0 mm 0,0 km/h (0 Bft) S-SW 193 ° 0 min 0,000 mm 0,0 UV-I 0 W/m² -0,7 °C 0,1 °C 0,0 km/h (0 Bft)
16.03.2017 02:21 0,1 °C 0,2 °C 94 % 1028,2 hPa 0,0 mm 0,0 km/h (0 Bft) S-SW 193 ° 0 min 0,000 mm 0,0 UV-I 0 W/m² -0,7 °C 0,1 °C 0,0 km/h (0 Bft)
16.03.2017 02:22 0,1 °C 0,1 °C 94 % 1028,2 hPa 0,0 mm 0,0 km/h (0 Bft) S-SW 193 ° 0 min 0,000 mm 0,0 UV-I 0 W/m² -0,7 °C 0,1 °C 0,0 km/h (0 Bft)
16.03.2017 02:23 -0,1 °C 0,1 °C 94 % 1028,1 hPa 0,0 mm 0,0 km/h (0 Bft) S-SW 193 ° 0 min 0,000 mm 0,0 UV-I 0 W/m² -0,9 °C -0,1 °C 0,0 km/h (0 Bft)
16.03.2017 02:24 -0,1 °C -0,1 °C 94 % 1028,1 hPa 0,0 mm 0,0 km/h (0 Bft) S-SW 193 ° 0 min 0,000 mm 0,0 UV-I 0 W/m² -0,9 °C -0,1 °C 0,0 km/h (0 Bft)
16.03.2017 02:25 -0,2 °C -0,1 °C 94 % 1028,1 hPa 0,0 mm 0,0 km/h (0 Bft) S-SW 193 ° 0 min 0,000 mm 0,0 UV-I 0 W/m² -1,0 °C -0,2 °C 0,0 km/h (0 Bft)
16.03.2017 02:26 -0,2 °C -0,1 °C 94 % 1028,1 hPa 0,0 mm 0,0 km/h (0 Bft) S-SW 193 ° 0 min 0,000 mm 0,0 UV-I 0 W/m² -1,0 °C -0,2 °C 0,0 km/h (0 Bft)
16.03.2017 02:27 -0,2 °C -0,2 °C 94 % 1028,1 hPa 0,0 mm 0,0 km/h (0 Bft) S-SW 193 ° 0 min 0,000 mm 0,0 UV-I 0 W/m² -1,0 °C -0,2 °C 0,0 km/h (0 Bft)
16.03.2017 02:28 -0,3 °C -0,2 °C 94 % 1028,1 hPa 0,0 mm 0,0 km/h (0 Bft) S-SW 193 ° 0 min 0,000 mm 0,0 UV-I 0 W/m² -1,1 °C -0,3 °C 0,0 km/h (0 Bft)
16.03.2017 02:29 -0,3 °C -0,3 °C 94 % 1028,1 hPa 0,0 mm 0,0 km/h (0 Bft) S-SW 193 ° 0 min 0,000 mm 0,0 UV-I 0 W/m² -1,1 °C -0,3 °C 0,0 km/h (0 Bft)
16.03.2017 02:30 -0,4 °C -0,3 °C 94 % 1028,1 hPa 0,0 mm 0,0 km/h (0 Bft) S-SW 193 ° 0 min 0,000 mm 0,0 UV-I 0 W/m² -1,2 °C -0,4 °C 0,0 km/h (0 Bft)
16.03.2017 02:31 -0,5 °C -0,4 °C 93 % 1028,1 hPa 0,0 mm 0,1 km/h (0 Bft) S-SW 193 ° 0 min 0,000 mm 0,0 UV-I 0 W/m² -1,5 °C -0,5 °C 1,6 km/h (1 Bft)
16.03.2017 02:32 -0,6 °C -0,5 °C 93 % 1028,1 hPa 0,0 mm 0,7 km/h (0 Bft) S-SW 193 ° 0 min 0,000 mm 0,0 UV-I 0 W/m² -1,6 °C -0,6 °C 1,6 km/h (1 Bft)
16.03.2017 02:33 -0,6 °C -0,6 °C 93 % 1028,0 hPa 0,0 mm 1,6 km/h (1 Bft) S-SW 193 ° 0 min 0,000 mm 0,0 UV-I 0 W/m² -1,6 °C -0,6 °C 3,2 km/h (1 Bft)
16.03.2017 02:34 -0,7 °C -0,6 °C 94 % 1028,0 hPa 0,0 mm 1,2 km/h (1 Bft) S-SW 193 ° 0 min 0,000 mm 0,0 UV-I 0 W/m² -1,5 °C -0,7 °C 1,6 km/h (1 Bft)
16.03.2017 02:35 -0,7 °C -0,7 °C 94 % 1028,0 hPa 0,0 mm 1,1 km/h (1 Bft) S-SW 193 ° 0 min 0,000 mm 0,0 UV-I 0 W/m² -1,5 °C -0,7 °C 1,6 km/h (1 Bft)
16.03.2017 02:36 -0,7 °C -0,7 °C 93 % 1028,0 hPa 0,0 mm 0,7 km/h (0 Bft) S-SW 193 ° 0 min 0,000 mm 0,0 UV-I 0 W/m² -1,7 °C -0,7 °C 1,6 km/h (1 Bft)
16.03.2017 02:37 -0,7 °C -0,7 °C 93 % 1028,0 hPa 0,0 mm 0,2 km/h (0 Bft) S-SW 193 ° 0 min 0,000 mm 0,0 UV-I 0 W/m² -1,7 °C -0,7 °C 1,6 km/h (1 Bft)
16.03.2017 02:38 -0,7 °C -0,7 °C 94 % 1027,9 hPa 0,0 mm 0,0 km/h (0 Bft) S-SW 193 ° 0 min 0,000 mm 0,0 UV-I 0 W/m² -1,5 °C -0,7 °C 0,0 km/h (0 Bft)
16.03.2017 02:39 -0,7 °C -0,7 °C 94 % 1027,9 hPa 0,0 mm 0,0 km/h (0 Bft) S-SW 193 ° 0 min 0,000 mm 0,0 UV-I 0 W/m² -1,5 °C -0,7 °C 0,0 km/h (0 Bft)
16.03.2017 02:40 -0,6 °C -0,6 °C 94 % 1027,9 hPa 0,0 mm 0,0 km/h (0 Bft) S-SW 193 ° 0 min 0,000 mm 0,0 UV-I 0 W/m² -1,4 °C -0,6 °C 0,0 km/h (0 Bft)
16.03.2017 02:41 -0,6 °C -0,6 °C 94 % 1027,9 hPa 0,0 mm 0,0 km/h (0 Bft) S-SW 193 ° 0 min 0,000 mm 0,0 UV-I 0 W/m² -1,4 °C -0,6 °C 0,0 km/h (0 Bft)
16.03.2017 02:42 -0,6 °C -0,6 °C 94 % 1027,9 hPa 0,0 mm 0,0 km/h (0 Bft) S-SW 193 ° 0 min 0,000 mm 0,0 UV-I 0 W/m² -1,4 °C -0,6 °C 0,0 km/h (0 Bft)
16.03.2017 02:43 -0,6 °C -0,6 °C 94 % 1027,9 hPa 0,0 mm 0,0 km/h (0 Bft) S-SW 193 ° 0 min 0,000 mm 0,0 UV-I 0 W/m² -1,4 °C -0,6 °C 0,0 km/h (0 Bft)
16.03.2017 02:44 -0,6 °C -0,6 °C 94 % 1027,9 hPa 0,0 mm 0,0 km/h (0 Bft) S-SW 193 ° 0 min 0,000 mm 0,0 UV-I 0 W/m² -1,4 °C -0,6 °C 0,0 km/h (0 Bft)
16.03.2017 02:45 -0,5 °C -0,5 °C 94 % 1027,9 hPa 0,0 mm 0,0 km/h (0 Bft) S-SW 193 ° 0 min 0,000 mm 0,0 UV-I 0 W/m² -1,3 °C -0,5 °C 0,0 km/h (0 Bft)
16.03.2017 02:46 -0,4 °C -0,4 °C 94 % 1027,9 hPa 0,0 mm 0,5 km/h (0 Bft) S-SW 193 ° 0 min 0,000 mm 0,0 UV-I 0 W/m² -1,2 °C -0,4 °C 1,6 km/h (1 Bft)
16.03.2017 02:47 -0,3 °C -0,3 °C 94 % 1027,8 hPa 0,0 mm 0,9 km/h (0 Bft) S-SW 193 ° 0 min 0,000 mm 0,0 UV-I 0 W/m² -1,1 °C -0,3 °C 1,6 km/h (1 Bft)
16.03.2017 02:48 -0,2 °C -0,2 °C 94 % 1027,8 hPa 0,0 mm 0,3 km/h (0 Bft) S-SW 193 ° 0 min 0,000 mm 0,0 UV-I 0 W/m² -1,0 °C -0,2 °C 1,6 km/h (1 Bft)
16.03.2017 02:49 -0,1 °C -0,1 °C 94 % 1027,8 hPa 0,0 mm 0,6 km/h (0 Bft) S-SW 193 ° 0 min 0,000 mm 0,0 UV-I 0 W/m² -0,9 °C -0,1 °C 1,6 km/h (1 Bft)
16.03.2017 02:50 -0,1 °C -0,1 °C 95 % 1027,8 hPa 0,0 mm 0,6 km/h (0 Bft) S-SW 193 ° 0 min 0,000 mm 0,0 UV-I 0 W/m² -0,8 °C -0,1 °C 1,6 km/h (1 Bft)
16.03.2017 02:51 0,1 °C 0,1 °C 95 % 1027,8 hPa 0,0 mm 0,2 km/h (0 Bft) S-SW 193 ° 0 min 0,000 mm 0,0 UV-I 0 W/m² -0,6 °C 0,1 °C 1,6 km/h (1 Bft)
16.03.2017 02:52 0,0 °C 0,1 °C 95 % 1027,8 hPa 0,0 mm 0,0 km/h (0 Bft) S-SW 193 ° 0 min 0,000 mm 0,0 UV-I 0 W/m² -0,7 °C 0,0 °C 0,0 km/h (0 Bft)
16.03.2017 02:53 -0,1 °C 0,0 °C 94 % 1027,7 hPa 0,0 mm 0,0 km/h (0 Bft) S-SW 193 ° 0 min 0,000 mm 0,0 UV-I 0 W/m² -0,9 °C -0,1 °C 0,0 km/h (0 Bft)
16.03.2017 02:54 -0,3 °C -0,1 °C 94 % 1027,7 hPa 0,0 mm 0,0 km/h (0 Bft) S-SW 193 ° 0 min 0,000 mm 0,0 UV-I 0 W/m² -1,1 °C -0,3 °C 0,0 km/h (0 Bft)
16.03.2017 02:55 -0,4 °C -0,3 °C 94 % 1027,6 hPa 0,0 mm 0,0 km/h (0 Bft) S-SW 193 ° 0 min 0,000 mm 0,0 UV-I 0 W/m² -1,2 °C -0,4 °C 0,0 km/h (0 Bft)
16.03.2017 02:56 -0,5 °C -0,4 °C 93 % 1027,6 hPa 0,0 mm 0,0 km/h (0 Bft) S-SW 193 ° 0 min 0,000 mm 0,0 UV-I 0 W/m² -1,5 °C -0,5 °C 0,0 km/h (0 Bft)
16.03.2017 02:57 -0,5 °C -0,5 °C 93 % 1027,6 hPa 0,0 mm 0,0 km/h (0 Bft) S-SW 193 ° 0 min 0,000 mm 0,0 UV-I 0 W/m² -1,5 °C -0,5 °C 0,0 km/h (0 Bft)
16.03.2017 02:58 -0,6 °C -0,5 °C 94 % 1027,6 hPa 0,0 mm 0,0 km/h (0 Bft) S-SW 193 ° 0 min 0,000 mm 0,0 UV-I 0 W/m² -1,4 °C -0,6 °C 0,0 km/h (0 Bft)
16.03.2017 02:59 -0,5 °C -0,5 °C 94 % 1027,6 hPa 0,0 mm 0,0 km/h (0 Bft) S-SW 193 ° 0 min 0,000 mm 0,0 UV-I 0 W/m² -1,3 °C -0,5 °C 0,0 km/h (0 Bft)
16.03.2017 03:00 -0,5 °C -0,5 °C 94 % 1027,6 hPa 0,0 mm 0,0 km/h (0 Bft) S-SW 193 ° 0 min 0,000 mm 0,0 UV-I 0 W/m² -1,3 °C -0,5 °C 0,0 km/h (0 Bft)
16.03.2017 03:01 -0,4 °C -0,4 °C 94 % 1027,6 hPa 0,0 mm 0,0 km/h (0 Bft) S-SW 193 ° 0 min 0,000 mm 0,0 UV-I 0 W/m² -1,2 °C -0,4 °C 0,0 km/h (0 Bft)
16.03.2017 03:02 -0,4 °C -0,4 °C 94 % 1027,6 hPa 0,0 mm 0,0 km/h (0 Bft) S-SW 193 ° 0 min 0,000 mm 0,0 UV-I 0 W/m² -1,2 °C -0,4 °C 0,0 km/h (0 Bft)
16.03.2017 03:03 -0,6 °C -0,4 °C 94 % 1027,6 hPa 0,0 mm 0,0 km/h (0 Bft) S-SW 193 ° 0 min 0,000 mm 0,0 UV-I 0 W/m² -1,4 °C -0,6 °C 0,0 km/h (0 Bft)
16.03.2017 03:04 -0,7 °C -0,6 °C 93 % 1027,5 hPa 0,0 mm 0,0 km/h (0 Bft) S-SW 193 ° 0 min 0,000 mm 0,0 UV-I 0 W/m² -1,7 °C -0,7 °C 0,0 km/h (0 Bft)
16.03.2017 03:05 -0,8 °C -0,7 °C 93 % 1027,6 hPa 0,0 mm 0,0 km/h (0 Bft) S-SW 193 ° 0 min 0,000 mm 0,0 UV-I 0 W/m² -1,8 °C -0,8 °C 0,0 km/h (0 Bft)
16.03.2017 03:06 -0,9 °C -0,8 °C 93 % 1027,6 hPa 0,0 mm 0,0 km/h (0 Bft) S-SW 193 ° 0 min 0,000 mm 0,0 UV-I 0 W/m² -1,9 °C -0,9 °C 0,0 km/h (0 Bft)
16.03.2017 03:07 -1,1 °C -0,9 °C 93 % 1027,6 hPa 0,0 mm 0,0 km/h (0 Bft) S-SW 193 ° 0 min 0,000 mm 0,0 UV-I 0 W/m² -2,1 °C -1,1 °C 0,0 km/h (0 Bft)
16.03.2017 03:08 -1,2 °C -1,1 °C 93 % 1027,6 hPa 0,0 mm 0,0 km/h (0 Bft) S-SW 193 ° 0 min 0,000 mm 0,0 UV-I 0 W/m² -2,2 °C -1,2 °C 0,0 km/h (0 Bft)
16.03.2017 03:09 -1,2 °C -1,2 °C 93 % 1027,6 hPa 0,0 mm 0,0 km/h (0 Bft) S-SW 193 ° 0 min 0,000 mm 0,0 UV-I 0 W/m² -2,2 °C -1,2 °C 0,0 km/h (0 Bft)
16.03.2017 03:10 -1,3 °C -1,2 °C 93 % 1027,5 hPa 0,0 mm 0,0 km/h (0 Bft) S-SW 193 ° 0 min 0,000 mm 0,0 UV-I 0 W/m² -2,3 °C -1,3 °C 0,0 km/h (0 Bft)
16.03.2017 03:11 -1,3 °C -1,3 °C 93 % 1027,5 hPa 0,0 mm 0,0 km/h (0 Bft) S-SW 193 ° 0 min 0,000 mm 0,0 UV-I 0 W/m² -2,3 °C -1,3 °C 0,0 km/h (0 Bft)
16.03.2017 03:12 -1,3 °C -1,3 °C 93 % 1027,5 hPa 0,0 mm 0,0 km/h (0 Bft) S-SW 193 ° 0 min 0,000 mm 0,0 UV-I 0 W/m² -2,3 °C -1,3 °C 0,0 km/h (0 Bft)
16.03.2017 03:13 -1,2 °C -1,2 °C 94 % 1027,5 hPa 0,0 mm 0,0 km/h (0 Bft) S-SW 193 ° 0 min 0,000 mm 0,0 UV-I 0 W/m² -2,0 °C -1,2 °C 0,0 km/h (0 Bft)
16.03.2017 03:14 -1,2 °C -1,1 °C 94 % 1027,5 hPa 0,0 mm 0,0 km/h (0 Bft) S-SW 193 ° 0 min 0,000 mm 0,0 UV-I 0 W/m² -2,0 °C -1,2 °C 0,0 km/h (0 Bft)
16.03.2017 03:15 -1,2 °C -1,1 °C 94 % 1027,5 hPa 0,0 mm 0,0 km/h (0 Bft) S-SW 193 ° 0 min 0,000 mm 0,0 UV-I 0 W/m² -2,0 °C -1,2 °C 0,0 km/h (0 Bft)
16.03.2017 03:16 -1,2 °C -1,1 °C 94 % 1027,5 hPa 0,0 mm 0,0 km/h (0 Bft) S-SW 193 ° 0 min 0,000 mm 0,0 UV-I 0 W/m² -2,0 °C -1,2 °C 0,0 km/h (0 Bft)
16.03.2017 03:17 -1,3 °C -1,2 °C 93 % 1027,4 hPa 0,0 mm 0,0 km/h (0 Bft) S-SW 193 ° 0 min 0,000 mm 0,0 UV-I 0 W/m² -2,3 °C -1,3 °C 0,0 km/h (0 Bft)
16.03.2017 03:18 -1,3 °C -1,3 °C 93 % 1027,4 hPa 0,0 mm 0,5 km/h (0 Bft) S-SW 193 ° 0 min 0,000 mm 0,0 UV-I 0 W/m² -2,3 °C -1,3 °C 1,6 km/h (1 Bft)
16.03.2017 03:19 -1,3 °C -1,3 °C 94 % 1027,4 hPa 0,0 mm 1,1 km/h (1 Bft) S-SW 193 ° 0 min 0,000 mm 0,0 UV-I 0 W/m² -2,1 °C -1,3 °C 1,6 km/h (1 Bft)
16.03.2017 03:20 -1,3 °C -1,3 °C 94 % 1027,4 hPa 0,0 mm 0,7 km/h (0 Bft) S-SW 193 ° 0 min 0,000 mm 0,0 UV-I 0 W/m² -2,1 °C -1,3 °C 1,6 km/h (1 Bft)
16.03.2017 03:21 -1,3 °C -1,3 °C 94 % 1027,4 hPa 0,0 mm 0,4 km/h (0 Bft) S-SW 193 ° 0 min 0,000 mm 0,0 UV-I 0 W/m² -2,1 °C -1,3 °C 1,6 km/h (1 Bft)
16.03.2017 03:22 -1,3 °C -1,3 °C 94 % 1027,4 hPa 0,0 mm 0,0 km/h (0 Bft) S-SW 193 ° 0 min 0,000 mm 0,0 UV-I 0 W/m² -2,1 °C -1,3 °C 0,0 km/h (0 Bft)
16.03.2017 03:23 -1,3 °C -1,3 °C 94 % 1027,4 hPa 0,0 mm 0,0 km/h (0 Bft) S-SW 193 ° 0 min 0,000 mm 0,0 UV-I 0 W/m² -2,1 °C -1,3 °C 0,0 km/h (0 Bft)
16.03.2017 03:24 -1,3 °C -1,2 °C 94 % 1027,4 hPa 0,0 mm 0,4 km/h (0 Bft) S-SW 193 ° 0 min 0,000 mm 0,0 UV-I 0 W/m² -2,1 °C -1,3 °C 1,6 km/h (1 Bft)
16.03.2017 03:25 -1,3 °C -1,3 °C 94 % 1027,4 hPa 0,0 mm 0,3 km/h (0 Bft) S-SW 193 ° 0 min 0,000 mm 0,0 UV-I 0 W/m² -2,1 °C -1,3 °C 1,6 km/h (1 Bft)
16.03.2017 03:26 -1,3 °C -1,3 °C 94 % 1027,4 hPa 0,0 mm 0,0 km/h (0 Bft) S-SW 193 ° 0 min 0,000 mm 0,0 UV-I 0 W/m² -2,1 °C -1,3 °C 0,0 km/h (0 Bft)
16.03.2017 03:27 -1,3 °C -1,3 °C 94 % 1027,4 hPa 0,0 mm 0,0 km/h (0 Bft) S-SW 193 ° 0 min 0,000 mm 0,0 UV-I 0 W/m² -2,1 °C -1,3 °C 0,0 km/h (0 Bft)
16.03.2017 03:28 -1,3 °C -1,3 °C 94 % 1027,4 hPa 0,0 mm 0,0 km/h (0 Bft) S-SW 193 ° 0 min 0,000 mm 0,0 UV-I 0 W/m² -2,1 °C -1,3 °C 0,0 km/h (0 Bft)
16.03.2017 03:29 -1,2 °C -1,2 °C 94 % 1027,4 hPa 0,0 mm 0,0 km/h (0 Bft) S-SW 193 ° 0 min 0,000 mm 0,0 UV-I 0 W/m² -2,0 °C -1,2 °C 0,0 km/h (0 Bft)
16.03.2017 03:30 -1,2 °C -1,2 °C 94 % 1027,4 hPa 0,0 mm 0,0 km/h (0 Bft) S-SW 193 ° 0 min 0,000 mm 0,0 UV-I 0 W/m² -2,0 °C -1,2 °C 0,0 km/h (0 Bft)
16.03.2017 03:31 -1,2 °C -1,2 °C 94 % 1027,4 hPa 0,0 mm 0,0 km/h (0 Bft) S-SW 193 ° 0 min 0,000 mm 0,0 UV-I 0 W/m² -2,0 °C -1,2 °C 0,0 km/h (0 Bft)
16.03.2017 03:32 -1,1 °C -1,1 °C 94 % 1027,4 hPa 0,0 mm 0,0 km/h (0 Bft) S-SW 193 ° 0 min 0,000 mm 0,0 UV-I 0 W/m² -1,9 °C -1,1 °C 0,0 km/h (0 Bft)
16.03.2017 03:33 -1,1 °C -1,1 °C 94 % 1027,4 hPa 0,0 mm 0,4 km/h (0 Bft) S-SW 193 ° 0 min 0,000 mm 0,0 UV-I 0 W/m² -1,9 °C -1,1 °C 1,6 km/h (1 Bft)
16.03.2017 03:34 -1,1 °C -1,1 °C 94 % 1027,4 hPa 0,0 mm 0,7 km/h (0 Bft) S-SW 193 ° 0 min 0,000 mm 0,0 UV-I 0 W/m² -1,9 °C -1,1 °C 1,6 km/h (1 Bft)
16.03.2017 03:35 -1,1 °C -1,1 °C 94 % 1027,4 hPa 0,0 mm 0,0 km/h (0 Bft) S-SW 193 ° 0 min 0,000 mm 0,0 UV-I 0 W/m² -1,9 °C -1,1 °C 0,0 km/h (0 Bft)
16.03.2017 03:36 -0,9 °C -0,9 °C 94 % 1027,5 hPa 0,0 mm 0,0 km/h (0 Bft) S-SW 193 ° 0 min 0,000 mm 0,0 UV-I 0 W/m² -1,7 °C -0,9 °C 0,0 km/h (0 Bft)
16.03.2017 03:37 -0,9 °C -0,9 °C 95 % 1027,4 hPa 0,0 mm 0,0 km/h (0 Bft) S-SW 193 ° 0 min 0,000 mm 0,0 UV-I 0 W/m² -1,6 °C -0,9 °C 0,0 km/h (0 Bft)
16.03.2017 03:38 -0,9 °C -0,9 °C 94 % 1027,5 hPa 0,0 mm 0,0 km/h (0 Bft) S-SW 193 ° 0 min 0,000 mm 0,0 UV-I 0 W/m² -1,7 °C -0,9 °C 0,0 km/h (0 Bft)
16.03.2017 03:39 -0,9 °C -0,9 °C 94 % 1027,5 hPa 0,0 mm 0,0 km/h (0 Bft) S-SW 193 ° 0 min 0,000 mm 0,0 UV-I 0 W/m² -1,7 °C -0,9 °C 0,0 km/h (0 Bft)
16.03.2017 03:40 -0,9 °C -0,9 °C 94 % 1027,5 hPa 0,0 mm 0,0 km/h (0 Bft) S-SW 193 ° 0 min 0,000 mm 0,0 UV-I 0 W/m² -1,7 °C -0,9 °C 0,0 km/h (0 Bft)
16.03.2017 03:41 -0,9 °C -0,9 °C 94 % 1027,5 hPa 0,0 mm 0,0 km/h (0 Bft) S-SW 193 ° 0 min 0,000 mm 0,0 UV-I 0 W/m² -1,7 °C -0,9 °C 0,0 km/h (0 Bft)
16.03.2017 03:42 -0,9 °C -0,9 °C 94 % 1027,5 hPa 0,0 mm 0,0 km/h (0 Bft) S-SW 193 ° 0 min 0,000 mm 0,0 UV-I 0 W/m² -1,7 °C -0,9 °C 0,0 km/h (0 Bft)
16.03.2017 03:43 -0,8 °C -0,8 °C 94 % 1027,5 hPa 0,0 mm 0,0 km/h (0 Bft) S-SW 193 ° 0 min 0,000 mm 0,0 UV-I 0 W/m² -1,6 °C -0,8 °C 0,0 km/h (0 Bft)
16.03.2017 03:44 -0,8 °C -0,8 °C 94 % 1027,5 hPa 0,0 mm 0,0 km/h (0 Bft) S-SW 193 ° 0 min 0,000 mm 0,0 UV-I 0 W/m² -1,6 °C -0,8 °C 0,0 km/h (0 Bft)
16.03.2017 03:45 -0,8 °C -0,8 °C 94 % 1027,5 hPa 0,0 mm 0,0 km/h (0 Bft) S-SW 193 ° 0 min 0,000 mm 0,0 UV-I 0 W/m² -1,6 °C -0,8 °C 0,0 km/h (0 Bft)
16.03.2017 03:46 -0,8 °C -0,8 °C 94 % 1027,5 hPa 0,0 mm 0,0 km/h (0 Bft) S-SW 193 ° 0 min 0,000 mm 0,0 UV-I 0 W/m² -1,6 °C -0,8 °C 0,0 km/h (0 Bft)
16.03.2017 03:47 -0,8 °C -0,8 °C 94 % 1027,5 hPa 0,0 mm 0,0 km/h (0 Bft) S-SW 193 ° 0 min 0,000 mm 0,0 UV-I 0 W/m² -1,6 °C -0,8 °C 0,0 km/h (0 Bft)
16.03.2017 03:48 -0,8 °C -0,7 °C 94 % 1027,4 hPa 0,0 mm 0,0 km/h (0 Bft) S-SW 193 ° 0 min 0,000 mm 0,0 UV-I 0 W/m² -1,6 °C -0,8 °C 0,0 km/h (0 Bft)
16.03.2017 03:49 -0,7 °C -0,7 °C 94 % 1027,4 hPa 0,0 mm 0,0 km/h (0 Bft) S-SW 193 ° 0 min 0,000 mm 0,0 UV-I 0 W/m² -1,5 °C -0,7 °C 0,0 km/h (0 Bft)
16.03.2017 03:50 -0,7 °C -0,7 °C 94 % 1027,4 hPa 0,0 mm 0,0 km/h (0 Bft) S-SW 193 ° 0 min 0,000 mm 0,0 UV-I 0 W/m² -1,5 °C -0,7 °C 0,0 km/h (0 Bft)
16.03.2017 03:51 -0,9 °C -0,7 °C 94 % 1027,4 hPa 0,0 mm 0,0 km/h (0 Bft) S-SW 193 ° 0 min 0,000 mm 0,0 UV-I 0 W/m² -1,7 °C -0,9 °C 0,0 km/h (0 Bft)
16.03.2017 03:52 -0,8 °C -0,8 °C 94 % 1027,4 hPa 0,0 mm 0,0 km/h (0 Bft) S-SW 193 ° 0 min 0,000 mm 0,0 UV-I 0 W/m² -1,6 °C -0,8 °C 0,0 km/h (0 Bft)
16.03.2017 03:53 -0,8 °C -0,8 °C 94 % 1027,4 hPa 0,0 mm 0,9 km/h (0 Bft) S-SW 193 ° 0 min 0,000 mm 0,0 UV-I 0 W/m² -1,6 °C -0,8 °C 3,2 km/h (1 Bft)
16.03.2017 03:54 -0,8 °C -0,8 °C 94 % 1027,4 hPa 0,0 mm 0,9 km/h (0 Bft) S-SW 193 ° 0 min 0,000 mm 0,0 UV-I 0 W/m² -1,6 °C -0,8 °C 1,6 km/h (1 Bft)
16.03.2017 03:55 -0,8 °C -0,8 °C 94 % 1027,4 hPa 0,0 mm 0,0 km/h (0 Bft) S-SW 193 ° 0 min 0,000 mm 0,0 UV-I 0 W/m² -1,6 °C -0,8 °C 0,0 km/h (0 Bft)
16.03.2017 03:56 -0,7 °C -0,7 °C 94 % 1027,4 hPa 0,0 mm 0,0 km/h (0 Bft) S-SW 193 ° 0 min 0,000 mm 0,0 UV-I 0 W/m² -1,5 °C -0,7 °C 0,0 km/h (0 Bft)
16.03.2017 03:57 -0,7 °C -0,7 °C 95 % 1027,4 hPa 0,0 mm 0,0 km/h (0 Bft) S-SW 193 ° 0 min 0,000 mm 0,0 UV-I 0 W/m² -1,4 °C -0,7 °C 0,0 km/h (0 Bft)
16.03.2017 03:58 -0,7 °C -0,7 °C 95 % 1027,4 hPa 0,0 mm 0,0 km/h (0 Bft) S-SW 193 ° 0 min 0,000 mm 0,0 UV-I 0 W/m² -1,4 °C -0,7 °C 0,0 km/h (0 Bft)
16.03.2017 03:59 -0,6 °C -0,6 °C 95 % 1027,4 hPa 0,0 mm 0,0 km/h (0 Bft) S-SW 193 ° 0 min 0,000 mm 0,0 UV-I 0 W/m² -1,3 °C -0,6 °C 0,0 km/h (0 Bft)
16.03.2017 04:00 -0,6 °C -0,6 °C 95 % 1027,4 hPa 0,0 mm 0,0 km/h (0 Bft) S-SW 193 ° 0 min 0,000 mm 0,0 UV-I 0 W/m² -1,3 °C -0,6 °C 0,0 km/h (0 Bft)
16.03.2017 04:01 -0,6 °C -0,6 °C 95 % 1027,4 hPa 0,0 mm 0,0 km/h (0 Bft) S-SW 193 ° 0 min 0,000 mm 0,0 UV-I 0 W/m² -1,3 °C -0,6 °C 0,0 km/h (0 Bft)
16.03.2017 04:02 -0,7 °C -0,6 °C 94 % 1027,4 hPa 0,0 mm 0,0 km/h (0 Bft) S-SW 193 ° 0 min 0,000 mm 0,0 UV-I 0 W/m² -1,5 °C -0,7 °C 0,0 km/h (0 Bft)
16.03.2017 04:03 -0,7 °C -0,7 °C 94 % 1027,4 hPa 0,0 mm 0,0 km/h (0 Bft) S-SW 193 ° 0 min 0,000 mm 0,0 UV-I 0 W/m² -1,5 °C -0,7 °C 0,0 km/h (0 Bft)
16.03.2017 04:04 -0,6 °C -0,6 °C 94 % 1027,4 hPa 0,0 mm 0,0 km/h (0 Bft) S-SW 193 ° 0 min 0,000 mm 0,0 UV-I 0 W/m² -1,4 °C -0,6 °C 0,0 km/h (0 Bft)
16.03.2017 04:05 -0,6 °C -0,6 °C 95 % 1027,4 hPa 0,0 mm 0,0 km/h (0 Bft) S-SW 193 ° 0 min 0,000 mm 0,0 UV-I 0 W/m² -1,3 °C -0,6 °C 0,0 km/h (0 Bft)
16.03.2017 04:06 -0,5 °C -0,5 °C 94 % 1027,4 hPa 0,0 mm 1,3 km/h (1 Bft) S-SW 193 ° 0 min 0,000 mm 0,0 UV-I 0 W/m² -1,3 °C -0,5 °C 3,2 km/h (1 Bft)
16.03.2017 04:07 -0,6 °C -0,5 °C 94 % 1027,4 hPa 0,0 mm 0,1 km/h (0 Bft) S-SW 193 ° 0 min 0,000 mm 0,0 UV-I 0 W/m² -1,4 °C -0,6 °C 1,6 km/h (1 Bft)
16.03.2017 04:08 -0,7 °C -0,6 °C 94 % 1027,3 hPa 0,0 mm 0,0 km/h (0 Bft) S-SW 193 ° 0 min 0,000 mm 0,0 UV-I 0 W/m² -1,5 °C -0,7 °C 0,0 km/h (0 Bft)
16.03.2017 04:09 -0,7 °C -0,7 °C 94 % 1027,3 hPa 0,0 mm 0,0 km/h (0 Bft) S-SW 193 ° 0 min 0,000 mm 0,0 UV-I 0 W/m² -1,5 °C -0,7 °C 0,0 km/h (0 Bft)
16.03.2017 04:10 -0,8 °C -0,7 °C 94 % 1027,3 hPa 0,0 mm 0,0 km/h (0 Bft) S-SW 193 ° 0 min 0,000 mm 0,0 UV-I 0 W/m² -1,6 °C -0,8 °C 0,0 km/h (0 Bft)
16.03.2017 04:11 -0,9 °C -0,8 °C 94 % 1027,2 hPa 0,0 mm 0,0 km/h (0 Bft) S-SW 193 ° 0 min 0,000 mm 0,0 UV-I 0 W/m² -1,7 °C -0,9 °C 0,0 km/h (0 Bft)
16.03.2017 04:12 -1,0 °C -0,9 °C 94 % 1027,2 hPa 0,0 mm 0,0 km/h (0 Bft) S-SW 193 ° 0 min 0,000 mm 0,0 UV-I 0 W/m² -1,8 °C -1,0 °C 0,0 km/h (0 Bft)
16.03.2017 04:13 -1,1 °C -0,9 °C 94 % 1027,2 hPa 0,0 mm 0,0 km/h (0 Bft) S-SW 193 ° 0 min 0,000 mm 0,0 UV-I 0 W/m² -1,9 °C -1,1 °C 0,0 km/h (0 Bft)
16.03.2017 04:14 -1,0 °C -1,0 °C 94 % 1027,2 hPa 0,0 mm 0,0 km/h (0 Bft) S-SW 193 ° 0 min 0,000 mm 0,0 UV-I 0 W/m² -1,8 °C -1,0 °C 0,0 km/h (0 Bft)
16.03.2017 04:15 -0,7 °C -0,7 °C 94 % 1027,2 hPa 0,0 mm 1,3 km/h (1 Bft) S-SW 193 ° 0 min 0,000 mm 0,0 UV-I 0 W/m² -1,5 °C -0,7 °C 3,2 km/h (1 Bft)
16.03.2017 04:16 -0,4 °C -0,4 °C 95 % 1027,1 hPa 0,0 mm 0,9 km/h (0 Bft) S-SW 193 ° 0 min 0,000 mm 0,0 UV-I 0 W/m² -1,1 °C -0,4 °C 1,6 km/h (1 Bft)
16.03.2017 04:17 -0,2 °C -0,2 °C 95 % 1027,2 hPa 0,0 mm 1,0 km/h (0 Bft) S-SW 193 ° 0 min 0,000 mm 0,0 UV-I 0 W/m² -0,9 °C -0,2 °C 3,2 km/h (1 Bft)
16.03.2017 04:18 -0,1 °C -0,1 °C 95 % 1027,2 hPa 0,0 mm 0,0 km/h (0 Bft) S-SW 193 ° 0 min 0,000 mm 0,0 UV-I 0 W/m² -0,8 °C -0,1 °C 0,0 km/h (0 Bft)
16.03.2017 04:19 -0,2 °C -0,1 °C 95 % 1027,1 hPa 0,0 mm 0,0 km/h (0 Bft) S-SW 193 ° 0 min 0,000 mm 0,0 UV-I 0 W/m² -0,9 °C -0,2 °C 0,0 km/h (0 Bft)
16.03.2017 04:20 -0,1 °C -0,1 °C 95 % 1027,1 hPa 0,0 mm 0,6 km/h (0 Bft) S-SW 192 ° 0 min 0,000 mm 0,0 UV-I 0 W/m² -0,8 °C -0,1 °C 1,6 km/h (1 Bft)
16.03.2017 04:21 0,1 °C 0,1 °C 95 % 1027,1 hPa 0,0 mm 0,3 km/h (0 Bft) S-SW 192 ° 0 min 0,000 mm 0,0 UV-I 0 W/m² -0,6 °C 0,1 °C 1,6 km/h (1 Bft)
16.03.2017 04:22 -0,1 °C 0,1 °C 95 % 1027,1 hPa 0,0 mm 0,9 km/h (0 Bft) S-SW 192 ° 0 min 0,000 mm 0,0 UV-I 0 W/m² -0,8 °C -0,1 °C 1,6 km/h (1 Bft)
16.03.2017 04:23 -0,3 °C -0,1 °C 94 % 1027,2 hPa 0,0 mm 0,0 km/h (0 Bft) S-SW 192 ° 0 min 0,000 mm 0,0 UV-I 0 W/m² -1,1 °C -0,3 °C 0,0 km/h (0 Bft)
16.03.2017 04:24 -0,6 °C -0,3 °C 93 % 1027,1 hPa 0,0 mm 0,1 km/h (0 Bft) S-SW 192 ° 0 min 0,000 mm 0,0 UV-I 0 W/m² -1,6 °C -0,6 °C 1,6 km/h (1 Bft)
16.03.2017 04:25 -0,8 °C -0,6 °C 92 % 1027,2 hPa 0,0 mm 0,0 km/h (0 Bft) S-SW 192 ° 0 min 0,000 mm 0,0 UV-I 0 W/m² -1,9 °C -0,8 °C 0,0 km/h (0 Bft)
16.03.2017 04:26 -1,0 °C -0,8 °C 92 % 1027,2 hPa 0,0 mm 0,0 km/h (0 Bft) S-SW 192 ° 0 min 0,000 mm 0,0 UV-I 0 W/m² -2,1 °C -1,0 °C 0,0 km/h (0 Bft)
16.03.2017 04:27 -1,1 °C -1,0 °C 92 % 1027,2 hPa 0,0 mm 0,4 km/h (0 Bft) S-SW 192 ° 0 min 0,000 mm 0,0 UV-I 0 W/m² -2,2 °C -1,1 °C 1,6 km/h (1 Bft)
16.03.2017 04:28 -1,2 °C -1,1 °C 93 % 1027,2 hPa 0,0 mm 0,3 km/h (0 Bft) S-SW 192 ° 0 min 0,000 mm 0,0 UV-I 0 W/m² -2,2 °C -1,2 °C 1,6 km/h (1 Bft)
16.03.2017 04:29 -1,2 °C -1,2 °C 93 % 1027,1 hPa 0,0 mm 0,3 km/h (0 Bft) S-SW 192 ° 0 min 0,000 mm 0,0 UV-I 0 W/m² -2,2 °C -1,2 °C 1,6 km/h (1 Bft)
16.03.2017 04:30 -1,2 °C -1,2 °C 93 % 1027,2 hPa 0,0 mm 0,0 km/h (0 Bft) S-SW 192 ° 0 min 0,000 mm 0,0 UV-I 0 W/m² -2,2 °C -1,2 °C 0,0 km/h (0 Bft)
16.03.2017 04:31 -1,2 °C -1,2 °C 93 % 1027,1 hPa 0,0 mm 0,6 km/h (0 Bft) S-SW 192 ° 0 min 0,000 mm 0,0 UV-I 0 W/m² -2,2 °C -1,2 °C 3,2 km/h (1 Bft)
16.03.2017 04:32 -0,8 °C -0,8 °C 94 % 1027,1 hPa 0,0 mm 0,9 km/h (0 Bft) S-SW 192 ° 0 min 0,000 mm 0,0 UV-I 0 W/m² -1,6 °C -0,8 °C 3,2 km/h (1 Bft)
16.03.2017 04:33 -0,6 °C -0,6 °C 94 % 1027,1 hPa 0,0 mm 1,3 km/h (1 Bft) S-SW 192 ° 0 min 0,000 mm 0,0 UV-I 0 W/m² -1,4 °C -0,6 °C 3,2 km/h (1 Bft)
16.03.2017 04:34 -0,4 °C -0,4 °C 95 % 1027,1 hPa 0,0 mm 0,0 km/h (0 Bft) S-SW 192 ° 0 min 0,000 mm 0,0 UV-I 0 W/m² -1,1 °C -0,4 °C 0,0 km/h (0 Bft)
16.03.2017 04:35 -0,4 °C -0,4 °C 94 % 1027,1 hPa 0,0 mm 0,2 km/h (0 Bft) S-SW 192 ° 0 min 0,000 mm 0,0 UV-I 0 W/m² -1,2 °C -0,4 °C 1,6 km/h (1 Bft)
16.03.2017 04:36 -0,3 °C -0,3 °C 94 % 1027,1 hPa 0,0 mm 0,9 km/h (0 Bft) S-SW 192 ° 0 min 0,000 mm 0,0 UV-I 0 W/m² -1,1 °C -0,3 °C 3,2 km/h (1 Bft)
16.03.2017 04:37 -0,1 °C -0,1 °C 94 % 1027,0 hPa 0,0 mm 1,9 km/h (1 Bft) S-SO 167 ° 0 min 0,000 mm 0,0 UV-I 0 W/m² -0,9 °C -0,1 °C 4,8 km/h (1 Bft)
16.03.2017 04:38 0,0 °C 0,0 °C 95 % 1027,0 hPa 0,0 mm 0,1 km/h (0 Bft) S-SO 167 ° 0 min 0,000 mm 0,0 UV-I 0 W/m² -0,7 °C 0,0 °C 1,6 km/h (1 Bft)
16.03.2017 04:39 0,1 °C 0,1 °C 95 % 1027,0 hPa 0,0 mm 0,0 km/h (0 Bft) S-SO 167 ° 0 min 0,000 mm 0,0 UV-I 0 W/m² -0,6 °C 0,1 °C 0,0 km/h (0 Bft)
16.03.2017 04:40 0,2 °C 0,2 °C 94 % 1027,0 hPa 0,0 mm 0,0 km/h (0 Bft) S-SO 167 ° 0 min 0,000 mm 0,0 UV-I 0 W/m² -0,6 °C 0,2 °C 0,0 km/h (0 Bft)
16.03.2017 04:41 0,1 °C 0,2 °C 94 % 1027,0 hPa 0,0 mm 0,0 km/h (0 Bft) S-SO 167 ° 0 min 0,000 mm 0,0 UV-I 0 W/m² -0,7 °C 0,1 °C 0,0 km/h (0 Bft)
16.03.2017 04:42 -0,2 °C 0,1 °C 93 % 1027,0 hPa 0,0 mm 0,0 km/h (0 Bft) S-SO 167 ° 0 min 0,000 mm 0,0 UV-I 0 W/m² -1,2 °C -0,2 °C 0,0 km/h (0 Bft)
16.03.2017 04:43 -0,4 °C -0,2 °C 92 % 1027,0 hPa 0,0 mm 0,0 km/h (0 Bft) S-SO 167 ° 0 min 0,000 mm 0,0 UV-I 0 W/m² -1,5 °C -0,4 °C 0,0 km/h (0 Bft)
16.03.2017 04:44 -0,7 °C -0,4 °C 92 % 1027,1 hPa 0,0 mm 2,0 km/h (1 Bft) S-SO 167 ° 0 min 0,000 mm 0,0 UV-I 0 W/m² -1,8 °C -0,7 °C 4,8 km/h (1 Bft)
16.03.2017 04:45 -0,9 °C -0,7 °C 92 % 1027,1 hPa 0,0 mm 1,5 km/h (1 Bft) S-SO 167 ° 0 min 0,000 mm 0,0 UV-I 0 W/m² -2,0 °C -0,9 °C 4,8 km/h (1 Bft)
16.03.2017 04:46 -1,1 °C -0,9 °C 92 % 1027,1 hPa 0,0 mm 1,3 km/h (1 Bft) S-SO 167 ° 0 min 0,000 mm 0,0 UV-I 0 W/m² -2,2 °C -1,1 °C 1,6 km/h (1 Bft)
16.03.2017 04:47 -1,1 °C -1,1 °C 92 % 1027,1 hPa 0,0 mm 1,6 km/h (1 Bft) S-SO 167 ° 0 min 0,000 mm 0,0 UV-I 0 W/m² -2,2 °C -1,1 °C 4,8 km/h (1 Bft)
16.03.2017 04:48 -1,1 °C -1,1 °C 93 % 1027,1 hPa 0,0 mm 1,9 km/h (1 Bft) S-SO 167 ° 0 min 0,000 mm 0,0 UV-I 0 W/m² -2,1 °C -1,1 °C 4,8 km/h (1 Bft)
16.03.2017 04:49 -1,0 °C -1,0 °C 93 % 1027,1 hPa 0,0 mm 1,3 km/h (1 Bft) S-SO 167 ° 0 min 0,000 mm 0,0 UV-I 0 W/m² -2,0 °C -1,0 °C 1,6 km/h (1 Bft)
16.03.2017 04:50 -1,0 °C -1,0 °C 93 % 1027,0 hPa 0,0 mm 0,1 km/h (0 Bft) S-SO 167 ° 0 min 0,000 mm 0,0 UV-I 0 W/m² -2,0 °C -1,0 °C 1,6 km/h (1 Bft)
16.03.2017 04:51 -1,1 °C -1,0 °C 93 % 1027,1 hPa 0,0 mm 0,0 km/h (0 Bft) S-SO 167 ° 0 min 0,000 mm 0,0 UV-I 0 W/m² -2,1 °C -1,1 °C 0,0 km/h (0 Bft)
16.03.2017 04:52 -1,0 °C -1,0 °C 93 % 1027,0 hPa 0,0 mm 0,0 km/h (0 Bft) S-SO 167 ° 0 min 0,000 mm 0,0 UV-I 0 W/m² -2,0 °C -1,0 °C 0,0 km/h (0 Bft)
16.03.2017 04:53 -0,9 °C -0,9 °C 94 % 1027,0 hPa 0,0 mm 0,0 km/h (0 Bft) S-SO 167 ° 0 min 0,000 mm 0,0 UV-I 0 W/m² -1,7 °C -0,9 °C 0,0 km/h (0 Bft)
16.03.2017 04:54 -0,8 °C -0,8 °C 94 % 1027,1 hPa 0,0 mm 0,0 km/h (0 Bft) S-SO 167 ° 0 min 0,000 mm 0,0 UV-I 0 W/m² -1,6 °C -0,8 °C 0,0 km/h (0 Bft)
16.03.2017 04:55 -0,8 °C -0,8 °C 94 % 1027,1 hPa 0,0 mm 0,0 km/h (0 Bft) S-SO 167 ° 0 min 0,000 mm 0,0 UV-I 0 W/m² -1,6 °C -0,8 °C 0,0 km/h (0 Bft)
16.03.2017 04:56 -0,8 °C -0,8 °C 94 % 1027,1 hPa 0,0 mm 0,0 km/h (0 Bft) S-SO 167 ° 0 min 0,000 mm 0,0 UV-I 0 W/m² -1,6 °C -0,8 °C 0,0 km/h (0 Bft)
16.03.2017 04:57 -0,7 °C -0,7 °C 94 % 1027,0 hPa 0,0 mm 0,0 km/h (0 Bft) S-SO 167 ° 0 min 0,000 mm 0,0 UV-I 0 W/m² -1,5 °C -0,7 °C 0,0 km/h (0 Bft)
16.03.2017 04:58 -0,7 °C -0,7 °C 94 % 1027,0 hPa 0,0 mm 0,0 km/h (0 Bft) S-SO 167 ° 0 min 0,000 mm 0,0 UV-I 0 W/m² -1,5 °C -0,7 °C 0,0 km/h (0 Bft)
16.03.2017 04:59 -0,6 °C -0,6 °C 94 % 1027,0 hPa 0,0 mm 0,0 km/h (0 Bft) S-SO 167 ° 0 min 0,000 mm 0,0 UV-I 0 W/m² -1,4 °C -0,6 °C 0,0 km/h (0 Bft)
16.03.2017 05:00 -0,6 °C -0,6 °C 94 % 1027,0 hPa 0,0 mm 0,0 km/h (0 Bft) S-SO 167 ° 0 min 0,000 mm 0,0 UV-I 0 W/m² -1,4 °C -0,6 °C 0,0 km/h (0 Bft)
16.03.2017 05:01 -0,5 °C -0,5 °C 94 % 1026,9 hPa 0,0 mm 0,0 km/h (0 Bft) S-SO 167 ° 0 min 0,000 mm 0,0 UV-I 0 W/m² -1,3 °C -0,5 °C 0,0 km/h (0 Bft)
16.03.2017 05:02 -0,6 °C -0,5 °C 94 % 1027,0 hPa 0,0 mm 0,0 km/h (0 Bft) S-SO 167 ° 0 min 0,000 mm 0,0 UV-I 0 W/m² -1,4 °C -0,6 °C 0,0 km/h (0 Bft)
16.03.2017 05:03 -0,6 °C -0,6 °C 94 % 1026,9 hPa 0,0 mm 0,0 km/h (0 Bft) S-SO 167 ° 0 min 0,000 mm 0,0 UV-I 0 W/m² -1,4 °C -0,6 °C 0,0 km/h (0 Bft)
16.03.2017 05:04 -0,7 °C -0,6 °C 94 % 1026,9 hPa 0,0 mm 0,0 km/h (0 Bft) S-SO 167 ° 0 min 0,000 mm 0,0 UV-I 0 W/m² -1,5 °C -0,7 °C 0,0 km/h (0 Bft)
16.03.2017 05:05 -0,8 °C -0,7 °C 94 % 1027,0 hPa 0,0 mm 0,0 km/h (0 Bft) S-SO 167 ° 0 min 0,000 mm 0,0 UV-I 0 W/m² -1,6 °C -0,8 °C 0,0 km/h (0 Bft)
16.03.2017 05:06 -0,8 °C -0,8 °C 94 % 1027,0 hPa 0,0 mm 0,0 km/h (0 Bft) S-SO 167 ° 0 min 0,000 mm 0,0 UV-I 0 W/m² -1,6 °C -0,8 °C 0,0 km/h (0 Bft)
16.03.2017 05:07 -0,9 °C -0,8 °C 93 % 1026,9 hPa 0,0 mm 0,0 km/h (0 Bft) S-SO 167 ° 0 min 0,000 mm 0,0 UV-I 0 W/m² -1,9 °C -0,9 °C 0,0 km/h (0 Bft)
16.03.2017 05:08 -0,9 °C -0,8 °C 94 % 1026,9 hPa 0,0 mm 0,0 km/h (0 Bft) S-SO 167 ° 0 min 0,000 mm 0,0 UV-I 0 W/m² -1,7 °C -0,9 °C 0,0 km/h (0 Bft)
16.03.2017 05:09 -0,9 °C -0,8 °C 94 % 1026,9 hPa 0,0 mm 0,0 km/h (0 Bft) S-SO 167 ° 0 min 0,000 mm 0,0 UV-I 0 W/m² -1,7 °C -0,9 °C 0,0 km/h (0 Bft)
16.03.2017 05:10 -0,9 °C -0,9 °C 94 % 1026,9 hPa 0,0 mm 0,0 km/h (0 Bft) S-SO 167 ° 0 min 0,000 mm 0,0 UV-I 0 W/m² -1,7 °C -0,9 °C 0,0 km/h (0 Bft)
16.03.2017 05:11 -0,9 °C -0,9 °C 94 % 1026,9 hPa 0,0 mm 0,0 km/h (0 Bft) S-SO 167 ° 0 min 0,000 mm 0,0 UV-I 0 W/m² -1,7 °C -0,9 °C 0,0 km/h (0 Bft)
16.03.2017 05:12 -0,9 °C -0,9 °C 94 % 1026,9 hPa 0,0 mm 0,0 km/h (0 Bft) S-SO 167 ° 0 min 0,000 mm 0,0 UV-I 0 W/m² -1,7 °C -0,9 °C 0,0 km/h (0 Bft)
16.03.2017 05:13 -1,1 °C -0,9 °C 94 % 1027,0 hPa 0,0 mm 0,0 km/h (0 Bft) S-SO 167 ° 0 min 0,000 mm 0,0 UV-I 0 W/m² -1,9 °C -1,1 °C 0,0 km/h (0 Bft)
16.03.2017 05:14 -1,1 °C -1,1 °C 93 % 1027,0 hPa 0,0 mm 0,0 km/h (0 Bft) S-SO 167 ° 0 min 0,000 mm 0,0 UV-I 0 W/m² -2,1 °C -1,1 °C 0,0 km/h (0 Bft)
16.03.2017 05:15 -1,2 °C -1,1 °C 93 % 1026,9 hPa 0,0 mm 0,0 km/h (0 Bft) S-SO 167 ° 0 min 0,000 mm 0,0 UV-I 0 W/m² -2,2 °C -1,2 °C 0,0 km/h (0 Bft)
16.03.2017 05:16 -1,3 °C -1,2 °C 93 % 1027,0 hPa 0,0 mm 0,0 km/h (0 Bft) S-SO 167 ° 0 min 0,000 mm 0,0 UV-I 0 W/m² -2,3 °C -1,3 °C 0,0 km/h (0 Bft)
16.03.2017 05:17 -1,4 °C -1,3 °C 93 % 1027,0 hPa 0,0 mm 0,0 km/h (0 Bft) S-SO 167 ° 0 min 0,000 mm 0,0 UV-I 0 W/m² -2,4 °C -1,4 °C 0,0 km/h (0 Bft)
16.03.2017 05:18 -1,4 °C -1,4 °C 93 % 1027,1 hPa 0,0 mm 0,0 km/h (0 Bft) S-SO 167 ° 0 min 0,000 mm 0,0 UV-I 0 W/m² -2,4 °C -1,4 °C 0,0 km/h (0 Bft)
16.03.2017 05:19 -1,4 °C -1,4 °C 93 % 1027,1 hPa 0,0 mm 0,0 km/h (0 Bft) S-SO 167 ° 0 min 0,000 mm 0,0 UV-I 0 W/m² -2,4 °C -1,4 °C 0,0 km/h (0 Bft)
16.03.2017 05:20 -1,3 °C -1,3 °C 94 % 1027,0 hPa 0,0 mm 0,0 km/h (0 Bft) S-SO 167 ° 0 min 0,000 mm 0,0 UV-I 0 W/m² -2,1 °C -1,3 °C 0,0 km/h (0 Bft)
16.03.2017 05:21 -1,3 °C -1,3 °C 94 % 1027,1 hPa 0,0 mm 0,0 km/h (0 Bft) S-SO 167 ° 0 min 0,000 mm 0,0 UV-I 0 W/m² -2,1 °C -1,3 °C 0,0 km/h (0 Bft)
16.03.2017 05:22 -1,3 °C -1,3 °C 94 % 1027,1 hPa 0,0 mm 0,0 km/h (0 Bft) S-SO 167 ° 0 min 0,000 mm 0,0 UV-I 0 W/m² -2,1 °C -1,3 °C 0,0 km/h (0 Bft)
16.03.2017 05:23 -1,3 °C -1,3 °C 94 % 1027,1 hPa 0,0 mm 0,0 km/h (0 Bft) S-SO 167 ° 0 min 0,000 mm 0,0 UV-I 0 W/m² -2,1 °C -1,3 °C 0,0 km/h (0 Bft)
16.03.2017 05:24 -1,3 °C -1,3 °C 94 % 1027,1 hPa 0,0 mm 0,0 km/h (0 Bft) S-SO 167 ° 0 min 0,000 mm 0,0 UV-I 0 W/m² -2,1 °C -1,3 °C 0,0 km/h (0 Bft)
16.03.2017 05:25 -1,2 °C -1,2 °C 94 % 1027,1 hPa 0,0 mm 0,0 km/h (0 Bft) S-SO 167 ° 0 min 0,000 mm 0,0 UV-I 0 W/m² -2,0 °C -1,2 °C 0,0 km/h (0 Bft)
16.03.2017 05:26 -1,2 °C -1,2 °C 94 % 1027,0 hPa 0,0 mm 0,0 km/h (0 Bft) S-SO 167 ° 0 min 0,000 mm 0,0 UV-I 0 W/m² -2,0 °C -1,2 °C 0,0 km/h (0 Bft)
16.03.2017 05:27 -1,1 °C -1,1 °C 94 % 1027,0 hPa 0,0 mm 0,0 km/h (0 Bft) S-SO 167 ° 0 min 0,000 mm 0,0 UV-I 0 W/m² -1,9 °C -1,1 °C 0,0 km/h (0 Bft)
16.03.2017 05:28 -1,1 °C -1,1 °C 94 % 1027,0 hPa 0,0 mm 0,0 km/h (0 Bft) S-SO 167 ° 0 min 0,000 mm 0,0 UV-I 0 W/m² -1,9 °C -1,1 °C 0,0 km/h (0 Bft)
16.03.2017 05:29 -1,1 °C -1,1 °C 94 % 1027,0 hPa 0,0 mm 0,0 km/h (0 Bft) S-SO 167 ° 0 min 0,000 mm 0,0 UV-I 0 W/m² -1,9 °C -1,1 °C 0,0 km/h (0 Bft)
16.03.2017 05:30 -1,1 °C -1,1 °C 94 % 1027,0 hPa 0,0 mm 0,0 km/h (0 Bft) S-SO 167 ° 0 min 0,000 mm 0,0 UV-I 0 W/m² -1,9 °C -1,1 °C 0,0 km/h (0 Bft)
16.03.2017 05:31 -1,1 °C -1,1 °C 94 % 1027,0 hPa 0,0 mm 0,0 km/h (0 Bft) S-SO 167 ° 0 min 0,000 mm 0,0 UV-I 0 W/m² -1,9 °C -1,1 °C 0,0 km/h (0 Bft)
16.03.2017 05:32 -1,1 °C -1,1 °C 94 % 1026,9 hPa 0,0 mm 0,0 km/h (0 Bft) S-SO 167 ° 0 min 0,000 mm 0,0 UV-I 0 W/m² -1,9 °C -1,1 °C 0,0 km/h (0 Bft)
16.03.2017 05:33 -1,1 °C -1,1 °C 94 % 1026,9 hPa 0,0 mm 0,0 km/h (0 Bft) S-SO 167 ° 0 min 0,000 mm 0,0 UV-I 0 W/m² -1,9 °C -1,1 °C 0,0 km/h (0 Bft)
16.03.2017 05:34 -1,0 °C -1,0 °C 94 % 1026,9 hPa 0,0 mm 0,0 km/h (0 Bft) S-SO 167 ° 0 min 0,000 mm 0,0 UV-I 0 W/m² -1,8 °C -1,0 °C 0,0 km/h (0 Bft)
16.03.2017 05:35 -1,1 °C -1,0 °C 94 % 1026,9 hPa 0,0 mm 0,0 km/h (0 Bft) S-SO 167 ° 0 min 0,000 mm 0,0 UV-I 0 W/m² -1,9 °C -1,1 °C 0,0 km/h (0 Bft)
16.03.2017 05:36 -1,1 °C -1,1 °C 94 % 1026,9 hPa 0,0 mm 0,0 km/h (0 Bft) S-SO 167 ° 0 min 0,000 mm 0,0 UV-I 0 W/m² -1,9 °C -1,1 °C 0,0 km/h (0 Bft)
16.03.2017 05:37 -1,2 °C -1,1 °C 94 % 1026,9 hPa 0,0 mm 0,0 km/h (0 Bft) S-SO 167 ° 0 min 0,000 mm 0,0 UV-I 0 W/m² -2,0 °C -1,2 °C 0,0 km/h (0 Bft)
16.03.2017 05:38 -1,3 °C -1,2 °C 94 % 1026,9 hPa 0,0 mm 0,0 km/h (0 Bft) S-SO 167 ° 0 min 0,000 mm 0,0 UV-I 0 W/m² -2,1 °C -1,3 °C 0,0 km/h (0 Bft)
16.03.2017 05:39 -1,3 °C -1,3 °C 94 % 1026,9 hPa 0,0 mm 0,0 km/h (0 Bft) S-SO 167 ° 0 min 0,000 mm 0,0 UV-I 0 W/m² -2,1 °C -1,3 °C 0,0 km/h (0 Bft)
16.03.2017 05:40 -1,3 °C -1,3 °C 94 % 1026,8 hPa 0,0 mm 0,0 km/h (0 Bft) S-SO 167 ° 0 min 0,000 mm 0,0 UV-I 0 W/m² -2,1 °C -1,3 °C 0,0 km/h (0 Bft)
16.03.2017 05:41 -1,4 °C -1,3 °C 94 % 1026,9 hPa 0,0 mm 0,0 km/h (0 Bft) S-SO 167 ° 0 min 0,000 mm 0,0 UV-I 0 W/m² -2,2 °C -1,4 °C 0,0 km/h (0 Bft)
16.03.2017 05:42 -1,4 °C -1,4 °C 94 % 1026,9 hPa 0,0 mm 0,0 km/h (0 Bft) S-SO 167 ° 0 min 0,000 mm 0,0 UV-I 0 W/m² -2,2 °C -1,4 °C 0,0 km/h (0 Bft)
16.03.2017 05:43 -1,6 °C -1,4 °C 94 % 1026,8 hPa 0,0 mm 0,0 km/h (0 Bft) S-SO 167 ° 0 min 0,000 mm 0,0 UV-I 0 W/m² -2,4 °C -1,6 °C 0,0 km/h (0 Bft)
16.03.2017 05:44 -1,6 °C -1,6 °C 94 % 1026,8 hPa 0,0 mm 0,0 km/h (0 Bft) S-SO 167 ° 0 min 0,000 mm 0,0 UV-I 0 W/m² -2,4 °C -1,6 °C 0,0 km/h (0 Bft)
16.03.2017 05:45 -1,7 °C -1,6 °C 94 % 1026,8 hPa 0,0 mm 0,0 km/h (0 Bft) S-SO 167 ° 0 min 0,000 mm 0,0 UV-I 0 W/m² -2,5 °C -1,7 °C 0,0 km/h (0 Bft)
16.03.2017 05:46 -1,6 °C -1,6 °C 94 % 1026,8 hPa 0,0 mm 0,0 km/h (0 Bft) S-SO 167 ° 0 min 0,000 mm 0,0 UV-I 0 W/m² -2,4 °C -1,6 °C 0,0 km/h (0 Bft)
16.03.2017 05:47 -1,6 °C -1,6 °C 94 % 1026,8 hPa 0,0 mm 0,0 km/h (0 Bft) S-SO 167 ° 0 min 0,000 mm 0,0 UV-I 0 W/m² -2,4 °C -1,6 °C 0,0 km/h (0 Bft)
16.03.2017 05:48 -1,7 °C -1,6 °C 94 % 1026,8 hPa 0,0 mm 0,0 km/h (0 Bft) S-SO 167 ° 0 min 0,000 mm 0,0 UV-I 0 W/m² -2,5 °C -1,7 °C 0,0 km/h (0 Bft)
16.03.2017 05:49 -1,8 °C -1,7 °C 94 % 1026,9 hPa 0,0 mm 0,0 km/h (0 Bft) S-SO 167 ° 0 min 0,000 mm 0,0 UV-I 0 W/m² -2,6 °C -1,8 °C 0,0 km/h (0 Bft)
16.03.2017 05:50 -1,8 °C -1,7 °C 94 % 1026,8 hPa 0,0 mm 0,0 km/h (0 Bft) S-SO 167 ° 0 min 0,000 mm 0,0 UV-I 0 W/m² -2,6 °C -1,8 °C 0,0 km/h (0 Bft)
16.03.2017 05:51 -1,8 °C -1,7 °C 94 % 1026,9 hPa 0,0 mm 0,0 km/h (0 Bft) S-SO 167 ° 0 min 0,000 mm 0,0 UV-I 0 W/m² -2,6 °C -1,8 °C 0,0 km/h (0 Bft)
16.03.2017 05:52 -1,8 °C -1,8 °C 94 % 1026,8 hPa 0,0 mm 0,0 km/h (0 Bft) S-SO 167 ° 0 min 0,000 mm 0,0 UV-I 0 W/m² -2,6 °C -1,8 °C 0,0 km/h (0 Bft)
16.03.2017 05:53 -1,8 °C -1,8 °C 94 % 1026,8 hPa 0,0 mm 0,0 km/h (0 Bft) S-SO 167 ° 0 min 0,000 mm 0,0 UV-I 0 W/m² -2,6 °C -1,8 °C 0,0 km/h (0 Bft)
16.03.2017 05:54 -1,8 °C -1,8 °C 94 % 1026,8 hPa 0,0 mm 0,0 km/h (0 Bft) S-SO 167 ° 0 min 0,000 mm 0,0 UV-I 0 W/m² -2,6 °C -1,8 °C 0,0 km/h (0 Bft)
16.03.2017 05:55 -1,8 °C -1,8 °C 94 % 1026,8 hPa 0,0 mm 0,0 km/h (0 Bft) S-SO 167 ° 0 min 0,000 mm 0,0 UV-I 0 W/m² -2,6 °C -1,8 °C 0,0 km/h (0 Bft)
16.03.2017 05:56 -1,8 °C -1,8 °C 94 % 1026,8 hPa 0,0 mm 0,0 km/h (0 Bft) S-SO 167 ° 0 min 0,000 mm 0,0 UV-I 0 W/m² -2,6 °C -1,8 °C 0,0 km/h (0 Bft)
16.03.2017 05:57 -1,8 °C -1,8 °C 94 % 1026,8 hPa 0,0 mm 0,0 km/h (0 Bft) S-SO 167 ° 0 min 0,000 mm 0,0 UV-I 0 W/m² -2,6 °C -1,8 °C 0,0 km/h (0 Bft)
16.03.2017 05:58 -1,7 °C -1,7 °C 94 % 1026,7 hPa 0,0 mm 0,0 km/h (0 Bft) S-SO 167 ° 0 min 0,000 mm 0,0 UV-I 0 W/m² -2,5 °C -1,7 °C 0,0 km/h (0 Bft)
16.03.2017 05:59 -1,8 °C -1,7 °C 94 % 1026,7 hPa 0,0 mm 0,0 km/h (0 Bft) S-SO 167 ° 0 min 0,000 mm 0,0 UV-I 0 W/m² -2,6 °C -1,8 °C 0,0 km/h (0 Bft)
16.03.2017 06:00 -1,7 °C -1,7 °C 94 % 1026,7 hPa 0,0 mm 0,0 km/h (0 Bft) S-SO 167 ° 0 min 0,000 mm 0,0 UV-I 0 W/m² -2,5 °C -1,7 °C 0,0 km/h (0 Bft)
16.03.2017 06:01 -1,7 °C -1,7 °C 94 % 1026,7 hPa 0,0 mm 0,0 km/h (0 Bft) S-SO 167 ° 0 min 0,000 mm 0,0 UV-I 0 W/m² -2,5 °C -1,7 °C 0,0 km/h (0 Bft)
16.03.2017 06:02 -1,7 °C -1,7 °C 94 % 1026,7 hPa 0,0 mm 0,1 km/h (0 Bft) S-SO 167 ° 0 min 0,000 mm 0,0 UV-I 0 W/m² -2,5 °C -1,7 °C 1,6 km/h (1 Bft)
16.03.2017 06:03 -1,7 °C -1,7 °C 94 % 1026,7 hPa 0,0 mm 0,0 km/h (0 Bft) S-SO 167 ° 0 min 0,000 mm 0,0 UV-I 0 W/m² -2,5 °C -1,7 °C 0,0 km/h (0 Bft)
16.03.2017 06:04 -1,8 °C -1,7 °C 94 % 1026,7 hPa 0,0 mm 0,0 km/h (0 Bft) S-SO 167 ° 0 min 0,000 mm 0,0 UV-I 0 W/m² -2,6 °C -1,8 °C 0,0 km/h (0 Bft)
16.03.2017 06:05 -1,8 °C -1,8 °C 94 % 1026,7 hPa 0,0 mm 0,0 km/h (0 Bft) S-SO 167 ° 0 min 0,000 mm 0,0 UV-I 0 W/m² -2,6 °C -1,8 °C 0,0 km/h (0 Bft)
16.03.2017 06:06 -1,9 °C -1,8 °C 94 % 1026,8 hPa 0,0 mm 0,0 km/h (0 Bft) S-SO 167 ° 0 min 0,000 mm 0,0 UV-I 0 W/m² -2,7 °C -1,9 °C 0,0 km/h (0 Bft)
16.03.2017 06:07 -1,9 °C -1,9 °C 94 % 1026,8 hPa 0,0 mm 0,0 km/h (0 Bft) S-SO 167 ° 0 min 0,000 mm 0,0 UV-I 0 W/m² -2,7 °C -1,9 °C 0,0 km/h (0 Bft)
16.03.2017 06:08 -1,8 °C -1,8 °C 94 % 1026,7 hPa 0,0 mm 0,0 km/h (0 Bft) S-SO 167 ° 0 min 0,000 mm 0,0 UV-I 0 W/m² -2,6 °C -1,8 °C 0,0 km/h (0 Bft)
16.03.2017 06:09 -1,8 °C -1,8 °C 94 % 1026,7 hPa 0,0 mm 0,3 km/h (0 Bft) S-SO 167 ° 0 min 0,000 mm 0,0 UV-I 0 W/m² -2,6 °C -1,8 °C 1,6 km/h (1 Bft)
16.03.2017 06:10 -1,7 °C -1,7 °C 95 % 1026,7 hPa 0,0 mm 0,0 km/h (0 Bft) S-SO 167 ° 0 min 0,000 mm 0,0 UV-I 0 W/m² -2,4 °C -1,7 °C 0,0 km/h (0 Bft)
16.03.2017 06:11 -1,6 °C -1,6 °C 95 % 1026,7 hPa 0,0 mm 0,0 km/h (0 Bft) S-SO 167 ° 0 min 0,000 mm 0,0 UV-I 0 W/m² -2,3 °C -1,6 °C 0,0 km/h (0 Bft)
16.03.2017 06:12 -1,5 °C -1,5 °C 95 % 1026,7 hPa 0,0 mm 0,1 km/h (0 Bft) S-SO 167 ° 0 min 0,000 mm 0,0 UV-I 0 W/m² -2,2 °C -1,5 °C 1,6 km/h (1 Bft)
16.03.2017 06:13 -1,5 °C -1,5 °C 95 % 1026,7 hPa 0,0 mm 0,0 km/h (0 Bft) S-SO 167 ° 0 min 0,000 mm 0,0 UV-I 0 W/m² -2,2 °C -1,5 °C 0,0 km/h (0 Bft)
16.03.2017 06:14 -1,6 °C -1,5 °C 95 % 1026,7 hPa 0,0 mm 0,2 km/h (0 Bft) S-SO 167 ° 0 min 0,000 mm 0,0 UV-I 0 W/m² -2,3 °C -1,6 °C 1,6 km/h (1 Bft)
16.03.2017 06:15 -1,7 °C -1,6 °C 95 % 1026,7 hPa 0,0 mm 1,2 km/h (1 Bft) S-SO 167 ° 0 min 0,000 mm 0,0 UV-I 0 W/m² -2,4 °C -1,7 °C 1,6 km/h (1 Bft)
16.03.2017 06:16 -1,8 °C -1,7 °C 94 % 1026,7 hPa 0,0 mm 1,5 km/h (1 Bft) S-SO 167 ° 0 min 0,000 mm 0,0 UV-I 0 W/m² -2,6 °C -1,8 °C 1,6 km/h (1 Bft)
16.03.2017 06:17 -1,8 °C -1,8 °C 94 % 1026,6 hPa 0,0 mm 0,7 km/h (0 Bft) S-SO 167 ° 0 min 0,000 mm 0,0 UV-I 0 W/m² -2,6 °C -1,8 °C 1,6 km/h (1 Bft)
16.03.2017 06:18 -1,8 °C -1,8 °C 94 % 1026,6 hPa 0,0 mm 0,4 km/h (0 Bft) S-SO 167 ° 0 min 0,000 mm 0,0 UV-I 0 W/m² -2,6 °C -1,8 °C 1,6 km/h (1 Bft)
16.03.2017 06:19 -1,8 °C -1,8 °C 94 % 1026,7 hPa 0,0 mm 1,1 km/h (1 Bft) S-SO 167 ° 0 min 0,000 mm 0,0 UV-I 0 W/m² -2,6 °C -1,8 °C 1,6 km/h (1 Bft)
16.03.2017 06:20 -1,8 °C -1,8 °C 94 % 1026,7 hPa 0,0 mm 1,4 km/h (1 Bft) S-SO 167 ° 0 min 0,000 mm 0,0 UV-I 0 W/m² -2,6 °C -1,8 °C 1,6 km/h (1 Bft)
16.03.2017 06:21 -1,8 °C -1,8 °C 95 % 1026,7 hPa 0,0 mm 2,1 km/h (1 Bft) S-SO 167 ° 0 min 0,000 mm 0,0 UV-I 0 W/m² -2,5 °C -1,8 °C 4,8 km/h (1 Bft)
16.03.2017 06:22 -1,8 °C -1,8 °C 95 % 1026,7 hPa 0,0 mm 0,5 km/h (0 Bft) S-SO 167 ° 0 min 0,000 mm 0,0 UV-I 0 W/m² -2,5 °C -1,8 °C 1,6 km/h (1 Bft)
16.03.2017 06:23 -1,8 °C -1,8 °C 95 % 1026,7 hPa 0,0 mm 0,2 km/h (0 Bft) S-SO 167 ° 0 min 0,000 mm 0,0 UV-I 0 W/m² -2,5 °C -1,8 °C 1,6 km/h (1 Bft)
16.03.2017 06:24 -1,8 °C -1,8 °C 95 % 1026,7 hPa 0,0 mm 0,0 km/h (0 Bft) S-SO 167 ° 0 min 0,000 mm 0,0 UV-I 0 W/m² -2,5 °C -1,8 °C 0,0 km/h (0 Bft)
16.03.2017 06:25 -1,8 °C -1,8 °C 94 % 1026,7 hPa 0,0 mm 0,0 km/h (0 Bft) S-SO 167 ° 0 min 0,000 mm 0,0 UV-I 0 W/m² -2,6 °C -1,8 °C 0,0 km/h (0 Bft)
16.03.2017 06:26 -1,7 °C -1,7 °C 95 % 1026,7 hPa 0,0 mm 0,0 km/h (0 Bft) S-SO 167 ° 0 min 0,000 mm 0,0 UV-I 0 W/m² -2,4 °C -1,7 °C 0,0 km/h (0 Bft)
16.03.2017 06:27 -1,6 °C -1,6 °C 95 % 1026,7 hPa 0,0 mm 0,0 km/h (0 Bft) S-SO 167 ° 0 min 0,000 mm 0,0 UV-I 0 W/m² -2,3 °C -1,6 °C 0,0 km/h (0 Bft)
16.03.2017 06:28 -1,5 °C -1,5 °C 95 % 1026,7 hPa 0,0 mm 0,0 km/h (0 Bft) S-SO 167 ° 0 min 0,000 mm 0,0 UV-I 0 W/m² -2,2 °C -1,5 °C 0,0 km/h (0 Bft)
16.03.2017 06:29 -1,4 °C -1,4 °C 95 % 1026,7 hPa 0,0 mm 0,0 km/h (0 Bft) S-SO 167 ° 0 min 0,000 mm 0,0 UV-I 0 W/m² -2,1 °C -1,4 °C 0,0 km/h (0 Bft)
16.03.2017 06:30 -1,4 °C -1,4 °C 95 % 1026,8 hPa 0,0 mm 0,0 km/h (0 Bft) S-SO 167 ° 0 min 0,000 mm 0,0 UV-I 5 W/m² -2,1 °C -1,4 °C 0,0 km/h (0 Bft)
16.03.2017 06:31 -1,4 °C -1,4 °C 95 % 1026,7 hPa 0,0 mm 0,0 km/h (0 Bft) S-SO 167 ° 0 min 0,000 mm 0,0 UV-I 5 W/m² -2,1 °C -1,4 °C 0,0 km/h (0 Bft)
16.03.2017 06:32 -1,4 °C -1,4 °C 95 % 1026,8 hPa 0,0 mm 0,0 km/h (0 Bft) S-SO 167 ° 0 min 0,000 mm 0,0 UV-I 5 W/m² -2,1 °C -1,4 °C 0,0 km/h (0 Bft)
16.03.2017 06:33 -1,4 °C -1,4 °C 95 % 1026,8 hPa 0,0 mm 0,0 km/h (0 Bft) S-SO 167 ° 0 min 0,000 mm 0,0 UV-I 5 W/m² -2,1 °C -1,4 °C 0,0 km/h (0 Bft)
16.03.2017 06:34 -1,3 °C -1,3 °C 95 % 1026,8 hPa 0,0 mm 0,0 km/h (0 Bft) S-SO 167 ° 0 min 0,000 mm 0,0 UV-I 5 W/m² -2,0 °C -1,3 °C 0,0 km/h (0 Bft)
16.03.2017 06:35 -1,3 °C -1,2 °C 95 % 1026,8 hPa 0,0 mm 0,0 km/h (0 Bft) S-SO 167 ° 0 min 0,000 mm 0,0 UV-I 5 W/m² -2,0 °C -1,3 °C 0,0 km/h (0 Bft)
16.03.2017 06:36 -1,3 °C -1,3 °C 95 % 1026,8 hPa 0,0 mm 0,0 km/h (0 Bft) S-SO 167 ° 0 min 0,000 mm 0,0 UV-I 7 W/m² -2,0 °C -1,3 °C 0,0 km/h (0 Bft)
16.03.2017 06:37 -1,3 °C -1,3 °C 95 % 1026,8 hPa 0,0 mm 0,0 km/h (0 Bft) S-SO 167 ° 0 min 0,000 mm 0,0 UV-I 7 W/m² -2,0 °C -1,3 °C 0,0 km/h (0 Bft)
16.03.2017 06:38 -1,3 °C -1,2 °C 95 % 1026,8 hPa 0,0 mm 0,0 km/h (0 Bft) S-SO 167 ° 0 min 0,000 mm 0,0 UV-I 7 W/m² -2,0 °C -1,3 °C 0,0 km/h (0 Bft)
16.03.2017 06:39 -1,4 °C -1,3 °C 95 % 1026,8 hPa 0,0 mm 0,0 km/h (0 Bft) S-SO 167 ° 0 min 0,000 mm 0,0 UV-I 7 W/m² -2,1 °C -1,4 °C 0,0 km/h (0 Bft)
16.03.2017 06:40 -1,3 °C -1,3 °C 95 % 1026,8 hPa 0,0 mm 0,0 km/h (0 Bft) S-SO 167 ° 0 min 0,000 mm 0,0 UV-I 7 W/m² -2,0 °C -1,3 °C 0,0 km/h (0 Bft)
16.03.2017 06:41 -1,3 °C -1,3 °C 95 % 1026,8 hPa 0,0 mm 0,0 km/h (0 Bft) S-SO 167 ° 0 min 0,000 mm 0,0 UV-I 7 W/m² -2,0 °C -1,3 °C 0,0 km/h (0 Bft)
16.03.2017 06:42 -1,4 °C -1,3 °C 95 % 1026,8 hPa 0,0 mm 0,0 km/h (0 Bft) S-SO 167 ° 0 min 0,000 mm 0,0 UV-I 7 W/m² -2,1 °C -1,4 °C 0,0 km/h (0 Bft)
16.03.2017 06:43 -1,4 °C -1,4 °C 95 % 1026,8 hPa 0,0 mm 0,0 km/h (0 Bft) S-SO 167 ° 0 min 0,000 mm 0,0 UV-I 7 W/m² -2,1 °C -1,4 °C 0,0 km/h (0 Bft)
16.03.2017 06:44 -1,5 °C -1,4 °C 94 % 1026,8 hPa 0,0 mm 0,0 km/h (0 Bft) S-SO 167 ° 0 min 0,000 mm 0,0 UV-I 7 W/m² -2,3 °C -1,5 °C 0,0 km/h (0 Bft)
16.03.2017 06:45 -1,6 °C -1,5 °C 94 % 1026,7 hPa 0,0 mm 0,0 km/h (0 Bft) S-SO 167 ° 0 min 0,000 mm 0,0 UV-I 7 W/m² -2,4 °C -1,6 °C 0,0 km/h (0 Bft)
16.03.2017 06:46 -1,5 °C -1,5 °C 95 % 1026,8 hPa 0,0 mm 0,0 km/h (0 Bft) S-SO 167 ° 0 min 0,000 mm 0,0 UV-I 9 W/m² -2,2 °C -1,5 °C 0,0 km/h (0 Bft)
16.03.2017 06:47 -1,4 °C -1,4 °C 95 % 1026,7 hPa 0,0 mm 0,0 km/h (0 Bft) S-SO 167 ° 0 min 0,000 mm 0,0 UV-I 9 W/m² -2,1 °C -1,4 °C 0,0 km/h (0 Bft)
16.03.2017 06:48 -1,4 °C -1,4 °C 95 % 1026,8 hPa 0,0 mm 0,0 km/h (0 Bft) S-SO 167 ° 0 min 0,000 mm 0,0 UV-I 9 W/m² -2,1 °C -1,4 °C 0,0 km/h (0 Bft)
16.03.2017 06:49 -1,3 °C -1,3 °C 95 % 1026,8 hPa 0,0 mm 0,0 km/h (0 Bft) S-SO 167 ° 0 min 0,000 mm 0,0 UV-I 9 W/m² -2,0 °C -1,3 °C 0,0 km/h (0 Bft)
16.03.2017 06:50 -1,4 °C -1,3 °C 95 % 1026,8 hPa 0,0 mm 0,0 km/h (0 Bft) S-SO 167 ° 0 min 0,000 mm 0,0 UV-I 11 W/m² -2,1 °C -1,4 °C 0,0 km/h (0 Bft)
16.03.2017 06:51 -1,6 °C -1,4 °C 94 % 1026,8 hPa 0,0 mm 0,0 km/h (0 Bft) S-SO 167 ° 0 min 0,000 mm 0,0 UV-I 11 W/m² -2,4 °C -1,6 °C 0,0 km/h (0 Bft)
16.03.2017 06:52 -1,8 °C -1,6 °C 94 % 1026,9 hPa 0,0 mm 0,0 km/h (0 Bft) S-SO 167 ° 0 min 0,000 mm 0,0 UV-I 11 W/m² -2,6 °C -1,8 °C 0,0 km/h (0 Bft)
16.03.2017 06:53 -1,8 °C -1,8 °C 94 % 1026,8 hPa 0,0 mm 0,0 km/h (0 Bft) S-SO 167 ° 0 min 0,000 mm 0,0 UV-I 12 W/m² -2,6 °C -1,8 °C 0,0 km/h (0 Bft)
16.03.2017 06:54 -1,9 °C -1,8 °C 94 % 1026,9 hPa 0,0 mm 0,0 km/h (0 Bft) S-SO 167 ° 0 min 0,000 mm 0,0 UV-I 12 W/m² -2,7 °C -1,9 °C 0,0 km/h (0 Bft)
16.03.2017 06:55 -1,9 °C -1,9 °C 94 % 1026,9 hPa 0,0 mm 0,0 km/h (0 Bft) S-SO 167 ° 0 min 0,000 mm 0,0 UV-I 12 W/m² -2,7 °C -1,9 °C 0,0 km/h (0 Bft)
16.03.2017 06:56 -1,9 °C -1,9 °C 94 % 1026,9 hPa 0,0 mm 0,0 km/h (0 Bft) S-SO 167 ° 0 min 0,000 mm 0,0 UV-I 14 W/m² -2,7 °C -1,9 °C 0,0 km/h (0 Bft)
16.03.2017 06:57 -1,9 °C -1,9 °C 94 % 1026,8 hPa 0,0 mm 0,0 km/h (0 Bft) S-SO 167 ° 0 min 0,000 mm 0,0 UV-I 14 W/m² -2,7 °C -1,9 °C 0,0 km/h (0 Bft)
16.03.2017 06:58 -1,8 °C -1,8 °C 94 % 1026,9 hPa 0,0 mm 0,0 km/h (0 Bft) S-SO 167 ° 0 min 0,000 mm 0,0 UV-I 16 W/m² -2,6 °C -1,8 °C 0,0 km/h (0 Bft)
16.03.2017 06:59 -1,9 °C -1,8 °C 94 % 1026,9 hPa 0,0 mm 0,0 km/h (0 Bft) S-SO 167 ° 0 min 0,000 mm 0,0 UV-I 18 W/m² -2,7 °C -1,9 °C 0,0 km/h (0 Bft)
16.03.2017 07:00 -2,0 °C -1,9 °C 94 % 1026,9 hPa 0,0 mm 0,0 km/h (0 Bft) S-SO 167 ° 0 min 0,000 mm 0,0 UV-I 19 W/m² -2,8 °C -2,0 °C 0,0 km/h (0 Bft)
16.03.2017 07:01 -1,9 °C -1,9 °C 94 % 1026,9 hPa 0,0 mm 0,0 km/h (0 Bft) S-SO 167 ° 0 min 0,000 mm 0,0 UV-I 19 W/m² -2,7 °C -1,9 °C 0,0 km/h (0 Bft)
16.03.2017 07:02 -1,9 °C -1,9 °C 94 % 1026,9 hPa 0,0 mm 0,0 km/h (0 Bft) S-SO 167 ° 0 min 0,000 mm 0,0 UV-I 19 W/m² -2,7 °C -1,9 °C 0,0 km/h (0 Bft)
16.03.2017 07:03 -1,7 °C -1,7 °C 95 % 1026,9 hPa 0,0 mm 0,0 km/h (0 Bft) S-SO 167 ° 0 min 0,000 mm 0,0 UV-I 21 W/m² -2,4 °C -1,7 °C 0,0 km/h (0 Bft)
16.03.2017 07:04 -1,6 °C -1,6 °C 95 % 1026,8 hPa 0,0 mm 0,3 km/h (0 Bft) S-SO 167 ° 0 min 0,000 mm 0,0 UV-I 21 W/m² -2,3 °C -1,6 °C 1,6 km/h (1 Bft)
16.03.2017 07:05 -1,6 °C -1,6 °C 95 % 1026,8 hPa 0,0 mm 0,4 km/h (0 Bft) S-SO 167 ° 0 min 0,000 mm 0,0 UV-I 23 W/m² -2,3 °C -1,6 °C 1,6 km/h (1 Bft)
16.03.2017 07:06 -1,4 °C -1,4 °C 95 % 1026,8 hPa 0,0 mm 1,6 km/h (1 Bft) S-SO 167 ° 0 min 0,000 mm 0,0 UV-I 25 W/m² -2,1 °C -1,4 °C 4,8 km/h (1 Bft)
16.03.2017 07:07 -1,1 °C -1,1 °C 95 % 1026,8 hPa 0,0 mm 2,1 km/h (1 Bft) S-SO 167 ° 0 min 0,000 mm 0,0 UV-I 25 W/m² -1,8 °C -1,1 °C 4,8 km/h (1 Bft)
16.03.2017 07:08 -0,8 °C -0,8 °C 95 % 1026,8 hPa 0,0 mm 0,3 km/h (0 Bft) S-SO 167 ° 0 min 0,000 mm 0,0 UV-I 26 W/m² -1,5 °C -0,8 °C 1,6 km/h (1 Bft)
16.03.2017 07:09 -0,7 °C -0,7 °C 95 % 1026,8 hPa 0,0 mm 0,6 km/h (0 Bft) S-SO 167 ° 0 min 0,000 mm 0,0 UV-I 26 W/m² -1,4 °C -0,7 °C 1,6 km/h (1 Bft)
16.03.2017 07:10 -0,9 °C -0,7 °C 95 % 1026,7 hPa 0,0 mm 0,4 km/h (0 Bft) S-SO 167 ° 0 min 0,000 mm 0,0 UV-I 30 W/m² -1,6 °C -0,9 °C 1,6 km/h (1 Bft)
16.03.2017 07:11 -1,1 °C -0,9 °C 95 % 1026,7 hPa 0,0 mm 0,1 km/h (0 Bft) S-SO 167 ° 0 min 0,000 mm 0,0 UV-I 33 W/m² -1,8 °C -1,1 °C 1,6 km/h (1 Bft)
16.03.2017 07:12 -1,3 °C -1,1 °C 94 % 1026,7 hPa 0,0 mm 0,0 km/h (0 Bft) S-SO 167 ° 0 min 0,000 mm 0,0 UV-I 35 W/m² -2,1 °C -1,3 °C 0,0 km/h (0 Bft)
16.03.2017 07:13 -1,4 °C -1,3 °C 94 % 1026,8 hPa 0,0 mm 0,3 km/h (0 Bft) S-SO 167 ° 0 min 0,000 mm 0,0 UV-I 37 W/m² -2,2 °C -1,4 °C 1,6 km/h (1 Bft)
16.03.2017 07:14 -1,4 °C -1,4 °C 94 % 1026,8 hPa 0,0 mm 0,0 km/h (0 Bft) S-SO 167 ° 0 min 0,000 mm 0,0 UV-I 39 W/m² -2,2 °C -1,4 °C 0,0 km/h (0 Bft)
16.03.2017 07:15 -1,5 °C -1,4 °C 94 % 1026,8 hPa 0,0 mm 0,1 km/h (0 Bft) S-SO 167 ° 0 min 0,000 mm 0,0 UV-I 40 W/m² -2,3 °C -1,5 °C 1,6 km/h (1 Bft)
16.03.2017 07:16 -1,5 °C -1,5 °C 94 % 1026,7 hPa 0,0 mm 1,2 km/h (1 Bft) S-SO 167 ° 0 min 0,000 mm 0,0 UV-I 42 W/m² -2,3 °C -1,5 °C 1,6 km/h (1 Bft)
16.03.2017 07:17 -1,6 °C -1,5 °C 94 % 1026,8 hPa 0,0 mm 1,0 km/h (0 Bft) S-SO 167 ° 0 min 0,000 mm 0,0 UV-I 47 W/m² -2,4 °C -1,6 °C 1,6 km/h (1 Bft)
16.03.2017 07:18 -1,5 °C -1,5 °C 94 % 1026,7 hPa 0,0 mm 1,2 km/h (1 Bft) S-SO 167 ° 0 min 0,000 mm 0,0 UV-I 49 W/m² -2,3 °C -1,5 °C 1,6 km/h (1 Bft)
16.03.2017 07:19 -1,5 °C -1,5 °C 94 % 1026,8 hPa 0,0 mm 0,5 km/h (0 Bft) S-SO 167 ° 0 min 0,000 mm 0,0 UV-I 53 W/m² -2,3 °C -1,5 °C 1,6 km/h (1 Bft)
16.03.2017 07:20 -1,4 °C -1,4 °C 94 % 1026,7 hPa 0,0 mm 0,1 km/h (0 Bft) S-SO 167 ° 0 min 0,000 mm 0,0 UV-I 56 W/m² -2,2 °C -1,4 °C 1,6 km/h (1 Bft)
16.03.2017 07:21 -1,4 °C -1,4 °C 94 % 1026,7 hPa 0,0 mm 0,1 km/h (0 Bft) S-SO 167 ° 0 min 0,000 mm 0,0 UV-I 60 W/m² -2,2 °C -1,4 °C 1,6 km/h (1 Bft)
16.03.2017 07:22 -1,3 °C -1,3 °C 94 % 1026,7 hPa 0,0 mm 0,3 km/h (0 Bft) S-SO 167 ° 0 min 0,000 mm 0,0 UV-I 63 W/m² -2,1 °C -1,3 °C 1,6 km/h (1 Bft)
16.03.2017 07:23 -1,2 °C -1,2 °C 94 % 1026,7 hPa 0,0 mm 0,1 km/h (0 Bft) S-SO 167 ° 0 min 0,000 mm 0,0 UV-I 70 W/m² -2,0 °C -1,2 °C 1,6 km/h (1 Bft)
16.03.2017 07:24 -1,2 °C -1,2 °C 94 % 1026,7 hPa 0,0 mm 0,5 km/h (0 Bft) S-SO 167 ° 0 min 0,000 mm 0,0 UV-I 74 W/m² -2,0 °C -1,2 °C 1,6 km/h (1 Bft)
16.03.2017 07:25 -1,1 °C -1,1 °C 94 % 1026,6 hPa 0,0 mm 0,3 km/h (0 Bft) S-SO 167 ° 0 min 0,000 mm 0,0 UV-I 76 W/m² -1,9 °C -1,1 °C 1,6 km/h (1 Bft)
16.03.2017 07:26 -1,0 °C -1,0 °C 95 % 1026,7 hPa 0,0 mm 0,2 km/h (0 Bft) S-SO 167 ° 0 min 0,000 mm 0,0 UV-I 79 W/m² -1,7 °C -1,0 °C 1,6 km/h (1 Bft)
16.03.2017 07:27 -0,9 °C -0,9 °C 95 % 1026,6 hPa 0,0 mm 0,0 km/h (0 Bft) S-SO 167 ° 0 min 0,000 mm 0,0 UV-I 81 W/m² -1,6 °C -0,9 °C 0,0 km/h (0 Bft)
16.03.2017 07:28 -0,7 °C -0,7 °C 95 % 1026,7 hPa 0,0 mm 0,1 km/h (0 Bft) S-SO 167 ° 0 min 0,000 mm 0,0 UV-I 81 W/m² -1,4 °C -0,7 °C 1,6 km/h (1 Bft)
16.03.2017 07:29 -0,6 °C -0,6 °C 95 % 1026,7 hPa 0,0 mm 0,5 km/h (0 Bft) S-SO 167 ° 0 min 0,000 mm 0,0 UV-I 79 W/m² -1,3 °C -0,6 °C 1,6 km/h (1 Bft)
16.03.2017 07:30 -0,6 °C -0,6 °C 95 % 1026,6 hPa 0,0 mm 0,2 km/h (0 Bft) S-SO 167 ° 0 min 0,000 mm 0,0 UV-I 77 W/m² -1,3 °C -0,6 °C 1,6 km/h (1 Bft)
16.03.2017 07:31 -0,4 °C -0,4 °C 95 % 1026,7 hPa 0,0 mm 0,4 km/h (0 Bft) S-SO 167 ° 0 min 0,000 mm 0,0 UV-I 74 W/m² -1,1 °C -0,4 °C 1,6 km/h (1 Bft)
16.03.2017 07:32 -0,3 °C -0,3 °C 95 % 1026,7 hPa 0,0 mm 0,7 km/h (0 Bft) S-SO 167 ° 0 min 0,000 mm 0,0 UV-I 74 W/m² -1,0 °C -0,3 °C 1,6 km/h (1 Bft)
16.03.2017 07:33 -0,3 °C -0,3 °C 95 % 1026,7 hPa 0,0 mm 1,0 km/h (0 Bft) S-SO 167 ° 0 min 0,000 mm 0,0 UV-I 74 W/m² -1,0 °C -0,3 °C 1,6 km/h (1 Bft)
16.03.2017 07:34 -0,2 °C -0,2 °C 95 % 1026,6 hPa 0,0 mm 0,0 km/h (0 Bft) S-SO 167 ° 0 min 0,000 mm 0,0 UV-I 70 W/m² -0,9 °C -0,2 °C 0,0 km/h (0 Bft)
16.03.2017 07:35 -0,1 °C -0,1 °C 95 % 1026,6 hPa 0,0 mm 0,0 km/h (0 Bft) S-SO 167 ° 0 min 0,000 mm 0,0 UV-I 72 W/m² -0,8 °C -0,1 °C 0,0 km/h (0 Bft)
16.03.2017 07:36 0,0 °C 0,0 °C 95 % 1026,6 hPa 0,0 mm 0,5 km/h (0 Bft) S-SO 167 ° 0 min 0,000 mm 0,0 UV-I 74 W/m² -0,7 °C 0,0 °C 1,6 km/h (1 Bft)
16.03.2017 07:37 0,1 °C 0,1 °C 95 % 1026,6 hPa 0,0 mm 0,1 km/h (0 Bft) S-SO 167 ° 0 min 0,000 mm 0,0 UV-I 74 W/m² -0,6 °C 0,1 °C 1,6 km/h (1 Bft)
16.03.2017 07:38 0,2 °C 0,2 °C 94 % 1026,6 hPa 0,0 mm 0,0 km/h (0 Bft) S-SO 167 ° 0 min 0,000 mm 0,0 UV-I 74 W/m² -0,6 °C 0,2 °C 0,0 km/h (0 Bft)
16.03.2017 07:39 0,3 °C 0,3 °C 95 % 1026,6 hPa 0,0 mm 0,0 km/h (0 Bft) S-SO 167 ° 0 min 0,000 mm 0,0 UV-I 74 W/m² -0,4 °C 0,3 °C 0,0 km/h (0 Bft)
16.03.2017 07:40 0,4 °C 0,4 °C 94 % 1026,6 hPa 0,0 mm 0,1 km/h (0 Bft) S-SO 167 ° 0 min 0,000 mm 0,0 UV-I 74 W/m² -0,5 °C 0,4 °C 1,6 km/h (1 Bft)
16.03.2017 07:41 0,4 °C 0,4 °C 94 % 1026,6 hPa 0,0 mm 0,5 km/h (0 Bft) S-SO 167 ° 0 min 0,000 mm 0,0 UV-I 74 W/m² -0,5 °C 0,4 °C 1,6 km/h (1 Bft)
16.03.2017 07:42 0,4 °C 0,5 °C 94 % 1026,6 hPa 0,0 mm 1,0 km/h (0 Bft) S-SO 167 ° 0 min 0,000 mm 0,0 UV-I 74 W/m² -0,5 °C 0,4 °C 1,6 km/h (1 Bft)
16.03.2017 07:43 0,6 °C 0,6 °C 94 % 1026,6 hPa 0,0 mm 0,3 km/h (0 Bft) S-SO 167 ° 0 min 0,000 mm 0,0 UV-I 76 W/m² -0,3 °C 0,6 °C 1,6 km/h (1 Bft)
16.03.2017 07:44 0,6 °C 0,6 °C 94 % 1026,6 hPa 0,0 mm 0,0 km/h (0 Bft) S-SO 167 ° 0 min 0,000 mm 0,0 UV-I 76 W/m² -0,3 °C 0,6 °C 0,0 km/h (0 Bft)
16.03.2017 07:45 0,7 °C 0,7 °C 94 % 1026,6 hPa 0,0 mm 0,0 km/h (0 Bft) S-SO 167 ° 0 min 0,000 mm 0,0 UV-I 76 W/m² -0,2 °C 0,7 °C 0,0 km/h (0 Bft)
16.03.2017 07:46 0,8 °C 0,8 °C 94 % 1026,6 hPa 0,0 mm 0,0 km/h (0 Bft) S-SO 167 ° 0 min 0,000 mm 0,0 UV-I 77 W/m² -0,1 °C 0,8 °C 0,0 km/h (0 Bft)
16.03.2017 07:47 0,9 °C 0,9 °C 94 % 1026,5 hPa 0,0 mm 0,0 km/h (0 Bft) S-SO 167 ° 0 min 0,000 mm 0,0 UV-I 77 W/m² 0,0 °C 0,9 °C 0,0 km/h (0 Bft)
16.03.2017 07:48 1,1 °C 1,1 °C 94 % 1026,6 hPa 0,0 mm 0,0 km/h (0 Bft) S-SO 167 ° 0 min 0,000 mm 0,5 UV-I 79 W/m² 0,2 °C 1,1 °C 0,0 km/h (0 Bft)
16.03.2017 07:49 1,1 °C 1,1 °C 93 % 1026,5 hPa 0,0 mm 0,0 km/h (0 Bft) S-SO 167 ° 0 min 0,000 mm 0,5 UV-I 83 W/m² 0,1 °C 1,1 °C 0,0 km/h (0 Bft)
16.03.2017 07:50 1,1 °C 1,1 °C 93 % 1026,6 hPa 0,0 mm 0,9 km/h (0 Bft) S-SO 167 ° 0 min 0,000 mm 0,5 UV-I 84 W/m² 0,1 °C 1,1 °C 1,6 km/h (1 Bft)
16.03.2017 07:51 1,1 °C 1,1 °C 93 % 1026,6 hPa 0,0 mm 0,9 km/h (0 Bft) S-SO 167 ° 0 min 0,000 mm 0,5 UV-I 86 W/m² 0,1 °C 1,1 °C 1,6 km/h (1 Bft)
16.03.2017 07:52 1,1 °C 1,1 °C 93 % 1026,6 hPa 0,0 mm 0,1 km/h (0 Bft) S-SO 167 ° 0 min 0,000 mm 0,5 UV-I 93 W/m² 0,1 °C 1,1 °C 1,6 km/h (1 Bft)
16.03.2017 07:53 1,2 °C 1,2 °C 93 % 1026,6 hPa 0,0 mm 1,0 km/h (0 Bft) S-SO 167 ° 0 min 0,000 mm 0,5 UV-I 95 W/m² 0,2 °C 1,2 °C 4,8 km/h (1 Bft)
16.03.2017 07:54 1,2 °C 1,2 °C 93 % 1026,7 hPa 0,0 mm 0,8 km/h (0 Bft) S-SO 167 ° 0 min 0,000 mm 0,5 UV-I 97 W/m² 0,2 °C 1,2 °C 1,6 km/h (1 Bft)
16.03.2017 07:55 1,2 °C 1,2 °C 93 % 1026,6 hPa 0,0 mm 0,0 km/h (0 Bft) S-SO 167 ° 0 min 0,000 mm 0,5 UV-I 98 W/m² 0,2 °C 1,2 °C 0,0 km/h (0 Bft)
16.03.2017 07:56 1,2 °C 1,2 °C 93 % 1026,6 hPa 0,0 mm 0,2 km/h (0 Bft) S-SO 167 ° 0 min 0,000 mm 0,5 UV-I 100 W/m² 0,2 °C 1,2 °C 1,6 km/h (1 Bft)
16.03.2017 07:57 1,3 °C 1,3 °C 93 % 1026,6 hPa 0,0 mm 2,1 km/h (1 Bft) S-SO 167 ° 0 min 0,000 mm 0,5 UV-I 100 W/m² 0,3 °C 1,3 °C 4,8 km/h (1 Bft)
16.03.2017 07:58 1,3 °C 1,3 °C 93 % 1026,6 hPa 0,0 mm 0,9 km/h (0 Bft) S-SO 167 ° 0 min 0,000 mm 0,5 UV-I 102 W/m² 0,3 °C 1,3 °C 1,6 km/h (1 Bft)
16.03.2017 07:59 1,4 °C 1,4 °C 93 % 1026,6 hPa 0,0 mm 1,2 km/h (1 Bft) S-SO 167 ° 0 min 0,000 mm 0,5 UV-I 102 W/m² 0,4 °C 1,4 °C 1,6 km/h (1 Bft)
16.03.2017 08:00 1,4 °C 1,4 °C 93 % 1026,6 hPa 0,0 mm 3,7 km/h (1 Bft) S-SO 167 ° 0 min 0,000 mm 0,5 UV-I 102 W/m² 0,4 °C 1,4 °C 4,8 km/h (1 Bft)
16.03.2017 08:01 1,6 °C 1,6 °C 93 % 1026,6 hPa 0,0 mm 1,1 km/h (1 Bft) S-SO 167 ° 0 min 0,025 mm 0,5 UV-I 102 W/m² 0,6 °C 1,6 °C 1,6 km/h (1 Bft)
16.03.2017 08:02 1,6 °C 1,6 °C 93 % 1026,6 hPa 0,0 mm 1,0 km/h (0 Bft) S-SO 167 ° 0 min 0,000 mm 0,5 UV-I 100 W/m² 0,6 °C 1,6 °C 1,6 km/h (1 Bft)
16.03.2017 08:03 1,6 °C 1,6 °C 93 % 1026,6 hPa 0,0 mm 0,0 km/h (0 Bft) S-SO 167 ° 0 min 0,000 mm 0,5 UV-I 100 W/m² 0,6 °C 1,6 °C 0,0 km/h (0 Bft)
16.03.2017 08:04 1,7 °C 1,7 °C 93 % 1026,5 hPa 0,0 mm 0,0 km/h (0 Bft) S-SO 167 ° 0 min 0,000 mm 0,5 UV-I 100 W/m² 0,7 °C 1,7 °C 0,0 km/h (0 Bft)
16.03.2017 08:05 1,8 °C 1,8 °C 93 % 1026,5 hPa 0,0 mm 0,0 km/h (0 Bft) S-SO 167 ° 0 min 0,000 mm 0,6 UV-I 100 W/m² 0,8 °C 1,8 °C 0,0 km/h (0 Bft)
16.03.2017 08:06 1,8 °C 1,8 °C 92 % 1026,5 hPa 0,0 mm 0,0 km/h (0 Bft) S-SO 167 ° 0 min 0,000 mm 0,6 UV-I 102 W/m² 0,6 °C 1,8 °C 0,0 km/h (0 Bft)
16.03.2017 08:07 1,8 °C 1,9 °C 92 % 1026,4 hPa 0,0 mm 0,0 km/h (0 Bft) S-SO 167 ° 0 min 0,000 mm 0,6 UV-I 102 W/m² 0,6 °C 1,8 °C 0,0 km/h (0 Bft)
16.03.2017 08:08 1,9 °C 1,9 °C 91 % 1026,4 hPa 0,0 mm 0,0 km/h (0 Bft) S-SO 167 ° 0 min 0,000 mm 0,6 UV-I 104 W/m² 0,6 °C 1,9 °C 0,0 km/h (0 Bft)
16.03.2017 08:09 1,9 °C 1,9 °C 91 % 1026,4 hPa 0,0 mm 0,0 km/h (0 Bft) S-SO 167 ° 0 min 0,000 mm 0,6 UV-I 105 W/m² 0,6 °C 1,9 °C 0,0 km/h (0 Bft)
16.03.2017 08:10 2,0 °C 2,0 °C 91 % 1026,4 hPa 0,0 mm 0,0 km/h (0 Bft) S-SO 167 ° 0 min 0,000 mm 0,6 UV-I 109 W/m² 0,7 °C 2,0 °C 0,0 km/h (0 Bft)
16.03.2017 08:11 2,0 °C 2,0 °C 92 % 1026,4 hPa 0,0 mm 0,0 km/h (0 Bft) S-SO 167 ° 0 min 0,000 mm 0,7 UV-I 111 W/m² 0,8 °C 2,0 °C 0,0 km/h (0 Bft)
16.03.2017 08:12 2,1 °C 2,1 °C 92 % 1026,3 hPa 0,0 mm 0,0 km/h (0 Bft) S-SO 167 ° 0 min 0,000 mm 0,7 UV-I 111 W/m² 0,9 °C 2,1 °C 0,0 km/h (0 Bft)
16.03.2017 08:13 2,1 °C 2,1 °C 91 % 1026,2 hPa 0,0 mm 0,0 km/h (0 Bft) S-SO 167 ° 0 min 0,000 mm 0,7 UV-I 113 W/m² 0,8 °C 2,1 °C 0,0 km/h (0 Bft)
16.03.2017 08:14 2,2 °C 2,2 °C 91 % 1026,2 hPa 0,0 mm 0,0 km/h (0 Bft) S-SO 167 ° 0 min 0,000 mm 0,7 UV-I 114 W/m² 0,9 °C 2,2 °C 0,0 km/h (0 Bft)
16.03.2017 08:15 2,2 °C 2,2 °C 91 % 1026,2 hPa 0,0 mm 0,0 km/h (0 Bft) S-SO 167 ° 0 min 0,000 mm 0,7 UV-I 118 W/m² 0,9 °C 2,2 °C 0,0 km/h (0 Bft)
16.03.2017 08:16 2,2 °C 2,2 °C 91 % 1026,2 hPa 0,0 mm 0,0 km/h (0 Bft) S-SO 167 ° 0 min 0,000 mm 0,7 UV-I 120 W/m² 0,9 °C 2,2 °C 0,0 km/h (0 Bft)
16.03.2017 08:17 2,2 °C 2,2 °C 91 % 1026,2 hPa 0,0 mm 0,0 km/h (0 Bft) S-SO 167 ° 0 min 0,000 mm 0,7 UV-I 121 W/m² 0,9 °C 2,2 °C 0,0 km/h (0 Bft)
16.03.2017 08:18 2,2 °C 2,2 °C 91 % 1026,1 hPa 0,0 mm 0,0 km/h (0 Bft) S-SO 167 ° 0 min 0,000 mm 0,8 UV-I 121 W/m² 0,9 °C 2,2 °C 0,0 km/h (0 Bft)
16.03.2017 08:19 2,2 °C 2,2 °C 91 % 1026,1 hPa 0,0 mm 0,0 km/h (0 Bft) S-SO 167 ° 0 min 0,000 mm 0,8 UV-I 123 W/m² 0,9 °C 2,2 °C 0,0 km/h (0 Bft)
16.03.2017 08:20 2,2 °C 2,2 °C 91 % 1026,1 hPa 0,0 mm 0,0 km/h (0 Bft) S-SO 167 ° 0 min 0,000 mm 0,8 UV-I 123 W/m² 0,9 °C 2,2 °C 0,0 km/h (0 Bft)
16.03.2017 08:21 2,3 °C 2,3 °C 91 % 1026,1 hPa 0,0 mm 0,0 km/h (0 Bft) S-SO 167 ° 0 min 0,000 mm 0,8 UV-I 123 W/m² 1,0 °C 2,3 °C 0,0 km/h (0 Bft)
16.03.2017 08:22 2,3 °C 2,3 °C 91 % 1026,1 hPa 0,0 mm 0,0 km/h (0 Bft) S-SO 167 ° 0 min 0,000 mm 0,8 UV-I 125 W/m² 1,0 °C 2,3 °C 0,0 km/h (0 Bft)
16.03.2017 08:23 2,3 °C 2,3 °C 92 % 1026,1 hPa 0,0 mm 0,0 km/h (0 Bft) S-SO 167 ° 0 min 0,000 mm 0,8 UV-I 128 W/m² 1,1 °C 2,3 °C 0,0 km/h (0 Bft)
16.03.2017 08:24 2,3 °C 2,3 °C 92 % 1026,0 hPa 0,0 mm 0,0 km/h (0 Bft) S-SO 167 ° 0 min 0,000 mm 0,8 UV-I 132 W/m² 1,1 °C 2,3 °C 0,0 km/h (0 Bft)
16.03.2017 08:25 2,3 °C 2,3 °C 92 % 1026,0 hPa 0,0 mm 0,0 km/h (0 Bft) S-SO 167 ° 0 min 0,000 mm 0,8 UV-I 137 W/m² 1,1 °C 2,3 °C 0,0 km/h (0 Bft)
16.03.2017 08:26 2,4 °C 2,4 °C 92 % 1025,9 hPa 0,0 mm 0,0 km/h (0 Bft) S-SO 167 ° 0 min 0,000 mm 0,9 UV-I 142 W/m² 1,2 °C 2,4 °C 0,0 km/h (0 Bft)
16.03.2017 08:27 2,4 °C 2,4 °C 91 % 1026,0 hPa 0,0 mm 0,0 km/h (0 Bft) S-SO 167 ° 0 min 0,000 mm 0,9 UV-I 156 W/m² 1,1 °C 2,4 °C 0,0 km/h (0 Bft)
16.03.2017 08:28 2,5 °C 2,5 °C 92 % 1026,0 hPa 0,0 mm 0,0 km/h (0 Bft) S-SO 167 ° 0 min 0,000 mm 0,9 UV-I 174 W/m² 1,3 °C 2,5 °C 0,0 km/h (0 Bft)
16.03.2017 08:29 2,6 °C 2,6 °C 92 % 1025,9 hPa 0,0 mm 0,0 km/h (0 Bft) S-SO 167 ° 0 min 0,000 mm 1,0 UV-I 181 W/m² 1,4 °C 2,6 °C 0,0 km/h (0 Bft)
16.03.2017 08:30 2,7 °C 2,7 °C 92 % 1026,0 hPa 0,0 mm 0,0 km/h (0 Bft) S-SO 167 ° 0 min 0,000 mm 0,9 UV-I 186 W/m² 1,5 °C 2,7 °C 0,0 km/h (0 Bft)
16.03.2017 08:31 2,8 °C 2,8 °C 91 % 1026,0 hPa 0,0 mm 0,0 km/h (0 Bft) S-SO 167 ° 0 min 0,000 mm 1,0 UV-I 193 W/m² 1,5 °C 2,8 °C 0,0 km/h (0 Bft)
16.03.2017 08:32 2,9 °C 2,9 °C 91 % 1025,9 hPa 0,0 mm 0,0 km/h (0 Bft) S-SO 167 ° 1 min 0,000 mm 1,1 UV-I 221 W/m² 1,6 °C 2,9 °C 0,0 km/h (0 Bft)
16.03.2017 08:33 3,1 °C 3,1 °C 91 % 1025,9 hPa 0,0 mm 0,0 km/h (0 Bft) S-SO 167 ° 1 min 0,000 mm 1,0 UV-I 271 W/m² 1,8 °C 3,1 °C 0,0 km/h (0 Bft)
16.03.2017 08:34 3,2 °C 3,2 °C 90 % 1025,9 hPa 0,0 mm 0,0 km/h (0 Bft) S-SO 167 ° 1 min 0,000 mm 1,0 UV-I 244 W/m² 1,7 °C 3,2 °C 0,0 km/h (0 Bft)
16.03.2017 08:35 3,3 °C 3,3 °C 90 % 1025,9 hPa 0,0 mm 0,0 km/h (0 Bft) S-SO 167 ° 1 min 0,000 mm 1,0 UV-I 202 W/m² 1,8 °C 3,3 °C 0,0 km/h (0 Bft)
16.03.2017 08:36 3,4 °C 3,4 °C 89 % 1025,9 hPa 0,0 mm 0,4 km/h (0 Bft) S-SO 167 ° 0 min 0,000 mm 1,0 UV-I 181 W/m² 1,8 °C 3,4 °C 1,6 km/h (1 Bft)
16.03.2017 08:37 3,6 °C 3,6 °C 88 % 1025,9 hPa 0,0 mm 0,5 km/h (0 Bft) S-SO 167 ° 0 min 0,000 mm 1,0 UV-I 193 W/m² 1,8 °C 3,6 °C 1,6 km/h (1 Bft)
16.03.2017 08:38 3,7 °C 3,7 °C 88 % 1025,8 hPa 0,0 mm 0,0 km/h (0 Bft) S-SO 167 ° 1 min 0,000 mm 1,0 UV-I 202 W/m² 1,9 °C 3,7 °C 0,0 km/h (0 Bft)
16.03.2017 08:39 3,8 °C 3,8 °C 88 % 1025,9 hPa 0,0 mm 0,7 km/h (0 Bft) S-SO 167 ° 0 min 0,000 mm 1,0 UV-I 178 W/m² 2,0 °C 3,8 °C 4,8 km/h (1 Bft)
16.03.2017 08:40 3,9 °C 3,9 °C 87 % 1026,0 hPa 0,0 mm 1,1 km/h (1 Bft) S-SO 167 ° 1 min 0,000 mm 1,1 UV-I 216 W/m² 1,9 °C 3,9 °C 1,6 km/h (1 Bft)
16.03.2017 08:41 4,0 °C 4,0 °C 87 % 1025,9 hPa 0,0 mm 1,8 km/h (1 Bft) S-SO 167 ° 1 min 0,000 mm 1,0 UV-I 213 W/m² 2,0 °C 4,0 °C 4,8 km/h (1 Bft)
16.03.2017 08:42 4,1 °C 4,1 °C 88 % 1025,9 hPa 0,0 mm 2,5 km/h (1 Bft) S-SO 165 ° 0 min 0,000 mm 1,0 UV-I 174 W/m² 2,3 °C 4,1 °C 4,8 km/h (1 Bft)
16.03.2017 08:43 4,2 °C 4,2 °C 89 % 1025,9 hPa 0,0 mm 3,4 km/h (1 Bft) S-SO 159 ° 0 min 0,000 mm 1,0 UV-I 178 W/m² 2,6 °C 4,2 °C 6,4 km/h (2 Bft)
16.03.2017 08:44 4,3 °C 4,3 °C 88 % 1025,9 hPa 0,0 mm 2,6 km/h (1 Bft) SO 138 ° 1 min 0,000 mm 1,1 UV-I 229 W/m² 2,5 °C 4,3 °C 3,2 km/h (1 Bft)
16.03.2017 08:45 4,4 °C 4,4 °C 89 % 1025,9 hPa 0,0 mm 3,4 km/h (1 Bft) O 88 ° 0 min 0,000 mm 1,0 UV-I 186 W/m² 2,7 °C 4,4 °C 4,8 km/h (1 Bft)
16.03.2017 08:46 4,4 °C 4,4 °C 88 % 1025,9 hPa 0,0 mm 3,4 km/h (1 Bft) O 86 ° 0 min 0,000 mm 1,0 UV-I 174 W/m² 2,6 °C 4,4 °C 4,8 km/h (1 Bft)
16.03.2017 08:47 4,4 °C 4,4 °C 89 % 1025,9 hPa 0,0 mm 5,0 km/h (1 Bft) O 83 ° 0 min 0,000 mm 1,0 UV-I 172 W/m² 2,7 °C 3,4 °C 6,4 km/h (2 Bft)
16.03.2017 08:48 4,4 °C 4,4 °C 87 % 1025,9 hPa 0,0 mm 3,2 km/h (1 Bft) O 83 ° 0 min 0,000 mm 1,0 UV-I 171 W/m² 2,4 °C 4,4 °C 4,8 km/h (1 Bft)
16.03.2017 08:49 4,5 °C 4,5 °C 88 % 1025,9 hPa 0,0 mm 4,2 km/h (1 Bft) O 83 ° 0 min 0,000 mm 1,0 UV-I 172 W/m² 2,7 °C 4,5 °C 6,4 km/h (2 Bft)
16.03.2017 08:50 4,6 °C 4,6 °C 88 % 1025,8 hPa 0,0 mm 3,9 km/h (1 Bft) O 83 ° 0 min 0,000 mm 1,1 UV-I 176 W/m² 2,8 °C 4,6 °C 4,8 km/h (1 Bft)
16.03.2017 08:51 4,6 °C 4,6 °C 88 % 1025,8 hPa 0,0 mm 2,5 km/h (1 Bft) O 83 ° 0 min 0,000 mm 1,1 UV-I 185 W/m² 2,8 °C 4,6 °C 3,2 km/h (1 Bft)
16.03.2017 08:52 4,7 °C 4,7 °C 88 % 1025,8 hPa 0,0 mm 3,3 km/h (1 Bft) O 83 ° 0 min 0,000 mm 1,1 UV-I 193 W/m² 2,9 °C 4,7 °C 4,8 km/h (1 Bft)
16.03.2017 08:53 4,7 °C 4,7 °C 88 % 1025,8 hPa 0,0 mm 3,0 km/h (1 Bft) O 83 ° 0 min 0,000 mm 1,1 UV-I 192 W/m² 2,9 °C 4,7 °C 4,8 km/h (1 Bft)
16.03.2017 08:54 4,8 °C 4,8 °C 87 % 1025,8 hPa 0,0 mm 4,2 km/h (1 Bft) O-NO 71 ° 1 min 0,000 mm 1,2 UV-I 200 W/m² 2,8 °C 4,8 °C 4,8 km/h (1 Bft)
16.03.2017 08:55 4,9 °C 4,9 °C 86 % 1025,8 hPa 0,0 mm 3,7 km/h (1 Bft) O-NO 71 ° 0 min 0,000 mm 1,1 UV-I 190 W/m² 2,8 °C 4,9 °C 6,4 km/h (2 Bft)
16.03.2017 08:56 4,9 °C 4,9 °C 86 % 1025,8 hPa 0,0 mm 3,1 km/h (1 Bft) NO 46 ° 0 min 0,000 mm 1,2 UV-I 186 W/m² 2,8 °C 4,9 °C 4,8 km/h (1 Bft)
16.03.2017 08:57 4,9 °C 4,9 °C 86 % 1025,8 hPa 0,0 mm 3,5 km/h (1 Bft) NO 47 ° 0 min 0,000 mm 1,2 UV-I 185 W/m² 2,8 °C 4,9 °C 4,8 km/h (1 Bft)
16.03.2017 08:58 5,0 °C 5,0 °C 86 % 1025,8 hPa 0,0 mm 3,6 km/h (1 Bft) NO 53 ° 0 min 0,000 mm 1,2 UV-I 185 W/m² 2,9 °C 5,0 °C 4,8 km/h (1 Bft)
16.03.2017 08:59 5,0 °C 5,0 °C 85 % 1025,8 hPa 0,0 mm 4,6 km/h (1 Bft) NO 53 ° 0 min 0,000 mm 1,2 UV-I 188 W/m² 2,7 °C 4,2 °C 6,4 km/h (2 Bft)
16.03.2017 09:00 5,1 °C 5,1 °C 84 % 1025,9 hPa 0,0 mm 4,7 km/h (1 Bft) O-NO 64 ° 0 min 0,051 mm 1,2 UV-I 188 W/m² 2,6 °C 4,3 °C 6,4 km/h (2 Bft)
16.03.2017 09:01 5,1 °C 5,1 °C 85 % 1025,9 hPa 0,0 mm 3,2 km/h (1 Bft) O-NO 63 ° 0 min 0,000 mm 1,2 UV-I 190 W/m² 2,8 °C 5,1 °C 4,8 km/h (1 Bft)
16.03.2017 09:02 5,1 °C 5,1 °C 85 % 1025,9 hPa 0,0 mm 4,1 km/h (1 Bft) O-NO 67 ° 1 min 0,000 mm 1,2 UV-I 207 W/m² 2,8 °C 5,1 °C 6,4 km/h (2 Bft)
16.03.2017 09:03 5,1 °C 5,1 °C 85 % 1025,9 hPa 0,0 mm 5,6 km/h (1 Bft) O-NO 69 ° 1 min 0,000 mm 1,3 UV-I 218 W/m² 2,8 °C 4,0 °C 6,4 km/h (2 Bft)
16.03.2017 09:04 5,2 °C 5,2 °C 85 % 1025,9 hPa 0,0 mm 5,9 km/h (2 Bft) O-NO 76 ° 1 min 0,000 mm 1,3 UV-I 239 W/m² 2,9 °C 4,0 °C 6,4 km/h (2 Bft)
16.03.2017 09:05 5,2 °C 5,2 °C 85 % 1025,9 hPa 0,0 mm 3,5 km/h (1 Bft) O 82 ° 0 min 0,000 mm 1,3 UV-I 199 W/m² 2,9 °C 5,2 °C 4,8 km/h (1 Bft)
16.03.2017 09:06 5,3 °C 5,3 °C 83 % 1025,9 hPa 0,0 mm 2,3 km/h (1 Bft) O 82 ° 0 min 0,000 mm 1,3 UV-I 197 W/m² 2,7 °C 5,3 °C 3,2 km/h (1 Bft)
16.03.2017 09:07 5,3 °C 5,3 °C 83 % 1025,9 hPa 0,0 mm 2,1 km/h (1 Bft) O 82 ° 0 min 0,000 mm 1,3 UV-I 199 W/m² 2,7 °C 5,3 °C 3,2 km/h (1 Bft)
16.03.2017 09:08 5,4 °C 5,4 °C 84 % 1025,9 hPa 0,0 mm 1,7 km/h (1 Bft) O 82 ° 1 min 0,000 mm 1,3 UV-I 213 W/m² 2,9 °C 5,4 °C 3,2 km/h (1 Bft)
16.03.2017 09:09 5,5 °C 5,5 °C 84 % 1026,0 hPa 0,0 mm 0,8 km/h (0 Bft) O 82 ° 1 min 0,000 mm 1,3 UV-I 213 W/m² 3,0 °C 5,5 °C 1,6 km/h (1 Bft)
16.03.2017 09:10 5,6 °C 5,6 °C 83 % 1025,9 hPa 0,0 mm 0,5 km/h (0 Bft) O 82 ° 1 min 0,000 mm 1,4 UV-I 223 W/m² 2,9 °C 5,6 °C 1,6 km/h (1 Bft)
16.03.2017 09:11 5,7 °C 5,7 °C 81 % 1025,9 hPa 0,0 mm 2,1 km/h (1 Bft) O 82 ° 1 min 0,000 mm 1,4 UV-I 236 W/m² 2,7 °C 5,7 °C 3,2 km/h (1 Bft)
16.03.2017 09:12 5,8 °C 5,8 °C 81 % 1025,9 hPa 0,0 mm 1,0 km/h (0 Bft) O 82 ° 1 min 0,000 mm 1,4 UV-I 229 W/m² 2,8 °C 5,8 °C 3,2 km/h (1 Bft)
16.03.2017 09:13 5,9 °C 5,9 °C 82 % 1025,9 hPa 0,0 mm 2,7 km/h (1 Bft) O 82 ° 1 min 0,000 mm 1,4 UV-I 225 W/m² 3,1 °C 5,9 °C 4,8 km/h (1 Bft)
16.03.2017 09:14 6,0 °C 6,1 °C 81 % 1025,9 hPa 0,0 mm 3,7 km/h (1 Bft) O 81 ° 1 min 0,000 mm 1,4 UV-I 225 W/m² 3,0 °C 6,0 °C 4,8 km/h (1 Bft)
16.03.2017 09:15 6,1 °C 6,1 °C 81 % 1026,0 hPa 0,0 mm 3,6 km/h (1 Bft) O 81 ° 1 min 0,000 mm 1,4 UV-I 229 W/m² 3,1 °C 6,1 °C 4,8 km/h (1 Bft)
16.03.2017 09:16 6,2 °C 6,2 °C 79 % 1026,0 hPa 0,0 mm 3,8 km/h (1 Bft) O-NO 76 ° 1 min 0,000 mm 1,4 UV-I 236 W/m² 2,8 °C 6,2 °C 4,8 km/h (1 Bft)
16.03.2017 09:17 6,2 °C 6,2 °C 80 % 1026,0 hPa 0,0 mm 3,6 km/h (1 Bft) O-NO 76 ° 1 min 0,000 mm 1,4 UV-I 237 W/m² 3,0 °C 6,2 °C 4,8 km/h (1 Bft)
16.03.2017 09:18 6,3 °C 6,3 °C 80 % 1026,0 hPa 0,0 mm 4,7 km/h (1 Bft) O-NO 65 ° 1 min 0,000 mm 1,5 UV-I 246 W/m² 3,1 °C 5,7 °C 6,4 km/h (2 Bft)
16.03.2017 09:19 6,4 °C 6,4 °C 80 % 1026,0 hPa 0,0 mm 4,8 km/h (1 Bft) O-NO 66 ° 1 min 0,000 mm 1,5 UV-I 271 W/m² 3,2 °C 5,7 °C 8,0 km/h (2 Bft)
16.03.2017 09:20 6,4 °C 6,4 °C 77 % 1026,0 hPa 0,0 mm 6,4 km/h (2 Bft) NO 40 ° 1 min 0,000 mm 1,5 UV-I 241 W/m² 2,7 °C 5,2 °C 8,0 km/h (2 Bft)
16.03.2017 09:21 6,4 °C 6,4 °C 78 % 1026,1 hPa 0,0 mm 6,2 km/h (2 Bft) N-NO 20 ° 1 min 0,000 mm 1,5 UV-I 237 W/m² 2,8 °C 5,3 °C 9,7 km/h (2 Bft)
16.03.2017 09:22 6,4 °C 6,5 °C 78 % 1026,1 hPa 0,0 mm 3,1 km/h (1 Bft) NO 36 ° 1 min 0,000 mm 1,5 UV-I 241 W/m² 2,8 °C 6,4 °C 4,8 km/h (1 Bft)
16.03.2017 09:23 6,5 °C 6,5 °C 78 % 1026,1 hPa 0,0 mm 4,6 km/h (1 Bft) NO 53 ° 1 min 0,000 mm 1,5 UV-I 248 W/m² 2,9 °C 5,9 °C 8,0 km/h (2 Bft)
16.03.2017 09:24 6,6 °C 6,6 °C 79 % 1026,1 hPa 0,0 mm 8,0 km/h (2 Bft) NO 44 ° 1 min 0,000 mm 1,6 UV-I 258 W/m² 3,2 °C 5,0 °C 11,3 km/h (2 Bft)
16.03.2017 09:25 6,6 °C 6,6 °C 79 % 1026,1 hPa 0,0 mm 8,6 km/h (2 Bft) NO 47 ° 1 min 0,000 mm 1,6 UV-I 253 W/m² 3,2 °C 4,9 °C 14,5 km/h (3 Bft)
16.03.2017 09:26 6,5 °C 6,6 °C 80 % 1026,1 hPa 0,0 mm 5,3 km/h (1 Bft) O-NO 69 ° 1 min 0,000 mm 1,6 UV-I 285 W/m² 3,3 °C 5,7 °C 8,0 km/h (2 Bft)
16.03.2017 09:27 6,5 °C 6,5 °C 81 % 1026,1 hPa 0,0 mm 2,1 km/h (1 Bft) O-NO 61 ° 1 min 0,000 mm 1,7 UV-I 332 W/m² 3,5 °C 6,5 °C 4,8 km/h (1 Bft)
16.03.2017 09:28 6,5 °C 6,5 °C 81 % 1026,1 hPa 0,0 mm 5,8 km/h (2 Bft) N-NO 25 ° 1 min 0,000 mm 1,7 UV-I 320 W/m² 3,5 °C 5,5 °C 9,7 km/h (2 Bft)
16.03.2017 09:29 6,5 °C 6,5 °C 80 % 1026,1 hPa 0,0 mm 3,9 km/h (1 Bft) O-NO 68 ° 1 min 0,000 mm 1,8 UV-I 308 W/m² 3,3 °C 6,5 °C 8,0 km/h (2 Bft)
16.03.2017 09:30 6,5 °C 6,5 °C 80 % 1026,2 hPa 0,0 mm 7,8 km/h (2 Bft) NO 55 ° 1 min 0,000 mm 1,7 UV-I 355 W/m² 3,3 °C 4,9 °C 11,3 km/h (2 Bft)
16.03.2017 09:31 6,5 °C 6,5 °C 80 % 1026,2 hPa 0,0 mm 6,5 km/h (2 Bft) O-NO 58 ° 1 min 0,000 mm 1,6 UV-I 264 W/m² 3,3 °C 5,3 °C 9,7 km/h (2 Bft)
16.03.2017 09:32 6,4 °C 6,5 °C 79 % 1026,2 hPa 0,0 mm 7,0 km/h (2 Bft) NO 48 ° 1 min 0,000 mm 1,7 UV-I 269 W/m² 3,0 °C 5,0 °C 9,7 km/h (2 Bft)
16.03.2017 09:33 6,4 °C 6,4 °C 79 % 1026,2 hPa 0,0 mm 6,3 km/h (2 Bft) NO 46 ° 1 min 0,000 mm 1,6 UV-I 260 W/m² 3,0 °C 5,2 °C 8,0 km/h (2 Bft)
16.03.2017 09:34 6,4 °C 6,4 °C 78 % 1026,2 hPa 0,0 mm 3,9 km/h (1 Bft) O-NO 76 ° 1 min 0,000 mm 1,7 UV-I 262 W/m² 2,8 °C 6,4 °C 9,7 km/h (2 Bft)
16.03.2017 09:35 6,4 °C 6,4 °C 79 % 1026,2 hPa 0,0 mm 6,0 km/h (2 Bft) O 84 ° 1 min 0,000 mm 1,7 UV-I 269 W/m² 3,0 °C 5,3 °C 6,4 km/h (2 Bft)
16.03.2017 09:36 6,4 °C 6,4 °C 80 % 1026,1 hPa 0,0 mm 5,0 km/h (1 Bft) O 80 ° 1 min 0,000 mm 1,7 UV-I 271 W/m² 3,2 °C 5,7 °C 6,4 km/h (2 Bft)
16.03.2017 09:37 6,4 °C 6,4 °C 79 % 1026,2 hPa 0,0 mm 5,0 km/h (1 Bft) O 82 ° 1 min 0,000 mm 1,7 UV-I 267 W/m² 3,0 °C 5,7 °C 6,4 km/h (2 Bft)
16.03.2017 09:38 6,5 °C 6,5 °C 79 % 1026,2 hPa 0,0 mm 5,9 km/h (2 Bft) O-NO 71 ° 1 min 0,000 mm 1,7 UV-I 269 W/m² 3,1 °C 5,5 °C 11,3 km/h (2 Bft)
16.03.2017 09:39 6,5 °C 6,5 °C 79 % 1026,2 hPa 0,0 mm 6,1 km/h (2 Bft) O-NO 71 ° 1 min 0,000 mm 1,7 UV-I 272 W/m² 3,1 °C 5,4 °C 8,0 km/h (2 Bft)
16.03.2017 09:40 6,5 °C 6,5 °C 79 % 1026,2 hPa 0,0 mm 5,7 km/h (1 Bft) O-NO 58 ° 1 min 0,000 mm 1,7 UV-I 274 W/m² 3,1 °C 5,5 °C 8,0 km/h (2 Bft)
16.03.2017 09:41 6,6 °C 6,6 °C 80 % 1026,1 hPa 0,0 mm 4,4 km/h (1 Bft) O 96 ° 1 min 0,000 mm 1,7 UV-I 274 W/m² 3,4 °C 6,6 °C 6,4 km/h (2 Bft)
16.03.2017 09:42 6,7 °C 6,7 °C 80 % 1026,2 hPa 0,0 mm 2,6 km/h (1 Bft) O 95 ° 1 min 0,000 mm 1,7 UV-I 276 W/m² 3,5 °C 6,7 °C 3,2 km/h (1 Bft)
16.03.2017 09:43 6,7 °C 6,7 °C 80 % 1026,1 hPa 0,0 mm 4,4 km/h (1 Bft) NO 44 ° 1 min 0,000 mm 1,7 UV-I 281 W/m² 3,5 °C 6,7 °C 8,0 km/h (2 Bft)
16.03.2017 09:44 6,7 °C 6,7 °C 79 % 1026,1 hPa 0,0 mm 7,4 km/h (2 Bft) O-NO 70 ° 1 min 0,000 mm 1,8 UV-I 290 W/m² 3,3 °C 5,3 °C 9,7 km/h (2 Bft)
16.03.2017 09:45 6,7 °C 6,7 °C 79 % 1026,1 hPa 0,0 mm 6,2 km/h (2 Bft) O-NO 64 ° 1 min 0,000 mm 1,7 UV-I 276 W/m² 3,3 °C 5,6 °C 12,9 km/h (3 Bft)
16.03.2017 09:46 6,7 °C 6,7 °C 80 % 1026,1 hPa 0,0 mm 8,2 km/h (2 Bft) NO 55 ° 1 min 0,000 mm 1,8 UV-I 278 W/m² 3,5 °C 5,1 °C 12,9 km/h (3 Bft)
16.03.2017 09:47 6,6 °C 6,7 °C 80 % 1026,1 hPa 0,0 mm 12,2 km/h (2 Bft) O-NO 76 ° 1 min 0,000 mm 1,8 UV-I 276 W/m² 3,4 °C 4,2 °C 16,1 km/h (3 Bft)
16.03.2017 09:48 6,5 °C 6,6 °C 80 % 1026,2 hPa 0,0 mm 4,5 km/h (1 Bft) NO 55 ° 1 min 0,000 mm 1,7 UV-I 269 W/m² 3,3 °C 6,5 °C 6,4 km/h (2 Bft)
16.03.2017 09:49 6,4 °C 6,5 °C 80 % 1026,1 hPa 0,0 mm 7,2 km/h (2 Bft) NO 40 ° 1 min 0,000 mm 1,7 UV-I 267 W/m² 3,2 °C 5,0 °C 11,3 km/h (2 Bft)
16.03.2017 09:50 6,3 °C 6,4 °C 80 % 1026,1 hPa 0,0 mm 8,2 km/h (2 Bft) NO 51 ° 1 min 0,000 mm 1,8 UV-I 272 W/m² 3,1 °C 4,6 °C 11,3 km/h (2 Bft)
16.03.2017 09:51 6,3 °C 6,3 °C 80 % 1026,2 hPa 0,0 mm 5,6 km/h (1 Bft) NO 54 ° 1 min 0,000 mm 1,8 UV-I 274 W/m² 3,1 °C 5,3 °C 9,7 km/h (2 Bft)
16.03.2017 09:52 6,3 °C 6,3 °C 80 % 1026,2 hPa 0,0 mm 4,0 km/h (1 Bft) N-NO 22 ° 1 min 0,000 mm 1,8 UV-I 264 W/m² 3,1 °C 6,3 °C 8,0 km/h (2 Bft)
16.03.2017 09:53 6,3 °C 6,3 °C 82 % 1026,2 hPa 0,0 mm 6,8 km/h (2 Bft) N-NO 29 ° 1 min 0,000 mm 1,8 UV-I 262 W/m² 3,5 °C 5,0 °C 9,7 km/h (2 Bft)
16.03.2017 09:54 6,3 °C 6,3 °C 80 % 1026,2 hPa 0,0 mm 7,3 km/h (2 Bft) NO 54 ° 1 min 0,000 mm 1,8 UV-I 262 W/m² 3,1 °C 4,8 °C 9,7 km/h (2 Bft)
16.03.2017 09:55 6,3 °C 6,3 °C 80 % 1026,2 hPa 0,0 mm 4,3 km/h (1 Bft) O-NO 64 ° 1 min 0,000 mm 1,8 UV-I 264 W/m² 3,1 °C 6,3 °C 6,4 km/h (2 Bft)
16.03.2017 09:56 6,2 °C 6,3 °C 81 % 1026,2 hPa 0,0 mm 6,4 km/h (2 Bft) O-NO 67 ° 1 min 0,000 mm 1,8 UV-I 262 W/m² 3,2 °C 5,0 °C 8,0 km/h (2 Bft)
16.03.2017 09:57 6,2 °C 6,2 °C 81 % 1026,1 hPa 0,0 mm 4,9 km/h (1 Bft) O-NO 67 ° 1 min 0,000 mm 1,8 UV-I 262 W/m² 3,2 °C 5,5 °C 6,4 km/h (2 Bft)
16.03.2017 09:58 6,2 °C 6,2 °C 80 % 1026,1 hPa 0,0 mm 6,8 km/h (2 Bft) O-NO 60 ° 1 min 0,000 mm 1,8 UV-I 265 W/m² 3,0 °C 4,9 °C 11,3 km/h (2 Bft)
16.03.2017 09:59 6,2 °C 6,2 °C 81 % 1026,2 hPa 0,0 mm 5,0 km/h (1 Bft) O-NO 66 ° 1 min 0,000 mm 1,9 UV-I 272 W/m² 3,2 °C 5,4 °C 6,4 km/h (2 Bft)
16.03.2017 10:00 6,2 °C 6,2 °C 81 % 1026,1 hPa 0,0 mm 5,8 km/h (2 Bft) O-NO 71 ° 1 min 0,000 mm 1,9 UV-I 279 W/m² 3,2 °C 5,2 °C 6,4 km/h (2 Bft)
16.03.2017 10:01 6,2 °C 6,2 °C 80 % 1026,1 hPa 0,0 mm 5,7 km/h (1 Bft) O 83 ° 1 min 0,127 mm 1,9 UV-I 308 W/m² 3,0 °C 5,2 °C 6,4 km/h (2 Bft)
16.03.2017 10:02 6,2 °C 6,2 °C 81 % 1026,1 hPa 0,0 mm 7,0 km/h (2 Bft) O 79 ° 1 min 0,000 mm 2,0 UV-I 295 W/m² 3,2 °C 4,8 °C 11,3 km/h (2 Bft)
16.03.2017 10:03 6,2 °C 6,2 °C 82 % 1026,1 hPa 0,0 mm 4,7 km/h (1 Bft) O-NO 67 ° 1 min 0,000 mm 1,9 UV-I 287 W/m² 3,4 °C 5,6 °C 8,0 km/h (2 Bft)
16.03.2017 10:04 6,2 °C 6,3 °C 81 % 1026,1 hPa 0,0 mm 1,4 km/h (1 Bft) O-NO 62 ° 1 min 0,000 mm 1,9 UV-I 283 W/m² 3,2 °C 6,2 °C 3,2 km/h (1 Bft)
16.03.2017 10:05 6,3 °C 6,3 °C 81 % 1026,2 hPa 0,0 mm 3,4 km/h (1 Bft) O-NO 67 ° 1 min 0,000 mm 2,0 UV-I 292 W/m² 3,3 °C 6,3 °C 4,8 km/h (1 Bft)
16.03.2017 10:06 6,3 °C 6,3 °C 81 % 1026,1 hPa 0,0 mm 2,0 km/h (1 Bft) O-NO 67 ° 1 min 0,000 mm 1,9 UV-I 278 W/m² 3,3 °C 6,3 °C 4,8 km/h (1 Bft)
16.03.2017 10:07 6,3 °C 6,3 °C 80 % 1026,1 hPa 0,0 mm 4,2 km/h (1 Bft) O-SO 103 ° 1 min 0,000 mm 2,0 UV-I 267 W/m² 3,1 °C 6,3 °C 6,4 km/h (2 Bft)
16.03.2017 10:08 6,3 °C 6,3 °C 81 % 1026,1 hPa 0,0 mm 2,9 km/h (1 Bft) O-NO 78 ° 1 min 0,000 mm 1,9 UV-I 258 W/m² 3,3 °C 6,3 °C 4,8 km/h (1 Bft)
16.03.2017 10:09 6,3 °C 6,3 °C 81 % 1026,1 hPa 0,0 mm 5,2 km/h (1 Bft) O-NO 78 ° 1 min 0,000 mm 1,9 UV-I 257 W/m² 3,3 °C 5,5 °C 6,4 km/h (2 Bft)
16.03.2017 10:10 6,3 °C 6,3 °C 81 % 1026,1 hPa 0,0 mm 3,9 km/h (1 Bft) NO 53 ° 1 min 0,000 mm 1,9 UV-I 255 W/m² 3,3 °C 6,3 °C 6,4 km/h (2 Bft)
16.03.2017 10:11 6,3 °C 6,4 °C 81 % 1026,1 hPa 0,0 mm 4,9 km/h (1 Bft) NO 54 ° 1 min 0,000 mm 2,0 UV-I 257 W/m² 3,3 °C 5,6 °C 6,4 km/h (2 Bft)
16.03.2017 10:12 6,4 °C 6,4 °C 81 % 1026,1 hPa 0,0 mm 3,8 km/h (1 Bft) O-NO 72 ° 1 min 0,000 mm 2,0 UV-I 257 W/m² 3,4 °C 6,4 °C 6,4 km/h (2 Bft)
16.03.2017 10:13 6,5 °C 6,5 °C 81 % 1026,0 hPa 0,0 mm 4,6 km/h (1 Bft) O 80 ° 1 min 0,000 mm 2,0 UV-I 257 W/m² 3,5 °C 5,9 °C 6,4 km/h (2 Bft)
16.03.2017 10:14 6,5 °C 6,5 °C 81 % 1026,0 hPa 0,0 mm 3,5 km/h (1 Bft) NO 55 ° 1 min 0,000 mm 2,1 UV-I 272 W/m² 3,5 °C 6,5 °C 6,4 km/h (2 Bft)
16.03.2017 10:15 6,6 °C 6,6 °C 81 % 1026,0 hPa 0,0 mm 4,3 km/h (1 Bft) O-NO 74 ° 1 min 0,000 mm 2,2 UV-I 288 W/m² 3,6 °C 6,6 °C 6,4 km/h (2 Bft)
16.03.2017 10:16 6,6 °C 6,6 °C 80 % 1026,0 hPa 0,0 mm 4,3 km/h (1 Bft) O 82 ° 1 min 0,000 mm 2,2 UV-I 288 W/m² 3,4 °C 6,6 °C 6,4 km/h (2 Bft)
16.03.2017 10:17 6,7 °C 6,7 °C 80 % 1026,0 hPa 0,0 mm 4,2 km/h (1 Bft) O 82 ° 1 min 0,000 mm 2,3 UV-I 376 W/m² 3,5 °C 6,7 °C 4,8 km/h (1 Bft)
16.03.2017 10:18 6,7 °C 6,7 °C 80 % 1026,0 hPa 0,0 mm 2,1 km/h (1 Bft) O 82 ° 1 min 0,000 mm 2,0 UV-I 376 W/m² 3,5 °C 6,7 °C 3,2 km/h (1 Bft)
16.03.2017 10:19 6,7 °C 6,7 °C 80 % 1025,9 hPa 0,0 mm 2,2 km/h (1 Bft) O 82 ° 1 min 0,000 mm 2,2 UV-I 295 W/m² 3,5 °C 6,7 °C 4,8 km/h (1 Bft)
16.03.2017 10:20 6,7 °C 6,7 °C 80 % 1025,9 hPa 0,0 mm 5,1 km/h (1 Bft) O 80 ° 1 min 0,000 mm 2,5 UV-I 297 W/m² 3,5 °C 6,0 °C 6,4 km/h (2 Bft)
16.03.2017 10:21 6,7 °C 6,7 °C 79 % 1025,9 hPa 0,0 mm 4,2 km/h (1 Bft) NO 40 ° 1 min 0,000 mm 2,2 UV-I 308 W/m² 3,3 °C 6,7 °C 6,4 km/h (2 Bft)
16.03.2017 10:22 6,7 °C 6,7 °C 80 % 1025,9 hPa 0,0 mm 4,9 km/h (1 Bft) N-NO 33 ° 1 min 0,000 mm 2,2 UV-I 302 W/m² 3,5 °C 6,0 °C 6,4 km/h (2 Bft)
16.03.2017 10:23 6,8 °C 6,8 °C 79 % 1025,9 hPa 0,0 mm 3,4 km/h (1 Bft) NO 52 ° 1 min 0,000 mm 2,6 UV-I 399 W/m² 3,4 °C 6,8 °C 4,8 km/h (1 Bft)
16.03.2017 10:24 6,8 °C 6,8 °C 79 % 1025,9 hPa 0,0 mm 3,2 km/h (1 Bft) NO 52 ° 1 min 0,000 mm 3,0 UV-I 399 W/m² 3,4 °C 6,8 °C 4,8 km/h (1 Bft)
16.03.2017 10:25 6,8 °C 6,8 °C 79 % 1025,8 hPa 0,0 mm 1,7 km/h (1 Bft) NO 52 ° 1 min 0,000 mm 2,4 UV-I 359 W/m² 3,4 °C 6,8 °C 3,2 km/h (1 Bft)
16.03.2017 10:26 6,9 °C 6,9 °C 79 % 1025,8 hPa 0,0 mm 3,2 km/h (1 Bft) O-NO 59 ° 1 min 0,000 mm 2,9 UV-I 359 W/m² 3,5 °C 6,9 °C 4,8 km/h (1 Bft)
16.03.2017 10:27 6,9 °C 6,9 °C 79 % 1025,8 hPa 0,0 mm 2,5 km/h (1 Bft) O-NO 59 ° 1 min 0,000 mm 2,9 UV-I 359 W/m² 3,5 °C 6,9 °C 3,2 km/h (1 Bft)
16.03.2017 10:28 7,1 °C 7,1 °C 79 % 1025,8 hPa 0,0 mm 3,2 km/h (1 Bft) O-NO 59 ° 1 min 0,000 mm 3,0 UV-I 492 W/m² 3,7 °C 7,1 °C 4,8 km/h (1 Bft)
16.03.2017 10:29 7,2 °C 7,2 °C 78 % 1025,8 hPa 0,0 mm 3,8 km/h (1 Bft) O-NO 59 ° 1 min 0,000 mm 2,8 UV-I 543 W/m² 3,6 °C 7,2 °C 4,8 km/h (1 Bft)
16.03.2017 10:30 7,2 °C 7,2 °C 78 % 1025,7 hPa 0,0 mm 2,2 km/h (1 Bft) NO 56 ° 1 min 0,000 mm 3,1 UV-I 603 W/m² 3,6 °C 7,2 °C 3,2 km/h (1 Bft)
16.03.2017 10:31 7,2 °C 7,3 °C 77 % 1025,8 hPa 0,0 mm 3,0 km/h (1 Bft) O-NO 58 ° 1 min 0,000 mm 3,0 UV-I 585 W/m² 3,4 °C 7,2 °C 4,8 km/h (1 Bft)
16.03.2017 10:32 7,2 °C 7,2 °C 78 % 1025,8 hPa 0,0 mm 5,7 km/h (1 Bft) N-NO 31 ° 1 min 0,000 mm 3,1 UV-I 575 W/m² 3,6 °C 6,3 °C 8,0 km/h (2 Bft)
16.03.2017 10:33 7,2 °C 7,2 °C 77 % 1025,8 hPa 0,0 mm 4,4 km/h (1 Bft) N-NO 30 ° 1 min 0,000 mm 3,1 UV-I 577 W/m² 3,4 °C 7,2 °C 6,4 km/h (2 Bft)
16.03.2017 10:34 7,2 °C 7,3 °C 77 % 1025,8 hPa 0,0 mm 3,4 km/h (1 Bft) O-NO 76 ° 1 min 0,000 mm 3,1 UV-I 578 W/m² 3,4 °C 7,2 °C 4,8 km/h (1 Bft)
16.03.2017 10:35 7,3 °C 7,3 °C 77 % 1025,8 hPa 0,0 mm 3,6 km/h (1 Bft) N-NO 22 ° 1 min 0,000 mm 3,1 UV-I 578 W/m² 3,5 °C 7,3 °C 6,4 km/h (2 Bft)
16.03.2017 10:36 7,4 °C 7,4 °C 78 % 1025,8 hPa 0,0 mm 4,1 km/h (1 Bft) N-NO 28 ° 1 min 0,000 mm 3,1 UV-I 578 W/m² 3,8 °C 7,4 °C 8,0 km/h (2 Bft)
16.03.2017 10:37 7,4 °C 7,4 °C 76 % 1025,7 hPa 0,0 mm 5,4 km/h (1 Bft) N-NO 25 ° 1 min 0,000 mm 3,1 UV-I 578 W/m² 3,5 °C 6,7 °C 8,0 km/h (2 Bft)
16.03.2017 10:38 7,6 °C 7,6 °C 76 % 1025,7 hPa 0,0 mm 2,7 km/h (1 Bft) O 95 ° 1 min 0,000 mm 3,1 UV-I 582 W/m² 3,6 °C 7,6 °C 4,8 km/h (1 Bft)
16.03.2017 10:39 7,6 °C 7,6 °C 76 % 1025,8 hPa 0,0 mm 4,7 km/h (1 Bft) O 84 ° 1 min 0,000 mm 3,1 UV-I 584 W/m² 3,6 °C 7,1 °C 6,4 km/h (2 Bft)
16.03.2017 10:40 7,6 °C 7,6 °C 76 % 1025,7 hPa 0,0 mm 3,7 km/h (1 Bft) O 84 ° 1 min 0,000 mm 3,2 UV-I 585 W/m² 3,6 °C 7,6 °C 4,8 km/h (1 Bft)
16.03.2017 10:41 7,6 °C 7,6 °C 77 % 1025,8 hPa 0,0 mm 1,5 km/h (1 Bft) O 84 ° 1 min 0,000 mm 3,2 UV-I 587 W/m² 3,8 °C 7,6 °C 3,2 km/h (1 Bft)
16.03.2017 10:42 7,6 °C 7,6 °C 75 % 1025,7 hPa 0,0 mm 2,1 km/h (1 Bft) O 92 ° 1 min 0,000 mm 3,2 UV-I 589 W/m² 3,5 °C 7,6 °C 4,8 km/h (1 Bft)
16.03.2017 10:43 7,6 °C 7,6 °C 76 % 1025,7 hPa 0,0 mm 5,2 km/h (1 Bft) O 84 ° 1 min 0,000 mm 3,2 UV-I 589 W/m² 3,6 °C 7,0 °C 9,7 km/h (2 Bft)
16.03.2017 10:44 7,7 °C 7,7 °C 77 % 1025,7 hPa 0,0 mm 3,6 km/h (1 Bft) O 87 ° 1 min 0,000 mm 3,2 UV-I 592 W/m² 3,9 °C 7,7 °C 4,8 km/h (1 Bft)
16.03.2017 10:45 7,8 °C 7,8 °C 76 % 1025,6 hPa 0,0 mm 5,1 km/h (1 Bft) O-NO 64 ° 1 min 0,000 mm 3,2 UV-I 591 W/m² 3,8 °C 7,2 °C 8,0 km/h (2 Bft)
16.03.2017 10:46 7,8 °C 7,9 °C 74 % 1025,7 hPa 0,0 mm 5,7 km/h (1 Bft) O-NO 69 ° 1 min 0,000 mm 3,2 UV-I 592 W/m² 3,5 °C 7,0 °C 8,0 km/h (2 Bft)
16.03.2017 10:47 7,9 °C 7,9 °C 75 % 1025,7 hPa 0,0 mm 5,8 km/h (2 Bft) O 86 ° 1 min 0,000 mm 3,2 UV-I 596 W/m² 3,7 °C 7,1 °C 8,0 km/h (2 Bft)
16.03.2017 10:48 7,9 °C 7,9 °C 75 % 1025,7 hPa 0,0 mm 6,8 km/h (2 Bft) O 85 ° 1 min 0,000 mm 3,3 UV-I 598 W/m² 3,7 °C 6,8 °C 9,7 km/h (2 Bft)
16.03.2017 10:49 8,0 °C 8,0 °C 75 % 1025,7 hPa 0,0 mm 5,1 km/h (1 Bft) N-NO 32 ° 1 min 0,000 mm 3,3 UV-I 599 W/m² 3,8 °C 7,5 °C 6,4 km/h (2 Bft)
16.03.2017 10:50 8,0 °C 8,0 °C 74 % 1025,7 hPa 0,0 mm 5,2 km/h (1 Bft) NO 45 ° 1 min 0,000 mm 3,3 UV-I 599 W/m² 3,7 °C 7,4 °C 6,4 km/h (2 Bft)
16.03.2017 10:51 8,0 °C 8,0 °C 74 % 1025,6 hPa 0,0 mm 4,7 km/h (1 Bft) NO 52 ° 1 min 0,000 mm 3,3 UV-I 599 W/m² 3,7 °C 7,6 °C 6,4 km/h (2 Bft)
16.03.2017 10:52 8,1 °C 8,1 °C 75 % 1025,6 hPa 0,0 mm 4,8 km/h (1 Bft) O-NO 57 ° 1 min 0,000 mm 3,3 UV-I 599 W/m² 3,9 °C 7,7 °C 6,4 km/h (2 Bft)
16.03.2017 10:53 8,2 °C 8,2 °C 75 % 1025,6 hPa 0,0 mm 6,8 km/h (2 Bft) N-NO 15 ° 1 min 0,000 mm 3,3 UV-I 603 W/m² 4,0 °C 7,2 °C 12,9 km/h (3 Bft)
16.03.2017 10:54 8,3 °C 8,3 °C 74 % 1025,6 hPa 0,0 mm 7,0 km/h (2 Bft) N-NO 13 ° 1 min 0,000 mm 3,3 UV-I 603 W/m² 3,9 °C 7,2 °C 11,3 km/h (2 Bft)
16.03.2017 10:55 8,4 °C 8,4 °C 73 % 1025,7 hPa 0,0 mm 6,2 km/h (2 Bft) N-NO 23 ° 1 min 0,000 mm 3,3 UV-I 603 W/m² 3,8 °C 7,6 °C 9,7 km/h (2 Bft)
16.03.2017 10:56 8,4 °C 8,4 °C 73 % 1025,7 hPa 0,0 mm 4,9 km/h (1 Bft) N 9 ° 1 min 0,000 mm 3,4 UV-I 606 W/m² 3,8 °C 8,0 °C 6,4 km/h (2 Bft)
16.03.2017 10:57 8,5 °C 8,5 °C 72 % 1025,6 hPa 0,0 mm 5,2 km/h (1 Bft) O-NO 76 ° 1 min 0,000 mm 3,4 UV-I 606 W/m² 3,7 °C 8,0 °C 8,0 km/h (2 Bft)
16.03.2017 10:58 8,3 °C 8,5 °C 71 % 1025,7 hPa 0,0 mm 5,8 km/h (2 Bft) O 80 ° 1 min 0,000 mm 3,4 UV-I 610 W/m² 3,4 °C 7,6 °C 11,3 km/h (2 Bft)
16.03.2017 10:59 8,3 °C 8,3 °C 72 % 1025,7 hPa 0,0 mm 7,4 km/h (2 Bft) O-NO 61 ° 1 min 0,000 mm 3,4 UV-I 612 W/m² 3,6 °C 7,1 °C 9,7 km/h (2 Bft)
16.03.2017 11:00 8,3 °C 8,3 °C 73 % 1025,7 hPa 0,0 mm 4,7 km/h (1 Bft) O-NO 75 ° 1 min 0,203 mm 3,4 UV-I 615 W/m² 3,8 °C 7,9 °C 11,3 km/h (2 Bft)
16.03.2017 11:01 8,3 °C 8,3 °C 72 % 1025,7 hPa 0,0 mm 5,7 km/h (1 Bft) O-NO 74 ° 1 min 0,000 mm 3,4 UV-I 615 W/m² 3,6 °C 7,6 °C 8,0 km/h (2 Bft)
16.03.2017 11:02 8,4 °C 8,4 °C 73 % 1025,7 hPa 0,0 mm 7,5 km/h (2 Bft) O-NO 77 ° 1 min 0,000 mm 3,4 UV-I 617 W/m² 3,8 °C 7,2 °C 14,5 km/h (3 Bft)
16.03.2017 11:03 8,6 °C 8,6 °C 73 % 1025,7 hPa 0,0 mm 6,0 km/h (2 Bft) N-NO 23 ° 1 min 0,000 mm 3,4 UV-I 617 W/m² 4,0 °C 7,9 °C 9,7 km/h (2 Bft)
16.03.2017 11:04 8,7 °C 8,7 °C 72 % 1025,7 hPa 0,0 mm 9,5 km/h (2 Bft) O-NO 71 ° 1 min 0,000 mm 3,5 UV-I 621 W/m² 3,9 °C 7,2 °C 12,9 km/h (3 Bft)
16.03.2017 11:05 8,7 °C 8,7 °C 72 % 1025,6 hPa 0,0 mm 7,2 km/h (2 Bft) O-SO 111 ° 1 min 0,000 mm 3,5 UV-I 622 W/m² 3,9 °C 7,7 °C 12,9 km/h (3 Bft)
16.03.2017 11:06 8,7 °C 8,7 °C 72 % 1025,7 hPa 0,0 mm 7,4 km/h (2 Bft) N-NO 29 ° 1 min 0,000 mm 3,5 UV-I 626 W/m² 3,9 °C 7,6 °C 9,7 km/h (2 Bft)
16.03.2017 11:07 8,7 °C 8,7 °C 72 % 1025,6 hPa 0,0 mm 6,4 km/h (2 Bft) O 83 ° 1 min 0,000 mm 3,5 UV-I 626 W/m² 3,9 °C 7,9 °C 8,0 km/h (2 Bft)
16.03.2017 11:08 8,7 °C 8,8 °C 70 % 1025,6 hPa 0,0 mm 5,4 km/h (1 Bft) O 90 ° 1 min 0,000 mm 3,5 UV-I 626 W/m² 3,5 °C 8,2 °C 11,3 km/h (2 Bft)
16.03.2017 11:09 8,6 °C 8,7 °C 71 % 1025,6 hPa 0,0 mm 7,1 km/h (2 Bft) O-NO 65 ° 1 min 0,000 mm 3,5 UV-I 626 W/m² 3,6 °C 7,6 °C 11,3 km/h (2 Bft)
16.03.2017 11:10 8,6 °C 8,6 °C 71 % 1025,6 hPa 0,0 mm 7,9 km/h (2 Bft) NO 49 ° 1 min 0,000 mm 3,5 UV-I 628 W/m² 3,6 °C 7,4 °C 11,3 km/h (2 Bft)
16.03.2017 11:11 8,6 °C 8,6 °C 71 % 1025,6 hPa 0,0 mm 7,2 km/h (2 Bft) O-SO 104 ° 1 min 0,000 mm 3,6 UV-I 631 W/m² 3,6 °C 7,5 °C 9,7 km/h (2 Bft)
16.03.2017 11:12 8,6 °C 8,6 °C 70 % 1025,6 hPa 0,0 mm 4,6 km/h (1 Bft) NO 38 ° 1 min 0,000 mm 3,6 UV-I 631 W/m² 3,4 °C 8,3 °C 6,4 km/h (2 Bft)
16.03.2017 11:13 8,7 °C 8,7 °C 71 % 1025,6 hPa 0,0 mm 8,8 km/h (2 Bft) NO 38 ° 1 min 0,000 mm 3,6 UV-I 631 W/m² 3,7 °C 7,3 °C 12,9 km/h (3 Bft)
16.03.2017 11:14 8,9 °C 8,9 °C 70 % 1025,6 hPa 0,0 mm 4,2 km/h (1 Bft) N-NO 19 ° 1 min 0,000 mm 3,6 UV-I 633 W/m² 3,7 °C 8,9 °C 6,4 km/h (2 Bft)
16.03.2017 11:15 9,1 °C 9,1 °C 68 % 1025,5 hPa 0,0 mm 7,5 km/h (2 Bft) O-NO 58 ° 1 min 0,000 mm 3,6 UV-I 635 W/m² 3,5 °C 8,1 °C 9,7 km/h (2 Bft)
16.03.2017 11:16 9,2 °C 9,2 °C 69 % 1025,5 hPa 0,0 mm 5,5 km/h (1 Bft) N 355 ° 1 min 0,000 mm 3,6 UV-I 635 W/m² 3,8 °C 8,7 °C 8,0 km/h (2 Bft)
16.03.2017 11:17 9,3 °C 9,3 °C 68 % 1025,6 hPa 0,0 mm 7,4 km/h (2 Bft) N 5 ° 1 min 0,000 mm 3,6 UV-I 636 W/m² 3,7 °C 8,3 °C 9,7 km/h (2 Bft)
16.03.2017 11:18 9,4 °C 9,4 °C 67 % 1025,6 hPa 0,0 mm 8,2 km/h (2 Bft) N 355 ° 1 min 0,000 mm 3,6 UV-I 636 W/m² 3,6 °C 8,3 °C 9,7 km/h (2 Bft)
16.03.2017 11:19 9,6 °C 9,6 °C 68 % 1025,6 hPa 0,0 mm 6,6 km/h (2 Bft) NO 34 ° 1 min 0,000 mm 3,6 UV-I 635 W/m² 4,0 °C 8,9 °C 9,7 km/h (2 Bft)
16.03.2017 11:20 9,6 °C 9,7 °C 64 % 1025,6 hPa 0,0 mm 9,4 km/h (2 Bft) N-NO 23 ° 1 min 0,000 mm 3,6 UV-I 635 W/m² 3,1 °C 8,3 °C 11,3 km/h (2 Bft)
16.03.2017 11:21 9,4 °C 9,6 °C 65 % 1025,6 hPa 0,0 mm 5,7 km/h (1 Bft) O-SO 103 ° 1 min 0,000 mm 3,6 UV-I 636 W/m² 3,2 °C 8,9 °C 9,7 km/h (2 Bft)
16.03.2017 11:22 9,2 °C 9,4 °C 65 % 1025,6 hPa 0,0 mm 4,1 km/h (1 Bft) NO 45 ° 1 min 0,000 mm 3,6 UV-I 640 W/m² 3,0 °C 9,2 °C 9,7 km/h (2 Bft)
16.03.2017 11:23 9,2 °C 9,2 °C 66 % 1025,6 hPa 0,0 mm 4,5 km/h (1 Bft) NO 40 ° 1 min 0,000 mm 3,6 UV-I 640 W/m² 3,2 °C 9,2 °C 8,0 km/h (2 Bft)
16.03.2017 11:24 9,3 °C 9,3 °C 67 % 1025,6 hPa 0,0 mm 4,6 km/h (1 Bft) O-NO 57 ° 1 min 0,000 mm 3,7 UV-I 642 W/m² 3,5 °C 9,1 °C 8,0 km/h (2 Bft)
16.03.2017 11:25 9,3 °C 9,3 °C 66 % 1025,6 hPa 0,0 mm 6,5 km/h (2 Bft) NO 44 ° 1 min 0,000 mm 3,7 UV-I 642 W/m² 3,3 °C 8,5 °C 11,3 km/h (2 Bft)
16.03.2017 11:26 9,3 °C 9,3 °C 66 % 1025,6 hPa 0,0 mm 4,3 km/h (1 Bft) O-NO 70 ° 1 min 0,000 mm 3,7 UV-I 640 W/m² 3,3 °C 9,3 °C 6,4 km/h (2 Bft)
16.03.2017 11:27 9,3 °C 9,3 °C 68 % 1025,6 hPa 0,0 mm 5,6 km/h (1 Bft) N-NO 28 ° 1 min 0,000 mm 3,7 UV-I 645 W/m² 3,7 °C 8,8 °C 9,7 km/h (2 Bft)
16.03.2017 11:28 9,4 °C 9,4 °C 67 % 1025,6 hPa 0,0 mm 3,9 km/h (1 Bft) N-NW 348 ° 1 min 0,000 mm 3,7 UV-I 642 W/m² 3,6 °C 9,4 °C 6,4 km/h (2 Bft)
16.03.2017 11:29 9,6 °C 9,6 °C 67 % 1025,5 hPa 0,0 mm 1,9 km/h (1 Bft) N-NW 348 ° 1 min 0,000 mm 3,7 UV-I 643 W/m² 3,8 °C 9,6 °C 3,2 km/h (1 Bft)
16.03.2017 11:30 9,7 °C 9,7 °C 68 % 1025,5 hPa 0,0 mm 1,0 km/h (0 Bft) N-NW 348 ° 1 min 0,000 mm 3,7 UV-I 643 W/m² 4,1 °C 9,7 °C 1,6 km/h (1 Bft)
16.03.2017 11:31 9,7 °C 9,7 °C 65 % 1025,5 hPa 0,0 mm 2,1 km/h (1 Bft) O 90 ° 1 min 0,000 mm 3,7 UV-I 645 W/m² 3,4 °C 9,7 °C 6,4 km/h (2 Bft)
16.03.2017 11:32 9,8 °C 9,8 °C 67 % 1025,5 hPa 0,0 mm 4,4 km/h (1 Bft) N-NO 21 ° 1 min 0,000 mm 3,7 UV-I 647 W/m² 4,0 °C 9,8 °C 6,4 km/h (2 Bft)
16.03.2017 11:33 9,8 °C 9,8 °C 65 % 1025,5 hPa 0,0 mm 8,2 km/h (2 Bft) O 80 ° 1 min 0,000 mm 3,7 UV-I 647 W/m² 3,5 °C 8,7 °C 11,3 km/h (2 Bft)
16.03.2017 11:34 9,6 °C 9,8 °C 65 % 1025,5 hPa 0,0 mm 5,3 km/h (1 Bft) NO 56 ° 1 min 0,000 mm 3,8 UV-I 650 W/m² 3,4 °C 9,2 °C 8,0 km/h (2 Bft)
16.03.2017 11:35 9,6 °C 9,6 °C 67 % 1025,5 hPa 0,0 mm 3,5 km/h (1 Bft) O 79 ° 1 min 0,000 mm 3,8 UV-I 650 W/m² 3,8 °C 9,6 °C 6,4 km/h (2 Bft)
16.03.2017 11:36 9,6 °C 9,6 °C 66 % 1025,5 hPa 0,0 mm 3,7 km/h (1 Bft) NO 47 ° 1 min 0,000 mm 3,8 UV-I 652 W/m² 3,6 °C 9,6 °C 6,4 km/h (2 Bft)
16.03.2017 11:37 9,7 °C 9,7 °C 65 % 1025,5 hPa 0,0 mm 4,7 km/h (1 Bft) O 101 ° 1 min 0,000 mm 3,8 UV-I 654 W/m² 3,4 °C 9,5 °C 6,4 km/h (2 Bft)
16.03.2017 11:38 9,7 °C 9,8 °C 64 % 1025,4 hPa 0,0 mm 5,6 km/h (1 Bft) SO 141 ° 1 min 0,000 mm 3,8 UV-I 650 W/m² 3,2 °C 9,2 °C 8,0 km/h (2 Bft)
16.03.2017 11:39 9,7 °C 9,7 °C 67 % 1025,5 hPa 0,0 mm 4,8 km/h (1 Bft) O 100 ° 1 min 0,000 mm 3,8 UV-I 656 W/m² 3,9 °C 9,5 °C 8,0 km/h (2 Bft)
16.03.2017 11:40 9,8 °C 9,8 °C 66 % 1025,5 hPa 0,0 mm 8,0 km/h (2 Bft) O-NO 75 ° 1 min 0,000 mm 3,8 UV-I 656 W/m² 3,8 °C 8,8 °C 16,1 km/h (3 Bft)
16.03.2017 11:41 9,9 °C 9,9 °C 66 % 1025,5 hPa 0,0 mm 8,4 km/h (2 Bft) NO 38 ° 1 min 0,000 mm 3,8 UV-I 656 W/m² 3,9 °C 8,8 °C 12,9 km/h (3 Bft)
16.03.2017 11:42 9,9 °C 9,9 °C 66 % 1025,5 hPa 0,0 mm 6,0 km/h (2 Bft) O 82 ° 1 min 0,000 mm 3,8 UV-I 652 W/m² 3,9 °C 9,4 °C 11,3 km/h (2 Bft)
16.03.2017 11:43 9,9 °C 9,9 °C 64 % 1025,5 hPa 0,0 mm 6,4 km/h (2 Bft) O-NO 62 ° 1 min 0,000 mm 3,8 UV-I 654 W/m² 3,4 °C 9,3 °C 11,3 km/h (2 Bft)
16.03.2017 11:44 9,9 °C 9,9 °C 66 % 1025,4 hPa 0,0 mm 6,9 km/h (2 Bft) NO 35 ° 1 min 0,000 mm 3,8 UV-I 652 W/m² 3,9 °C 9,1 °C 9,7 km/h (2 Bft)
16.03.2017 11:45 10,1 °C 10,1 °C 64 % 1025,4 hPa 0,0 mm 4,6 km/h (1 Bft) NO 40 ° 1 min 0,000 mm 3,8 UV-I 652 W/m² 3,6 °C 10,1 °C 8,0 km/h (2 Bft)
16.03.2017 11:46 10,0 °C 10,1 °C 64 % 1025,4 hPa 0,0 mm 2,9 km/h (1 Bft) O-NO 67 ° 1 min 0,000 mm 3,8 UV-I 657 W/m² 3,5 °C 10,0 °C 6,4 km/h (2 Bft)
16.03.2017 11:47 10,1 °C 10,1 °C 65 % 1025,4 hPa 0,0 mm 9,1 km/h (2 Bft) NO 50 ° 1 min 0,000 mm 3,8 UV-I 654 W/m² 3,8 °C 10,1 °C 12,9 km/h (3 Bft)
16.03.2017 11:48 10,0 °C 10,1 °C 64 % 1025,4 hPa 0,0 mm 4,8 km/h (1 Bft) O-NO 70 ° 1 min 0,000 mm 3,9 UV-I 657 W/m² 3,5 °C 9,8 °C 8,0 km/h (2 Bft)
16.03.2017 11:49 9,9 °C 10,0 °C 65 % 1025,3 hPa 0,0 mm 3,7 km/h (1 Bft) O-NO 72 ° 1 min 0,000 mm 3,8 UV-I 656 W/m² 3,6 °C 9,9 °C 6,4 km/h (2 Bft)
16.03.2017 11:50 10,1 °C 10,1 °C 65 % 1025,3 hPa 0,0 mm 6,4 km/h (2 Bft) O 79 ° 1 min 0,000 mm 3,8 UV-I 656 W/m² 3,8 °C 10,1 °C 11,3 km/h (2 Bft)
16.03.2017 11:51 10,1 °C 10,1 °C 65 % 1025,3 hPa 0,0 mm 3,3 km/h (1 Bft) O-NO 62 ° 1 min 0,000 mm 3,9 UV-I 657 W/m² 3,8 °C 10,1 °C 6,4 km/h (2 Bft)
16.03.2017 11:52 10,2 °C 10,2 °C 65 % 1025,2 hPa 0,0 mm 4,6 km/h (1 Bft) O-NO 77 ° 1 min 0,000 mm 3,9 UV-I 659 W/m² 3,9 °C 10,2 °C 6,4 km/h (2 Bft)
16.03.2017 11:53 10,3 °C 10,3 °C 65 % 1025,2 hPa 0,0 mm 6,1 km/h (2 Bft) O-NO 67 ° 1 min 0,000 mm 3,9 UV-I 657 W/m² 4,0 °C 10,3 °C 8,0 km/h (2 Bft)
16.03.2017 11:54 10,2 °C 10,3 °C 64 % 1025,2 hPa 0,0 mm 8,6 km/h (2 Bft) O-NO 63 ° 1 min 0,000 mm 3,9 UV-I 657 W/m² 3,7 °C 10,2 °C 12,9 km/h (3 Bft)
16.03.2017 11:55 10,3 °C 10,3 °C 66 % 1025,2 hPa 0,0 mm 5,3 km/h (1 Bft) O-NO 70 ° 1 min 0,000 mm 3,9 UV-I 659 W/m² 4,2 °C 10,3 °C 8,0 km/h (2 Bft)
16.03.2017 11:56 10,3 °C 10,3 °C 65 % 1025,2 hPa 0,0 mm 6,4 km/h (2 Bft) NO 43 ° 1 min 0,000 mm 3,9 UV-I 657 W/m² 4,0 °C 10,3 °C 9,7 km/h (2 Bft)
16.03.2017 11:57 10,3 °C 10,3 °C 65 % 1025,2 hPa 0,0 mm 3,1 km/h (1 Bft) NO 43 ° 1 min 0,000 mm 3,9 UV-I 659 W/m² 4,0 °C 10,3 °C 4,8 km/h (1 Bft)
16.03.2017 11:58 10,3 °C 10,3 °C 66 % 1025,2 hPa 0,0 mm 5,2 km/h (1 Bft) O-NO 76 ° 1 min 0,000 mm 3,9 UV-I 659 W/m² 4,2 °C 10,3 °C 8,0 km/h (2 Bft)
16.03.2017 11:59 10,4 °C 10,4 °C 64 % 1025,2 hPa 0,0 mm 9,3 km/h (2 Bft) O-NO 73 ° 1 min 0,000 mm 3,9 UV-I 659 W/m² 3,9 °C 10,4 °C 12,9 km/h (3 Bft)
16.03.2017 12:00 10,4 °C 10,4 °C 63 % 1025,2 hPa 0,0 mm 8,6 km/h (2 Bft) NO 55 ° 1 min 0,000 mm 3,9 UV-I 663 W/m² 3,7 °C 10,4 °C 14,5 km/h (3 Bft)
16.03.2017 12:01 10,4 °C 10,5 °C 62 % 1025,2 hPa 0,0 mm 4,5 km/h (1 Bft) O-NO 69 ° 1 min 0,305 mm 3,9 UV-I 666 W/m² 3,4 °C 10,4 °C 6,4 km/h (2 Bft)
16.03.2017 12:02 10,4 °C 10,4 °C 64 % 1025,1 hPa 0,0 mm 2,8 km/h (1 Bft) NO 49 ° 1 min 0,000 mm 3,9 UV-I 666 W/m² 3,9 °C 10,4 °C 4,8 km/h (1 Bft)
16.03.2017 12:03 10,4 °C 10,4 °C 65 % 1025,2 hPa 0,0 mm 3,0 km/h (1 Bft) O-NO 78 ° 1 min 0,000 mm 3,9 UV-I 663 W/m² 4,1 °C 10,4 °C 4,8 km/h (1 Bft)
16.03.2017 12:04 10,6 °C 10,6 °C 64 % 1025,2 hPa 0,0 mm 2,3 km/h (1 Bft) NO 35 ° 1 min 0,000 mm 3,9 UV-I 666 W/m² 4,1 °C 10,6 °C 4,8 km/h (1 Bft)
16.03.2017 12:05 10,7 °C 10,7 °C 64 % 1025,2 hPa 0,0 mm 2,3 km/h (1 Bft) N 360 ° 1 min 0,000 mm 3,9 UV-I 659 W/m² 4,2 °C 10,7 °C 6,4 km/h (2 Bft)
16.03.2017 12:06 10,7 °C 10,7 °C 63 % 1025,1 hPa 0,0 mm 5,4 km/h (1 Bft) O-NO 76 ° 1 min 0,000 mm 3,9 UV-I 663 W/m² 3,9 °C 10,7 °C 6,4 km/h (2 Bft)
16.03.2017 12:07 10,6 °C 10,7 °C 62 % 1025,1 hPa 0,0 mm 4,9 km/h (1 Bft) O-NO 71 ° 1 min 0,000 mm 3,9 UV-I 663 W/m² 3,6 °C 10,6 °C 8,0 km/h (2 Bft)
16.03.2017 12:08 10,6 °C 10,6 °C 62 % 1025,1 hPa 0,0 mm 6,0 km/h (2 Bft) O 80 ° 1 min 0,000 mm 3,9 UV-I 659 W/m² 3,6 °C 10,6 °C 9,7 km/h (2 Bft)
16.03.2017 12:09 10,5 °C 10,6 °C 62 % 1025,0 hPa 0,0 mm 4,0 km/h (1 Bft) N 5 ° 1 min 0,000 mm 3,9 UV-I 664 W/m² 3,5 °C 10,5 °C 6,4 km/h (2 Bft)
16.03.2017 12:10 10,4 °C 10,5 °C 62 % 1025,1 hPa 0,0 mm 3,2 km/h (1 Bft) O-SO 108 ° 1 min 0,000 mm 3,9 UV-I 666 W/m² 3,4 °C 10,4 °C 6,4 km/h (2 Bft)
16.03.2017 12:11 10,4 °C 10,5 °C 63 % 1025,1 hPa 0,0 mm 1,4 km/h (1 Bft) O-NO 77 ° 1 min 0,000 mm 3,9 UV-I 664 W/m² 3,7 °C 10,4 °C 3,2 km/h (1 Bft)
16.03.2017 12:12 10,6 °C 10,6 °C 64 % 1025,0 hPa 0,0 mm 3,0 km/h (1 Bft) O-NO 76 ° 1 min 0,000 mm 3,9 UV-I 663 W/m² 4,1 °C 10,6 °C 8,0 km/h (2 Bft)
16.03.2017 12:13 10,6 °C 10,6 °C 62 % 1025,0 hPa 0,0 mm 8,2 km/h (2 Bft) O-NO 76 ° 1 min 0,000 mm 3,9 UV-I 654 W/m² 3,6 °C 10,6 °C 11,3 km/h (2 Bft)
16.03.2017 12:14 10,6 °C 10,6 °C 62 % 1025,0 hPa 0,0 mm 8,9 km/h (2 Bft) O 86 ° 1 min 0,000 mm 3,8 UV-I 656 W/m² 3,6 °C 10,6 °C 12,9 km/h (3 Bft)
16.03.2017 12:15 10,4 °C 10,6 °C 63 % 1025,0 hPa 0,0 mm 1,9 km/h (1 Bft) O 86 ° 1 min 0,000 mm 3,9 UV-I 661 W/m² 3,7 °C 10,4 °C 3,2 km/h (1 Bft)
16.03.2017 12:16 10,4 °C 10,4 °C 63 % 1025,0 hPa 0,0 mm 0,7 km/h (0 Bft) O 86 ° 1 min 0,000 mm 3,9 UV-I 659 W/m² 3,7 °C 10,4 °C 3,2 km/h (1 Bft)
16.03.2017 12:17 10,6 °C 10,6 °C 62 % 1025,0 hPa 0,0 mm 0,3 km/h (0 Bft) O 86 ° 1 min 0,000 mm 3,9 UV-I 663 W/m² 3,6 °C 10,6 °C 1,6 km/h (1 Bft)
16.03.2017 12:18 10,7 °C 10,7 °C 62 % 1025,0 hPa 0,0 mm 2,5 km/h (1 Bft) N 355 ° 1 min 0,000 mm 3,9 UV-I 661 W/m² 3,7 °C 10,7 °C 4,8 km/h (1 Bft)
16.03.2017 12:19 10,8 °C 10,8 °C 63 % 1025,0 hPa 0,0 mm 5,0 km/h (1 Bft) N-NO 24 ° 1 min 0,000 mm 3,9 UV-I 663 W/m² 4,0 °C 10,8 °C 8,0 km/h (2 Bft)
16.03.2017 12:20 11,0 °C 11,0 °C 63 % 1024,9 hPa 0,0 mm 5,6 km/h (1 Bft) N-NO 18 ° 1 min 0,000 mm 3,9 UV-I 659 W/m² 4,2 °C 11,0 °C 8,0 km/h (2 Bft)
16.03.2017 12:21 11,1 °C 11,2 °C 62 % 1025,0 hPa 0,0 mm 5,5 km/h (1 Bft) O-NO 72 ° 1 min 0,000 mm 3,9 UV-I 659 W/m² 4,1 °C 11,1 °C 8,0 km/h (2 Bft)
16.03.2017 12:22 11,3 °C 11,3 °C 63 % 1024,9 hPa 0,0 mm 7,0 km/h (2 Bft) N-NO 20 ° 1 min 0,000 mm 3,9 UV-I 661 W/m² 4,5 °C 11,3 °C 12,9 km/h (3 Bft)
16.03.2017 12:23 11,3 °C 11,3 °C 60 % 1025,0 hPa 0,0 mm 5,0 km/h (1 Bft) O-NO 57 ° 1 min 0,000 mm 3,9 UV-I 657 W/m² 3,8 °C 11,3 °C 8,0 km/h (2 Bft)
16.03.2017 12:24 11,3 °C 11,3 °C 61 % 1024,9 hPa 0,0 mm 7,4 km/h (2 Bft) N-NO 27 ° 1 min 0,000 mm 3,9 UV-I 656 W/m² 4,1 °C 11,3 °C 9,7 km/h (2 Bft)
16.03.2017 12:25 11,3 °C 11,3 °C 60 % 1025,0 hPa 0,0 mm 7,6 km/h (2 Bft) O-NO 67 ° 1 min 0,000 mm 3,9 UV-I 661 W/m² 3,8 °C 11,3 °C 11,3 km/h (2 Bft)
16.03.2017 12:26 11,3 °C 11,3 °C 60 % 1024,9 hPa 0,0 mm 5,9 km/h (2 Bft) N-NO 27 ° 1 min 0,000 mm 3,9 UV-I 663 W/m² 3,8 °C 11,3 °C 8,0 km/h (2 Bft)
16.03.2017 12:27 11,4 °C 11,4 °C 61 % 1024,9 hPa 0,0 mm 7,0 km/h (2 Bft) NO 39 ° 1 min 0,000 mm 3,9 UV-I 663 W/m² 4,2 °C 11,4 °C 9,7 km/h (2 Bft)
16.03.2017 12:28 11,3 °C 11,4 °C 60 % 1024,9 hPa 0,0 mm 7,2 km/h (2 Bft) O-NO 65 ° 1 min 0,000 mm 3,9 UV-I 657 W/m² 3,8 °C 11,3 °C 14,5 km/h (3 Bft)
16.03.2017 12:29 11,3 °C 11,3 °C 61 % 1024,8 hPa 0,0 mm 9,7 km/h (2 Bft) NO 50 ° 1 min 0,000 mm 3,9 UV-I 661 W/m² 4,1 °C 11,3 °C 14,5 km/h (3 Bft)
16.03.2017 12:30 11,2 °C 11,3 °C 61 % 1024,9 hPa 0,0 mm 7,6 km/h (2 Bft) O-NO 61 ° 1 min 0,000 mm 3,9 UV-I 663 W/m² 4,0 °C 11,2 °C 11,3 km/h (2 Bft)
16.03.2017 12:31 11,2 °C 11,2 °C 62 % 1024,9 hPa 0,0 mm 5,1 km/h (1 Bft) NO 51 ° 1 min 0,000 mm 3,8 UV-I 654 W/m² 4,2 °C 11,2 °C 8,0 km/h (2 Bft)
16.03.2017 12:32 11,2 °C 11,2 °C 61 % 1024,9 hPa 0,0 mm 6,4 km/h (2 Bft) N-NO 23 ° 1 min 0,000 mm 3,8 UV-I 652 W/m² 4,0 °C 11,2 °C 8,0 km/h (2 Bft)
16.03.2017 12:33 11,2 °C 11,2 °C 63 % 1024,8 hPa 0,0 mm 6,1 km/h (2 Bft) O 86 ° 1 min 0,000 mm 3,8 UV-I 654 W/m² 4,4 °C 11,2 °C 8,0 km/h (2 Bft)
16.03.2017 12:34 11,3 °C 11,3 °C 62 % 1024,8 hPa 0,0 mm 4,7 km/h (1 Bft) N-NO 30 ° 1 min 0,000 mm 3,9 UV-I 661 W/m² 4,3 °C 11,3 °C 6,4 km/h (2 Bft)
16.03.2017 12:35 11,3 °C 11,4 °C 61 % 1024,9 hPa 0,0 mm 2,6 km/h (1 Bft) N-NO 31 ° 1 min 0,000 mm 3,9 UV-I 659 W/m² 4,1 °C 11,3 °C 4,8 km/h (1 Bft)
16.03.2017 12:36 11,2 °C 11,3 °C 61 % 1024,8 hPa 0,0 mm 3,4 km/h (1 Bft) NO 51 ° 1 min 0,000 mm 3,9 UV-I 661 W/m² 4,0 °C 11,2 °C 6,4 km/h (2 Bft)
16.03.2017 12:37 11,4 °C 11,4 °C 63 % 1024,9 hPa 0,0 mm 6,9 km/h (2 Bft) O-NO 59 ° 1 min 0,000 mm 3,9 UV-I 664 W/m² 4,6 °C 11,4 °C 14,5 km/h (3 Bft)
16.03.2017 12:38 11,6 °C 11,6 °C 59 % 1024,8 hPa 0,0 mm 8,4 km/h (2 Bft) O-NO 78 ° 1 min 0,000 mm 4,0 UV-I 668 W/m² 3,9 °C 11,6 °C 12,9 km/h (3 Bft)
16.03.2017 12:39 11,6 °C 11,6 °C 60 % 1024,8 hPa 0,0 mm 11,1 km/h (2 Bft) O 80 ° 1 min 0,000 mm 3,9 UV-I 659 W/m² 4,1 °C 11,6 °C 16,1 km/h (3 Bft)
16.03.2017 12:40 11,5 °C 11,6 °C 60 % 1024,8 hPa 0,0 mm 8,1 km/h (2 Bft) O-NO 69 ° 1 min 0,000 mm 3,9 UV-I 659 W/m² 4,0 °C 11,5 °C 12,9 km/h (3 Bft)
16.03.2017 12:41 11,4 °C 11,5 °C 60 % 1024,8 hPa 0,0 mm 7,7 km/h (2 Bft) O 81 ° 1 min 0,000 mm 3,9 UV-I 657 W/m² 3,9 °C 11,4 °C 12,9 km/h (3 Bft)
16.03.2017 12:42 11,3 °C 11,4 °C 61 % 1024,8 hPa 0,0 mm 1,3 km/h (1 Bft) O 81 ° 1 min 0,000 mm 3,9 UV-I 657 W/m² 4,1 °C 11,3 °C 3,2 km/h (1 Bft)
16.03.2017 12:43 11,3 °C 11,3 °C 61 % 1024,7 hPa 0,0 mm 5,4 km/h (1 Bft) NO 52 ° 1 min 0,000 mm 3,9 UV-I 659 W/m² 4,1 °C 11,3 °C 11,3 km/h (2 Bft)
16.03.2017 12:44 11,3 °C 11,3 °C 60 % 1024,7 hPa 0,0 mm 4,9 km/h (1 Bft) NO 53 ° 1 min 0,000 mm 3,9 UV-I 656 W/m² 3,8 °C 11,3 °C 6,4 km/h (2 Bft)
16.03.2017 12:45 11,4 °C 11,4 °C 60 % 1024,7 hPa 0,0 mm 5,8 km/h (2 Bft) N-NO 21 ° 1 min 0,000 mm 3,9 UV-I 654 W/m² 3,9 °C 11,4 °C 12,9 km/h (3 Bft)
16.03.2017 12:46 11,7 °C 11,7 °C 61 % 1024,7 hPa 0,0 mm 8,1 km/h (2 Bft) N-NO 32 ° 1 min 0,000 mm 3,9 UV-I 661 W/m² 4,4 °C 11,7 °C 11,3 km/h (2 Bft)
16.03.2017 12:47 11,8 °C 11,8 °C 60 % 1024,7 hPa 0,0 mm 6,2 km/h (2 Bft) N-NO 30 ° 1 min 0,000 mm 3,9 UV-I 659 W/m² 4,3 °C 11,8 °C 8,0 km/h (2 Bft)
16.03.2017 12:48 11,7 °C 11,8 °C 60 % 1024,7 hPa 0,0 mm 3,6 km/h (1 Bft) O-NO 57 ° 1 min 0,000 mm 3,9 UV-I 663 W/m² 4,2 °C 11,7 °C 6,4 km/h (2 Bft)
16.03.2017 12:49 11,7 °C 11,7 °C 60 % 1024,7 hPa 0,0 mm 5,0 km/h (1 Bft) NO 55 ° 1 min 0,000 mm 3,8 UV-I 654 W/m² 4,2 °C 11,7 °C 8,0 km/h (2 Bft)
16.03.2017 12:50 11,7 °C 11,7 °C 62 % 1024,7 hPa 0,0 mm 2,5 km/h (1 Bft) O-NO 67 ° 1 min 0,000 mm 3,8 UV-I 647 W/m² 4,7 °C 11,7 °C 4,8 km/h (1 Bft)
16.03.2017 12:51 11,7 °C 11,7 °C 60 % 1024,7 hPa 0,0 mm 2,9 km/h (1 Bft) O-NO 57 ° 1 min 0,000 mm 3,8 UV-I 645 W/m² 4,2 °C 11,7 °C 4,8 km/h (1 Bft)
16.03.2017 12:52 11,7 °C 11,7 °C 60 % 1024,6 hPa 0,0 mm 1,5 km/h (1 Bft) O-NO 58 ° 1 min 0,000 mm 3,8 UV-I 645 W/m² 4,2 °C 11,7 °C 3,2 km/h (1 Bft)
16.03.2017 12:53 11,7 °C 11,7 °C 60 % 1024,7 hPa 0,0 mm 0,0 km/h (0 Bft) O-NO 57 ° 1 min 0,000 mm 3,8 UV-I 643 W/m² 4,2 °C 11,7 °C 0,0 km/h (0 Bft)
16.03.2017 12:54 11,7 °C 11,7 °C 61 % 1024,6 hPa 0,0 mm 4,6 km/h (1 Bft) N-NO 15 ° 1 min 0,000 mm 3,8 UV-I 645 W/m² 4,4 °C 11,7 °C 8,0 km/h (2 Bft)
16.03.2017 12:55 11,8 °C 11,8 °C 60 % 1024,6 hPa 0,0 mm 6,4 km/h (2 Bft) NO 36 ° 1 min 0,000 mm 3,8 UV-I 649 W/m² 4,3 °C 11,8 °C 12,9 km/h (3 Bft)
16.03.2017 12:56 11,9 °C 11,9 °C 58 % 1024,6 hPa 0,0 mm 8,3 km/h (2 Bft) NO 41 ° 1 min 0,000 mm 3,8 UV-I 652 W/m² 3,9 °C 11,9 °C 12,9 km/h (3 Bft)
16.03.2017 12:57 11,8 °C 11,9 °C 58 % 1024,6 hPa 0,0 mm 10,1 km/h (2 Bft) NO 51 ° 1 min 0,000 mm 3,8 UV-I 652 W/m² 3,8 °C 11,8 °C 16,1 km/h (3 Bft)
16.03.2017 12:58 11,8 °C 11,8 °C 58 % 1024,5 hPa 0,0 mm 6,8 km/h (2 Bft) O-NO 67 ° 1 min 0,000 mm 3,8 UV-I 656 W/m² 3,8 °C 11,8 °C 12,9 km/h (3 Bft)
16.03.2017 12:59 11,8 °C 11,8 °C 59 % 1024,6 hPa 0,0 mm 6,7 km/h (2 Bft) O-NO 66 ° 1 min 0,000 mm 3,8 UV-I 652 W/m² 4,1 °C 11,8 °C 11,3 km/h (2 Bft)
16.03.2017 13:00 11,7 °C 11,8 °C 59 % 1024,6 hPa 0,0 mm 6,9 km/h (2 Bft) O-NO 74 ° 1 min 0,000 mm 3,8 UV-I 647 W/m² 4,0 °C 11,7 °C 11,3 km/h (2 Bft)
16.03.2017 13:01 11,7 °C 11,7 °C 59 % 1024,5 hPa 0,0 mm 3,9 km/h (1 Bft) O 92 ° 1 min 0,330 mm 3,8 UV-I 647 W/m² 4,0 °C 11,7 °C 6,4 km/h (2 Bft)
16.03.2017 13:02 11,8 °C 11,8 °C 61 % 1024,5 hPa 0,0 mm 5,2 km/h (1 Bft) NO 54 ° 1 min 0,000 mm 3,8 UV-I 642 W/m² 4,5 °C 11,8 °C 8,0 km/h (2 Bft)
16.03.2017 13:03 11,8 °C 11,9 °C 60 % 1024,5 hPa 0,0 mm 3,9 km/h (1 Bft) N-NW 330 ° 1 min 0,000 mm 3,7 UV-I 642 W/m² 4,3 °C 11,8 °C 6,4 km/h (2 Bft)
16.03.2017 13:04 11,9 °C 11,9 °C 61 % 1024,5 hPa 0,0 mm 3,3 km/h (1 Bft) O 81 ° 1 min 0,000 mm 3,8 UV-I 642 W/m² 4,6 °C 11,9 °C 4,8 km/h (1 Bft)
16.03.2017 13:05 11,9 °C 11,9 °C 60 % 1024,5 hPa 0,0 mm 6,0 km/h (2 Bft) O 82 ° 1 min 0,000 mm 3,8 UV-I 642 W/m² 4,4 °C 11,9 °C 12,9 km/h (3 Bft)
16.03.2017 13:06 12,0 °C 12,0 °C 58 % 1024,5 hPa 0,0 mm 8,3 km/h (2 Bft) NO 38 ° 1 min 0,000 mm 3,8 UV-I 643 W/m² 4,0 °C 12,0 °C 16,1 km/h (3 Bft)
16.03.2017 13:07 12,0 °C 12,0 °C 58 % 1024,5 hPa 0,0 mm 9,9 km/h (2 Bft) O-NO 69 ° 1 min 0,000 mm 3,8 UV-I 643 W/m² 4,0 °C 12,0 °C 12,9 km/h (3 Bft)
16.03.2017 13:08 11,9 °C 12,1 °C 56 % 1024,5 hPa 0,0 mm 7,4 km/h (2 Bft) NO 51 ° 1 min 0,000 mm 3,8 UV-I 643 W/m² 3,4 °C 11,9 °C 14,5 km/h (3 Bft)
16.03.2017 13:09 11,9 °C 11,9 °C 58 % 1024,5 hPa 0,0 mm 4,3 km/h (1 Bft) N-NO 31 ° 1 min 0,000 mm 3,7 UV-I 642 W/m² 3,9 °C 11,9 °C 6,4 km/h (2 Bft)
16.03.2017 13:10 11,9 °C 11,9 °C 57 % 1024,5 hPa 0,0 mm 7,7 km/h (2 Bft) N 5 ° 1 min 0,000 mm 3,7 UV-I 638 W/m² 3,7 °C 11,9 °C 12,9 km/h (3 Bft)
16.03.2017 13:11 12,1 °C 12,1 °C 58 % 1024,4 hPa 0,0 mm 7,1 km/h (2 Bft) NO 53 ° 1 min 0,000 mm 3,7 UV-I 636 W/m² 4,1 °C 12,1 °C 11,3 km/h (2 Bft)
16.03.2017 13:12 12,1 °C 12,1 °C 55 % 1024,5 hPa 0,0 mm 4,5 km/h (1 Bft) O-NO 69 ° 1 min 0,000 mm 3,7 UV-I 638 W/m² 3,3 °C 12,1 °C 6,4 km/h (2 Bft)
16.03.2017 13:13 12,1 °C 12,1 °C 58 % 1024,4 hPa 0,0 mm 3,0 km/h (1 Bft) NO 51 ° 1 min 0,000 mm 3,7 UV-I 638 W/m² 4,1 °C 12,1 °C 8,0 km/h (2 Bft)
16.03.2017 13:14 12,2 °C 12,2 °C 57 % 1024,4 hPa 0,0 mm 6,1 km/h (2 Bft) O-NO 67 ° 1 min 0,000 mm 3,7 UV-I 640 W/m² 3,9 °C 12,2 °C 12,9 km/h (3 Bft)
16.03.2017 13:15 12,2 °C 12,2 °C 56 % 1024,4 hPa 0,0 mm 8,6 km/h (2 Bft) O-NO 71 ° 1 min 0,000 mm 3,7 UV-I 642 W/m² 3,7 °C 12,2 °C 12,9 km/h (3 Bft)
16.03.2017 13:16 12,2 °C 12,2 °C 56 % 1024,3 hPa 0,0 mm 9,6 km/h (2 Bft) O 84 ° 1 min 0,000 mm 3,7 UV-I 640 W/m² 3,7 °C 12,2 °C 12,9 km/h (3 Bft)
16.03.2017 13:17 12,2 °C 12,2 °C 57 % 1024,4 hPa 0,0 mm 7,2 km/h (2 Bft) O-NO 69 ° 1 min 0,000 mm 3,7 UV-I 638 W/m² 3,9 °C 12,2 °C 11,3 km/h (2 Bft)
16.03.2017 13:18 12,2 °C 12,2 °C 57 % 1024,3 hPa 0,0 mm 7,1 km/h (2 Bft) O 84 ° 1 min 0,000 mm 3,7 UV-I 636 W/m² 3,9 °C 12,2 °C 9,7 km/h (2 Bft)
16.03.2017 13:19 12,1 °C 12,2 °C 57 % 1024,4 hPa 0,0 mm 6,9 km/h (2 Bft) O-NO 66 ° 1 min 0,000 mm 3,7 UV-I 636 W/m² 3,8 °C 12,1 °C 9,7 km/h (2 Bft)
16.03.2017 13:20 12,1 °C 12,1 °C 57 % 1024,3 hPa 0,0 mm 7,4 km/h (2 Bft) NO 55 ° 1 min 0,000 mm 3,7 UV-I 631 W/m² 3,8 °C 12,1 °C 11,3 km/h (2 Bft)
16.03.2017 13:21 12,1 °C 12,1 °C 58 % 1024,3 hPa 0,0 mm 12,7 km/h (3 Bft) O-NO 71 ° 1 min 0,000 mm 3,7 UV-I 631 W/m² 4,1 °C 12,1 °C 17,7 km/h (3 Bft)
16.03.2017 13:22 12,2 °C 12,2 °C 56 % 1024,4 hPa 0,0 mm 9,0 km/h (2 Bft) NO 56 ° 1 min 0,000 mm 3,6 UV-I 629 W/m² 3,7 °C 12,2 °C 12,9 km/h (3 Bft)
16.03.2017 13:23 12,2 °C 12,2 °C 56 % 1024,4 hPa 0,0 mm 8,9 km/h (2 Bft) O-NO 75 ° 1 min 0,000 mm 3,7 UV-I 631 W/m² 3,7 °C 12,2 °C 14,5 km/h (3 Bft)
16.03.2017 13:24 12,3 °C 12,3 °C 56 % 1024,4 hPa 0,0 mm 2,8 km/h (1 Bft) O-NO 69 ° 1 min 0,000 mm 3,7 UV-I 629 W/m² 3,8 °C 12,3 °C 4,8 km/h (1 Bft)
16.03.2017 13:25 12,3 °C 12,3 °C 57 % 1024,3 hPa 0,0 mm 4,9 km/h (1 Bft) N-NO 29 ° 1 min 0,000 mm 3,6 UV-I 631 W/m² 4,0 °C 12,3 °C 6,4 km/h (2 Bft)
16.03.2017 13:26 12,4 °C 12,4 °C 57 % 1024,3 hPa 0,0 mm 7,5 km/h (2 Bft) N-NO 32 ° 1 min 0,000 mm 3,7 UV-I 626 W/m² 4,1 °C 12,4 °C 11,3 km/h (2 Bft)
16.03.2017 13:27 12,4 °C 12,4 °C 54 % 1024,4 hPa 0,0 mm 6,9 km/h (2 Bft) NO 42 ° 1 min 0,000 mm 3,6 UV-I 624 W/m² 3,4 °C 12,4 °C 9,7 km/h (2 Bft)
16.03.2017 13:28 12,3 °C 12,4 °C 54 % 1024,3 hPa 0,0 mm 8,9 km/h (2 Bft) O 90 ° 1 min 0,000 mm 3,6 UV-I 622 W/m² 3,3 °C 12,3 °C 12,9 km/h (3 Bft)
16.03.2017 13:29 12,2 °C 12,3 °C 54 % 1024,3 hPa 0,0 mm 6,3 km/h (2 Bft) O-NO 67 ° 1 min 0,000 mm 3,6 UV-I 624 W/m² 3,2 °C 12,2 °C 11,3 km/h (2 Bft)
16.03.2017 13:30 12,1 °C 12,2 °C 55 % 1024,3 hPa 0,0 mm 7,5 km/h (2 Bft) O-NO 59 ° 1 min 0,000 mm 3,6 UV-I 621 W/m² 3,3 °C 12,1 °C 9,7 km/h (2 Bft)
16.03.2017 13:31 12,2 °C 12,2 °C 56 % 1024,3 hPa 0,0 mm 7,9 km/h (2 Bft) N 5 ° 1 min 0,000 mm 3,6 UV-I 628 W/m² 3,7 °C 12,2 °C 12,9 km/h (3 Bft)
16.03.2017 13:32 12,2 °C 12,2 °C 55 % 1024,3 hPa 0,0 mm 9,8 km/h (2 Bft) N-NO 13 ° 1 min 0,000 mm 3,6 UV-I 628 W/m² 3,4 °C 12,2 °C 16,1 km/h (3 Bft)
16.03.2017 13:33 12,4 °C 12,4 °C 54 % 1024,3 hPa 0,0 mm 6,8 km/h (2 Bft) N-NO 13 ° 1 min 0,000 mm 3,6 UV-I 626 W/m² 3,4 °C 12,4 °C 12,9 km/h (3 Bft)
16.03.2017 13:34 12,4 °C 12,4 °C 54 % 1024,3 hPa 0,0 mm 4,4 km/h (1 Bft) N-NO 13 ° 1 min 0,000 mm 3,6 UV-I 622 W/m² 3,4 °C 12,4 °C 6,4 km/h (2 Bft)
16.03.2017 13:35 12,4 °C 12,4 °C 54 % 1024,3 hPa 0,0 mm 4,1 km/h (1 Bft) N-NO 32 ° 1 min 0,000 mm 3,6 UV-I 619 W/m² 3,4 °C 12,4 °C 4,8 km/h (1 Bft)
16.03.2017 13:36 12,5 °C 12,5 °C 54 % 1024,2 hPa 0,0 mm 4,6 km/h (1 Bft) O 88 ° 1 min 0,000 mm 3,5 UV-I 615 W/m² 3,5 °C 12,5 °C 6,4 km/h (2 Bft)
16.03.2017 13:37 12,5 °C 12,5 °C 54 % 1024,2 hPa 0,0 mm 13,9 km/h (3 Bft) O-NO 71 ° 1 min 0,000 mm 3,5 UV-I 613 W/m² 3,5 °C 12,5 °C 17,7 km/h (3 Bft)
16.03.2017 13:38 12,4 °C 12,5 °C 52 % 1024,2 hPa 0,0 mm 8,9 km/h (2 Bft) NO 53 ° 1 min 0,000 mm 3,5 UV-I 617 W/m² 2,8 °C 12,4 °C 16,1 km/h (3 Bft)
16.03.2017 13:39 12,3 °C 12,4 °C 53 % 1024,2 hPa 0,0 mm 6,6 km/h (2 Bft) O 83 ° 1 min 0,000 mm 3,5 UV-I 617 W/m² 3,0 °C 12,3 °C 11,3 km/h (2 Bft)
16.03.2017 13:40 12,4 °C 12,4 °C 54 % 1024,2 hPa 0,0 mm 10,6 km/h (2 Bft) O-NO 74 ° 1 min 0,000 mm 3,5 UV-I 615 W/m² 3,4 °C 12,4 °C 12,9 km/h (3 Bft)
16.03.2017 13:41 12,3 °C 12,4 °C 54 % 1024,2 hPa 0,0 mm 11,8 km/h (2 Bft) O 80 ° 1 min 0,000 mm 3,5 UV-I 617 W/m² 3,3 °C 12,3 °C 14,5 km/h (3 Bft)
16.03.2017 13:42 12,2 °C 12,3 °C 53 % 1024,2 hPa 0,0 mm 5,1 km/h (1 Bft) O 83 ° 1 min 0,000 mm 3,5 UV-I 617 W/m² 2,9 °C 12,2 °C 8,0 km/h (2 Bft)
16.03.2017 13:43 12,2 °C 12,2 °C 53 % 1024,2 hPa 0,0 mm 5,6 km/h (1 Bft) O-NO 71 ° 1 min 0,000 mm 3,5 UV-I 615 W/m² 2,9 °C 12,2 °C 6,4 km/h (2 Bft)
16.03.2017 13:44 12,2 °C 12,2 °C 55 % 1024,1 hPa 0,0 mm 6,2 km/h (2 Bft) NO 53 ° 1 min 0,000 mm 3,5 UV-I 612 W/m² 3,4 °C 12,2 °C 11,3 km/h (2 Bft)
16.03.2017 13:45 12,3 °C 12,3 °C 52 % 1024,1 hPa 0,0 mm 5,6 km/h (1 Bft) O 95 ° 1 min 0,000 mm 3,5 UV-I 610 W/m² 2,7 °C 12,3 °C 9,7 km/h (2 Bft)
16.03.2017 13:46 12,3 °C 12,3 °C 53 % 1024,2 hPa 0,0 mm 4,2 km/h (1 Bft) O-NO 61 ° 1 min 0,000 mm 3,5 UV-I 608 W/m² 3,0 °C 12,3 °C 6,4 km/h (2 Bft)
16.03.2017 13:47 12,4 °C 12,4 °C 54 % 1024,1 hPa 0,0 mm 7,0 km/h (2 Bft) O-SO 119 ° 1 min 0,000 mm 3,5 UV-I 606 W/m² 3,4 °C 12,4 °C 11,3 km/h (2 Bft)
16.03.2017 13:48 12,5 °C 12,5 °C 52 % 1024,1 hPa 0,0 mm 9,0 km/h (2 Bft) NO 41 ° 1 min 0,000 mm 3,4 UV-I 606 W/m² 2,9 °C 12,5 °C 12,9 km/h (3 Bft)
16.03.2017 13:49 12,7 °C 12,7 °C 53 % 1024,1 hPa 0,0 mm 6,5 km/h (2 Bft) O-NO 64 ° 1 min 0,000 mm 3,5 UV-I 610 W/m² 3,4 °C 12,7 °C 9,7 km/h (2 Bft)
16.03.2017 13:50 12,6 °C 12,7 °C 50 % 1024,0 hPa 0,0 mm 6,3 km/h (2 Bft) O-NO 61 ° 1 min 0,000 mm 3,4 UV-I 606 W/m² 2,5 °C 12,6 °C 14,5 km/h (3 Bft)
16.03.2017 13:51 12,6 °C 12,6 °C 51 % 1024,0 hPa 0,0 mm 7,5 km/h (2 Bft) NO 49 ° 1 min 0,000 mm 3,4 UV-I 605 W/m² 2,7 °C 12,6 °C 12,9 km/h (3 Bft)
16.03.2017 13:52 12,7 °C 12,7 °C 48 % 1024,0 hPa 0,0 mm 9,6 km/h (2 Bft) O-NO 69 ° 1 min 0,000 mm 3,4 UV-I 601 W/m² 2,0 °C 12,7 °C 12,9 km/h (3 Bft)
16.03.2017 13:53 12,6 °C 12,7 °C 49 % 1024,0 hPa 0,0 mm 8,4 km/h (2 Bft) O 94 ° 1 min 0,000 mm 3,4 UV-I 601 W/m² 2,2 °C 12,6 °C 14,5 km/h (3 Bft)
16.03.2017 13:54 12,6 °C 12,6 °C 49 % 1024,0 hPa 0,0 mm 6,1 km/h (2 Bft) NO 40 ° 1 min 0,000 mm 3,4 UV-I 601 W/m² 2,2 °C 12,6 °C 9,7 km/h (2 Bft)
16.03.2017 13:55 12,6 °C 12,6 °C 51 % 1024,0 hPa 0,0 mm 5,6 km/h (1 Bft) N-NO 28 ° 1 min 0,000 mm 3,4 UV-I 596 W/m² 2,7 °C 12,6 °C 9,7 km/h (2 Bft)
16.03.2017 13:56 12,6 °C 12,6 °C 52 % 1024,0 hPa 0,0 mm 4,0 km/h (1 Bft) NO 46 ° 1 min 0,000 mm 3,4 UV-I 596 W/m² 3,0 °C 12,6 °C 6,4 km/h (2 Bft)
16.03.2017 13:57 12,7 °C 12,7 °C 52 % 1023,9 hPa 0,0 mm 7,0 km/h (2 Bft) N-NO 18 ° 1 min 0,000 mm 3,4 UV-I 598 W/m² 3,1 °C 12,7 °C 9,7 km/h (2 Bft)
16.03.2017 13:58 12,7 °C 12,7 °C 50 % 1024,0 hPa 0,0 mm 6,9 km/h (2 Bft) N-NO 32 ° 1 min 0,000 mm 3,4 UV-I 596 W/m² 2,6 °C 12,7 °C 11,3 km/h (2 Bft)
16.03.2017 13:59 12,7 °C 12,7 °C 49 % 1023,9 hPa 0,0 mm 9,5 km/h (2 Bft) N-NO 31 ° 1 min 0,000 mm 3,3 UV-I 592 W/m² 2,3 °C 12,7 °C 16,1 km/h (3 Bft)
16.03.2017 14:00 12,6 °C 12,7 °C 49 % 1024,0 hPa 0,0 mm 6,6 km/h (2 Bft) N-NO 33 ° 1 min 0,331 mm 3,3 UV-I 592 W/m² 2,2 °C 12,6 °C 9,7 km/h (2 Bft)
16.03.2017 14:01 12,6 °C 12,6 °C 50 % 1024,0 hPa 0,0 mm 5,2 km/h (1 Bft) O 94 ° 1 min 0,000 mm 3,3 UV-I 591 W/m² 2,5 °C 12,6 °C 6,4 km/h (2 Bft)
16.03.2017 14:02 12,7 °C 12,7 °C 51 % 1023,9 hPa 0,0 mm 4,1 km/h (1 Bft) O 90 ° 1 min 0,000 mm 3,3 UV-I 589 W/m² 2,8 °C 12,7 °C 6,4 km/h (2 Bft)
16.03.2017 14:03 12,7 °C 12,7 °C 50 % 1023,9 hPa 0,0 mm 11,3 km/h (2 Bft) O-NO 71 ° 1 min 0,000 mm 3,3 UV-I 587 W/m² 2,6 °C 12,7 °C 16,1 km/h (3 Bft)
16.03.2017 14:04 12,7 °C 12,7 °C 51 % 1023,9 hPa 0,0 mm 6,6 km/h (2 Bft) O-NO 74 ° 1 min 0,000 mm 3,3 UV-I 589 W/m² 2,8 °C 12,7 °C 12,9 km/h (3 Bft)
16.03.2017 14:05 12,7 °C 12,7 °C 50 % 1023,9 hPa 0,0 mm 9,7 km/h (2 Bft) O 90 ° 1 min 0,000 mm 3,3 UV-I 587 W/m² 2,6 °C 12,7 °C 14,5 km/h (3 Bft)
16.03.2017 14:06 12,8 °C 12,8 °C 51 % 1023,9 hPa 0,0 mm 10,9 km/h (2 Bft) O-NO 71 ° 1 min 0,000 mm 3,2 UV-I 582 W/m² 2,9 °C 12,8 °C 12,9 km/h (3 Bft)
16.03.2017 14:07 12,8 °C 12,8 °C 50 % 1023,9 hPa 0,0 mm 9,1 km/h (2 Bft) O-NO 71 ° 1 min 0,000 mm 3,2 UV-I 580 W/m² 2,6 °C 12,8 °C 12,9 km/h (3 Bft)
16.03.2017 14:08 12,6 °C 12,8 °C 48 % 1023,8 hPa 0,0 mm 3,6 km/h (1 Bft) O-NO 59 ° 1 min 0,000 mm 3,2 UV-I 582 W/m² 1,9 °C 12,6 °C 6,4 km/h (2 Bft)
16.03.2017 14:09 12,6 °C 12,6 °C 49 % 1023,9 hPa 0,0 mm 7,9 km/h (2 Bft) NO 42 ° 1 min 0,000 mm 3,2 UV-I 578 W/m² 2,2 °C 12,6 °C 11,3 km/h (2 Bft)
16.03.2017 14:10 12,6 °C 12,6 °C 48 % 1023,9 hPa 0,0 mm 8,4 km/h (2 Bft) NO 40 ° 1 min 0,000 mm 3,2 UV-I 575 W/m² 1,9 °C 12,6 °C 11,3 km/h (2 Bft)
16.03.2017 14:11 12,7 °C 12,7 °C 49 % 1023,9 hPa 0,0 mm 7,5 km/h (2 Bft) N-NO 32 ° 1 min 0,000 mm 3,2 UV-I 573 W/m² 2,3 °C 12,7 °C 9,7 km/h (2 Bft)
16.03.2017 14:12 12,7 °C 12,7 °C 48 % 1023,9 hPa 0,0 mm 8,3 km/h (2 Bft) NO 40 ° 1 min 0,000 mm 3,1 UV-I 571 W/m² 2,0 °C 12,7 °C 11,3 km/h (2 Bft)
16.03.2017 14:13 12,6 °C 12,7 °C 48 % 1023,9 hPa 0,0 mm 2,5 km/h (1 Bft) N 5 ° 1 min 0,000 mm 3,1 UV-I 570 W/m² 1,9 °C 12,6 °C 4,8 km/h (1 Bft)
16.03.2017 14:14 12,6 °C 12,6 °C 49 % 1023,9 hPa 0,0 mm 4,3 km/h (1 Bft) NO 42 ° 1 min 0,000 mm 3,1 UV-I 571 W/m² 2,2 °C 12,6 °C 8,0 km/h (2 Bft)
16.03.2017 14:15 12,6 °C 12,6 °C 50 % 1023,9 hPa 0,0 mm 3,4 km/h (1 Bft) N-NO 16 ° 1 min 0,000 mm 3,1 UV-I 573 W/m² 2,5 °C 12,6 °C 6,4 km/h (2 Bft)
16.03.2017 14:16 12,7 °C 12,7 °C 50 % 1023,9 hPa 0,0 mm 4,2 km/h (1 Bft) N-NO 24 ° 1 min 0,000 mm 3,1 UV-I 571 W/m² 2,6 °C 12,7 °C 6,4 km/h (2 Bft)
16.03.2017 14:17 12,8 °C 12,8 °C 51 % 1023,9 hPa 0,0 mm 8,0 km/h (2 Bft) O 80 ° 1 min 0,000 mm 3,1 UV-I 568 W/m² 2,9 °C 12,8 °C 16,1 km/h (3 Bft)
16.03.2017 14:18 12,8 °C 12,8 °C 51 % 1023,9 hPa 0,0 mm 8,5 km/h (2 Bft) O-NO 71 ° 1 min 0,000 mm 3,1 UV-I 561 W/m² 2,9 °C 12,8 °C 12,9 km/h (3 Bft)
16.03.2017 14:19 12,8 °C 12,8 °C 52 % 1023,9 hPa 0,0 mm 12,2 km/h (2 Bft) NO 44 ° 1 min 0,000 mm 3,0 UV-I 555 W/m² 3,2 °C 12,8 °C 14,5 km/h (3 Bft)
16.03.2017 14:20 12,7 °C 12,8 °C 51 % 1023,9 hPa 0,0 mm 7,0 km/h (2 Bft) O-NO 58 ° 1 min 0,000 mm 2,9 UV-I 550 W/m² 2,8 °C 12,7 °C 12,9 km/h (3 Bft)
16.03.2017 14:21 12,7 °C 12,8 °C 51 % 1023,8 hPa 0,0 mm 5,2 km/h (1 Bft) O-NO 61 ° 1 min 0,000 mm 2,9 UV-I 552 W/m² 2,8 °C 12,7 °C 6,4 km/h (2 Bft)
16.03.2017 14:22 12,8 °C 12,8 °C 52 % 1023,8 hPa 0,0 mm 7,2 km/h (2 Bft) O-NO 65 ° 1 min 0,000 mm 2,8 UV-I 548 W/m² 3,2 °C 12,8 °C 12,9 km/h (3 Bft)
16.03.2017 14:23 12,9 °C 12,9 °C 52 % 1023,9 hPa 0,0 mm 6,9 km/h (2 Bft) N 5 ° 1 min 0,000 mm 2,8 UV-I 550 W/m² 3,3 °C 12,9 °C 8,0 km/h (2 Bft)
16.03.2017 14:24 12,9 °C 12,9 °C 51 % 1023,8 hPa 0,0 mm 11,4 km/h (2 Bft) N-NO 26 ° 1 min 0,000 mm 2,7 UV-I 545 W/m² 3,0 °C 12,9 °C 16,1 km/h (3 Bft)
16.03.2017 14:25 12,9 °C 12,9 °C 50 % 1023,9 hPa 0,0 mm 7,2 km/h (2 Bft) NO 41 ° 1 min 0,000 mm 2,6 UV-I 541 W/m² 2,7 °C 12,9 °C 9,7 km/h (2 Bft)
16.03.2017 14:26 12,8 °C 12,9 °C 51 % 1023,8 hPa 0,0 mm 5,5 km/h (1 Bft) N-NW 331 ° 1 min 0,000 mm 2,6 UV-I 540 W/m² 2,9 °C 12,8 °C 6,4 km/h (2 Bft)
16.03.2017 14:27 12,9 °C 12,9 °C 51 % 1023,8 hPa 0,0 mm 4,7 km/h (1 Bft) N-NO 27 ° 1 min 0,000 mm 2,6 UV-I 536 W/m² 3,0 °C 12,9 °C 6,4 km/h (2 Bft)
16.03.2017 14:28 13,1 °C 13,1 °C 51 % 1023,8 hPa 0,0 mm 5,3 km/h (1 Bft) N-NO 12 ° 1 min 0,000 mm 2,6 UV-I 538 W/m² 3,2 °C 13,1 °C 8,0 km/h (2 Bft)
16.03.2017 14:29 13,1 °C 13,1 °C 49 % 1023,8 hPa 0,0 mm 6,8 km/h (2 Bft) O-NO 59 ° 1 min 0,000 mm 2,6 UV-I 540 W/m² 2,6 °C 13,1 °C 11,3 km/h (2 Bft)
16.03.2017 14:30 13,1 °C 13,1 °C 51 % 1023,8 hPa 0,0 mm 9,9 km/h (2 Bft) O-NO 59 ° 1 min 0,000 mm 2,6 UV-I 536 W/m² 3,2 °C 13,1 °C 14,5 km/h (3 Bft)
16.03.2017 14:31 13,1 °C 13,1 °C 52 % 1023,8 hPa 0,0 mm 9,9 km/h (2 Bft) O-NO 63 ° 1 min 0,000 mm 2,6 UV-I 531 W/m² 3,5 °C 13,1 °C 16,1 km/h (3 Bft)
16.03.2017 14:32 13,1 °C 13,1 °C 53 % 1023,8 hPa 0,0 mm 6,7 km/h (2 Bft) O 80 ° 1 min 0,000 mm 2,6 UV-I 527 W/m² 3,7 °C 13,1 °C 12,9 km/h (3 Bft)
16.03.2017 14:33 13,1 °C 13,2 °C 52 % 1023,8 hPa 0,0 mm 4,5 km/h (1 Bft) O-NO 58 ° 1 min 0,000 mm 2,6 UV-I 526 W/m² 3,5 °C 13,1 °C 6,4 km/h (2 Bft)
16.03.2017 14:34 12,9 °C 13,1 °C 52 % 1023,7 hPa 0,0 mm 2,8 km/h (1 Bft) O-NO 59 ° 1 min 0,000 mm 2,6 UV-I 529 W/m² 3,3 °C 12,9 °C 4,8 km/h (1 Bft)
16.03.2017 14:35 12,9 °C 12,9 °C 53 % 1023,7 hPa 0,0 mm 5,9 km/h (2 Bft) NO 55 ° 1 min 0,000 mm 2,5 UV-I 531 W/m² 3,6 °C 12,9 °C 11,3 km/h (2 Bft)
16.03.2017 14:36 13,0 °C 13,0 °C 49 % 1023,7 hPa 0,0 mm 12,6 km/h (3 Bft) NO 46 ° 1 min 0,000 mm 2,5 UV-I 526 W/m² 2,5 °C 13,0 °C 17,7 km/h (3 Bft)
16.03.2017 14:37 13,0 °C 13,0 °C 49 % 1023,7 hPa 0,0 mm 6,6 km/h (2 Bft) NO 51 ° 1 min 0,000 mm 2,4 UV-I 522 W/m² 2,5 °C 13,0 °C 12,9 km/h (3 Bft)
16.03.2017 14:38 13,1 °C 13,1 °C 49 % 1023,7 hPa 0,0 mm 4,6 km/h (1 Bft) O 82 ° 1 min 0,000 mm 2,4 UV-I 519 W/m² 2,6 °C 13,1 °C 8,0 km/h (2 Bft)
16.03.2017 14:39 13,1 °C 13,1 °C 48 % 1023,7 hPa 0,0 mm 5,6 km/h (1 Bft) O-NO 76 ° 1 min 0,000 mm 2,4 UV-I 517 W/m² 2,3 °C 13,1 °C 11,3 km/h (2 Bft)
16.03.2017 14:40 13,1 °C 13,1 °C 50 % 1023,7 hPa 0,0 mm 6,4 km/h (2 Bft) NO 46 ° 1 min 0,000 mm 2,3 UV-I 517 W/m² 2,9 °C 13,1 °C 11,3 km/h (2 Bft)
16.03.2017 14:41 13,1 °C 13,1 °C 48 % 1023,7 hPa 0,0 mm 7,0 km/h (2 Bft) O-NO 65 ° 1 min 0,000 mm 2,3 UV-I 515 W/m² 2,3 °C 13,1 °C 12,9 km/h (3 Bft)
16.03.2017 14:42 13,1 °C 13,1 °C 48 % 1023,7 hPa 0,0 mm 8,7 km/h (2 Bft) NO 56 ° 1 min 0,000 mm 2,3 UV-I 515 W/m² 2,3 °C 13,1 °C 12,9 km/h (3 Bft)
16.03.2017 14:43 13,0 °C 13,1 °C 48 % 1023,6 hPa 0,0 mm 6,4 km/h (2 Bft) O-NO 72 ° 1 min 0,000 mm 2,4 UV-I 512 W/m² 2,3 °C 13,0 °C 11,3 km/h (2 Bft)
16.03.2017 14:44 13,0 °C 13,0 °C 48 % 1023,6 hPa 0,0 mm 8,9 km/h (2 Bft) NO 42 ° 1 min 0,000 mm 2,4 UV-I 510 W/m² 2,3 °C 13,0 °C 12,9 km/h (3 Bft)
16.03.2017 14:45 13,2 °C 13,2 °C 48 % 1023,6 hPa 0,0 mm 6,6 km/h (2 Bft) SO 129 ° 1 min 0,000 mm 2,4 UV-I 508 W/m² 2,4 °C 13,2 °C 12,9 km/h (3 Bft)
16.03.2017 14:46 13,2 °C 13,2 °C 48 % 1023,6 hPa 0,0 mm 5,7 km/h (1 Bft) O-NO 59 ° 1 min 0,000 mm 2,4 UV-I 504 W/m² 2,4 °C 13,2 °C 8,0 km/h (2 Bft)
16.03.2017 14:47 13,1 °C 13,2 °C 49 % 1023,7 hPa 0,0 mm 7,2 km/h (2 Bft) O-NO 68 ° 1 min 0,000 mm 2,4 UV-I 503 W/m² 2,6 °C 13,1 °C 11,3 km/h (2 Bft)
16.03.2017 14:48 13,0 °C 13,1 °C 46 % 1023,6 hPa 0,0 mm 6,6 km/h (2 Bft) O 85 ° 1 min 0,000 mm 2,4 UV-I 496 W/m² 1,7 °C 13,0 °C 11,3 km/h (2 Bft)
16.03.2017 14:49 12,9 °C 13,0 °C 47 % 1023,6 hPa 0,0 mm 6,4 km/h (2 Bft) O-NO 75 ° 1 min 0,000 mm 2,4 UV-I 492 W/m² 1,9 °C 12,9 °C 9,7 km/h (2 Bft)
16.03.2017 14:50 12,9 °C 13,0 °C 48 % 1023,6 hPa 0,0 mm 4,5 km/h (1 Bft) O-NO 76 ° 1 min 0,000 mm 2,4 UV-I 492 W/m² 2,2 °C 12,9 °C 8,0 km/h (2 Bft)
16.03.2017 14:51 12,9 °C 13,0 °C 48 % 1023,6 hPa 0,0 mm 4,3 km/h (1 Bft) O-NO 61 ° 1 min 0,000 mm 2,4 UV-I 490 W/m² 2,2 °C 12,9 °C 8,0 km/h (2 Bft)
16.03.2017 14:52 13,1 °C 13,1 °C 47 % 1023,6 hPa 0,0 mm 6,4 km/h (2 Bft) N-NO 25 ° 1 min 0,000 mm 2,4 UV-I 487 W/m² 2,0 °C 13,1 °C 8,0 km/h (2 Bft)
16.03.2017 14:53 13,2 °C 13,2 °C 47 % 1023,6 hPa 0,0 mm 6,0 km/h (2 Bft) NO 44 ° 1 min 0,000 mm 2,5 UV-I 494 W/m² 2,1 °C 13,2 °C 8,0 km/h (2 Bft)
16.03.2017 14:54 13,2 °C 13,2 °C 45 % 1023,6 hPa 0,0 mm 5,2 km/h (1 Bft) O-NO 57 ° 1 min 0,000 mm 2,5 UV-I 480 W/m² 1,5 °C 13,2 °C 8,0 km/h (2 Bft)
16.03.2017 14:55 13,2 °C 13,2 °C 45 % 1023,6 hPa 0,0 mm 3,6 km/h (1 Bft) N-NO 26 ° 1 min 0,000 mm 2,4 UV-I 473 W/m² 1,5 °C 13,2 °C 6,4 km/h (2 Bft)
16.03.2017 14:56 13,2 °C 13,2 °C 46 % 1023,7 hPa 0,0 mm 2,5 km/h (1 Bft) N-NO 13 ° 1 min 0,000 mm 2,5 UV-I 480 W/m² 1,8 °C 13,2 °C 3,2 km/h (1 Bft)
16.03.2017 14:57 13,3 °C 13,3 °C 43 % 1023,6 hPa 0,0 mm 7,0 km/h (2 Bft) N 355 ° 1 min 0,000 mm 2,5 UV-I 485 W/m² 1,0 °C 13,3 °C 9,7 km/h (2 Bft)
16.03.2017 14:58 13,3 °C 13,3 °C 43 % 1023,6 hPa 0,0 mm 5,6 km/h (1 Bft) N-NO 13 ° 1 min 0,000 mm 2,5 UV-I 483 W/m² 1,0 °C 13,3 °C 8,0 km/h (2 Bft)
16.03.2017 14:59 13,3 °C 13,3 °C 44 % 1023,6 hPa 0,0 mm 4,2 km/h (1 Bft) O-NO 77 ° 1 min 0,000 mm 2,5 UV-I 480 W/m² 1,3 °C 13,3 °C 6,4 km/h (2 Bft)
16.03.2017 15:00 13,3 °C 13,3 °C 44 % 1023,6 hPa 0,0 mm 6,4 km/h (2 Bft) N-NO 17 ° 1 min 0,304 mm 2,4 UV-I 478 W/m² 1,3 °C 13,3 °C 11,3 km/h (2 Bft)
16.03.2017 15:01 13,3 °C 13,3 °C 44 % 1023,5 hPa 0,0 mm 7,4 km/h (2 Bft) N-NO 24 ° 1 min 0,000 mm 2,4 UV-I 475 W/m² 1,3 °C 13,3 °C 12,9 km/h (3 Bft)
16.03.2017 15:02 13,4 °C 13,4 °C 45 % 1023,5 hPa 0,0 mm 8,6 km/h (2 Bft) N-NO 16 ° 1 min 0,000 mm 2,4 UV-I 473 W/m² 1,7 °C 13,4 °C 12,9 km/h (3 Bft)
16.03.2017 15:03 13,4 °C 13,4 °C 45 % 1023,5 hPa 0,0 mm 7,7 km/h (2 Bft) N 355 ° 1 min 0,000 mm 2,4 UV-I 473 W/m² 1,7 °C 13,4 °C 11,3 km/h (2 Bft)
16.03.2017 15:04 13,4 °C 13,4 °C 44 % 1023,5 hPa 0,0 mm 5,1 km/h (1 Bft) NO 45 ° 1 min 0,000 mm 2,4 UV-I 469 W/m² 1,4 °C 13,4 °C 8,0 km/h (2 Bft)
16.03.2017 15:05 13,5 °C 13,5 °C 44 % 1023,5 hPa 0,0 mm 5,0 km/h (1 Bft) N-NO 30 ° 1 min 0,000 mm 2,4 UV-I 466 W/m² 1,5 °C 13,5 °C 6,4 km/h (2 Bft)
16.03.2017 15:06 13,4 °C 13,5 °C 45 % 1023,6 hPa 0,0 mm 6,0 km/h (2 Bft) N 360 ° 1 min 0,000 mm 2,4 UV-I 464 W/m² 1,7 °C 13,4 °C 9,7 km/h (2 Bft)
16.03.2017 15:07 13,5 °C 13,5 °C 44 % 1023,5 hPa 0,0 mm 6,2 km/h (2 Bft) NO 39 ° 1 min 0,000 mm 2,3 UV-I 461 W/m² 1,5 °C 13,5 °C 8,0 km/h (2 Bft)
16.03.2017 15:08 13,4 °C 13,5 °C 44 % 1023,4 hPa 0,0 mm 4,1 km/h (1 Bft) N-NW 329 ° 1 min 0,000 mm 2,3 UV-I 459 W/m² 1,4 °C 13,4 °C 8,0 km/h (2 Bft)
16.03.2017 15:09 13,5 °C 13,5 °C 44 % 1023,5 hPa 0,0 mm 11,1 km/h (2 Bft) NO 44 ° 1 min 0,000 mm 2,3 UV-I 455 W/m² 1,5 °C 13,5 °C 16,1 km/h (3 Bft)
16.03.2017 15:10 13,5 °C 13,5 °C 44 % 1023,4 hPa 0,0 mm 9,4 km/h (2 Bft) O-NO 57 ° 1 min 0,000 mm 2,3 UV-I 454 W/m² 1,5 °C 13,5 °C 16,1 km/h (3 Bft)
16.03.2017 15:11 13,5 °C 13,5 °C 45 % 1023,5 hPa 0,0 mm 7,1 km/h (2 Bft) NO 51 ° 1 min 0,000 mm 2,3 UV-I 448 W/m² 1,8 °C 13,5 °C 12,9 km/h (3 Bft)
16.03.2017 15:12 13,4 °C 13,5 °C 43 % 1023,5 hPa 0,0 mm 4,1 km/h (1 Bft) N-NO 19 ° 1 min 0,000 mm 2,2 UV-I 445 W/m² 1,1 °C 13,4 °C 6,4 km/h (2 Bft)
16.03.2017 15:13 13,4 °C 13,4 °C 45 % 1023,5 hPa 0,0 mm 5,9 km/h (2 Bft) N 360 ° 1 min 0,000 mm 2,2 UV-I 443 W/m² 1,7 °C 13,4 °C 8,0 km/h (2 Bft)
16.03.2017 15:14 13,4 °C 13,4 °C 44 % 1023,5 hPa 0,0 mm 4,2 km/h (1 Bft) O-NO 60 ° 1 min 0,000 mm 2,2 UV-I 441 W/m² 1,4 °C 13,4 °C 6,4 km/h (2 Bft)
16.03.2017 15:15 13,4 °C 13,4 °C 44 % 1023,5 hPa 0,0 mm 7,7 km/h (2 Bft) O 101 ° 1 min 0,000 mm 2,2 UV-I 441 W/m² 1,4 °C 13,4 °C 12,9 km/h (3 Bft)
16.03.2017 15:16 13,3 °C 13,4 °C 44 % 1023,4 hPa 0,0 mm 6,4 km/h (2 Bft) O 86 ° 1 min 0,000 mm 2,2 UV-I 439 W/m² 1,3 °C 13,3 °C 9,7 km/h (2 Bft)
16.03.2017 15:17 13,2 °C 13,3 °C 44 % 1023,5 hPa 0,0 mm 5,4 km/h (1 Bft) N 10 ° 1 min 0,000 mm 2,2 UV-I 436 W/m² 1,2 °C 13,2 °C 8,0 km/h (2 Bft)
16.03.2017 15:18 13,3 °C 13,3 °C 44 % 1023,4 hPa 0,0 mm 7,7 km/h (2 Bft) N-NW 345 ° 1 min 0,000 mm 2,2 UV-I 438 W/m² 1,3 °C 13,3 °C 9,7 km/h (2 Bft)
16.03.2017 15:19 13,3 °C 13,3 °C 44 % 1023,5 hPa 0,0 mm 8,4 km/h (2 Bft) N-NW 343 ° 1 min 0,000 mm 2,2 UV-I 434 W/m² 1,3 °C 13,3 °C 14,5 km/h (3 Bft)
16.03.2017 15:20 13,4 °C 13,4 °C 45 % 1023,4 hPa 0,0 mm 10,4 km/h (2 Bft) N 10 ° 1 min 0,000 mm 2,1 UV-I 431 W/m² 1,7 °C 13,4 °C 16,1 km/h (3 Bft)
16.03.2017 15:21 13,4 °C 13,5 °C 43 % 1023,4 hPa 0,0 mm 6,7 km/h (2 Bft) NO 41 ° 1 min 0,000 mm 2,1 UV-I 427 W/m² 1,1 °C 13,4 °C 8,0 km/h (2 Bft)
16.03.2017 15:22 13,4 °C 13,4 °C 43 % 1023,4 hPa 0,0 mm 6,2 km/h (2 Bft) NO 49 ° 1 min 0,000 mm 2,1 UV-I 425 W/m² 1,1 °C 13,4 °C 8,0 km/h (2 Bft)
16.03.2017 15:23 13,3 °C 13,4 °C 43 % 1023,4 hPa 0,0 mm 7,6 km/h (2 Bft) N-NO 26 ° 1 min 0,000 mm 2,1 UV-I 420 W/m² 1,0 °C 13,3 °C 12,9 km/h (3 Bft)
16.03.2017 15:24 13,4 °C 13,4 °C 44 % 1023,4 hPa 0,0 mm 4,4 km/h (1 Bft) N-NO 15 ° 1 min 0,000 mm 2,0 UV-I 417 W/m² 1,4 °C 13,4 °C 11,3 km/h (2 Bft)
16.03.2017 15:25 13,4 °C 13,4 °C 43 % 1023,4 hPa 0,0 mm 6,5 km/h (2 Bft) N-NO 31 ° 1 min 0,000 mm 2,0 UV-I 417 W/m² 1,1 °C 13,4 °C 11,3 km/h (2 Bft)
16.03.2017 15:26 13,3 °C 13,4 °C 44 % 1023,4 hPa 0,0 mm 5,4 km/h (1 Bft) N 5 ° 1 min 0,000 mm 2,0 UV-I 415 W/m² 1,3 °C 13,3 °C 8,0 km/h (2 Bft)
16.03.2017 15:27 13,4 °C 13,4 °C 44 % 1023,4 hPa 0,0 mm 6,6 km/h (2 Bft) O-NO 59 ° 1 min 0,000 mm 2,0 UV-I 413 W/m² 1,4 °C 13,4 °C 11,3 km/h (2 Bft)
16.03.2017 15:28 13,4 °C 13,4 °C 44 % 1023,4 hPa 0,0 mm 4,8 km/h (1 Bft) O-NO 59 ° 1 min 0,000 mm 2,0 UV-I 410 W/m² 1,4 °C 13,4 °C 8,0 km/h (2 Bft)
16.03.2017 15:29 13,4 °C 13,4 °C 45 % 1023,4 hPa 0,0 mm 4,8 km/h (1 Bft) N 5 ° 1 min 0,000 mm 2,0 UV-I 406 W/m² 1,7 °C 13,4 °C 6,4 km/h (2 Bft)
16.03.2017 15:30 13,4 °C 13,4 °C 44 % 1023,3 hPa 0,0 mm 7,1 km/h (2 Bft) N-NO 22 ° 1 min 0,000 mm 1,9 UV-I 404 W/m² 1,4 °C 13,4 °C 9,7 km/h (2 Bft)
16.03.2017 15:31 13,6 °C 13,6 °C 45 % 1023,4 hPa 0,0 mm 4,8 km/h (1 Bft) N-NO 20 ° 1 min 0,000 mm 1,9 UV-I 401 W/m² 1,9 °C 13,6 °C 6,4 km/h (2 Bft)
16.03.2017 15:32 13,6 °C 13,6 °C 45 % 1023,4 hPa 0,0 mm 4,3 km/h (1 Bft) O-NO 57 ° 1 min 0,000 mm 1,9 UV-I 399 W/m² 1,9 °C 13,6 °C 8,0 km/h (2 Bft)
16.03.2017 15:33 13,6 °C 13,7 °C 43 % 1023,4 hPa 0,0 mm 3,6 km/h (1 Bft) N 350 ° 1 min 0,000 mm 1,9 UV-I 397 W/m² 1,3 °C 13,6 °C 4,8 km/h (1 Bft)
16.03.2017 15:34 13,5 °C 13,6 °C 44 % 1023,3 hPa 0,0 mm 4,9 km/h (1 Bft) NO 34 ° 1 min 0,000 mm 1,9 UV-I 390 W/m² 1,5 °C 13,5 °C 6,4 km/h (2 Bft)
16.03.2017 15:35 13,5 °C 13,5 °C 44 % 1023,3 hPa 0,0 mm 5,0 km/h (1 Bft) O-NO 65 ° 1 min 0,000 mm 1,9 UV-I 388 W/m² 1,5 °C 13,5 °C 8,0 km/h (2 Bft)
16.03.2017 15:36 13,5 °C 13,5 °C 45 % 1023,3 hPa 0,0 mm 4,9 km/h (1 Bft) O-NO 59 ° 1 min 0,000 mm 1,8 UV-I 387 W/m² 1,8 °C 13,5 °C 6,4 km/h (2 Bft)
16.03.2017 15:37 13,4 °C 13,5 °C 45 % 1023,3 hPa 0,0 mm 6,5 km/h (2 Bft) NO 40 ° 1 min 0,000 mm 1,8 UV-I 385 W/m² 1,7 °C 13,4 °C 8,0 km/h (2 Bft)
16.03.2017 15:38 13,4 °C 13,4 °C 44 % 1023,2 hPa 0,0 mm 8,0 km/h (2 Bft) O-NO 69 ° 1 min 0,000 mm 1,8 UV-I 383 W/m² 1,4 °C 13,4 °C 12,9 km/h (3 Bft)
16.03.2017 15:39 13,3 °C 13,4 °C 46 % 1023,2 hPa 0,0 mm 10,8 km/h (2 Bft) O-NO 66 ° 1 min 0,000 mm 1,8 UV-I 381 W/m² 1,9 °C 13,3 °C 16,1 km/h (3 Bft)
16.03.2017 15:40 13,3 °C 13,3 °C 45 % 1023,3 hPa 0,0 mm 6,0 km/h (2 Bft) O-NO 65 ° 1 min 0,000 mm 1,8 UV-I 378 W/m² 1,6 °C 13,3 °C 12,9 km/h (3 Bft)
16.03.2017 15:41 13,3 °C 13,3 °C 46 % 1023,3 hPa 0,0 mm 4,6 km/h (1 Bft) O-NO 67 ° 1 min 0,000 mm 1,8 UV-I 373 W/m² 1,9 °C 13,3 °C 6,4 km/h (2 Bft)
16.03.2017 15:42 13,3 °C 13,3 °C 44 % 1023,2 hPa 0,0 mm 6,0 km/h (2 Bft) O 85 ° 1 min 0,000 mm 1,7 UV-I 369 W/m² 1,3 °C 13,3 °C 11,3 km/h (2 Bft)
16.03.2017 15:43 13,2 °C 13,3 °C 45 % 1023,2 hPa 0,0 mm 7,7 km/h (2 Bft) O-NO 71 ° 1 min 0,000 mm 1,7 UV-I 359 W/m² 1,5 °C 13,2 °C 9,7 km/h (2 Bft)
16.03.2017 15:44 13,2 °C 13,2 °C 45 % 1023,2 hPa 0,0 mm 5,7 km/h (1 Bft) O-NO 72 ° 1 min 0,000 mm 1,6 UV-I 281 W/m² 1,5 °C 13,2 °C 8,0 km/h (2 Bft)
16.03.2017 15:45 13,2 °C 13,2 °C 45 % 1023,2 hPa 0,0 mm 4,2 km/h (1 Bft) O-NO 63 ° 1 min 0,000 mm 1,3 UV-I 281 W/m² 1,5 °C 13,2 °C 4,8 km/h (1 Bft)
16.03.2017 15:46 13,1 °C 13,2 °C 45 % 1023,2 hPa 0,0 mm 5,6 km/h (1 Bft) NO 49 ° 0 min 0,000 mm 1,2 UV-I 93 W/m² 1,4 °C 13,1 °C 9,7 km/h (2 Bft)
16.03.2017 15:47 13,2 °C 13,2 °C 46 % 1023,2 hPa 0,0 mm 4,9 km/h (1 Bft) O-NO 63 ° 0 min 0,000 mm 1,2 UV-I 76 W/m² 1,8 °C 13,2 °C 9,7 km/h (2 Bft)
16.03.2017 15:48 13,2 °C 13,2 °C 44 % 1023,2 hPa 0,0 mm 7,3 km/h (2 Bft) O 90 ° 0 min 0,000 mm 1,2 UV-I 62 W/m² 1,2 °C 13,2 °C 11,3 km/h (2 Bft)
16.03.2017 15:49 13,2 °C 13,2 °C 44 % 1023,2 hPa 0,0 mm 8,3 km/h (2 Bft) O-NO 58 ° 0 min 0,000 mm 1,2 UV-I 60 W/m² 1,2 °C 13,2 °C 12,9 km/h (3 Bft)
16.03.2017 15:50 13,2 °C 13,2 °C 43 % 1023,2 hPa 0,0 mm 6,4 km/h (2 Bft) N-NO 24 ° 0 min 0,000 mm 1,2 UV-I 74 W/m² 0,9 °C 13,2 °C 8,0 km/h (2 Bft)
16.03.2017 15:51 13,2 °C 13,2 °C 42 % 1023,2 hPa 0,0 mm 7,8 km/h (2 Bft) NO 37 ° 0 min 0,000 mm 1,3 UV-I 141 W/m² 0,6 °C 13,2 °C 12,9 km/h (3 Bft)
16.03.2017 15:52 13,2 °C 13,3 °C 42 % 1023,2 hPa 0,0 mm 6,6 km/h (2 Bft) N-NO 27 ° 1 min 0,000 mm 1,4 UV-I 202 W/m² 0,6 °C 13,2 °C 9,7 km/h (2 Bft)
16.03.2017 15:53 13,3 °C 13,3 °C 42 % 1023,1 hPa 0,0 mm 5,5 km/h (1 Bft) N-NO 32 ° 1 min 0,000 mm 1,4 UV-I 227 W/m² 0,7 °C 13,3 °C 8,0 km/h (2 Bft)
16.03.2017 15:54 13,2 °C 13,3 °C 41 % 1023,1 hPa 0,0 mm 6,5 km/h (2 Bft) O-NO 61 ° 1 min 0,000 mm 1,4 UV-I 230 W/m² 0,2 °C 13,2 °C 11,3 km/h (2 Bft)
16.03.2017 15:55 13,2 °C 13,3 °C 42 % 1023,1 hPa 0,0 mm 3,8 km/h (1 Bft) N-NO 22 ° 0 min 0,000 mm 1,3 UV-I 165 W/m² 0,6 °C 13,2 °C 6,4 km/h (2 Bft)
16.03.2017 15:56 13,2 °C 13,2 °C 43 % 1023,1 hPa 0,0 mm 6,2 km/h (2 Bft) NO 52 ° 0 min 0,000 mm 1,3 UV-I 165 W/m² 0,9 °C 13,2 °C 8,0 km/h (2 Bft)
16.03.2017 15:57 13,1 °C 13,2 °C 43 % 1023,1 hPa 0,0 mm 4,8 km/h (1 Bft) O 92 ° 0 min 0,000 mm 1,4 UV-I 165 W/m² 0,8 °C 13,1 °C 9,7 km/h (2 Bft)
16.03.2017 15:58 13,1 °C 13,2 °C 43 % 1023,1 hPa 0,0 mm 1,5 km/h (1 Bft) O 92 ° 1 min 0,000 mm 1,4 UV-I 274 W/m² 0,8 °C 13,1 °C 3,2 km/h (1 Bft)
16.03.2017 15:59 13,1 °C 13,1 °C 43 % 1023,1 hPa 0,0 mm 3,2 km/h (1 Bft) NO 44 ° 1 min 0,000 mm 1,4 UV-I 271 W/m² 0,8 °C 13,1 °C 4,8 km/h (1 Bft)
16.03.2017 16:00 13,1 °C 13,1 °C 43 % 1023,1 hPa 0,0 mm 2,5 km/h (1 Bft) O 81 ° 1 min 0,000 mm 1,3 UV-I 271 W/m² 0,8 °C 13,1 °C 6,4 km/h (2 Bft)
16.03.2017 16:01 13,1 °C 13,1 °C 45 % 1023,0 hPa 0,0 mm 4,8 km/h (1 Bft) N-NO 29 ° 1 min 0,229 mm 1,4 UV-I 302 W/m² 1,4 °C 13,1 °C 6,4 km/h (2 Bft)
16.03.2017 16:02 13,1 °C 13,1 °C 44 % 1023,0 hPa 0,0 mm 4,3 km/h (1 Bft) N-NO 28 ° 1 min 0,000 mm 1,4 UV-I 301 W/m² 1,1 °C 13,1 °C 6,4 km/h (2 Bft)
16.03.2017 16:03 13,2 °C 13,2 °C 44 % 1023,0 hPa 0,0 mm 4,9 km/h (1 Bft) NO 44 ° 1 min 0,000 mm 1,3 UV-I 292 W/m² 1,2 °C 13,2 °C 6,4 km/h (2 Bft)
16.03.2017 16:04 13,2 °C 13,2 °C 46 % 1023,0 hPa 0,0 mm 4,9 km/h (1 Bft) O-NO 63 ° 1 min 0,000 mm 1,3 UV-I 297 W/m² 1,8 °C 13,2 °C 8,0 km/h (2 Bft)
16.03.2017 16:05 13,1 °C 13,2 °C 44 % 1023,0 hPa 0,0 mm 5,2 km/h (1 Bft) O 84 ° 1 min 0,000 mm 1,3 UV-I 287 W/m² 1,1 °C 13,1 °C 6,4 km/h (2 Bft)
16.03.2017 16:06 13,1 °C 13,1 °C 44 % 1023,0 hPa 0,0 mm 5,3 km/h (1 Bft) O-NO 63 ° 1 min 0,000 mm 1,3 UV-I 265 W/m² 1,1 °C 13,1 °C 6,4 km/h (2 Bft)
16.03.2017 16:07 13,1 °C 13,1 °C 44 % 1023,0 hPa 0,0 mm 4,1 km/h (1 Bft) O 98 ° 1 min 0,000 mm 1,3 UV-I 246 W/m² 1,1 °C 13,1 °C 6,4 km/h (2 Bft)
16.03.2017 16:08 13,1 °C 13,1 °C 43 % 1023,0 hPa 0,0 mm 4,6 km/h (1 Bft) O-NO 76 ° 1 min 0,000 mm 1,3 UV-I 246 W/m² 0,8 °C 13,1 °C 6,4 km/h (2 Bft)
16.03.2017 16:09 13,1 °C 13,1 °C 43 % 1023,0 hPa 0,0 mm 3,9 km/h (1 Bft) O 92 ° 1 min 0,000 mm 1,2 UV-I 214 W/m² 0,8 °C 13,1 °C 4,8 km/h (1 Bft)
16.03.2017 16:10 13,1 °C 13,1 °C 44 % 1023,0 hPa 0,0 mm 4,0 km/h (1 Bft) O-NO 69 ° 0 min 0,000 mm 1,2 UV-I 197 W/m² 1,1 °C 13,1 °C 4,8 km/h (1 Bft)
16.03.2017 16:11 13,1 °C 13,1 °C 45 % 1022,9 hPa 0,0 mm 0,4 km/h (0 Bft) O-NO 69 ° 0 min 0,000 mm 1,2 UV-I 193 W/m² 1,4 °C 13,1 °C 1,6 km/h (1 Bft)
16.03.2017 16:12 13,1 °C 13,1 °C 44 % 1022,9 hPa 0,0 mm 0,3 km/h (0 Bft) O-NO 69 ° 0 min 0,000 mm 1,2 UV-I 188 W/m² 1,1 °C 13,1 °C 1,6 km/h (1 Bft)
16.03.2017 16:13 13,0 °C 13,1 °C 43 % 1022,9 hPa 0,0 mm 1,5 km/h (1 Bft) O-NO 69 ° 0 min 0,000 mm 1,2 UV-I 188 W/m² 0,7 °C 13,0 °C 3,2 km/h (1 Bft)
16.03.2017 16:14 13,1 °C 13,1 °C 45 % 1022,9 hPa 0,0 mm 3,1 km/h (1 Bft) O-NO 69 ° 0 min 0,000 mm 1,1 UV-I 188 W/m² 1,4 °C 13,1 °C 4,8 km/h (1 Bft)
16.03.2017 16:15 13,1 °C 13,1 °C 44 % 1022,9 hPa 0,0 mm 5,8 km/h (2 Bft) NO 38 ° 0 min 0,000 mm 1,1 UV-I 186 W/m² 1,1 °C 13,1 °C 8,0 km/h (2 Bft)
16.03.2017 16:16 13,0 °C 13,1 °C 46 % 1022,9 hPa 0,0 mm 5,6 km/h (1 Bft) O-NO 67 ° 0 min 0,000 mm 1,1 UV-I 181 W/m² 1,7 °C 13,0 °C 9,7 km/h (2 Bft)
16.03.2017 16:17 12,8 °C 13,0 °C 48 % 1022,8 hPa 0,0 mm 3,4 km/h (1 Bft) O-NO 57 ° 0 min 0,000 mm 1,1 UV-I 162 W/m² 2,1 °C 12,8 °C 4,8 km/h (1 Bft)
16.03.2017 16:18 12,8 °C 12,8 °C 45 % 1022,8 hPa 0,0 mm 2,0 km/h (1 Bft) O 87 ° 0 min 0,000 mm 1,0 UV-I 169 W/m² 1,2 °C 12,8 °C 4,8 km/h (1 Bft)
16.03.2017 16:19 12,8 °C 12,8 °C 46 % 1022,8 hPa 0,0 mm 4,9 km/h (1 Bft) O 80 ° 0 min 0,000 mm 1,0 UV-I 158 W/m² 1,5 °C 12,8 °C 6,4 km/h (2 Bft)
16.03.2017 16:20 12,8 °C 12,8 °C 46 % 1022,8 hPa 0,0 mm 4,8 km/h (1 Bft) O-NO 62 ° 0 min 0,000 mm 1,0 UV-I 174 W/m² 1,5 °C 12,8 °C 6,4 km/h (2 Bft)
16.03.2017 16:21 12,8 °C 12,8 °C 46 % 1022,7 hPa 0,0 mm 3,9 km/h (1 Bft) N 11 ° 0 min 0,000 mm 1,1 UV-I 197 W/m² 1,5 °C 12,8 °C 6,4 km/h (2 Bft)
16.03.2017 16:22 12,7 °C 12,8 °C 45 % 1022,7 hPa 0,0 mm 2,6 km/h (1 Bft) O-SO 107 ° 1 min 0,000 mm 1,1 UV-I 204 W/m² 1,1 °C 12,7 °C 3,2 km/h (1 Bft)
16.03.2017 16:23 12,7 °C 12,8 °C 45 % 1022,7 hPa 0,0 mm 3,4 km/h (1 Bft) NO 47 ° 1 min 0,000 mm 1,1 UV-I 211 W/m² 1,1 °C 12,7 °C 4,8 km/h (1 Bft)
16.03.2017 16:24 12,8 °C 12,8 °C 45 % 1022,7 hPa 0,0 mm 2,8 km/h (1 Bft) NO 48 ° 0 min 0,000 mm 1,0 UV-I 193 W/m² 1,2 °C 12,8 °C 4,8 km/h (1 Bft)
16.03.2017 16:25 12,8 °C 12,8 °C 44 % 1022,7 hPa 0,0 mm 4,1 km/h (1 Bft) O 83 ° 0 min 0,000 mm 1,0 UV-I 183 W/m² 0,9 °C 12,8 °C 4,8 km/h (1 Bft)
16.03.2017 16:26 12,8 °C 12,8 °C 45 % 1022,7 hPa 0,0 mm 6,4 km/h (2 Bft) NO 41 ° 0 min 0,000 mm 1,0 UV-I 195 W/m² 1,2 °C 12,8 °C 9,7 km/h (2 Bft)
16.03.2017 16:27 12,8 °C 12,8 °C 44 % 1022,7 hPa 0,0 mm 4,7 km/h (1 Bft) NO 51 ° 0 min 0,000 mm 0,9 UV-I 109 W/m² 0,9 °C 12,8 °C 8,0 km/h (2 Bft)
16.03.2017 16:28 12,9 °C 12,9 °C 45 % 1022,7 hPa 0,0 mm 0,9 km/h (0 Bft) NO 51 ° 0 min 0,000 mm 0,9 UV-I 102 W/m² 1,3 °C 12,9 °C 1,6 km/h (1 Bft)
16.03.2017 16:29 12,9 °C 12,9 °C 44 % 1022,7 hPa 0,0 mm 2,4 km/h (1 Bft) O 87 ° 0 min 0,000 mm 0,9 UV-I 123 W/m² 1,0 °C 12,9 °C 4,8 km/h (1 Bft)
16.03.2017 16:30 12,9 °C 12,9 °C 44 % 1022,7 hPa 0,0 mm 9,3 km/h (2 Bft) O 97 ° 0 min 0,000 mm 0,9 UV-I 128 W/m² 1,0 °C 12,9 °C 12,9 km/h (3 Bft)
16.03.2017 16:31 12,9 °C 13,0 °C 44 % 1022,7 hPa 0,0 mm 4,0 km/h (1 Bft) NO 56 ° 0 min 0,000 mm 0,9 UV-I 167 W/m² 1,0 °C 12,9 °C 6,4 km/h (2 Bft)
16.03.2017 16:32 12,9 °C 12,9 °C 44 % 1022,7 hPa 0,0 mm 3,8 km/h (1 Bft) O-NO 69 ° 0 min 0,000 mm 0,9 UV-I 165 W/m² 1,0 °C 12,9 °C 6,4 km/h (2 Bft)
16.03.2017 16:33 13,0 °C 13,0 °C 43 % 1022,7 hPa 0,0 mm 5,2 km/h (1 Bft) NO 38 ° 0 min 0,000 mm 0,9 UV-I 102 W/m² 0,7 °C 13,0 °C 8,0 km/h (2 Bft)
16.03.2017 16:34 13,1 °C 13,1 °C 43 % 1022,7 hPa 0,0 mm 5,4 km/h (1 Bft) N-NO 30 ° 0 min 0,000 mm 0,8 UV-I 83 W/m² 0,8 °C 13,1 °C 8,0 km/h (2 Bft)
16.03.2017 16:35 13,1 °C 13,1 °C 42 % 1022,7 hPa 0,0 mm 5,5 km/h (1 Bft) N-NO 29 ° 0 min 0,000 mm 0,8 UV-I 74 W/m² 0,5 °C 13,1 °C 8,0 km/h (2 Bft)
16.03.2017 16:36 13,1 °C 13,1 °C 44 % 1022,7 hPa 0,0 mm 6,6 km/h (2 Bft) N 5 ° 0 min 0,000 mm 0,8 UV-I 102 W/m² 1,1 °C 13,1 °C 8,0 km/h (2 Bft)
16.03.2017 16:37 13,1 °C 13,1 °C 44 % 1022,7 hPa 0,0 mm 4,0 km/h (1 Bft) NO 46 ° 0 min 0,000 mm 0,8 UV-I 148 W/m² 1,1 °C 13,1 °C 6,4 km/h (2 Bft)
16.03.2017 16:38 13,0 °C 13,1 °C 44 % 1022,7 hPa 0,0 mm 4,6 km/h (1 Bft) N-NO 28 ° 0 min 0,000 mm 0,8 UV-I 132 W/m² 1,0 °C 13,0 °C 8,0 km/h (2 Bft)
16.03.2017 16:39 12,9 °C 13,0 °C 43 % 1022,7 hPa 0,0 mm 3,6 km/h (1 Bft) N-NO 28 ° 0 min 0,000 mm 0,8 UV-I 83 W/m² 0,6 °C 12,9 °C 6,4 km/h (2 Bft)
16.03.2017 16:40 12,9 °C 12,9 °C 42 % 1022,7 hPa 0,0 mm 4,8 km/h (1 Bft) O-NO 58 ° 0 min 0,000 mm 0,7 UV-I 62 W/m² 0,3 °C 12,9 °C 6,4 km/h (2 Bft)
16.03.2017 16:41 12,9 °C 12,9 °C 43 % 1022,7 hPa 0,0 mm 5,4 km/h (1 Bft) NO 49 ° 0 min 0,000 mm 0,0 UV-I 51 W/m² 0,6 °C 12,9 °C 8,0 km/h (2 Bft)
16.03.2017 16:42 13,0 °C 13,0 °C 43 % 1022,7 hPa 0,0 mm 5,9 km/h (2 Bft) NO 51 ° 0 min 0,000 mm 0,7 UV-I 58 W/m² 0,7 °C 13,0 °C 9,7 km/h (2 Bft)
16.03.2017 16:43 12,9 °C 13,0 °C 43 % 1022,7 hPa 0,0 mm 4,8 km/h (1 Bft) O 84 ° 0 min 0,000 mm 0,7 UV-I 67 W/m² 0,6 °C 12,9 °C 8,0 km/h (2 Bft)
16.03.2017 16:44 12,9 °C 12,9 °C 43 % 1022,7 hPa 0,0 mm 4,2 km/h (1 Bft) O 84 ° 0 min 0,000 mm 0,0 UV-I 47 W/m² 0,6 °C 12,9 °C 4,8 km/h (1 Bft)
16.03.2017 16:45 12,8 °C 12,9 °C 42 % 1022,7 hPa 0,0 mm 4,0 km/h (1 Bft) N-NO 29 ° 0 min 0,000 mm 0,7 UV-I 88 W/m² 0,2 °C 12,8 °C 6,4 km/h (2 Bft)
16.03.2017 16:46 12,8 °C 12,8 °C 43 % 1022,7 hPa 0,0 mm 4,7 km/h (1 Bft) O-NO 61 ° 0 min 0,000 mm 0,7 UV-I 86 W/m² 0,5 °C 12,8 °C 6,4 km/h (2 Bft)
16.03.2017 16:47 12,9 °C 12,9 °C 42 % 1022,7 hPa 0,0 mm 5,1 km/h (1 Bft) N-NO 21 ° 0 min 0,000 mm 0,7 UV-I 72 W/m² 0,3 °C 12,9 °C 9,7 km/h (2 Bft)
16.03.2017 16:48 12,9 °C 12,9 °C 41 % 1022,7 hPa 0,0 mm 4,2 km/h (1 Bft) N-NO 22 ° 0 min 0,000 mm 0,7 UV-I 84 W/m² -0,0 °C 12,9 °C 6,4 km/h (2 Bft)
16.03.2017 16:49 12,9 °C 12,9 °C 42 % 1022,7 hPa 0,0 mm 4,7 km/h (1 Bft) NO 56 ° 0 min 0,000 mm 0,7 UV-I 95 W/m² 0,3 °C 12,9 °C 8,0 km/h (2 Bft)
16.03.2017 16:50 12,9 °C 13,0 °C 45 % 1022,6 hPa 0,0 mm 5,9 km/h (2 Bft) NO 40 ° 0 min 0,000 mm 0,7 UV-I 98 W/m² 1,3 °C 12,9 °C 8,0 km/h (2 Bft)
16.03.2017 16:51 12,7 °C 12,9 °C 45 % 1022,6 hPa 0,0 mm 5,7 km/h (1 Bft) O-NO 59 ° 0 min 0,000 mm 0,7 UV-I 90 W/m² 1,1 °C 12,7 °C 8,0 km/h (2 Bft)
16.03.2017 16:52 12,6 °C 12,7 °C 46 % 1022,6 hPa 0,0 mm 3,8 km/h (1 Bft) O-NO 65 ° 0 min 0,000 mm 0,7 UV-I 84 W/m² 1,3 °C 12,6 °C 4,8 km/h (1 Bft)
16.03.2017 16:53 12,4 °C 12,6 °C 45 % 1022,6 hPa 0,0 mm 5,1 km/h (1 Bft) NO 40 ° 0 min 0,000 mm 0,6 UV-I 84 W/m² 0,8 °C 12,4 °C 8,0 km/h (2 Bft)
16.03.2017 16:54 12,4 °C 12,4 °C 47 % 1022,6 hPa 0,0 mm 6,9 km/h (2 Bft) O-NO 78 ° 0 min 0,000 mm 0,6 UV-I 86 W/m² 1,4 °C 12,4 °C 11,3 km/h (2 Bft)
16.03.2017 16:55 12,3 °C 12,4 °C 46 % 1022,6 hPa 0,0 mm 6,4 km/h (2 Bft) O-NO 62 ° 0 min 0,000 mm 0,6 UV-I 111 W/m² 1,0 °C 12,3 °C 8,0 km/h (2 Bft)
16.03.2017 16:56 12,3 °C 12,3 °C 45 % 1022,6 hPa 0,0 mm 4,2 km/h (1 Bft) O 85 ° 0 min 0,000 mm 0,6 UV-I 107 W/m² 0,7 °C 12,3 °C 4,8 km/h (1 Bft)
16.03.2017 16:57 12,3 °C 12,3 °C 45 % 1022,6 hPa 0,0 mm 2,5 km/h (1 Bft) NO 34 ° 0 min 0,000 mm 0,6 UV-I 72 W/m² 0,7 °C 12,3 °C 3,2 km/h (1 Bft)
16.03.2017 16:58 12,3 °C 12,3 °C 44 % 1022,6 hPa 0,0 mm 3,8 km/h (1 Bft) O-NO 65 ° 0 min 0,000 mm 0,0 UV-I 54 W/m² 0,4 °C 12,3 °C 6,4 km/h (2 Bft)
16.03.2017 16:59 12,4 °C 12,4 °C 47 % 1022,6 hPa 0,0 mm 6,0 km/h (2 Bft) NO 38 ° 0 min 0,000 mm 0,6 UV-I 56 W/m² 1,4 °C 12,4 °C 8,0 km/h (2 Bft)
16.03.2017 17:00 12,3 °C 12,4 °C 46 % 1022,6 hPa 0,0 mm 2,3 km/h (1 Bft) NO 39 ° 0 min 0,000 mm 0,6 UV-I 58 W/m² 1,0 °C 12,3 °C 4,8 km/h (1 Bft)
16.03.2017 17:01 12,2 °C 12,3 °C 46 % 1022,5 hPa 0,0 mm 5,6 km/h (1 Bft) O-NO 59 ° 0 min 0,102 mm 0,6 UV-I 53 W/m² 0,9 °C 12,2 °C 8,0 km/h (2 Bft)
16.03.2017 17:02 12,2 °C 12,3 °C 47 % 1022,5 hPa 0,0 mm 3,7 km/h (1 Bft) O 99 ° 0 min 0,000 mm 0,6 UV-I 65 W/m² 1,2 °C 12,2 °C 4,8 km/h (1 Bft)
16.03.2017 17:03 12,2 °C 12,2 °C 45 % 1022,5 hPa 0,0 mm 2,4 km/h (1 Bft) O 99 ° 0 min 0,000 mm 0,6 UV-I 70 W/m² 0,6 °C 12,2 °C 4,8 km/h (1 Bft)
16.03.2017 17:04 12,2 °C 12,2 °C 44 % 1022,5 hPa 0,0 mm 4,5 km/h (1 Bft) O-SO 103 ° 0 min 0,000 mm 0,5 UV-I 67 W/m² 0,3 °C 12,2 °C 6,4 km/h (2 Bft)
16.03.2017 17:05 12,3 °C 12,3 °C 44 % 1022,5 hPa 0,0 mm 5,4 km/h (1 Bft) NO 38 ° 0 min 0,000 mm 0,5 UV-I 56 W/m² 0,4 °C 12,3 °C 9,7 km/h (2 Bft)
16.03.2017 17:06 12,3 °C 12,3 °C 44 % 1022,5 hPa 0,0 mm 3,4 km/h (1 Bft) NO 38 ° 0 min 0,000 mm 0,0 UV-I 51 W/m² 0,4 °C 12,3 °C 4,8 km/h (1 Bft)
16.03.2017 17:07 12,4 °C 12,4 °C 46 % 1022,4 hPa 0,0 mm 4,3 km/h (1 Bft) NO 52 ° 0 min 0,000 mm 0,5 UV-I 60 W/m² 1,1 °C 12,4 °C 6,4 km/h (2 Bft)
16.03.2017 17:08 12,3 °C 12,4 °C 46 % 1022,5 hPa 0,0 mm 3,3 km/h (1 Bft) NO 38 ° 0 min 0,000 mm 0,0 UV-I 44 W/m² 1,0 °C 12,3 °C 4,8 km/h (1 Bft)
16.03.2017 17:09 12,2 °C 12,3 °C 47 % 1022,5 hPa 0,0 mm 0,9 km/h (0 Bft) NO 38 ° 0 min 0,000 mm 0,0 UV-I 42 W/m² 1,2 °C 12,2 °C 1,6 km/h (1 Bft)
16.03.2017 17:10 12,0 °C 12,2 °C 46 % 1022,4 hPa 0,0 mm 2,7 km/h (1 Bft) NO 38 ° 0 min 0,000 mm 0,0 UV-I 47 W/m² 0,7 °C 12,0 °C 4,8 km/h (1 Bft)
16.03.2017 17:11 11,9 °C 12,0 °C 48 % 1022,4 hPa 0,0 mm 1,8 km/h (1 Bft) NO 38 ° 0 min 0,000 mm 0,0 UV-I 46 W/m² 1,2 °C 11,9 °C 3,2 km/h (1 Bft)
16.03.2017 17:12 11,8 °C 11,9 °C 46 % 1022,3 hPa 0,0 mm 1,4 km/h (1 Bft) O-NO 69 ° 0 min 0,000 mm 0,0 UV-I 42 W/m² 0,6 °C 11,8 °C 3,2 km/h (1 Bft)
16.03.2017 17:13 11,9 °C 11,9 °C 47 % 1022,4 hPa 0,0 mm 3,6 km/h (1 Bft) NO 34 ° 0 min 0,000 mm 0,0 UV-I 40 W/m² 1,0 °C 11,9 °C 4,8 km/h (1 Bft)
16.03.2017 17:14 11,8 °C 11,9 °C 48 % 1022,4 hPa 0,0 mm 3,1 km/h (1 Bft) O-NO 57 ° 0 min 0,000 mm 0,0 UV-I 40 W/m² 1,2 °C 11,8 °C 4,8 km/h (1 Bft)
16.03.2017 17:15 11,8 °C 11,8 °C 49 % 1022,4 hPa 0,0 mm 4,2 km/h (1 Bft) O-SO 111 ° 0 min 0,000 mm 0,0 UV-I 40 W/m² 1,4 °C 11,8 °C 6,4 km/h (2 Bft)
16.03.2017 17:16 11,8 °C 11,8 °C 46 % 1022,4 hPa 0,0 mm 2,0 km/h (1 Bft) O-SO 111 ° 0 min 0,000 mm 0,0 UV-I 42 W/m² 0,6 °C 11,8 °C 4,8 km/h (1 Bft)
16.03.2017 17:17 11,8 °C 11,8 °C 46 % 1022,4 hPa 0,0 mm 3,0 km/h (1 Bft) O-SO 105 ° 0 min 0,000 mm 0,0 UV-I 42 W/m² 0,6 °C 11,8 °C 4,8 km/h (1 Bft)
16.03.2017 17:18 11,8 °C 11,9 °C 45 % 1022,4 hPa 0,0 mm 2,4 km/h (1 Bft) O 84 ° 0 min 0,000 mm 0,0 UV-I 37 W/m² 0,3 °C 11,8 °C 4,8 km/h (1 Bft)
16.03.2017 17:19 11,9 °C 11,9 °C 46 % 1022,4 hPa 0,0 mm 0,7 km/h (0 Bft) O 84 ° 0 min 0,000 mm 0,0 UV-I 33 W/m² 0,7 °C 11,9 °C 1,6 km/h (1 Bft)
16.03.2017 17:20 11,8 °C 11,9 °C 48 % 1022,4 hPa 0,0 mm 1,6 km/h (1 Bft) O 84 ° 0 min 0,000 mm 0,0 UV-I 28 W/m² 1,2 °C 11,8 °C 3,2 km/h (1 Bft)
16.03.2017 17:21 11,8 °C 11,8 °C 47 % 1022,4 hPa 0,0 mm 0,1 km/h (0 Bft) O 84 ° 0 min 0,000 mm 0,0 UV-I 28 W/m² 0,9 °C 11,8 °C 1,6 km/h (1 Bft)
16.03.2017 17:22 11,8 °C 11,8 °C 46 % 1022,4 hPa 0,0 mm 0,0 km/h (0 Bft) O 84 ° 0 min 0,000 mm 0,0 UV-I 26 W/m² 0,6 °C 11,8 °C 0,0 km/h (0 Bft)
16.03.2017 17:23 11,7 °C 11,8 °C 46 % 1022,4 hPa 0,0 mm 0,2 km/h (0 Bft) O 84 ° 0 min 0,000 mm 0,0 UV-I 26 W/m² 0,5 °C 11,7 °C 1,6 km/h (1 Bft)
16.03.2017 17:24 11,6 °C 11,7 °C 46 % 1022,4 hPa 0,0 mm 0,2 km/h (0 Bft) O 84 ° 0 min 0,000 mm 0,0 UV-I 26 W/m² 0,4 °C 11,6 °C 1,6 km/h (1 Bft)
16.03.2017 17:25 11,5 °C 11,6 °C 47 % 1022,4 hPa 0,0 mm 0,3 km/h (0 Bft) O 84 ° 0 min 0,000 mm 0,0 UV-I 26 W/m² 0,6 °C 11,5 °C 1,6 km/h (1 Bft)
16.03.2017 17:26 11,4 °C 11,5 °C 47 % 1022,4 hPa 0,0 mm 0,0 km/h (0 Bft) O 84 ° 0 min 0,000 mm 0,0 UV-I 26 W/m² 0,5 °C 11,4 °C 0,0 km/h (0 Bft)
16.03.2017 17:27 11,4 °C 11,4 °C 48 % 1022,4 hPa 0,0 mm 2,5 km/h (1 Bft) O-SO 109 ° 0 min 0,000 mm 0,0 UV-I 32 W/m² 0,8 °C 11,4 °C 4,8 km/h (1 Bft)
16.03.2017 17:28 11,3 °C 11,4 °C 48 % 1022,3 hPa 0,0 mm 1,2 km/h (1 Bft) O-SO 109 ° 0 min 0,000 mm 0,0 UV-I 32 W/m² 0,7 °C 11,3 °C 3,2 km/h (1 Bft)
16.03.2017 17:29 11,4 °C 11,4 °C 47 % 1022,4 hPa 0,0 mm 2,1 km/h (1 Bft) O-SO 109 ° 0 min 0,000 mm 0,0 UV-I 32 W/m² 0,5 °C 11,4 °C 3,2 km/h (1 Bft)
16.03.2017 17:30 11,4 °C 11,4 °C 47 % 1022,3 hPa 0,0 mm 2,1 km/h (1 Bft) O-SO 109 ° 0 min 0,000 mm 0,0 UV-I 28 W/m² 0,5 °C 11,4 °C 3,2 km/h (1 Bft)
16.03.2017 17:31 11,5 °C 11,5 °C 47 % 1022,3 hPa 0,0 mm 1,3 km/h (1 Bft) O-SO 109 ° 0 min 0,000 mm 0,0 UV-I 26 W/m² 0,6 °C 11,5 °C 3,2 km/h (1 Bft)
16.03.2017 17:32 11,4 °C 11,5 °C 47 % 1022,3 hPa 0,0 mm 1,7 km/h (1 Bft) O-SO 108 ° 0 min 0,000 mm 0,0 UV-I 25 W/m² 0,5 °C 11,4 °C 3,2 km/h (1 Bft)
16.03.2017 17:33 11,5 °C 11,5 °C 46 % 1022,2 hPa 0,0 mm 1,6 km/h (1 Bft) O-SO 108 ° 0 min 0,000 mm 0,0 UV-I 25 W/m² 0,3 °C 11,5 °C 3,2 km/h (1 Bft)
16.03.2017 17:34 11,5 °C 11,5 °C 47 % 1022,2 hPa 0,0 mm 1,4 km/h (1 Bft) O-SO 108 ° 0 min 0,000 mm 0,0 UV-I 25 W/m² 0,6 °C 11,5 °C 3,2 km/h (1 Bft)
16.03.2017 17:35 11,5 °C 11,5 °C 46 % 1022,2 hPa 0,0 mm 3,3 km/h (1 Bft) O-SO 109 ° 0 min 0,000 mm 0,0 UV-I 25 W/m² 0,3 °C 11,5 °C 4,8 km/h (1 Bft)
16.03.2017 17:36 11,6 °C 11,6 °C 46 % 1022,2 hPa 0,0 mm 2,3 km/h (1 Bft) O-SO 109 ° 0 min 0,000 mm 0,0 UV-I 23 W/m² 0,4 °C 11,6 °C 3,2 km/h (1 Bft)
16.03.2017 17:37 11,6 °C 11,6 °C 45 % 1022,2 hPa 0,0 mm 1,1 km/h (1 Bft) O-SO 109 ° 0 min 0,000 mm 0,0 UV-I 23 W/m² 0,1 °C 11,6 °C 1,6 km/h (1 Bft)
16.03.2017 17:38 11,7 °C 11,7 °C 45 % 1022,1 hPa 0,0 mm 2,5 km/h (1 Bft) O-SO 109 ° 0 min 0,000 mm 0,0 UV-I 23 W/m² 0,2 °C 11,7 °C 4,8 km/h (1 Bft)
16.03.2017 17:39 11,7 °C 11,7 °C 46 % 1022,2 hPa 0,0 mm 2,0 km/h (1 Bft) O-SO 109 ° 0 min 0,000 mm 0,0 UV-I 23 W/m² 0,5 °C 11,7 °C 3,2 km/h (1 Bft)
16.03.2017 17:40 11,7 °C 11,7 °C 46 % 1022,2 hPa 0,0 mm 0,3 km/h (0 Bft) O-SO 109 ° 0 min 0,000 mm 0,0 UV-I 21 W/m² 0,5 °C 11,7 °C 1,6 km/h (1 Bft)
16.03.2017 17:41 11,7 °C 11,7 °C 45 % 1022,2 hPa 0,0 mm 0,6 km/h (0 Bft) O-SO 109 ° 0 min 0,000 mm 0,0 UV-I 21 W/m² 0,2 °C 11,7 °C 1,6 km/h (1 Bft)
16.03.2017 17:42 11,6 °C 11,7 °C 45 % 1022,1 hPa 0,0 mm 0,1 km/h (0 Bft) O-SO 109 ° 0 min 0,000 mm 0,0 UV-I 21 W/m² 0,1 °C 11,6 °C 1,6 km/h (1 Bft)
16.03.2017 17:43 11,5 °C 11,6 °C 45 % 1022,1 hPa 0,0 mm 0,8 km/h (0 Bft) O-SO 109 ° 0 min 0,000 mm 0,0 UV-I 21 W/m² -0,0 °C 11,5 °C 1,6 km/h (1 Bft)
16.03.2017 17:44 11,4 °C 11,5 °C 48 % 1022,2 hPa 0,0 mm 2,2 km/h (1 Bft) O-SO 109 ° 0 min 0,000 mm 0,0 UV-I 21 W/m² 0,8 °C 11,4 °C 3,2 km/h (1 Bft)
16.03.2017 17:45 11,3 °C 11,4 °C 48 % 1022,2 hPa 0,0 mm 1,9 km/h (1 Bft) O-SO 109 ° 0 min 0,000 mm 0,0 UV-I 21 W/m² 0,7 °C 11,3 °C 3,2 km/h (1 Bft)
16.03.2017 17:46 11,3 °C 11,3 °C 48 % 1022,2 hPa 0,0 mm 1,5 km/h (1 Bft) O-SO 109 ° 0 min 0,000 mm 0,0 UV-I 19 W/m² 0,7 °C 11,3 °C 3,2 km/h (1 Bft)
16.03.2017 17:47 11,3 °C 11,3 °C 48 % 1022,2 hPa 0,0 mm 0,7 km/h (0 Bft) O-SO 109 ° 0 min 0,000 mm 0,0 UV-I 19 W/m² 0,7 °C 11,3 °C 3,2 km/h (1 Bft)
16.03.2017 17:48 11,2 °C 11,3 °C 48 % 1022,2 hPa 0,0 mm 1,9 km/h (1 Bft) O-SO 109 ° 0 min 0,000 mm 0,0 UV-I 19 W/m² 0,6 °C 11,2 °C 3,2 km/h (1 Bft)
16.03.2017 17:49 11,2 °C 11,2 °C 48 % 1022,2 hPa 0,0 mm 2,4 km/h (1 Bft) O-SO 109 ° 0 min 0,000 mm 0,0 UV-I 19 W/m² 0,6 °C 11,2 °C 3,2 km/h (1 Bft)
16.03.2017 17:50 11,2 °C 11,2 °C 48 % 1022,2 hPa 0,0 mm 1,9 km/h (1 Bft) O-SO 109 ° 0 min 0,000 mm 0,0 UV-I 19 W/m² 0,6 °C 11,2 °C 3,2 km/h (1 Bft)
16.03.2017 17:51 11,2 °C 11,3 °C 47 % 1022,2 hPa 0,0 mm 2,0 km/h (1 Bft) O-SO 109 ° 0 min 0,000 mm 0,0 UV-I 18 W/m² 0,3 °C 11,2 °C 3,2 km/h (1 Bft)
16.03.2017 17:52 11,3 °C 11,3 °C 47 % 1022,2 hPa 0,0 mm 2,5 km/h (1 Bft) O-SO 109 ° 0 min 0,000 mm 0,0 UV-I 18 W/m² 0,4 °C 11,3 °C 3,2 km/h (1 Bft)
16.03.2017 17:53 11,2 °C 11,3 °C 49 % 1022,2 hPa 0,0 mm 2,6 km/h (1 Bft) O-SO 109 ° 0 min 0,000 mm 0,0 UV-I 18 W/m² 0,9 °C 11,2 °C 3,2 km/h (1 Bft)
16.03.2017 17:54 11,2 °C 11,2 °C 49 % 1022,2 hPa 0,0 mm 2,4 km/h (1 Bft) O-SO 109 ° 0 min 0,000 mm 0,0 UV-I 18 W/m² 0,9 °C 11,2 °C 3,2 km/h (1 Bft)
16.03.2017 17:55 11,2 °C 11,2 °C 48 % 1022,2 hPa 0,0 mm 2,6 km/h (1 Bft) O-SO 109 ° 0 min 0,000 mm 0,0 UV-I 16 W/m² 0,6 °C 11,2 °C 3,2 km/h (1 Bft)
16.03.2017 17:56 11,1 °C 11,2 °C 48 % 1022,2 hPa 0,0 mm 3,1 km/h (1 Bft) O-SO 109 ° 0 min 0,000 mm 0,0 UV-I 16 W/m² 0,5 °C 11,1 °C 3,2 km/h (1 Bft)
16.03.2017 17:57 11,1 °C 11,1 °C 48 % 1022,1 hPa 0,0 mm 2,2 km/h (1 Bft) O-SO 109 ° 0 min 0,000 mm 0,0 UV-I 16 W/m² 0,5 °C 11,1 °C 3,2 km/h (1 Bft)
16.03.2017 17:58 11,1 °C 11,1 °C 48 % 1022,2 hPa 0,0 mm 3,0 km/h (1 Bft) O-SO 109 ° 0 min 0,000 mm 0,0 UV-I 16 W/m² 0,5 °C 11,1 °C 4,8 km/h (1 Bft)
16.03.2017 17:59 11,1 °C 11,1 °C 49 % 1022,2 hPa 0,0 mm 2,3 km/h (1 Bft) O-SO 109 ° 0 min 0,000 mm 0,0 UV-I 16 W/m² 0,8 °C 11,1 °C 3,2 km/h (1 Bft)
16.03.2017 18:00 11,1 °C 11,1 °C 48 % 1022,2 hPa 0,0 mm 2,3 km/h (1 Bft) O-SO 109 ° 0 min 0,000 mm 0,0 UV-I 14 W/m² 0,5 °C 11,1 °C 3,2 km/h (1 Bft)
16.03.2017 18:01 11,0 °C 11,1 °C 50 % 1022,2 hPa 0,0 mm 2,7 km/h (1 Bft) O-SO 109 ° 0 min 0,025 mm 0,0 UV-I 14 W/m² 1,0 °C 11,0 °C 3,2 km/h (1 Bft)
16.03.2017 18:02 10,9 °C 11,0 °C 50 % 1022,2 hPa 0,0 mm 3,4 km/h (1 Bft) O-SO 109 ° 0 min 0,000 mm 0,0 UV-I 14 W/m² 0,9 °C 10,9 °C 4,8 km/h (1 Bft)
16.03.2017 18:03 10,8 °C 10,9 °C 49 % 1022,2 hPa 0,0 mm 3,6 km/h (1 Bft) O-SO 109 ° 0 min 0,000 mm 0,0 UV-I 14 W/m² 0,5 °C 10,8 °C 4,8 km/h (1 Bft)
16.03.2017 18:04 10,8 °C 10,9 °C 50 % 1022,2 hPa 0,0 mm 3,7 km/h (1 Bft) O-SO 109 ° 0 min 0,000 mm 0,0 UV-I 12 W/m² 0,8 °C 10,8 °C 4,8 km/h (1 Bft)
16.03.2017 18:05 10,8 °C 10,8 °C 50 % 1022,2 hPa 0,0 mm 2,5 km/h (1 Bft) O-SO 109 ° 0 min 0,000 mm 0,0 UV-I 12 W/m² 0,8 °C 10,8 °C 4,8 km/h (1 Bft)
16.03.2017 18:06 10,7 °C 10,8 °C 51 % 1022,2 hPa 0,0 mm 3,3 km/h (1 Bft) O-SO 109 ° 0 min 0,000 mm 0,0 UV-I 12 W/m² 1,0 °C 10,7 °C 4,8 km/h (1 Bft)
16.03.2017 18:07 10,7 °C 10,7 °C 50 % 1022,2 hPa 0,0 mm 3,3 km/h (1 Bft) O-SO 109 ° 0 min 0,000 mm 0,0 UV-I 12 W/m² 0,7 °C 10,7 °C 4,8 km/h (1 Bft)
16.03.2017 18:08 10,6 °C 10,7 °C 50 % 1022,2 hPa 0,0 mm 1,4 km/h (1 Bft) O-SO 114 ° 0 min 0,000 mm 0,0 UV-I 11 W/m² 0,6 °C 10,6 °C 3,2 km/h (1 Bft)
16.03.2017 18:09 10,6 °C 10,6 °C 51 % 1022,2 hPa 0,0 mm 3,1 km/h (1 Bft) O-SO 114 ° 0 min 0,000 mm 0,0 UV-I 11 W/m² 0,9 °C 10,6 °C 4,8 km/h (1 Bft)
16.03.2017 18:10 10,4 °C 10,6 °C 52 % 1022,2 hPa 0,0 mm 1,9 km/h (1 Bft) O-SO 114 ° 0 min 0,000 mm 0,0 UV-I 11 W/m² 1,0 °C 10,4 °C 4,8 km/h (1 Bft)
16.03.2017 18:11 10,4 °C 10,4 °C 52 % 1022,1 hPa 0,0 mm 1,7 km/h (1 Bft) O-SO 115 ° 0 min 0,000 mm 0,0 UV-I 11 W/m² 1,0 °C 10,4 °C 3,2 km/h (1 Bft)
16.03.2017 18:12 10,4 °C 10,4 °C 52 % 1022,2 hPa 0,0 mm 1,8 km/h (1 Bft) O-SO 115 ° 0 min 0,000 mm 0,0 UV-I 9 W/m² 1,0 °C 10,4 °C 3,2 km/h (1 Bft)
16.03.2017 18:13 10,3 °C 10,4 °C 52 % 1022,2 hPa 0,0 mm 0,8 km/h (0 Bft) O-SO 115 ° 0 min 0,000 mm 0,0 UV-I 9 W/m² 0,9 °C 10,3 °C 3,2 km/h (1 Bft)
16.03.2017 18:14 10,3 °C 10,3 °C 52 % 1022,2 hPa 0,0 mm 2,0 km/h (1 Bft) O-SO 115 ° 0 min 0,000 mm 0,0 UV-I 9 W/m² 0,9 °C 10,3 °C 3,2 km/h (1 Bft)
16.03.2017 18:15 10,2 °C 10,3 °C 52 % 1022,2 hPa 0,0 mm 1,7 km/h (1 Bft) O-SO 115 ° 0 min 0,000 mm 0,0 UV-I 7 W/m² 0,8 °C 10,2 °C 3,2 km/h (1 Bft)
16.03.2017 18:16 10,2 °C 10,2 °C 53 % 1022,2 hPa 0,0 mm 1,5 km/h (1 Bft) O-SO 115 ° 0 min 0,000 mm 0,0 UV-I 7 W/m² 1,1 °C 10,2 °C 3,2 km/h (1 Bft)
16.03.2017 18:17 10,1 °C 10,2 °C 54 % 1022,1 hPa 0,0 mm 0,0 km/h (0 Bft) O-SO 115 ° 0 min 0,000 mm 0,0 UV-I 7 W/m² 1,2 °C 10,1 °C 0,0 km/h (0 Bft)
16.03.2017 18:18 10,0 °C 10,1 °C 54 % 1022,1 hPa 0,0 mm 0,9 km/h (0 Bft) O-SO 115 ° 0 min 0,000 mm 0,0 UV-I 7 W/m² 1,1 °C 10,0 °C 1,6 km/h (1 Bft)
16.03.2017 18:19 9,9 °C 10,0 °C 54 % 1022,1 hPa 0,0 mm 0,2 km/h (0 Bft) O-SO 115 ° 0 min 0,000 mm 0,0 UV-I 5 W/m² 1,0 °C 9,9 °C 1,6 km/h (1 Bft)
16.03.2017 18:20 9,8 °C 9,9 °C 54 % 1022,1 hPa 0,0 mm 0,5 km/h (0 Bft) O-SO 115 ° 0 min 0,000 mm 0,0 UV-I 5 W/m² 0,9 °C 9,8 °C 1,6 km/h (1 Bft)
16.03.2017 18:21 9,8 °C 9,8 °C 54 % 1022,1 hPa 0,0 mm 0,1 km/h (0 Bft) O-SO 115 ° 0 min 0,000 mm 0,0 UV-I 5 W/m² 0,9 °C 9,8 °C 1,6 km/h (1 Bft)
16.03.2017 18:22 9,7 °C 9,8 °C 54 % 1022,1 hPa 0,0 mm 0,3 km/h (0 Bft) O-SO 115 ° 0 min 0,000 mm 0,0 UV-I 5 W/m² 0,9 °C 9,7 °C 1,6 km/h (1 Bft)
16.03.2017 18:23 9,7 °C 9,7 °C 54 % 1022,1 hPa 0,0 mm 0,5 km/h (0 Bft) O-SO 115 ° 0 min 0,000 mm 0,0 UV-I 5 W/m² 0,9 °C 9,7 °C 1,6 km/h (1 Bft)
16.03.2017 18:24 9,7 °C 9,7 °C 54 % 1022,1 hPa 0,0 mm 0,3 km/h (0 Bft) O-SO 115 ° 0 min 0,000 mm 0,0 UV-I 0 W/m² 0,9 °C 9,7 °C 1,6 km/h (1 Bft)
16.03.2017 18:25 9,6 °C 9,7 °C 55 % 1022,2 hPa 0,0 mm 0,3 km/h (0 Bft) O-SO 117 ° 0 min 0,000 mm 0,0 UV-I 0 W/m² 1,0 °C 9,6 °C 1,6 km/h (1 Bft)
16.03.2017 18:26 9,5 °C 9,6 °C 56 % 1022,1 hPa 0,0 mm 0,1 km/h (0 Bft) O-SO 117 ° 0 min 0,000 mm 0,0 UV-I 0 W/m² 1,2 °C 9,5 °C 1,6 km/h (1 Bft)
16.03.2017 18:27 9,3 °C 9,5 °C 57 % 1022,2 hPa 0,0 mm 1,3 km/h (1 Bft) O-SO 117 ° 0 min 0,000 mm 0,0 UV-I 0 W/m² 1,2 °C 9,3 °C 1,6 km/h (1 Bft)
16.03.2017 18:28 8,9 °C 9,3 °C 59 % 1022,2 hPa 0,0 mm 0,1 km/h (0 Bft) O-SO 117 ° 0 min 0,000 mm 0,0 UV-I 0 W/m² 1,3 °C 8,9 °C 1,6 km/h (1 Bft)
16.03.2017 18:29 8,8 °C 8,9 °C 59 % 1022,2 hPa 0,0 mm 0,2 km/h (0 Bft) O-SO 117 ° 0 min 0,000 mm 0,0 UV-I 0 W/m² 1,2 °C 8,8 °C 1,6 km/h (1 Bft)
16.03.2017 18:30 8,6 °C 8,8 °C 60 % 1022,2 hPa 0,0 mm 0,1 km/h (0 Bft) O-SO 117 ° 0 min 0,000 mm 0,0 UV-I 0 W/m² 1,3 °C 8,6 °C 1,6 km/h (1 Bft)
16.03.2017 18:31 8,6 °C 8,6 °C 59 % 1022,1 hPa 0,0 mm 1,2 km/h (1 Bft) O-SO 117 ° 0 min 0,000 mm 0,0 UV-I 0 W/m² 1,0 °C 8,6 °C 3,2 km/h (1 Bft)
16.03.2017 18:32 8,6 °C 8,6 °C 59 % 1022,1 hPa 0,0 mm 2,1 km/h (1 Bft) O-SO 117 ° 0 min 0,000 mm 0,0 UV-I 0 W/m² 1,0 °C 8,6 °C 3,2 km/h (1 Bft)
16.03.2017 18:33 8,6 °C 8,6 °C 59 % 1022,1 hPa 0,0 mm 2,0 km/h (1 Bft) O-SO 117 ° 0 min 0,000 mm 0,0 UV-I 0 W/m² 1,0 °C 8,6 °C 3,2 km/h (1 Bft)
16.03.2017 18:34 8,6 °C 8,6 °C 59 % 1022,1 hPa 0,0 mm 1,7 km/h (1 Bft) O-SO 117 ° 0 min 0,000 mm 0,0 UV-I 0 W/m² 1,0 °C 8,6 °C 3,2 km/h (1 Bft)
16.03.2017 18:35 8,6 °C 8,6 °C 59 % 1022,1 hPa 0,0 mm 2,2 km/h (1 Bft) SO 139 ° 0 min 0,000 mm 0,0 UV-I 0 W/m² 1,0 °C 8,6 °C 3,2 km/h (1 Bft)
16.03.2017 18:36 8,6 °C 8,6 °C 58 % 1022,1 hPa 0,0 mm 2,1 km/h (1 Bft) SO 139 ° 0 min 0,000 mm 0,0 UV-I 0 W/m² 0,8 °C 8,6 °C 3,2 km/h (1 Bft)
16.03.2017 18:37 8,6 °C 8,6 °C 58 % 1022,1 hPa 0,0 mm 2,0 km/h (1 Bft) SO 140 ° 0 min 0,000 mm 0,0 UV-I 0 W/m² 0,8 °C 8,6 °C 3,2 km/h (1 Bft)
16.03.2017 18:38 8,6 °C 8,6 °C 58 % 1022,1 hPa 0,0 mm 0,7 km/h (0 Bft) SO 140 ° 0 min 0,000 mm 0,0 UV-I 0 W/m² 0,8 °C 8,6 °C 1,6 km/h (1 Bft)
16.03.2017 18:39 8,6 °C 8,6 °C 58 % 1022,1 hPa 0,0 mm 0,3 km/h (0 Bft) SO 140 ° 0 min 0,000 mm 0,0 UV-I 0 W/m² 0,8 °C 8,6 °C 1,6 km/h (1 Bft)
16.03.2017 18:40 8,6 °C 8,6 °C 59 % 1022,1 hPa 0,0 mm 0,8 km/h (0 Bft) SO 140 ° 0 min 0,000 mm 0,0 UV-I 0 W/m² 1,0 °C 8,6 °C 1,6 km/h (1 Bft)
16.03.2017 18:41 8,4 °C 8,6 °C 59 % 1022,1 hPa 0,0 mm 0,3 km/h (0 Bft) SO 140 ° 0 min 0,000 mm 0,0 UV-I 0 W/m² 0,9 °C 8,4 °C 1,6 km/h (1 Bft)
16.03.2017 18:42 8,4 °C 8,4 °C 60 % 1022,1 hPa 0,0 mm 0,4 km/h (0 Bft) SO 140 ° 0 min 0,000 mm 0,0 UV-I 0 W/m² 1,1 °C 8,4 °C 1,6 km/h (1 Bft)
16.03.2017 18:43 8,2 °C 8,4 °C 61 % 1022,1 hPa 0,0 mm 0,8 km/h (0 Bft) SO 140 ° 0 min 0,000 mm 0,0 UV-I 0 W/m² 1,1 °C 8,2 °C 1,6 km/h (1 Bft)
16.03.2017 18:44 7,9 °C 8,2 °C 62 % 1022,1 hPa 0,0 mm 1,3 km/h (1 Bft) SO 140 ° 0 min 0,000 mm 0,0 UV-I 0 W/m² 1,1 °C 7,9 °C 3,2 km/h (1 Bft)
16.03.2017 18:45 7,7 °C 7,9 °C 62 % 1022,1 hPa 0,0 mm 0,0 km/h (0 Bft) SO 139 ° 0 min 0,000 mm 0,0 UV-I 0 W/m² 0,9 °C 7,7 °C 0,0 km/h (0 Bft)
16.03.2017 18:46 7,2 °C 7,7 °C 65 % 1022,1 hPa 0,0 mm 0,3 km/h (0 Bft) SO 140 ° 0 min 0,000 mm 0,0 UV-I 0 W/m² 1,1 °C 7,2 °C 1,6 km/h (1 Bft)
16.03.2017 18:47 6,8 °C 7,2 °C 66 % 1022,1 hPa 0,0 mm 1,1 km/h (1 Bft) SO 140 ° 0 min 0,000 mm 0,0 UV-I 0 W/m² 0,9 °C 6,8 °C 3,2 km/h (1 Bft)
16.03.2017 18:48 6,8 °C 6,8 °C 66 % 1022,1 hPa 0,0 mm 2,0 km/h (1 Bft) SO 140 ° 0 min 0,000 mm 0,0 UV-I 0 W/m² 0,9 °C 6,8 °C 3,2 km/h (1 Bft)
16.03.2017 18:49 6,8 °C 6,8 °C 66 % 1022,1 hPa 0,0 mm 2,5 km/h (1 Bft) SO 140 ° 0 min 0,000 mm 0,0 UV-I 0 W/m² 0,9 °C 6,8 °C 3,2 km/h (1 Bft)
16.03.2017 18:50 6,8 °C 6,8 °C 66 % 1022,1 hPa 0,0 mm 2,3 km/h (1 Bft) SO 140 ° 0 min 0,000 mm 0,0 UV-I 0 W/m² 0,9 °C 6,8 °C 3,2 km/h (1 Bft)
16.03.2017 18:51 6,8 °C 6,8 °C 67 % 1022,1 hPa 0,0 mm 2,2 km/h (1 Bft) SO 140 ° 0 min 0,000 mm 0,0 UV-I 0 W/m² 1,1 °C 6,8 °C 3,2 km/h (1 Bft)
16.03.2017 18:52 6,9 °C 6,9 °C 67 % 1022,1 hPa 0,0 mm 2,6 km/h (1 Bft) SO 140 ° 0 min 0,000 mm 0,0 UV-I 0 W/m² 1,2 °C 6,9 °C 4,8 km/h (1 Bft)
16.03.2017 18:53 6,9 °C 6,9 °C 67 % 1022,1 hPa 0,0 mm 1,0 km/h (0 Bft) SO 140 ° 0 min 0,000 mm 0,0 UV-I 0 W/m² 1,2 °C 6,9 °C 1,6 km/h (1 Bft)
16.03.2017 18:54 6,9 °C 6,9 °C 67 % 1022,1 hPa 0,0 mm 1,1 km/h (1 Bft) SO 140 ° 0 min 0,000 mm 0,0 UV-I 0 W/m² 1,2 °C 6,9 °C 1,6 km/h (1 Bft)
16.03.2017 18:55 6,8 °C 6,9 °C 67 % 1022,2 hPa 0,0 mm 1,2 km/h (1 Bft) SO 140 ° 0 min 0,000 mm 0,0 UV-I 0 W/m² 1,1 °C 6,8 °C 1,6 km/h (1 Bft)
16.03.2017 18:56 6,7 °C 6,8 °C 67 % 1022,2 hPa 0,0 mm 2,1 km/h (1 Bft) SO 140 ° 0 min 0,000 mm 0,0 UV-I 0 W/m² 1,0 °C 6,7 °C 3,2 km/h (1 Bft)
16.03.2017 18:57 6,7 °C 6,7 °C 67 % 1022,1 hPa 0,0 mm 1,5 km/h (1 Bft) SO 140 ° 0 min 0,000 mm 0,0 UV-I 0 W/m² 1,0 °C 6,7 °C 3,2 km/h (1 Bft)
16.03.2017 18:58 6,8 °C 6,8 °C 66 % 1022,1 hPa 0,0 mm 1,7 km/h (1 Bft) SO 140 ° 0 min 0,000 mm 0,0 UV-I 0 W/m² 0,9 °C 6,8 °C 3,2 km/h (1 Bft)
16.03.2017 18:59 6,9 °C 6,9 °C 66 % 1022,1 hPa 0,0 mm 2,0 km/h (1 Bft) SO 140 ° 0 min 0,000 mm 0,0 UV-I 0 W/m² 1,0 °C 6,9 °C 3,2 km/h (1 Bft)
16.03.2017 19:00 6,9 °C 7,0 °C 65 % 1022,1 hPa 0,0 mm 0,9 km/h (0 Bft) SO 140 ° 0 min 0,000 mm 0,0 UV-I 0 W/m² 0,8 °C 6,9 °C 1,6 km/h (1 Bft)
16.03.2017 19:01 7,1 °C 7,1 °C 65 % 1022,1 hPa 0,0 mm 1,9 km/h (1 Bft) SO 140 ° 0 min 0,025 mm 0,0 UV-I 0 W/m² 1,0 °C 7,1 °C 3,2 km/h (1 Bft)
16.03.2017 19:02 7,2 °C 7,2 °C 65 % 1022,1 hPa 0,0 mm 1,6 km/h (1 Bft) SO 140 ° 0 min 0,000 mm 0,0 UV-I 0 W/m² 1,1 °C 7,2 °C 3,2 km/h (1 Bft)
16.03.2017 19:03 7,2 °C 7,2 °C 66 % 1022,1 hPa 0,0 mm 2,5 km/h (1 Bft) SO 140 ° 0 min 0,000 mm 0,0 UV-I 0 W/m² 1,3 °C 7,2 °C 4,8 km/h (1 Bft)
16.03.2017 19:04 7,1 °C 7,2 °C 66 % 1022,1 hPa 0,0 mm 2,8 km/h (1 Bft) SO 140 ° 0 min 0,000 mm 0,0 UV-I 0 W/m² 1,2 °C 7,1 °C 3,2 km/h (1 Bft)
16.03.2017 19:05 7,1 °C 7,1 °C 66 % 1022,2 hPa 0,0 mm 3,4 km/h (1 Bft) S-SO 155 ° 0 min 0,000 mm 0,0 UV-I 0 W/m² 1,2 °C 7,1 °C 4,8 km/h (1 Bft)
16.03.2017 19:06 6,9 °C 7,1 °C 67 % 1022,1 hPa 0,0 mm 2,7 km/h (1 Bft) S-SO 155 ° 0 min 0,000 mm 0,0 UV-I 0 W/m² 1,2 °C 6,9 °C 4,8 km/h (1 Bft)
16.03.2017 19:07 6,8 °C 6,9 °C 67 % 1022,2 hPa 0,0 mm 1,5 km/h (1 Bft) S-SO 155 ° 0 min 0,000 mm 0,0 UV-I 0 W/m² 1,1 °C 6,8 °C 3,2 km/h (1 Bft)
16.03.2017 19:08 6,6 °C 6,8 °C 68 % 1022,1 hPa 0,0 mm 1,5 km/h (1 Bft) S-SO 155 ° 0 min 0,000 mm 0,0 UV-I 0 W/m² 1,1 °C 6,6 °C 3,2 km/h (1 Bft)
16.03.2017 19:09 6,3 °C 6,6 °C 69 % 1022,1 hPa 0,0 mm 2,2 km/h (1 Bft) S-SO 155 ° 0 min 0,000 mm 0,0 UV-I 0 W/m² 1,0 °C 6,3 °C 4,8 km/h (1 Bft)
16.03.2017 19:10 6,2 °C 6,3 °C 70 % 1022,1 hPa 0,0 mm 2,8 km/h (1 Bft) S-SO 155 ° 0 min 0,000 mm 0,0 UV-I 0 W/m² 1,1 °C 6,2 °C 3,2 km/h (1 Bft)
16.03.2017 19:11 6,2 °C 6,2 °C 70 % 1022,1 hPa 0,0 mm 2,5 km/h (1 Bft) S-SO 155 ° 0 min 0,000 mm 0,0 UV-I 0 W/m² 1,1 °C 6,2 °C 3,2 km/h (1 Bft)
16.03.2017 19:12 6,2 °C 6,2 °C 70 % 1022,1 hPa 0,0 mm 2,4 km/h (1 Bft) S-SO 155 ° 0 min 0,000 mm 0,0 UV-I 0 W/m² 1,1 °C 6,2 °C 3,2 km/h (1 Bft)
16.03.2017 19:13 6,3 °C 6,3 °C 70 % 1022,2 hPa 0,0 mm 2,0 km/h (1 Bft) S-SO 155 ° 0 min 0,000 mm 0,0 UV-I 0 W/m² 1,2 °C 6,3 °C 3,2 km/h (1 Bft)
16.03.2017 19:14 6,3 °C 6,3 °C 70 % 1022,2 hPa 0,0 mm 1,7 km/h (1 Bft) S-SO 155 ° 0 min 0,000 mm 0,0 UV-I 0 W/m² 1,2 °C 6,3 °C 3,2 km/h (1 Bft)
16.03.2017 19:15 6,3 °C 6,3 °C 69 % 1022,1 hPa 0,0 mm 1,6 km/h (1 Bft) S-SO 155 ° 0 min 0,000 mm 0,0 UV-I 0 W/m² 1,0 °C 6,3 °C 3,2 km/h (1 Bft)
16.03.2017 19:16 6,4 °C 6,4 °C 69 % 1022,1 hPa 0,0 mm 1,1 km/h (1 Bft) S-SO 155 ° 0 min 0,000 mm 0,0 UV-I 0 W/m² 1,1 °C 6,4 °C 1,6 km/h (1 Bft)
16.03.2017 19:17 6,5 °C 6,5 °C 69 % 1022,2 hPa 0,0 mm 0,3 km/h (0 Bft) S-SO 155 ° 0 min 0,000 mm 0,0 UV-I 0 W/m² 1,2 °C 6,5 °C 1,6 km/h (1 Bft)
16.03.2017 19:18 6,7 °C 6,7 °C 69 % 1022,2 hPa 0,0 mm 0,1 km/h (0 Bft) S-SO 155 ° 0 min 0,000 mm 0,0 UV-I 0 W/m² 1,4 °C 6,7 °C 1,6 km/h (1 Bft)
16.03.2017 19:19 6,7 °C 6,7 °C 69 % 1022,1 hPa 0,0 mm 0,0 km/h (0 Bft) S-SO 155 ° 0 min 0,000 mm 0,0 UV-I 0 W/m² 1,4 °C 6,7 °C 0,0 km/h (0 Bft)
16.03.2017 19:20 6,7 °C 6,8 °C 69 % 1022,1 hPa 0,0 mm 0,0 km/h (0 Bft) S-SO 155 ° 0 min 0,000 mm 0,0 UV-I 0 W/m² 1,4 °C 6,7 °C 0,0 km/h (0 Bft)
16.03.2017 19:21 6,4 °C 6,7 °C 69 % 1022,2 hPa 0,0 mm 0,0 km/h (0 Bft) S-SO 155 ° 0 min 0,000 mm 0,0 UV-I 0 W/m² 1,1 °C 6,4 °C 0,0 km/h (0 Bft)
16.03.2017 19:22 6,1 °C 6,4 °C 71 % 1022,2 hPa 0,0 mm 0,0 km/h (0 Bft) S-SO 155 ° 0 min 0,000 mm 0,0 UV-I 0 W/m² 1,2 °C 6,1 °C 0,0 km/h (0 Bft)
16.03.2017 19:23 5,8 °C 6,1 °C 72 % 1022,2 hPa 0,0 mm 0,0 km/h (0 Bft) S-SO 155 ° 0 min 0,000 mm 0,0 UV-I 0 W/m² 1,2 °C 5,8 °C 0,0 km/h (0 Bft)
16.03.2017 19:24 5,5 °C 5,8 °C 73 % 1022,2 hPa 0,0 mm 0,0 km/h (0 Bft) S-SO 155 ° 0 min 0,000 mm 0,0 UV-I 0 W/m² 1,1 °C 5,5 °C 0,0 km/h (0 Bft)
16.03.2017 19:25 5,3 °C 5,5 °C 73 % 1022,2 hPa 0,0 mm 0,0 km/h (0 Bft) S-SO 155 ° 0 min 0,000 mm 0,0 UV-I 0 W/m² 0,9 °C 5,3 °C 0,0 km/h (0 Bft)
16.03.2017 19:26 5,2 °C 5,3 °C 74 % 1022,2 hPa 0,0 mm 0,0 km/h (0 Bft) S-SO 155 ° 0 min 0,000 mm 0,0 UV-I 0 W/m² 1,0 °C 5,2 °C 0,0 km/h (0 Bft)
16.03.2017 19:27 5,2 °C 5,2 °C 75 % 1022,2 hPa 0,0 mm 0,4 km/h (0 Bft) S-SO 155 ° 0 min 0,000 mm 0,0 UV-I 0 W/m² 1,1 °C 5,2 °C 1,6 km/h (1 Bft)
16.03.2017 19:28 5,2 °C 5,2 °C 75 % 1022,2 hPa 0,0 mm 0,7 km/h (0 Bft) S-SO 155 ° 0 min 0,000 mm 0,0 UV-I 0 W/m² 1,1 °C 5,2 °C 1,6 km/h (1 Bft)
16.03.2017 19:29 5,2 °C 5,2 °C 75 % 1022,2 hPa 0,0 mm 1,0 km/h (0 Bft) S-SO 155 ° 0 min 0,000 mm 0,0 UV-I 0 W/m² 1,1 °C 5,2 °C 1,6 km/h (1 Bft)
16.03.2017 19:30 5,2 °C 5,2 °C 75 % 1022,2 hPa 0,0 mm 0,0 km/h (0 Bft) S-SO 155 ° 0 min 0,000 mm 0,0 UV-I 0 W/m² 1,1 °C 5,2 °C 0,0 km/h (0 Bft)
16.03.2017 19:31 5,2 °C 5,2 °C 75 % 1022,2 hPa 0,0 mm 0,3 km/h (0 Bft) S-SO 155 ° 0 min 0,000 mm 0,0 UV-I 0 W/m² 1,1 °C 5,2 °C 1,6 km/h (1 Bft)
16.03.2017 19:32 5,2 °C 5,2 °C 75 % 1022,2 hPa 0,0 mm 0,0 km/h (0 Bft) S-SO 155 ° 0 min 0,000 mm 0,0 UV-I 0 W/m² 1,1 °C 5,2 °C 0,0 km/h (0 Bft)
16.03.2017 19:33 5,2 °C 5,2 °C 75 % 1022,2 hPa 0,0 mm 0,0 km/h (0 Bft) S-SO 155 ° 0 min 0,000 mm 0,0 UV-I 0 W/m² 1,1 °C 5,2 °C 0,0 km/h (0 Bft)
16.03.2017 19:34 5,4 °C 5,4 °C 75 % 1022,2 hPa 0,0 mm 0,0 km/h (0 Bft) S-SO 155 ° 0 min 0,000 mm 0,0 UV-I 0 W/m² 1,3 °C 5,4 °C 0,0 km/h (0 Bft)
16.03.2017 19:35 5,7 °C 5,7 °C 74 % 1022,2 hPa 0,0 mm 0,0 km/h (0 Bft) S-SO 155 ° 0 min 0,000 mm 0,0 UV-I 0 W/m² 1,4 °C 5,7 °C 0,0 km/h (0 Bft)
16.03.2017 19:36 5,8 °C 5,8 °C 74 % 1022,2 hPa 0,0 mm 0,0 km/h (0 Bft) S-SO 155 ° 0 min 0,000 mm 0,0 UV-I 0 W/m² 1,5 °C 5,8 °C 0,0 km/h (0 Bft)
16.03.2017 19:37 5,9 °C 5,9 °C 73 % 1022,2 hPa 0,0 mm 0,0 km/h (0 Bft) S-SO 155 ° 0 min 0,000 mm 0,0 UV-I 0 W/m² 1,4 °C 5,9 °C 0,0 km/h (0 Bft)
16.03.2017 19:38 6,0 °C 6,1 °C 72 % 1022,2 hPa 0,0 mm 0,0 km/h (0 Bft) S-SO 155 ° 0 min 0,000 mm 0,0 UV-I 0 W/m² 1,3 °C 6,0 °C 0,0 km/h (0 Bft)
16.03.2017 19:39 5,9 °C 6,0 °C 72 % 1022,2 hPa 0,0 mm 0,0 km/h (0 Bft) S-SO 155 ° 0 min 0,000 mm 0,0 UV-I 0 W/m² 1,2 °C 5,9 °C 0,0 km/h (0 Bft)
16.03.2017 19:40 5,7 °C 5,9 °C 73 % 1022,2 hPa 0,0 mm 0,0 km/h (0 Bft) S-SO 155 ° 0 min 0,000 mm 0,0 UV-I 0 W/m² 1,2 °C 5,7 °C 0,0 km/h (0 Bft)
16.03.2017 19:41 5,6 °C 5,7 °C 74 % 1022,2 hPa 0,0 mm 0,0 km/h (0 Bft) S-SO 155 ° 0 min 0,000 mm 0,0 UV-I 0 W/m² 1,3 °C 5,6 °C 0,0 km/h (0 Bft)
16.03.2017 19:42 5,4 °C 5,6 °C 74 % 1022,2 hPa 0,0 mm 0,0 km/h (0 Bft) S-SO 155 ° 0 min 0,000 mm 0,0 UV-I 0 W/m² 1,1 °C 5,4 °C 0,0 km/h (0 Bft)
16.03.2017 19:43 5,3 °C 5,4 °C 75 % 1022,2 hPa 0,0 mm 0,0 km/h (0 Bft) S-SO 155 ° 0 min 0,000 mm 0,0 UV-I 0 W/m² 1,2 °C 5,3 °C 0,0 km/h (0 Bft)
16.03.2017 19:44 5,2 °C 5,3 °C 75 % 1022,2 hPa 0,0 mm 0,0 km/h (0 Bft) S-SO 155 ° 0 min 0,000 mm 0,0 UV-I 0 W/m² 1,1 °C 5,2 °C 0,0 km/h (0 Bft)
16.03.2017 19:45 5,2 °C 5,2 °C 75 % 1022,2 hPa 0,0 mm 0,0 km/h (0 Bft) S-SO 155 ° 0 min 0,000 mm 0,0 UV-I 0 W/m² 1,1 °C 5,2 °C 0,0 km/h (0 Bft)
16.03.2017 19:46 5,2 °C 5,2 °C 75 % 1022,2 hPa 0,0 mm 0,0 km/h (0 Bft) S-SO 155 ° 0 min 0,000 mm 0,0 UV-I 0 W/m² 1,1 °C 5,2 °C 0,0 km/h (0 Bft)
16.03.2017 19:47 5,1 °C 5,2 °C 75 % 1022,1 hPa 0,0 mm 0,0 km/h (0 Bft) S-SO 155 ° 0 min 0,000 mm 0,0 UV-I 0 W/m² 1,0 °C 5,1 °C 0,0 km/h (0 Bft)
16.03.2017 19:48 5,1 °C 5,1 °C 76 % 1022,2 hPa 0,0 mm 0,0 km/h (0 Bft) S-SO 155 ° 0 min 0,000 mm 0,0 UV-I 0 W/m² 1,2 °C 5,1 °C 0,0 km/h (0 Bft)
16.03.2017 19:49 4,9 °C 5,1 °C 76 % 1022,2 hPa 0,0 mm 0,0 km/h (0 Bft) S-SO 155 ° 0 min 0,000 mm 0,0 UV-I 0 W/m² 1,0 °C 4,9 °C 0,0 km/h (0 Bft)
16.03.2017 19:50 4,9 °C 4,9 °C 77 % 1022,2 hPa 0,0 mm 0,0 km/h (0 Bft) S-SO 155 ° 0 min 0,000 mm 0,0 UV-I 0 W/m² 1,2 °C 4,9 °C 0,0 km/h (0 Bft)
16.03.2017 19:51 4,9 °C 4,9 °C 77 % 1022,1 hPa 0,0 mm 0,0 km/h (0 Bft) S-SO 155 ° 0 min 0,000 mm 0,0 UV-I 0 W/m² 1,2 °C 4,9 °C 0,0 km/h (0 Bft)
16.03.2017 19:52 4,9 °C 4,9 °C 77 % 1022,1 hPa 0,0 mm 0,0 km/h (0 Bft) S-SO 155 ° 0 min 0,000 mm 0,0 UV-I 0 W/m² 1,2 °C 4,9 °C 0,0 km/h (0 Bft)
16.03.2017 19:53 4,9 °C 4,9 °C 77 % 1022,2 hPa 0,0 mm 0,0 km/h (0 Bft) S-SO 155 ° 0 min 0,000 mm 0,0 UV-I 0 W/m² 1,2 °C 4,9 °C 0,0 km/h (0 Bft)
16.03.2017 19:54 4,9 °C 4,9 °C 76 % 1022,2 hPa 0,0 mm 0,0 km/h (0 Bft) S-SO 155 ° 0 min 0,000 mm 0,0 UV-I 0 W/m² 1,0 °C 4,9 °C 0,0 km/h (0 Bft)
16.03.2017 19:55 4,9 °C 4,9 °C 77 % 1022,2 hPa 0,0 mm 0,0 km/h (0 Bft) S-SO 155 ° 0 min 0,000 mm 0,0 UV-I 0 W/m² 1,2 °C 4,9 °C 0,0 km/h (0 Bft)
16.03.2017 19:56 4,9 °C 4,9 °C 76 % 1022,2 hPa 0,0 mm 0,0 km/h (0 Bft) S-SO 155 ° 0 min 0,000 mm 0,0 UV-I 0 W/m² 1,0 °C 4,9 °C 0,0 km/h (0 Bft)
16.03.2017 19:57 4,8 °C 4,9 °C 76 % 1022,2 hPa 0,0 mm 0,0 km/h (0 Bft) S-SO 155 ° 0 min 0,000 mm 0,0 UV-I 0 W/m² 0,9 °C 4,8 °C 0,0 km/h (0 Bft)
16.03.2017 19:58 4,8 °C 4,8 °C 76 % 1022,1 hPa 0,0 mm 0,0 km/h (0 Bft) S-SO 155 ° 0 min 0,000 mm 0,0 UV-I 0 W/m² 0,9 °C 4,8 °C 0,0 km/h (0 Bft)
16.03.2017 19:59 4,8 °C 4,8 °C 77 % 1022,2 hPa 0,0 mm 0,0 km/h (0 Bft) S-SO 155 ° 0 min 0,000 mm 0,0 UV-I 0 W/m² 1,1 °C 4,8 °C 0,0 km/h (0 Bft)
16.03.2017 20:00 4,7 °C 4,8 °C 77 % 1022,1 hPa 0,0 mm 0,0 km/h (0 Bft) S-SO 155 ° 0 min 0,000 mm 0,0 UV-I 0 W/m² 1,0 °C 4,7 °C 0,0 km/h (0 Bft)
16.03.2017 20:01 4,7 °C 4,8 °C 77 % 1022,1 hPa 0,0 mm 0,0 km/h (0 Bft) S-SO 155 ° 0 min 0,026 mm 0,0 UV-I 0 W/m² 1,0 °C 4,7 °C 0,0 km/h (0 Bft)
16.03.2017 20:02 4,7 °C 4,7 °C 78 % 1022,1 hPa 0,0 mm 0,0 km/h (0 Bft) S-SO 155 ° 0 min 0,000 mm 0,0 UV-I 0 W/m² 1,2 °C 4,7 °C 0,0 km/h (0 Bft)
16.03.2017 20:03 4,7 °C 4,7 °C 78 % 1022,1 hPa 0,0 mm 0,0 km/h (0 Bft) S-SO 155 ° 0 min 0,000 mm 0,0 UV-I 0 W/m² 1,2 °C 4,7 °C 0,0 km/h (0 Bft)
16.03.2017 20:04 4,7 °C 4,7 °C 78 % 1022,1 hPa 0,0 mm 0,0 km/h (0 Bft) S-SO 155 ° 0 min 0,000 mm 0,0 UV-I 0 W/m² 1,2 °C 4,7 °C 0,0 km/h (0 Bft)
16.03.2017 20:05 4,7 °C 4,7 °C 78 % 1022,2 hPa 0,0 mm 0,0 km/h (0 Bft) S-SO 155 ° 0 min 0,000 mm 0,0 UV-I 0 W/m² 1,2 °C 4,7 °C 0,0 km/h (0 Bft)
16.03.2017 20:06 4,7 °C 4,8 °C 78 % 1022,2 hPa 0,0 mm 0,0 km/h (0 Bft) S-SO 155 ° 0 min 0,000 mm 0,0 UV-I 0 W/m² 1,2 °C 4,7 °C 0,0 km/h (0 Bft)
16.03.2017 20:07 4,7 °C 4,7 °C 78 % 1022,1 hPa 0,0 mm 0,0 km/h (0 Bft) S-SO 155 ° 0 min 0,000 mm 0,0 UV-I 0 W/m² 1,2 °C 4,7 °C 0,0 km/h (0 Bft)
16.03.2017 20:08 4,7 °C 4,7 °C 77 % 1022,2 hPa 0,0 mm 0,0 km/h (0 Bft) S-SO 155 ° 0 min 0,000 mm 0,0 UV-I 0 W/m² 1,0 °C 4,7 °C 0,0 km/h (0 Bft)
16.03.2017 20:09 4,7 °C 4,7 °C 78 % 1022,2 hPa 0,0 mm 0,0 km/h (0 Bft) S-SO 155 ° 0 min 0,000 mm 0,0 UV-I 0 W/m² 1,2 °C 4,7 °C 0,0 km/h (0 Bft)
16.03.2017 20:10 4,6 °C 4,7 °C 78 % 1022,2 hPa 0,0 mm 0,0 km/h (0 Bft) S-SO 155 ° 0 min 0,000 mm 0,0 UV-I 0 W/m² 1,1 °C 4,6 °C 0,0 km/h (0 Bft)
16.03.2017 20:11 4,6 °C 4,7 °C 78 % 1022,2 hPa 0,0 mm 0,0 km/h (0 Bft) S-SO 155 ° 0 min 0,000 mm 0,0 UV-I 0 W/m² 1,1 °C 4,6 °C 0,0 km/h (0 Bft)
16.03.2017 20:12 4,6 °C 4,6 °C 78 % 1022,1 hPa 0,0 mm 0,0 km/h (0 Bft) S-SO 155 ° 0 min 0,000 mm 0,0 UV-I 0 W/m² 1,1 °C 4,6 °C 0,0 km/h (0 Bft)
16.03.2017 20:13 4,5 °C 4,6 °C 78 % 1022,2 hPa 0,0 mm 0,1 km/h (0 Bft) S-SO 155 ° 0 min 0,000 mm 0,0 UV-I 0 W/m² 1,0 °C 4,5 °C 1,6 km/h (1 Bft)
16.03.2017 20:14 4,5 °C 4,5 °C 78 % 1022,1 hPa 0,0 mm 0,0 km/h (0 Bft) S-SO 155 ° 0 min 0,000 mm 0,0 UV-I 0 W/m² 1,0 °C 4,5 °C 0,0 km/h (0 Bft)
16.03.2017 20:15 4,4 °C 4,5 °C 79 % 1022,1 hPa 0,0 mm 0,0 km/h (0 Bft) S-SO 155 ° 0 min 0,000 mm 0,0 UV-I 0 W/m² 1,1 °C 4,4 °C 0,0 km/h (0 Bft)
16.03.2017 20:16 4,4 °C 4,4 °C 79 % 1022,1 hPa 0,0 mm 0,0 km/h (0 Bft) S-SO 155 ° 0 min 0,000 mm 0,0 UV-I 0 W/m² 1,1 °C 4,4 °C 0,0 km/h (0 Bft)
16.03.2017 20:17 4,4 °C 4,4 °C 79 % 1022,1 hPa 0,0 mm 0,0 km/h (0 Bft) S-SO 155 ° 0 min 0,000 mm 0,0 UV-I 0 W/m² 1,1 °C 4,4 °C 0,0 km/h (0 Bft)
16.03.2017 20:18 4,5 °C 4,5 °C 79 % 1022,1 hPa 0,0 mm 0,0 km/h (0 Bft) S-SO 155 ° 0 min 0,000 mm 0,0 UV-I 0 W/m² 1,2 °C 4,5 °C 0,0 km/h (0 Bft)
16.03.2017 20:19 4,4 °C 4,5 °C 79 % 1022,1 hPa 0,0 mm 0,0 km/h (0 Bft) S-SO 155 ° 0 min 0,000 mm 0,0 UV-I 0 W/m² 1,1 °C 4,4 °C 0,0 km/h (0 Bft)
16.03.2017 20:20 4,4 °C 4,5 °C 79 % 1022,1 hPa 0,0 mm 0,0 km/h (0 Bft) S-SO 155 ° 0 min 0,000 mm 0,0 UV-I 0 W/m² 1,1 °C 4,4 °C 0,0 km/h (0 Bft)
16.03.2017 20:21 4,4 °C 4,4 °C 80 % 1022,1 hPa 0,0 mm 0,0 km/h (0 Bft) S-SO 155 ° 0 min 0,000 mm 0,0 UV-I 0 W/m² 1,3 °C 4,4 °C 0,0 km/h (0 Bft)
16.03.2017 20:22 4,4 °C 4,4 °C 80 % 1022,1 hPa 0,0 mm 0,0 km/h (0 Bft) S-SO 155 ° 0 min 0,000 mm 0,0 UV-I 0 W/m² 1,3 °C 4,4 °C 0,0 km/h (0 Bft)
16.03.2017 20:23 4,4 °C 4,4 °C 79 % 1022,1 hPa 0,0 mm 0,0 km/h (0 Bft) S-SO 155 ° 0 min 0,000 mm 0,0 UV-I 0 W/m² 1,1 °C 4,4 °C 0,0 km/h (0 Bft)
16.03.2017 20:24 4,3 °C 4,4 °C 79 % 1022,2 hPa 0,0 mm 0,6 km/h (0 Bft) S-SO 155 ° 0 min 0,000 mm 0,0 UV-I 0 W/m² 1,0 °C 4,3 °C 1,6 km/h (1 Bft)
16.03.2017 20:25 4,3 °C 4,3 °C 80 % 1022,2 hPa 0,0 mm 0,6 km/h (0 Bft) S-SO 155 ° 0 min 0,000 mm 0,0 UV-I 0 W/m² 1,2 °C 4,3 °C 1,6 km/h (1 Bft)
16.03.2017 20:26 4,3 °C 4,3 °C 80 % 1022,2 hPa 0,0 mm 0,0 km/h (0 Bft) S-SO 155 ° 0 min 0,000 mm 0,0 UV-I 0 W/m² 1,2 °C 4,3 °C 0,0 km/h (0 Bft)
16.03.2017 20:27 4,2 °C 4,3 °C 80 % 1022,1 hPa 0,0 mm 0,0 km/h (0 Bft) S-SO 155 ° 0 min 0,000 mm 0,0 UV-I 0 W/m² 1,1 °C 4,2 °C 0,0 km/h (0 Bft)
16.03.2017 20:28 4,2 °C 4,2 °C 80 % 1022,1 hPa 0,0 mm 0,0 km/h (0 Bft) S-SO 155 ° 0 min 0,000 mm 0,0 UV-I 0 W/m² 1,1 °C 4,2 °C 0,0 km/h (0 Bft)
16.03.2017 20:29 4,1 °C 4,2 °C 81 % 1022,2 hPa 0,0 mm 0,0 km/h (0 Bft) S-SO 155 ° 0 min 0,000 mm 0,0 UV-I 0 W/m² 1,1 °C 4,1 °C 0,0 km/h (0 Bft)
16.03.2017 20:30 4,2 °C 4,2 °C 81 % 1022,1 hPa 0,0 mm 0,0 km/h (0 Bft) S-SO 155 ° 0 min 0,000 mm 0,0 UV-I 0 W/m² 1,2 °C 4,2 °C 0,0 km/h (0 Bft)
16.03.2017 20:31 4,2 °C 4,2 °C 81 % 1022,1 hPa 0,0 mm 0,0 km/h (0 Bft) S-SO 155 ° 0 min 0,000 mm 0,0 UV-I 0 W/m² 1,2 °C 4,2 °C 0,0 km/h (0 Bft)
16.03.2017 20:32 4,2 °C 4,2 °C 81 % 1022,0 hPa 0,0 mm 0,1 km/h (0 Bft) S-SO 155 ° 0 min 0,000 mm 0,0 UV-I 0 W/m² 1,2 °C 4,2 °C 1,6 km/h (1 Bft)
16.03.2017 20:33 4,3 °C 4,3 °C 80 % 1022,1 hPa 0,0 mm 0,0 km/h (0 Bft) S-SO 155 ° 0 min 0,000 mm 0,0 UV-I 0 W/m² 1,2 °C 4,3 °C 0,0 km/h (0 Bft)
16.03.2017 20:34 4,3 °C 4,3 °C 81 % 1022,1 hPa 0,0 mm 0,0 km/h (0 Bft) S-SO 155 ° 0 min 0,000 mm 0,0 UV-I 0 W/m² 1,3 °C 4,3 °C 0,0 km/h (0 Bft)
16.03.2017 20:35 4,3 °C 4,3 °C 80 % 1022,1 hPa 0,0 mm 0,0 km/h (0 Bft) S-SO 155 ° 0 min 0,000 mm 0,0 UV-I 0 W/m² 1,2 °C 4,3 °C 0,0 km/h (0 Bft)
16.03.2017 20:36 4,4 °C 4,4 °C 80 % 1022,0 hPa 0,0 mm 0,0 km/h (0 Bft) S-SO 155 ° 0 min 0,000 mm 0,0 UV-I 0 W/m² 1,3 °C 4,4 °C 0,0 km/h (0 Bft)
16.03.2017 20:37 4,4 °C 4,4 °C 79 % 1022,0 hPa 0,0 mm 0,1 km/h (0 Bft) S-SO 155 ° 0 min 0,000 mm 0,0 UV-I 0 W/m² 1,1 °C 4,4 °C 1,6 km/h (1 Bft)
16.03.2017 20:38 4,3 °C 4,4 °C 79 % 1022,0 hPa 0,0 mm 0,0 km/h (0 Bft) S-SO 155 ° 0 min 0,000 mm 0,0 UV-I 0 W/m² 1,0 °C 4,3 °C 0,0 km/h (0 Bft)
16.03.2017 20:39 4,3 °C 4,3 °C 79 % 1022,0 hPa 0,0 mm 0,9 km/h (0 Bft) S-SO 155 ° 0 min 0,000 mm 0,0 UV-I 0 W/m² 1,0 °C 4,3 °C 3,2 km/h (1 Bft)
16.03.2017 20:40 4,2 °C 4,3 °C 79 % 1022,1 hPa 0,0 mm 1,4 km/h (1 Bft) S-SO 155 ° 0 min 0,000 mm 0,0 UV-I 0 W/m² 0,9 °C 4,2 °C 4,8 km/h (1 Bft)
16.03.2017 20:41 4,1 °C 4,2 °C 79 % 1022,0 hPa 0,0 mm 0,0 km/h (0 Bft) S-SO 155 ° 0 min 0,000 mm 0,0 UV-I 0 W/m² 0,8 °C 4,1 °C 0,0 km/h (0 Bft)
16.03.2017 20:42 4,0 °C 4,1 °C 80 % 1022,0 hPa 0,0 mm 0,4 km/h (0 Bft) S-SO 155 ° 0 min 0,000 mm 0,0 UV-I 0 W/m² 0,9 °C 4,0 °C 1,6 km/h (1 Bft)
16.03.2017 20:43 4,0 °C 4,0 °C 80 % 1022,0 hPa 0,0 mm 0,0 km/h (0 Bft) S-SO 155 ° 0 min 0,000 mm 0,0 UV-I 0 W/m² 0,9 °C 4,0 °C 0,0 km/h (0 Bft)
16.03.2017 20:44 4,0 °C 4,0 °C 81 % 1022,0 hPa 0,0 mm 0,0 km/h (0 Bft) S-SO 155 ° 0 min 0,000 mm 0,0 UV-I 0 W/m² 1,0 °C 4,0 °C 0,0 km/h (0 Bft)
16.03.2017 20:45 4,0 °C 4,0 °C 81 % 1022,0 hPa 0,0 mm 0,0 km/h (0 Bft) S-SO 155 ° 0 min 0,000 mm 0,0 UV-I 0 W/m² 1,0 °C 4,0 °C 0,0 km/h (0 Bft)
16.03.2017 20:46 4,0 °C 4,0 °C 81 % 1022,1 hPa 0,0 mm 0,0 km/h (0 Bft) S-SO 155 ° 0 min 0,000 mm 0,0 UV-I 0 W/m² 1,0 °C 4,0 °C 0,0 km/h (0 Bft)
16.03.2017 20:47 3,9 °C 4,0 °C 80 % 1022,0 hPa 0,0 mm 0,0 km/h (0 Bft) S-SO 155 ° 0 min 0,000 mm 0,0 UV-I 0 W/m² 0,8 °C 3,9 °C 0,0 km/h (0 Bft)
16.03.2017 20:48 3,9 °C 3,9 °C 80 % 1022,0 hPa 0,0 mm 0,7 km/h (0 Bft) S-SO 155 ° 0 min 0,000 mm 0,0 UV-I 0 W/m² 0,8 °C 3,9 °C 3,2 km/h (1 Bft)
16.03.2017 20:49 3,8 °C 3,9 °C 80 % 1022,0 hPa 0,0 mm 0,0 km/h (0 Bft) S-SO 155 ° 0 min 0,000 mm 0,0 UV-I 0 W/m² 0,7 °C 3,8 °C 0,0 km/h (0 Bft)
16.03.2017 20:50 3,7 °C 3,8 °C 81 % 1022,0 hPa 0,0 mm 0,1 km/h (0 Bft) S-SO 155 ° 0 min 0,000 mm 0,0 UV-I 0 W/m² 0,7 °C 3,7 °C 1,6 km/h (1 Bft)
16.03.2017 20:51 3,6 °C 3,7 °C 81 % 1022,0 hPa 0,0 mm 0,0 km/h (0 Bft) S-SO 155 ° 0 min 0,000 mm 0,0 UV-I 0 W/m² 0,7 °C 3,6 °C 0,0 km/h (0 Bft)
16.03.2017 20:52 3,6 °C 3,6 °C 81 % 1022,0 hPa 0,0 mm 0,0 km/h (0 Bft) S-SO 155 ° 0 min 0,000 mm 0,0 UV-I 0 W/m² 0,7 °C 3,6 °C 0,0 km/h (0 Bft)
16.03.2017 20:53 3,5 °C 3,6 °C 82 % 1021,9 hPa 0,0 mm 0,0 km/h (0 Bft) S-SO 155 ° 0 min 0,000 mm 0,0 UV-I 0 W/m² 0,7 °C 3,5 °C 0,0 km/h (0 Bft)
16.03.2017 20:54 3,4 °C 3,5 °C 83 % 1022,0 hPa 0,0 mm 0,0 km/h (0 Bft) S-SO 155 ° 0 min 0,000 mm 0,0 UV-I 0 W/m² 0,8 °C 3,4 °C 0,0 km/h (0 Bft)
16.03.2017 20:55 3,4 °C 3,5 °C 83 % 1022,0 hPa 0,0 mm 0,0 km/h (0 Bft) S-SO 155 ° 0 min 0,000 mm 0,0 UV-I 0 W/m² 0,8 °C 3,4 °C 0,0 km/h (0 Bft)
16.03.2017 20:56 3,6 °C 3,6 °C 84 % 1022,0 hPa 0,0 mm 0,0 km/h (0 Bft) S-SO 155 ° 0 min 0,000 mm 0,0 UV-I 0 W/m² 1,2 °C 3,6 °C 0,0 km/h (0 Bft)
16.03.2017 20:57 3,6 °C 3,6 °C 83 % 1022,0 hPa 0,0 mm 0,0 km/h (0 Bft) S-SO 155 ° 0 min 0,000 mm 0,0 UV-I 0 W/m² 1,0 °C 3,6 °C 0,0 km/h (0 Bft)
16.03.2017 20:58 3,7 °C 3,7 °C 83 % 1022,0 hPa 0,0 mm 0,0 km/h (0 Bft) S-SO 155 ° 0 min 0,000 mm 0,0 UV-I 0 W/m² 1,1 °C 3,7 °C 0,0 km/h (0 Bft)
16.03.2017 20:59 3,7 °C 3,7 °C 83 % 1021,9 hPa 0,0 mm 0,0 km/h (0 Bft) S-SO 155 ° 0 min 0,000 mm 0,0 UV-I 0 W/m² 1,1 °C 3,7 °C 0,0 km/h (0 Bft)
16.03.2017 21:00 3,7 °C 3,8 °C 82 % 1021,9 hPa 0,0 mm 0,0 km/h (0 Bft) S-SO 155 ° 0 min 0,000 mm 0,0 UV-I 0 W/m² 0,9 °C 3,7 °C 0,0 km/h (0 Bft)
16.03.2017 21:01 3,8 °C 3,8 °C 81 % 1022,0 hPa 0,0 mm 0,0 km/h (0 Bft) S-SO 155 ° 0 min 0,000 mm 0,0 UV-I 0 W/m² 0,8 °C 3,8 °C 0,0 km/h (0 Bft)
16.03.2017 21:02 3,7 °C 3,8 °C 80 % 1022,0 hPa 0,0 mm 0,0 km/h (0 Bft) S-SO 155 ° 0 min 0,000 mm 0,0 UV-I 0 W/m² 0,6 °C 3,7 °C 0,0 km/h (0 Bft)
16.03.2017 21:03 3,6 °C 3,7 °C 81 % 1022,0 hPa 0,0 mm 0,0 km/h (0 Bft) S-SO 155 ° 0 min 0,000 mm 0,0 UV-I 0 W/m² 0,7 °C 3,6 °C 0,0 km/h (0 Bft)
16.03.2017 21:04 3,4 °C 3,6 °C 82 % 1022,0 hPa 0,0 mm 0,0 km/h (0 Bft) S-SO 155 ° 0 min 0,000 mm 0,0 UV-I 0 W/m² 0,6 °C 3,4 °C 0,0 km/h (0 Bft)
16.03.2017 21:05 3,3 °C 3,4 °C 82 % 1022,0 hPa 0,0 mm 0,0 km/h (0 Bft) S-SO 155 ° 0 min 0,000 mm 0,0 UV-I 0 W/m² 0,5 °C 3,3 °C 0,0 km/h (0 Bft)
16.03.2017 21:06 3,4 °C 3,4 °C 83 % 1022,0 hPa 0,0 mm 0,0 km/h (0 Bft) S-SO 155 ° 0 min 0,000 mm 0,0 UV-I 0 W/m² 0,8 °C 3,4 °C 0,0 km/h (0 Bft)
16.03.2017 21:07 3,4 °C 3,4 °C 84 % 1022,0 hPa 0,0 mm 0,0 km/h (0 Bft) S-SO 155 ° 0 min 0,000 mm 0,0 UV-I 0 W/m² 1,0 °C 3,4 °C 0,0 km/h (0 Bft)
16.03.2017 21:08 3,4 °C 3,5 °C 83 % 1022,0 hPa 0,0 mm 0,0 km/h (0 Bft) S-SO 155 ° 0 min 0,000 mm 0,0 UV-I 0 W/m² 0,8 °C 3,4 °C 0,0 km/h (0 Bft)
16.03.2017 21:09 3,4 °C 3,4 °C 83 % 1022,0 hPa 0,0 mm 0,0 km/h (0 Bft) S-SO 155 ° 0 min 0,000 mm 0,0 UV-I 0 W/m² 0,8 °C 3,4 °C 0,0 km/h (0 Bft)
16.03.2017 21:10 3,5 °C 3,5 °C 83 % 1022,0 hPa 0,0 mm 0,0 km/h (0 Bft) S-SO 155 ° 0 min 0,000 mm 0,0 UV-I 0 W/m² 0,9 °C 3,5 °C 0,0 km/h (0 Bft)
16.03.2017 21:11 3,5 °C 3,6 °C 83 % 1022,0 hPa 0,0 mm 0,0 km/h (0 Bft) S-SO 155 ° 0 min 0,000 mm 0,0 UV-I 0 W/m² 0,9 °C 3,5 °C 0,0 km/h (0 Bft)
16.03.2017 21:12 3,5 °C 3,5 °C 83 % 1022,0 hPa 0,0 mm 0,0 km/h (0 Bft) S-SO 155 ° 0 min 0,000 mm 0,0 UV-I 0 W/m² 0,9 °C 3,5 °C 0,0 km/h (0 Bft)
16.03.2017 21:13 3,4 °C 3,5 °C 82 % 1022,0 hPa 0,0 mm 0,0 km/h (0 Bft) S-SO 155 ° 0 min 0,000 mm 0,0 UV-I 0 W/m² 0,6 °C 3,4 °C 0,0 km/h (0 Bft)
16.03.2017 21:14 3,4 °C 3,4 °C 83 % 1021,9 hPa 0,0 mm 0,0 km/h (0 Bft) S-SO 155 ° 0 min 0,000 mm 0,0 UV-I 0 W/m² 0,8 °C 3,4 °C 0,0 km/h (0 Bft)
16.03.2017 21:15 3,4 °C 3,4 °C 83 % 1022,0 hPa 0,0 mm 0,0 km/h (0 Bft) S-SO 155 ° 0 min 0,000 mm 0,0 UV-I 0 W/m² 0,8 °C 3,4 °C 0,0 km/h (0 Bft)
16.03.2017 21:16 3,4 °C 3,4 °C 83 % 1022,0 hPa 0,0 mm 0,0 km/h (0 Bft) S-SO 155 ° 0 min 0,000 mm 0,0 UV-I 0 W/m² 0,8 °C 3,4 °C 0,0 km/h (0 Bft)
16.03.2017 21:17 3,4 °C 3,4 °C 83 % 1022,0 hPa 0,0 mm 0,0 km/h (0 Bft) S-SO 155 ° 0 min 0,000 mm 0,0 UV-I 0 W/m² 0,8 °C 3,4 °C 0,0 km/h (0 Bft)
16.03.2017 21:18 3,4 °C 3,4 °C 84 % 1021,9 hPa 0,0 mm 0,0 km/h (0 Bft) S-SO 155 ° 0 min 0,000 mm 0,0 UV-I 0 W/m² 1,0 °C 3,4 °C 0,0 km/h (0 Bft)
16.03.2017 21:19 3,4 °C 3,4 °C 84 % 1021,9 hPa 0,0 mm 0,0 km/h (0 Bft) S-SO 155 ° 0 min 0,000 mm 0,0 UV-I 0 W/m² 1,0 °C 3,4 °C 0,0 km/h (0 Bft)
16.03.2017 21:20 3,4 °C 3,4 °C 84 % 1021,9 hPa 0,0 mm 0,0 km/h (0 Bft) S-SO 155 ° 0 min 0,000 mm 0,0 UV-I 0 W/m² 1,0 °C 3,4 °C 0,0 km/h (0 Bft)
16.03.2017 21:21 3,4 °C 3,4 °C 84 % 1021,9 hPa 0,0 mm 0,0 km/h (0 Bft) S-SO 155 ° 0 min 0,000 mm 0,0 UV-I 0 W/m² 1,0 °C 3,4 °C 0,0 km/h (0 Bft)
16.03.2017 21:22 3,3 °C 3,4 °C 84 % 1021,9 hPa 0,0 mm 0,0 km/h (0 Bft) S-SO 155 ° 0 min 0,000 mm 0,0 UV-I 0 W/m² 0,9 °C 3,3 °C 0,0 km/h (0 Bft)
16.03.2017 21:23 3,3 °C 3,3 °C 83 % 1021,9 hPa 0,0 mm 0,0 km/h (0 Bft) S-SO 155 ° 0 min 0,000 mm 0,0 UV-I 0 W/m² 0,7 °C 3,3 °C 0,0 km/h (0 Bft)
16.03.2017 21:24 3,3 °C 3,3 °C 84 % 1021,9 hPa 0,0 mm 0,0 km/h (0 Bft) S-SO 155 ° 0 min 0,000 mm 0,0 UV-I 0 W/m² 0,9 °C 3,3 °C 0,0 km/h (0 Bft)
16.03.2017 21:25 3,3 °C 3,3 °C 83 % 1021,9 hPa 0,0 mm 0,0 km/h (0 Bft) S-SO 155 ° 0 min 0,000 mm 0,0 UV-I 0 W/m² 0,7 °C 3,3 °C 0,0 km/h (0 Bft)
16.03.2017 21:26 3,3 °C 3,3 °C 83 % 1021,9 hPa 0,0 mm 0,0 km/h (0 Bft) S-SO 155 ° 0 min 0,000 mm 0,0 UV-I 0 W/m² 0,7 °C 3,3 °C 0,0 km/h (0 Bft)
16.03.2017 21:27 3,3 °C 3,3 °C 84 % 1021,9 hPa 0,0 mm 0,0 km/h (0 Bft) S-SO 155 ° 0 min 0,000 mm 0,0 UV-I 0 W/m² 0,9 °C 3,3 °C 0,0 km/h (0 Bft)
16.03.2017 21:28 3,2 °C 3,3 °C 84 % 1021,9 hPa 0,0 mm 0,0 km/h (0 Bft) S-SO 155 ° 0 min 0,000 mm 0,0 UV-I 0 W/m² 0,8 °C 3,2 °C 0,0 km/h (0 Bft)
16.03.2017 21:29 3,2 °C 3,2 °C 84 % 1021,9 hPa 0,0 mm 0,0 km/h (0 Bft) S-SO 155 ° 0 min 0,000 mm 0,0 UV-I 0 W/m² 0,8 °C 3,2 °C 0,0 km/h (0 Bft)
16.03.2017 21:30 3,2 °C 3,2 °C 84 % 1021,9 hPa 0,0 mm 0,0 km/h (0 Bft) S-SO 155 ° 0 min 0,000 mm 0,0 UV-I 0 W/m² 0,8 °C 3,2 °C 0,0 km/h (0 Bft)
16.03.2017 21:31 3,2 °C 3,2 °C 84 % 1021,8 hPa 0,0 mm 0,3 km/h (0 Bft) S-SO 155 ° 0 min 0,000 mm 0,0 UV-I 0 W/m² 0,8 °C 3,2 °C 1,6 km/h (1 Bft)
16.03.2017 21:32 3,1 °C 3,2 °C 85 % 1021,9 hPa 0,0 mm 0,1 km/h (0 Bft) S-SO 155 ° 0 min 0,000 mm 0,0 UV-I 0 W/m² 0,8 °C 3,1 °C 1,6 km/h (1 Bft)
16.03.2017 21:33 3,1 °C 3,1 °C 84 % 1021,8 hPa 0,0 mm 0,8 km/h (0 Bft) W 269 ° 0 min 0,000 mm 0,0 UV-I 0 W/m² 0,7 °C 3,1 °C 3,2 km/h (1 Bft)
16.03.2017 21:34 3,1 °C 3,1 °C 84 % 1021,8 hPa 0,0 mm 0,3 km/h (0 Bft) W 269 ° 0 min 0,000 mm 0,0 UV-I 0 W/m² 0,7 °C 3,1 °C 1,6 km/h (1 Bft)
16.03.2017 21:35 3,0 °C 3,1 °C 84 % 1021,8 hPa 0,0 mm 0,0 km/h (0 Bft) W 269 ° 0 min 0,000 mm 0,0 UV-I 0 W/m² 0,6 °C 3,0 °C 0,0 km/h (0 Bft)
16.03.2017 21:36 3,0 °C 3,1 °C 84 % 1021,8 hPa 0,0 mm 0,1 km/h (0 Bft) W 269 ° 0 min 0,000 mm 0,0 UV-I 0 W/m² 0,6 °C 3,0 °C 1,6 km/h (1 Bft)
16.03.2017 21:37 3,0 °C 3,0 °C 84 % 1021,8 hPa 0,0 mm 0,1 km/h (0 Bft) W 269 ° 0 min 0,000 mm 0,0 UV-I 0 W/m² 0,6 °C 3,0 °C 1,6 km/h (1 Bft)
16.03.2017 21:38 2,9 °C 3,0 °C 84 % 1021,8 hPa 0,0 mm 0,1 km/h (0 Bft) W 269 ° 0 min 0,000 mm 0,0 UV-I 0 W/m² 0,5 °C 2,9 °C 1,6 km/h (1 Bft)
16.03.2017 21:39 2,9 °C 2,9 °C 84 % 1021,8 hPa 0,0 mm 0,1 km/h (0 Bft) W 269 ° 0 min 0,000 mm 0,0 UV-I 0 W/m² 0,5 °C 2,9 °C 1,6 km/h (1 Bft)
16.03.2017 21:40 2,9 °C 2,9 °C 84 % 1021,8 hPa 0,0 mm 0,7 km/h (0 Bft) W 269 ° 0 min 0,000 mm 0,0 UV-I 0 W/m² 0,5 °C 2,9 °C 1,6 km/h (1 Bft)
16.03.2017 21:41 2,9 °C 2,9 °C 84 % 1021,8 hPa 0,0 mm 0,6 km/h (0 Bft) W 269 ° 0 min 0,000 mm 0,0 UV-I 0 W/m² 0,5 °C 2,9 °C 1,6 km/h (1 Bft)
16.03.2017 21:42 2,9 °C 2,9 °C 84 % 1021,8 hPa 0,0 mm 1,3 km/h (1 Bft) W 269 ° 0 min 0,000 mm 0,0 UV-I 0 W/m² 0,5 °C 2,9 °C 1,6 km/h (1 Bft)
16.03.2017 21:43 2,8 °C 2,9 °C 84 % 1021,8 hPa 0,0 mm 0,6 km/h (0 Bft) W 269 ° 0 min 0,000 mm 0,0 UV-I 0 W/m² 0,4 °C 2,8 °C 1,6 km/h (1 Bft)
16.03.2017 21:44 2,8 °C 2,8 °C 83 % 1021,8 hPa 0,0 mm 0,1 km/h (0 Bft) W 269 ° 0 min 0,000 mm 0,0 UV-I 0 W/m² 0,2 °C 2,8 °C 1,6 km/h (1 Bft)
16.03.2017 21:45 2,6 °C 2,8 °C 83 % 1021,7 hPa 0,0 mm 0,0 km/h (0 Bft) W 269 ° 0 min 0,000 mm 0,0 UV-I 0 W/m² 0,0 °C 2,6 °C 0,0 km/h (0 Bft)
16.03.2017 21:46 2,5 °C 2,6 °C 84 % 1021,7 hPa 0,0 mm 0,0 km/h (0 Bft) W 269 ° 0 min 0,000 mm 0,0 UV-I 0 W/m² 0,1 °C 2,5 °C 0,0 km/h (0 Bft)
16.03.2017 21:47 2,4 °C 2,5 °C 84 % 1021,7 hPa 0,0 mm 1,9 km/h (1 Bft) W 269 ° 0 min 0,000 mm 0,0 UV-I 0 W/m² -0,0 °C 2,4 °C 3,2 km/h (1 Bft)
16.03.2017 21:48 2,3 °C 2,4 °C 85 % 1021,7 hPa 0,0 mm 1,4 km/h (1 Bft) W 269 ° 0 min 0,000 mm 0,0 UV-I 0 W/m² 0,0 °C 2,3 °C 3,2 km/h (1 Bft)
16.03.2017 21:49 2,4 °C 2,4 °C 86 % 1021,7 hPa 0,0 mm 1,3 km/h (1 Bft) W 269 ° 0 min 0,000 mm 0,0 UV-I 0 W/m² 0,3 °C 2,4 °C 1,6 km/h (1 Bft)
16.03.2017 21:50 2,4 °C 2,4 °C 86 % 1021,7 hPa 0,0 mm 1,4 km/h (1 Bft) W 269 ° 0 min 0,000 mm 0,0 UV-I 0 W/m² 0,3 °C 2,4 °C 1,6 km/h (1 Bft)
16.03.2017 21:51 2,5 °C 2,5 °C 86 % 1021,7 hPa 0,0 mm 1,8 km/h (1 Bft) W 269 ° 0 min 0,000 mm 0,0 UV-I 0 W/m² 0,4 °C 2,5 °C 3,2 km/h (1 Bft)
16.03.2017 21:52 2,6 °C 2,6 °C 86 % 1021,7 hPa 0,0 mm 1,1 km/h (1 Bft) W 269 ° 0 min 0,000 mm 0,0 UV-I 0 W/m² 0,5 °C 2,6 °C 1,6 km/h (1 Bft)
16.03.2017 21:53 2,7 °C 2,7 °C 85 % 1021,6 hPa 0,0 mm 0,3 km/h (0 Bft) W 269 ° 0 min 0,000 mm 0,0 UV-I 0 W/m² 0,4 °C 2,7 °C 1,6 km/h (1 Bft)
16.03.2017 21:54 2,7 °C 2,7 °C 85 % 1021,6 hPa 0,0 mm 1,5 km/h (1 Bft) W 269 ° 0 min 0,000 mm 0,0 UV-I 0 W/m² 0,4 °C 2,7 °C 3,2 km/h (1 Bft)
16.03.2017 21:55 2,6 °C 2,7 °C 85 % 1021,7 hPa 0,0 mm 1,2 km/h (1 Bft) W 269 ° 0 min 0,000 mm 0,0 UV-I 0 W/m² 0,3 °C 2,6 °C 1,6 km/h (1 Bft)
16.03.2017 21:56 2,6 °C 2,7 °C 85 % 1021,7 hPa 0,0 mm 1,0 km/h (0 Bft) W 269 ° 0 min 0,000 mm 0,0 UV-I 0 W/m² 0,3 °C 2,6 °C 1,6 km/h (1 Bft)
16.03.2017 21:57 2,6 °C 2,6 °C 85 % 1021,6 hPa 0,0 mm 1,0 km/h (0 Bft) W 269 ° 0 min 0,000 mm 0,0 UV-I 0 W/m² 0,3 °C 2,6 °C 1,6 km/h (1 Bft)
16.03.2017 21:58 2,6 °C 2,6 °C 85 % 1021,6 hPa 0,0 mm 0,5 km/h (0 Bft) W 269 ° 0 min 0,000 mm 0,0 UV-I 0 W/m² 0,3 °C 2,6 °C 1,6 km/h (1 Bft)
16.03.2017 21:59 2,6 °C 2,6 °C 86 % 1021,6 hPa 0,0 mm 1,3 km/h (1 Bft) W 269 ° 0 min 0,000 mm 0,0 UV-I 0 W/m² 0,5 °C 2,6 °C 1,6 km/h (1 Bft)
16.03.2017 22:00 2,6 °C 2,6 °C 86 % 1021,6 hPa 0,0 mm 0,3 km/h (0 Bft) W 269 ° 0 min 0,000 mm 0,0 UV-I 0 W/m² 0,5 °C 2,6 °C 1,6 km/h (1 Bft)
16.03.2017 22:01 2,6 °C 2,6 °C 85 % 1021,6 hPa 0,0 mm 0,0 km/h (0 Bft) W 269 ° 0 min 0,000 mm 0,0 UV-I 0 W/m² 0,3 °C 2,6 °C 0,0 km/h (0 Bft)
16.03.2017 22:02 2,6 °C 2,6 °C 86 % 1021,6 hPa 0,0 mm 0,0 km/h (0 Bft) W 269 ° 0 min 0,000 mm 0,0 UV-I 0 W/m² 0,5 °C 2,6 °C 0,0 km/h (0 Bft)
16.03.2017 22:03 2,6 °C 2,7 °C 86 % 1021,6 hPa 0,0 mm 0,0 km/h (0 Bft) W 269 ° 0 min 0,000 mm 0,0 UV-I 0 W/m² 0,5 °C 2,6 °C 0,0 km/h (0 Bft)
16.03.2017 22:04 2,7 °C 2,7 °C 86 % 1021,5 hPa 0,0 mm 0,0 km/h (0 Bft) W 269 ° 0 min 0,000 mm 0,0 UV-I 0 W/m² 0,6 °C 2,7 °C 0,0 km/h (0 Bft)
16.03.2017 22:05 2,7 °C 2,7 °C 86 % 1021,6 hPa 0,0 mm 0,0 km/h (0 Bft) W 269 ° 0 min 0,000 mm 0,0 UV-I 0 W/m² 0,6 °C 2,7 °C 0,0 km/h (0 Bft)
16.03.2017 22:06 2,8 °C 2,8 °C 85 % 1021,6 hPa 0,0 mm 0,0 km/h (0 Bft) W 269 ° 0 min 0,000 mm 0,0 UV-I 0 W/m² 0,5 °C 2,8 °C 0,0 km/h (0 Bft)
16.03.2017 22:07 2,8 °C 2,8 °C 85 % 1021,6 hPa 0,0 mm 0,0 km/h (0 Bft) W 269 ° 0 min 0,000 mm 0,0 UV-I 0 W/m² 0,5 °C 2,8 °C 0,0 km/h (0 Bft)
16.03.2017 22:08 2,8 °C 2,9 °C 85 % 1021,5 hPa 0,0 mm 0,0 km/h (0 Bft) W 269 ° 0 min 0,000 mm 0,0 UV-I 0 W/m² 0,5 °C 2,8 °C 0,0 km/h (0 Bft)
16.03.2017 22:09 2,8 °C 2,8 °C 84 % 1021,6 hPa 0,0 mm 0,0 km/h (0 Bft) W 269 ° 0 min 0,000 mm 0,0 UV-I 0 W/m² 0,4 °C 2,8 °C 0,0 km/h (0 Bft)
16.03.2017 22:10 2,7 °C 2,8 °C 85 % 1021,6 hPa 0,0 mm 0,0 km/h (0 Bft) W 269 ° 0 min 0,000 mm 0,0 UV-I 0 W/m² 0,4 °C 2,7 °C 0,0 km/h (0 Bft)
16.03.2017 22:11 2,7 °C 2,8 °C 85 % 1021,5 hPa 0,0 mm 0,0 km/h (0 Bft) W 269 ° 0 min 0,000 mm 0,0 UV-I 0 W/m² 0,4 °C 2,7 °C 0,0 km/h (0 Bft)
16.03.2017 22:12 2,7 °C 2,7 °C 85 % 1021,6 hPa 0,0 mm 0,0 km/h (0 Bft) W 269 ° 0 min 0,000 mm 0,0 UV-I 0 W/m² 0,4 °C 2,7 °C 0,0 km/h (0 Bft)
16.03.2017 22:13 2,7 °C 2,7 °C 85 % 1021,5 hPa 0,0 mm 0,0 km/h (0 Bft) W 269 ° 0 min 0,000 mm 0,0 UV-I 0 W/m² 0,4 °C 2,7 °C 0,0 km/h (0 Bft)
16.03.2017 22:14 2,7 °C 2,7 °C 85 % 1021,5 hPa 0,0 mm 0,6 km/h (0 Bft) W 269 ° 0 min 0,000 mm 0,0 UV-I 0 W/m² 0,4 °C 2,7 °C 1,6 km/h (1 Bft)
16.03.2017 22:15 2,7 °C 2,7 °C 86 % 1021,4 hPa 0,0 mm 0,0 km/h (0 Bft) W 269 ° 0 min 0,000 mm 0,0 UV-I 0 W/m² 0,6 °C 2,7 °C 0,0 km/h (0 Bft)
16.03.2017 22:16 2,6 °C 2,7 °C 85 % 1021,4 hPa 0,0 mm 0,1 km/h (0 Bft) W 269 ° 0 min 0,000 mm 0,0 UV-I 0 W/m² 0,3 °C 2,6 °C 1,6 km/h (1 Bft)
16.03.2017 22:17 2,7 °C 2,7 °C 85 % 1021,4 hPa 0,0 mm 0,0 km/h (0 Bft) W 269 ° 0 min 0,000 mm 0,0 UV-I 0 W/m² 0,4 °C 2,7 °C 0,0 km/h (0 Bft)
16.03.2017 22:18 2,6 °C 2,7 °C 85 % 1021,4 hPa 0,0 mm 0,0 km/h (0 Bft) W 269 ° 0 min 0,000 mm 0,0 UV-I 0 W/m² 0,3 °C 2,6 °C 0,0 km/h (0 Bft)
16.03.2017 22:19 2,7 °C 2,7 °C 85 % 1021,4 hPa 0,0 mm 0,0 km/h (0 Bft) W 269 ° 0 min 0,000 mm 0,0 UV-I 0 W/m² 0,4 °C 2,7 °C 0,0 km/h (0 Bft)
16.03.2017 22:20 2,7 °C 2,7 °C 85 % 1021,4 hPa 0,0 mm 0,0 km/h (0 Bft) W 269 ° 0 min 0,000 mm 0,0 UV-I 0 W/m² 0,4 °C 2,7 °C 0,0 km/h (0 Bft)
16.03.2017 22:21 2,7 °C 2,7 °C 85 % 1021,4 hPa 0,0 mm 0,0 km/h (0 Bft) W 269 ° 0 min 0,000 mm 0,0 UV-I 0 W/m² 0,4 °C 2,7 °C 0,0 km/h (0 Bft)
16.03.2017 22:22 2,6 °C 2,7 °C 85 % 1021,4 hPa 0,0 mm 0,1 km/h (0 Bft) W 269 ° 0 min 0,000 mm 0,0 UV-I 0 W/m² 0,3 °C 2,6 °C 1,6 km/h (1 Bft)
16.03.2017 22:23 2,7 °C 2,7 °C 85 % 1021,4 hPa 0,0 mm 0,0 km/h (0 Bft) W 269 ° 0 min 0,000 mm 0,0 UV-I 0 W/m² 0,4 °C 2,7 °C 0,0 km/h (0 Bft)
16.03.2017 22:24 2,7 °C 2,7 °C 85 % 1021,4 hPa 0,0 mm 0,0 km/h (0 Bft) W 269 ° 0 min 0,000 mm 0,0 UV-I 0 W/m² 0,4 °C 2,7 °C 0,0 km/h (0 Bft)
16.03.2017 22:25 2,6 °C 2,7 °C 85 % 1021,4 hPa 0,0 mm 0,0 km/h (0 Bft) W 269 ° 0 min 0,000 mm 0,0 UV-I 0 W/m² 0,3 °C 2,6 °C 0,0 km/h (0 Bft)
16.03.2017 22:26 2,6 °C 2,6 °C 85 % 1021,4 hPa 0,0 mm 0,0 km/h (0 Bft) W 269 ° 0 min 0,000 mm 0,0 UV-I 0 W/m² 0,3 °C 2,6 °C 0,0 km/h (0 Bft)
16.03.2017 22:27 2,6 °C 2,6 °C 85 % 1021,4 hPa 0,0 mm 0,0 km/h (0 Bft) W 269 ° 0 min 0,000 mm 0,0 UV-I 0 W/m² 0,3 °C 2,6 °C 0,0 km/h (0 Bft)
16.03.2017 22:28 2,6 °C 2,6 °C 85 % 1021,3 hPa 0,0 mm 0,0 km/h (0 Bft) W 269 ° 0 min 0,000 mm 0,0 UV-I 0 W/m² 0,3 °C 2,6 °C 0,0 km/h (0 Bft)
16.03.2017 22:29 2,6 °C 2,6 °C 85 % 1021,3 hPa 0,0 mm 0,0 km/h (0 Bft) W 269 ° 0 min 0,000 mm 0,0 UV-I 0 W/m² 0,3 °C 2,6 °C 0,0 km/h (0 Bft)
16.03.2017 22:30 2,7 °C 2,7 °C 85 % 1021,4 hPa 0,0 mm 0,0 km/h (0 Bft) W 269 ° 0 min 0,000 mm 0,0 UV-I 0 W/m² 0,4 °C 2,7 °C 0,0 km/h (0 Bft)
16.03.2017 22:31 2,7 °C 2,7 °C 85 % 1021,3 hPa 0,0 mm 0,0 km/h (0 Bft) W 269 ° 0 min 0,000 mm 0,0 UV-I 0 W/m² 0,4 °C 2,7 °C 0,0 km/h (0 Bft)
16.03.2017 22:32 2,7 °C 2,7 °C 85 % 1021,3 hPa 0,0 mm 0,0 km/h (0 Bft) W 269 ° 0 min 0,000 mm 0,0 UV-I 0 W/m² 0,4 °C 2,7 °C 0,0 km/h (0 Bft)
16.03.2017 22:33 2,8 °C 2,8 °C 85 % 1021,3 hPa 0,0 mm 0,0 km/h (0 Bft) W 269 ° 0 min 0,000 mm 0,0 UV-I 0 W/m² 0,5 °C 2,8 °C 0,0 km/h (0 Bft)
16.03.2017 22:34 2,8 °C 2,8 °C 84 % 1021,3 hPa 0,0 mm 0,0 km/h (0 Bft) W 269 ° 0 min 0,000 mm 0,0 UV-I 0 W/m² 0,4 °C 2,8 °C 0,0 km/h (0 Bft)
16.03.2017 22:35 2,8 °C 2,8 °C 84 % 1021,3 hPa 0,0 mm 0,0 km/h (0 Bft) W 269 ° 0 min 0,000 mm 0,0 UV-I 0 W/m² 0,4 °C 2,8 °C 0,0 km/h (0 Bft)
16.03.2017 22:36 2,8 °C 2,8 °C 84 % 1021,3 hPa 0,0 mm 0,0 km/h (0 Bft) W 269 ° 0 min 0,000 mm 0,0 UV-I 0 W/m² 0,4 °C 2,8 °C 0,0 km/h (0 Bft)
16.03.2017 22:37 2,7 °C 2,8 °C 84 % 1021,3 hPa 0,0 mm 0,0 km/h (0 Bft) W 269 ° 0 min 0,000 mm 0,0 UV-I 0 W/m² 0,3 °C 2,7 °C 0,0 km/h (0 Bft)
16.03.2017 22:38 2,7 °C 2,7 °C 84 % 1021,3 hPa 0,0 mm 0,0 km/h (0 Bft) W 269 ° 0 min 0,000 mm 0,0 UV-I 0 W/m² 0,3 °C 2,7 °C 0,0 km/h (0 Bft)
16.03.2017 22:39 2,7 °C 2,7 °C 85 % 1021,2 hPa 0,0 mm 0,0 km/h (0 Bft) W 269 ° 0 min 0,000 mm 0,0 UV-I 0 W/m² 0,4 °C 2,7 °C 0,0 km/h (0 Bft)
16.03.2017 22:40 2,7 °C 2,7 °C 85 % 1021,2 hPa 0,0 mm 0,0 km/h (0 Bft) W 269 ° 0 min 0,000 mm 0,0 UV-I 0 W/m² 0,4 °C 2,7 °C 0,0 km/h (0 Bft)
16.03.2017 22:41 2,7 °C 2,7 °C 85 % 1021,2 hPa 0,0 mm 0,0 km/h (0 Bft) W 269 ° 0 min 0,000 mm 0,0 UV-I 0 W/m² 0,4 °C 2,7 °C 0,0 km/h (0 Bft)
16.03.2017 22:42 2,7 °C 2,7 °C 85 % 1021,3 hPa 0,0 mm 0,0 km/h (0 Bft) W 269 ° 0 min 0,000 mm 0,0 UV-I 0 W/m² 0,4 °C 2,7 °C 0,0 km/h (0 Bft)
16.03.2017 22:43 2,7 °C 2,7 °C 85 % 1021,2 hPa 0,0 mm 0,0 km/h (0 Bft) W 269 ° 0 min 0,000 mm 0,0 UV-I 0 W/m² 0,4 °C 2,7 °C 0,0 km/h (0 Bft)
16.03.2017 22:44 2,7 °C 2,7 °C 85 % 1021,3 hPa 0,0 mm 0,0 km/h (0 Bft) W 269 ° 0 min 0,000 mm 0,0 UV-I 0 W/m² 0,4 °C 2,7 °C 0,0 km/h (0 Bft)
16.03.2017 22:45 2,7 °C 2,7 °C 85 % 1021,2 hPa 0,0 mm 0,0 km/h (0 Bft) W 269 ° 0 min 0,000 mm 0,0 UV-I 0 W/m² 0,4 °C 2,7 °C 0,0 km/h (0 Bft)
16.03.2017 22:46 2,7 °C 2,7 °C 85 % 1021,3 hPa 0,0 mm 0,0 km/h (0 Bft) W 269 ° 0 min 0,000 mm 0,0 UV-I 0 W/m² 0,4 °C 2,7 °C 0,0 km/h (0 Bft)
16.03.2017 22:47 2,7 °C 2,7 °C 85 % 1021,3 hPa 0,0 mm 0,0 km/h (0 Bft) W 269 ° 0 min 0,000 mm 0,0 UV-I 0 W/m² 0,4 °C 2,7 °C 0,0 km/h (0 Bft)
16.03.2017 22:48 2,7 °C 2,7 °C 85 % 1021,2 hPa 0,0 mm 0,0 km/h (0 Bft) W 269 ° 0 min 0,000 mm 0,0 UV-I 0 W/m² 0,4 °C 2,7 °C 0,0 km/h (0 Bft)
16.03.2017 22:49 2,6 °C 2,7 °C 85 % 1021,3 hPa 0,0 mm 0,0 km/h (0 Bft) W 269 ° 0 min 0,000 mm 0,0 UV-I 0 W/m² 0,3 °C 2,6 °C 0,0 km/h (0 Bft)
16.03.2017 22:50 2,6 °C 2,6 °C 85 % 1021,2 hPa 0,0 mm 0,0 km/h (0 Bft) W 269 ° 0 min 0,000 mm 0,0 UV-I 0 W/m² 0,3 °C 2,6 °C 0,0 km/h (0 Bft)
16.03.2017 22:51 2,6 °C 2,6 °C 85 % 1021,2 hPa 0,0 mm 0,0 km/h (0 Bft) W 269 ° 0 min 0,000 mm 0,0 UV-I 0 W/m² 0,3 °C 2,6 °C 0,0 km/h (0 Bft)
16.03.2017 22:52 2,6 °C 2,6 °C 85 % 1021,2 hPa 0,0 mm 0,0 km/h (0 Bft) W 269 ° 0 min 0,000 mm 0,0 UV-I 0 W/m² 0,3 °C 2,6 °C 0,0 km/h (0 Bft)
16.03.2017 22:53 2,5 °C 2,6 °C 85 % 1021,3 hPa 0,0 mm 0,0 km/h (0 Bft) W 269 ° 0 min 0,000 mm 0,0 UV-I 0 W/m² 0,2 °C 2,5 °C 0,0 km/h (0 Bft)
16.03.2017 22:54 2,5 °C 2,5 °C 85 % 1021,3 hPa 0,0 mm 0,0 km/h (0 Bft) W 269 ° 0 min 0,000 mm 0,0 UV-I 0 W/m² 0,2 °C 2,5 °C 0,0 km/h (0 Bft)
16.03.2017 22:55 2,5 °C 2,6 °C 85 % 1021,3 hPa 0,0 mm 0,0 km/h (0 Bft) W 269 ° 0 min 0,000 mm 0,0 UV-I 0 W/m² 0,2 °C 2,5 °C 0,0 km/h (0 Bft)
16.03.2017 22:56 2,4 °C 2,5 °C 85 % 1021,2 hPa 0,0 mm 0,0 km/h (0 Bft) W 269 ° 0 min 0,000 mm 0,0 UV-I 0 W/m² 0,1 °C 2,4 °C 0,0 km/h (0 Bft)
16.03.2017 22:57 2,4 °C 2,4 °C 85 % 1021,3 hPa 0,0 mm 0,0 km/h (0 Bft) W 269 ° 0 min 0,000 mm 0,0 UV-I 0 W/m² 0,1 °C 2,4 °C 0,0 km/h (0 Bft)
16.03.2017 22:58 2,4 °C 2,4 °C 85 % 1021,2 hPa 0,0 mm 0,0 km/h (0 Bft) W 269 ° 0 min 0,000 mm 0,0 UV-I 0 W/m² 0,1 °C 2,4 °C 0,0 km/h (0 Bft)
16.03.2017 22:59 2,4 °C 2,4 °C 85 % 1021,3 hPa 0,0 mm 0,0 km/h (0 Bft) W 269 ° 0 min 0,000 mm 0,0 UV-I 0 W/m² 0,1 °C 2,4 °C 0,0 km/h (0 Bft)
16.03.2017 23:00 2,3 °C 2,4 °C 85 % 1021,3 hPa 0,0 mm 0,0 km/h (0 Bft) W 269 ° 0 min 0,000 mm 0,0 UV-I 0 W/m² 0,0 °C 2,3 °C 0,0 km/h (0 Bft)
16.03.2017 23:01 2,3 °C 2,3 °C 85 % 1021,3 hPa 0,0 mm 0,0 km/h (0 Bft) W 269 ° 0 min 0,000 mm 0,0 UV-I 0 W/m² 0,0 °C 2,3 °C 0,0 km/h (0 Bft)
16.03.2017 23:02 2,3 °C 2,3 °C 85 % 1021,3 hPa 0,0 mm 0,0 km/h (0 Bft) W 269 ° 0 min 0,000 mm 0,0 UV-I 0 W/m² 0,0 °C 2,3 °C 0,0 km/h (0 Bft)
16.03.2017 23:03 2,3 °C 2,3 °C 86 % 1021,2 hPa 0,0 mm 0,0 km/h (0 Bft) W 269 ° 0 min 0,000 mm 0,0 UV-I 0 W/m² 0,2 °C 2,3 °C 0,0 km/h (0 Bft)
16.03.2017 23:04 2,3 °C 2,3 °C 86 % 1021,2 hPa 0,0 mm 0,0 km/h (0 Bft) W 269 ° 0 min 0,000 mm 0,0 UV-I 0 W/m² 0,2 °C 2,3 °C 0,0 km/h (0 Bft)
16.03.2017 23:05 2,3 °C 2,3 °C 86 % 1021,2 hPa 0,0 mm 0,0 km/h (0 Bft) W 269 ° 0 min 0,000 mm 0,0 UV-I 0 W/m² 0,2 °C 2,3 °C 0,0 km/h (0 Bft)
16.03.2017 23:06 2,3 °C 2,3 °C 86 % 1021,2 hPa 0,0 mm 0,0 km/h (0 Bft) W 269 ° 0 min 0,000 mm 0,0 UV-I 0 W/m² 0,2 °C 2,3 °C 0,0 km/h (0 Bft)
16.03.2017 23:07 2,3 °C 2,3 °C 86 % 1021,2 hPa 0,0 mm 0,0 km/h (0 Bft) W 269 ° 0 min 0,000 mm 0,0 UV-I 0 W/m² 0,2 °C 2,3 °C 0,0 km/h (0 Bft)
16.03.2017 23:08 2,3 °C 2,3 °C 86 % 1021,2 hPa 0,0 mm 0,0 km/h (0 Bft) W 269 ° 0 min 0,000 mm 0,0 UV-I 0 W/m² 0,2 °C 2,3 °C 0,0 km/h (0 Bft)
16.03.2017 23:09 2,2 °C 2,3 °C 85 % 1021,2 hPa 0,0 mm 0,0 km/h (0 Bft) W 269 ° 0 min 0,000 mm 0,0 UV-I 0 W/m² -0,1 °C 2,2 °C 0,0 km/h (0 Bft)
16.03.2017 23:10 2,2 °C 2,3 °C 86 % 1021,2 hPa 0,0 mm 0,0 km/h (0 Bft) W 269 ° 0 min 0,000 mm 0,0 UV-I 0 W/m² 0,1 °C 2,2 °C 0,0 km/h (0 Bft)
16.03.2017 23:11 2,2 °C 2,2 °C 86 % 1021,2 hPa 0,0 mm 0,0 km/h (0 Bft) W 269 ° 0 min 0,000 mm 0,0 UV-I 0 W/m² 0,1 °C 2,2 °C 0,0 km/h (0 Bft)
16.03.2017 23:12 2,1 °C 2,2 °C 86 % 1021,2 hPa 0,0 mm 0,0 km/h (0 Bft) W 269 ° 0 min 0,000 mm 0,0 UV-I 0 W/m² 0,0 °C 2,1 °C 0,0 km/h (0 Bft)
16.03.2017 23:13 2,1 °C 2,1 °C 86 % 1021,2 hPa 0,0 mm 0,0 km/h (0 Bft) W 269 ° 0 min 0,000 mm 0,0 UV-I 0 W/m² 0,0 °C 2,1 °C 0,0 km/h (0 Bft)
16.03.2017 23:14 2,1 °C 2,1 °C 87 % 1021,2 hPa 0,0 mm 0,0 km/h (0 Bft) W 269 ° 0 min 0,000 mm 0,0 UV-I 0 W/m² 0,2 °C 2,1 °C 0,0 km/h (0 Bft)
16.03.2017 23:15 2,1 °C 2,1 °C 86 % 1021,1 hPa 0,0 mm 0,0 km/h (0 Bft) W 269 ° 0 min 0,000 mm 0,0 UV-I 0 W/m² 0,0 °C 2,1 °C 0,0 km/h (0 Bft)
16.03.2017 23:16 2,1 °C 2,1 °C 86 % 1021,1 hPa 0,0 mm 0,0 km/h (0 Bft) W 269 ° 0 min 0,000 mm 0,0 UV-I 0 W/m² 0,0 °C 2,1 °C 0,0 km/h (0 Bft)
16.03.2017 23:17 2,1 °C 2,1 °C 86 % 1021,1 hPa 0,0 mm 0,0 km/h (0 Bft) W 269 ° 0 min 0,000 mm 0,0 UV-I 0 W/m² 0,0 °C 2,1 °C 0,0 km/h (0 Bft)
16.03.2017 23:18 2,1 °C 2,1 °C 86 % 1021,1 hPa 0,0 mm 0,0 km/h (0 Bft) W 269 ° 0 min 0,000 mm 0,0 UV-I 0 W/m² 0,0 °C 2,1 °C 0,0 km/h (0 Bft)
16.03.2017 23:19 2,2 °C 2,2 °C 86 % 1021,1 hPa 0,0 mm 0,0 km/h (0 Bft) W 269 ° 0 min 0,000 mm 0,0 UV-I 0 W/m² 0,1 °C 2,2 °C 0,0 km/h (0 Bft)
16.03.2017 23:20 2,1 °C 2,2 °C 87 % 1021,1 hPa 0,0 mm 0,0 km/h (0 Bft) W 269 ° 0 min 0,000 mm 0,0 UV-I 0 W/m² 0,2 °C 2,1 °C 0,0 km/h (0 Bft)
16.03.2017 23:21 2,1 °C 2,1 °C 87 % 1021,1 hPa 0,0 mm 0,0 km/h (0 Bft) W 269 ° 0 min 0,000 mm 0,0 UV-I 0 W/m² 0,2 °C 2,1 °C 0,0 km/h (0 Bft)
16.03.2017 23:22 2,1 °C 2,1 °C 87 % 1021,0 hPa 0,0 mm 0,0 km/h (0 Bft) W 269 ° 0 min 0,000 mm 0,0 UV-I 0 W/m² 0,2 °C 2,1 °C 0,0 km/h (0 Bft)
16.03.2017 23:23 2,1 °C 2,1 °C 87 % 1021,1 hPa 0,0 mm 0,0 km/h (0 Bft) W 269 ° 0 min 0,000 mm 0,0 UV-I 0 W/m² 0,2 °C 2,1 °C 0,0 km/h (0 Bft)
16.03.2017 23:24 2,1 °C 2,1 °C 87 % 1021,0 hPa 0,0 mm 0,0 km/h (0 Bft) W 269 ° 0 min 0,000 mm 0,0 UV-I 0 W/m² 0,2 °C 2,1 °C 0,0 km/h (0 Bft)
16.03.2017 23:25 2,1 °C 2,1 °C 87 % 1021,0 hPa 0,0 mm 0,0 km/h (0 Bft) W 269 ° 0 min 0,000 mm 0,0 UV-I 0 W/m² 0,2 °C 2,1 °C 0,0 km/h (0 Bft)
16.03.2017 23:26 2,1 °C 2,1 °C 86 % 1021,0 hPa 0,0 mm 0,0 km/h (0 Bft) W 269 ° 0 min 0,000 mm 0,0 UV-I 0 W/m² 0,0 °C 2,1 °C 0,0 km/h (0 Bft)
16.03.2017 23:27 2,1 °C 2,1 °C 87 % 1021,0 hPa 0,0 mm 0,0 km/h (0 Bft) W 269 ° 0 min 0,000 mm 0,0 UV-I 0 W/m² 0,2 °C 2,1 °C 0,0 km/h (0 Bft)
16.03.2017 23:28 2,1 °C 2,1 °C 87 % 1021,0 hPa 0,0 mm 0,0 km/h (0 Bft) W 269 ° 0 min 0,000 mm 0,0 UV-I 0 W/m² 0,2 °C 2,1 °C 0,0 km/h (0 Bft)
16.03.2017 23:29 2,1 °C 2,1 °C 87 % 1021,0 hPa 0,0 mm 0,0 km/h (0 Bft) W 269 ° 0 min 0,000 mm 0,0 UV-I 0 W/m² 0,2 °C 2,1 °C 0,0 km/h (0 Bft)
16.03.2017 23:30 2,0 °C 2,1 °C 87 % 1021,0 hPa 0,0 mm 0,0 km/h (0 Bft) W 269 ° 0 min 0,000 mm 0,0 UV-I 0 W/m² 0,1 °C 2,0 °C 0,0 km/h (0 Bft)
16.03.2017 23:31 2,1 °C 2,1 °C 87 % 1021,0 hPa 0,0 mm 0,0 km/h (0 Bft) W 269 ° 0 min 0,000 mm 0,0 UV-I 0 W/m² 0,2 °C 2,1 °C 0,0 km/h (0 Bft)
16.03.2017 23:32 2,1 °C 2,1 °C 87 % 1020,9 hPa 0,0 mm 0,0 km/h (0 Bft) W 269 ° 0 min 0,000 mm 0,0 UV-I 0 W/m² 0,2 °C 2,1 °C 0,0 km/h (0 Bft)
16.03.2017 23:33 2,2 °C 2,2 °C 87 % 1020,9 hPa 0,0 mm 0,0 km/h (0 Bft) W 269 ° 0 min 0,000 mm 0,0 UV-I 0 W/m² 0,3 °C 2,2 °C 0,0 km/h (0 Bft)
16.03.2017 23:34 2,2 °C 2,2 °C 87 % 1020,9 hPa 0,0 mm 0,0 km/h (0 Bft) W 269 ° 0 min 0,000 mm 0,0 UV-I 0 W/m² 0,3 °C 2,2 °C 0,0 km/h (0 Bft)
16.03.2017 23:35 2,3 °C 2,3 °C 87 % 1020,9 hPa 0,0 mm 0,0 km/h (0 Bft) W 269 ° 0 min 0,000 mm 0,0 UV-I 0 W/m² 0,4 °C 2,3 °C 0,0 km/h (0 Bft)
16.03.2017 23:36 2,3 °C 2,3 °C 86 % 1020,9 hPa 0,0 mm 0,0 km/h (0 Bft) W 269 ° 0 min 0,000 mm 0,0 UV-I 0 W/m² 0,2 °C 2,3 °C 0,0 km/h (0 Bft)
16.03.2017 23:37 2,3 °C 2,3 °C 86 % 1020,9 hPa 0,0 mm 0,0 km/h (0 Bft) W 269 ° 0 min 0,000 mm 0,0 UV-I 0 W/m² 0,2 °C 2,3 °C 0,0 km/h (0 Bft)
16.03.2017 23:38 2,3 °C 2,3 °C 86 % 1020,9 hPa 0,0 mm 0,0 km/h (0 Bft) W 269 ° 0 min 0,000 mm 0,0 UV-I 0 W/m² 0,2 °C 2,3 °C 0,0 km/h (0 Bft)
16.03.2017 23:39 2,2 °C 2,3 °C 86 % 1020,9 hPa 0,0 mm 0,0 km/h (0 Bft) W 269 ° 0 min 0,000 mm 0,0 UV-I 0 W/m² 0,1 °C 2,2 °C 0,0 km/h (0 Bft)
16.03.2017 23:40 2,2 °C 2,3 °C 86 % 1020,9 hPa 0,0 mm 0,0 km/h (0 Bft) W 269 ° 0 min 0,000 mm 0,0 UV-I 0 W/m² 0,1 °C 2,2 °C 0,0 km/h (0 Bft)
16.03.2017 23:41 2,2 °C 2,2 °C 86 % 1021,0 hPa 0,0 mm 1,3 km/h (1 Bft) W 269 ° 0 min 0,000 mm 0,0 UV-I 0 W/m² 0,1 °C 2,2 °C 3,2 km/h (1 Bft)
16.03.2017 23:42 2,1 °C 2,2 °C 86 % 1020,9 hPa 0,0 mm 0,7 km/h (0 Bft) W 269 ° 0 min 0,000 mm 0,0 UV-I 0 W/m² 0,0 °C 2,1 °C 3,2 km/h (1 Bft)
16.03.2017 23:43 2,1 °C 2,1 °C 86 % 1020,9 hPa 0,0 mm 0,2 km/h (0 Bft) W 269 ° 0 min 0,000 mm 0,0 UV-I 0 W/m² 0,0 °C 2,1 °C 1,6 km/h (1 Bft)
16.03.2017 23:44 2,1 °C 2,1 °C 86 % 1020,9 hPa 0,0 mm 0,3 km/h (0 Bft) W 269 ° 0 min 0,000 mm 0,0 UV-I 0 W/m² 0,0 °C 2,1 °C 1,6 km/h (1 Bft)
16.03.2017 23:45 2,2 °C 2,2 °C 86 % 1020,9 hPa 0,0 mm 0,3 km/h (0 Bft) W 269 ° 0 min 0,000 mm 0,0 UV-I 0 W/m² 0,1 °C 2,2 °C 1,6 km/h (1 Bft)
16.03.2017 23:46 2,3 °C 2,3 °C 86 % 1020,9 hPa 0,0 mm 0,0 km/h (0 Bft) W 269 ° 0 min 0,000 mm 0,0 UV-I 0 W/m² 0,2 °C 2,3 °C 0,0 km/h (0 Bft)
16.03.2017 23:47 2,2 °C 2,3 °C 86 % 1020,9 hPa 0,0 mm 0,0 km/h (0 Bft) W 269 ° 0 min 0,000 mm 0,0 UV-I 0 W/m² 0,1 °C 2,2 °C 0,0 km/h (0 Bft)
16.03.2017 23:48 2,2 °C 2,3 °C 85 % 1020,9 hPa 0,0 mm 0,0 km/h (0 Bft) W 269 ° 0 min 0,000 mm 0,0 UV-I 0 W/m² -0,1 °C 2,2 °C 0,0 km/h (0 Bft)
16.03.2017 23:49 2,2 °C 2,2 °C 84 % 1020,9 hPa 0,0 mm 0,0 km/h (0 Bft) W 269 ° 0 min 0,000 mm 0,0 UV-I 0 W/m² -0,2 °C 2,2 °C 0,0 km/h (0 Bft)
16.03.2017 23:50 2,2 °C 2,2 °C 85 % 1020,9 hPa 0,0 mm 1,3 km/h (1 Bft) W 269 ° 0 min 0,000 mm 0,0 UV-I 0 W/m² -0,1 °C 2,2 °C 3,2 km/h (1 Bft)
16.03.2017 23:51 2,2 °C 2,2 °C 86 % 1020,9 hPa 0,0 mm 0,3 km/h (0 Bft) W 269 ° 0 min 0,000 mm 0,0 UV-I 0 W/m² 0,1 °C 2,2 °C 1,6 km/h (1 Bft)
16.03.2017 23:52 2,2 °C 2,2 °C 86 % 1020,9 hPa 0,0 mm 0,0 km/h (0 Bft) W 269 ° 0 min 0,000 mm 0,0 UV-I 0 W/m² 0,1 °C 2,2 °C 0,0 km/h (0 Bft)
16.03.2017 23:53 2,2 °C 2,2 °C 86 % 1020,8 hPa 0,0 mm 0,0 km/h (0 Bft) W 269 ° 0 min 0,000 mm 0,0 UV-I 0 W/m² 0,1 °C 2,2 °C 0,0 km/h (0 Bft)
16.03.2017 23:54 2,2 °C 2,2 °C 86 % 1020,8 hPa 0,0 mm 0,1 km/h (0 Bft) W 269 ° 0 min 0,000 mm 0,0 UV-I 0 W/m² 0,1 °C 2,2 °C 1,6 km/h (1 Bft)
16.03.2017 23:55 2,2 °C 2,2 °C 86 % 1020,9 hPa 0,0 mm 0,1 km/h (0 Bft) W 269 ° 0 min 0,000 mm 0,0 UV-I 0 W/m² 0,1 °C 2,2 °C 1,6 km/h (1 Bft)
16.03.2017 23:56 2,2 °C 2,2 °C 86 % 1020,9 hPa 0,0 mm 0,0 km/h (0 Bft) W 269 ° 0 min 0,000 mm 0,0 UV-I 0 W/m² 0,1 °C 2,2 °C 0,0 km/h (0 Bft)
16.03.2017 23:57 2,2 °C 2,2 °C 86 % 1020,9 hPa 0,0 mm 0,0 km/h (0 Bft) W 269 ° 0 min 0,000 mm 0,0 UV-I 0 W/m² 0,1 °C 2,2 °C 0,0 km/h (0 Bft)
16.03.2017 23:58 2,3 °C 2,3 °C 87 % 1020,9 hPa 0,0 mm 0,0 km/h (0 Bft) W 269 ° 0 min 0,000 mm 0,0 UV-I 0 W/m² 0,4 °C 2,3 °C 0,0 km/h (0 Bft)
16.03.2017 23:59 2,3 °C 2,3 °C 86 % 1020,9 hPa 0,0 mm 0,0 km/h (0 Bft) W 269 ° 0 min 0,000 mm 0,0 UV-I 0 W/m² 0,2 °C 2,3 °C 0,0 km/h (0 Bft)
_ Min-Zeit 07:00 07:02 16:48 23:54 - 23:59 - - - - - - 07:00 07:00 23:59
Minimum _ -2,0 °C -1,9 °C 41 % 1020,8 hPa - 0,0 km/h (0 Bft) - - - - - - -2,8 °C -2,0 °C 0,0 km/h (0 Bft)
_ Max-Zeit 15:33 15:33 07:39 00:08 23:59 13:37 - - 16:23 14:00 12:38 12:38 12:50 15:33 14:36
Maximum _ 13,7 °C 13,7 °C 95 % 1029,4 hPa 0,0 mm 13,9 km/h
O-NO (3 Bft)
- - 1 min 0,331 mm 4,0 UV-I 668 W/m² 4,7 °C 13,6 °C 17,7 km/h
O-NO (3 Bft)
Durchschnitt _ 5,1 °C 5,2 °C 76 % 1024,8 hPa #0,0 mm 2,2 km/h (1 Bft) O-NO - #7:07 h #2,083 mm 2,4 UV-I 164 W/m² 0,7 °C 5,1 °C 3,5 km/h (1 Bft)